<?xml version="1.0" encoding="UTF-8" standalone="no" ?>
<gpx xmlns="http://www.topografix.com/GPX/1/1" xmlns:xsi="http://www.w3.org/2001/XMLSchema-instance" xsi:schemaLocation="http://www.topografix.com/GPX/1/1 http://www.topografix.com/GPX/1/1/gpx.xsd" version="1.1" creator="VisuGPX - https://www.visugpx.com">
  <metadata>
    <name>SO-NE-St Léger les Vignes St Pazanne St Lumine de Coutais St Philibert Chevrolière Point St Martin Les Couets</name>
    <desc><![CDATA[SO-NE-St Léger les Vignes St Pazanne St Lumine de Coutais St Philibert Chevrolière Point St Martin Les Couets]]></desc>
  </metadata>
  <trk>
    <name><![CDATA[2022-04-10 11:41 GMT+2]]></name>
    <trkseg>
      <trkpt lat="47.16778" lon="-1.62659">
        <ele>66</ele>
        <time>2022-04-10T09:41:11Z</time>
      </trkpt>
      <trkpt lat="47.16776" lon="-1.62649">
        <ele>65</ele>
        <time>2022-04-10T09:43:12Z</time>
      </trkpt>
      <trkpt lat="47.16775" lon="-1.6265">
        <ele>67</ele>
        <time>2022-04-10T09:45:13Z</time>
      </trkpt>
      <trkpt lat="47.16784" lon="-1.62658">
        <ele>73</ele>
        <time>2022-04-10T09:46:07Z</time>
      </trkpt>
      <trkpt lat="47.16779" lon="-1.62672">
        <ele>72</ele>
        <time>2022-04-10T09:46:10Z</time>
      </trkpt>
      <trkpt lat="47.16766" lon="-1.62677">
        <ele>70</ele>
        <time>2022-04-10T09:46:13Z</time>
      </trkpt>
      <trkpt lat="47.16757" lon="-1.62672">
        <ele>71</ele>
        <time>2022-04-10T09:46:15Z</time>
      </trkpt>
      <trkpt lat="47.16748" lon="-1.62674">
        <ele>70</ele>
        <time>2022-04-10T09:46:17Z</time>
      </trkpt>
      <trkpt lat="47.16738" lon="-1.62681">
        <ele>71</ele>
        <time>2022-04-10T09:46:19Z</time>
      </trkpt>
      <trkpt lat="47.16727" lon="-1.62688">
        <ele>71</ele>
        <time>2022-04-10T09:46:21Z</time>
      </trkpt>
      <trkpt lat="47.16719" lon="-1.62699">
        <ele>71</ele>
        <time>2022-04-10T09:46:23Z</time>
      </trkpt>
      <trkpt lat="47.16724" lon="-1.62716">
        <ele>70</ele>
        <time>2022-04-10T09:46:25Z</time>
      </trkpt>
      <trkpt lat="47.16732" lon="-1.6273">
        <ele>71</ele>
        <time>2022-04-10T09:46:27Z</time>
      </trkpt>
      <trkpt lat="47.1674" lon="-1.62744">
        <ele>70</ele>
        <time>2022-04-10T09:46:29Z</time>
      </trkpt>
      <trkpt lat="47.1675" lon="-1.62757">
        <ele>70</ele>
        <time>2022-04-10T09:46:31Z</time>
      </trkpt>
      <trkpt lat="47.1676" lon="-1.62768">
        <ele>70</ele>
        <time>2022-04-10T09:46:33Z</time>
      </trkpt>
      <trkpt lat="47.16772" lon="-1.62779">
        <ele>69</ele>
        <time>2022-04-10T09:46:35Z</time>
      </trkpt>
      <trkpt lat="47.16783" lon="-1.6279">
        <ele>69</ele>
        <time>2022-04-10T09:46:37Z</time>
      </trkpt>
      <trkpt lat="47.16795" lon="-1.628">
        <ele>70</ele>
        <time>2022-04-10T09:46:39Z</time>
      </trkpt>
      <trkpt lat="47.16806" lon="-1.6281">
        <ele>70</ele>
        <time>2022-04-10T09:46:41Z</time>
      </trkpt>
      <trkpt lat="47.16817" lon="-1.6282">
        <ele>70</ele>
        <time>2022-04-10T09:46:43Z</time>
      </trkpt>
      <trkpt lat="47.16827" lon="-1.6283">
        <ele>70</ele>
        <time>2022-04-10T09:46:45Z</time>
      </trkpt>
      <trkpt lat="47.16837" lon="-1.6284">
        <ele>71</ele>
        <time>2022-04-10T09:46:47Z</time>
      </trkpt>
      <trkpt lat="47.16847" lon="-1.6285">
        <ele>71</ele>
        <time>2022-04-10T09:46:49Z</time>
      </trkpt>
      <trkpt lat="47.16857" lon="-1.6286">
        <ele>71</ele>
        <time>2022-04-10T09:46:51Z</time>
      </trkpt>
      <trkpt lat="47.16866" lon="-1.6287">
        <ele>72</ele>
        <time>2022-04-10T09:46:53Z</time>
      </trkpt>
      <trkpt lat="47.16875" lon="-1.62882">
        <ele>73</ele>
        <time>2022-04-10T09:46:55Z</time>
      </trkpt>
      <trkpt lat="47.16882" lon="-1.62896">
        <ele>73</ele>
        <time>2022-04-10T09:46:57Z</time>
      </trkpt>
      <trkpt lat="47.16887" lon="-1.62912">
        <ele>73</ele>
        <time>2022-04-10T09:46:59Z</time>
      </trkpt>
      <trkpt lat="47.16891" lon="-1.62928">
        <ele>73</ele>
        <time>2022-04-10T09:47:01Z</time>
      </trkpt>
      <trkpt lat="47.16892" lon="-1.62945">
        <ele>73</ele>
        <time>2022-04-10T09:47:03Z</time>
      </trkpt>
      <trkpt lat="47.16894" lon="-1.62963">
        <ele>73</ele>
        <time>2022-04-10T09:47:05Z</time>
      </trkpt>
      <trkpt lat="47.16894" lon="-1.62981">
        <ele>73</ele>
        <time>2022-04-10T09:47:07Z</time>
      </trkpt>
      <trkpt lat="47.16892" lon="-1.62999">
        <ele>73</ele>
        <time>2022-04-10T09:47:09Z</time>
      </trkpt>
      <trkpt lat="47.1689" lon="-1.63017">
        <ele>74</ele>
        <time>2022-04-10T09:47:11Z</time>
      </trkpt>
      <trkpt lat="47.16889" lon="-1.63035">
        <ele>74</ele>
        <time>2022-04-10T09:47:13Z</time>
      </trkpt>
      <trkpt lat="47.16889" lon="-1.63053">
        <ele>74</ele>
        <time>2022-04-10T09:47:15Z</time>
      </trkpt>
      <trkpt lat="47.1689" lon="-1.6307">
        <ele>74</ele>
        <time>2022-04-10T09:47:17Z</time>
      </trkpt>
      <trkpt lat="47.16893" lon="-1.63087">
        <ele>75</ele>
        <time>2022-04-10T09:47:19Z</time>
      </trkpt>
      <trkpt lat="47.16896" lon="-1.63104">
        <ele>75</ele>
        <time>2022-04-10T09:47:21Z</time>
      </trkpt>
      <trkpt lat="47.169" lon="-1.63121">
        <ele>75</ele>
        <time>2022-04-10T09:47:23Z</time>
      </trkpt>
      <trkpt lat="47.16905" lon="-1.63137">
        <ele>76</ele>
        <time>2022-04-10T09:47:25Z</time>
      </trkpt>
      <trkpt lat="47.16911" lon="-1.63153">
        <ele>76</ele>
        <time>2022-04-10T09:47:27Z</time>
      </trkpt>
      <trkpt lat="47.16917" lon="-1.63168">
        <ele>76</ele>
        <time>2022-04-10T09:47:29Z</time>
      </trkpt>
      <trkpt lat="47.16924" lon="-1.63183">
        <ele>76</ele>
        <time>2022-04-10T09:47:31Z</time>
      </trkpt>
      <trkpt lat="47.16931" lon="-1.63197">
        <ele>76</ele>
        <time>2022-04-10T09:47:33Z</time>
      </trkpt>
      <trkpt lat="47.1694" lon="-1.6321">
        <ele>76</ele>
        <time>2022-04-10T09:47:35Z</time>
      </trkpt>
      <trkpt lat="47.16948" lon="-1.63223">
        <ele>76</ele>
        <time>2022-04-10T09:47:37Z</time>
      </trkpt>
      <trkpt lat="47.16957" lon="-1.63234">
        <ele>76</ele>
        <time>2022-04-10T09:47:39Z</time>
      </trkpt>
      <trkpt lat="47.16965" lon="-1.63245">
        <ele>76</ele>
        <time>2022-04-10T09:47:41Z</time>
      </trkpt>
      <trkpt lat="47.16968" lon="-1.6326">
        <ele>76</ele>
        <time>2022-04-10T09:47:44Z</time>
      </trkpt>
      <trkpt lat="47.16961" lon="-1.63274">
        <ele>76</ele>
        <time>2022-04-10T09:47:46Z</time>
      </trkpt>
      <trkpt lat="47.16953" lon="-1.63288">
        <ele>77</ele>
        <time>2022-04-10T09:47:48Z</time>
      </trkpt>
      <trkpt lat="47.16944" lon="-1.63303">
        <ele>76</ele>
        <time>2022-04-10T09:47:50Z</time>
      </trkpt>
      <trkpt lat="47.16934" lon="-1.63317">
        <ele>76</ele>
        <time>2022-04-10T09:47:52Z</time>
      </trkpt>
      <trkpt lat="47.16925" lon="-1.6333">
        <ele>76</ele>
        <time>2022-04-10T09:47:54Z</time>
      </trkpt>
      <trkpt lat="47.16915" lon="-1.63343">
        <ele>76</ele>
        <time>2022-04-10T09:47:56Z</time>
      </trkpt>
      <trkpt lat="47.16906" lon="-1.63356">
        <ele>76</ele>
        <time>2022-04-10T09:47:58Z</time>
      </trkpt>
      <trkpt lat="47.16897" lon="-1.6337">
        <ele>76</ele>
        <time>2022-04-10T09:48:00Z</time>
      </trkpt>
      <trkpt lat="47.16889" lon="-1.63383">
        <ele>76</ele>
        <time>2022-04-10T09:48:02Z</time>
      </trkpt>
      <trkpt lat="47.1688" lon="-1.63397">
        <ele>76</ele>
        <time>2022-04-10T09:48:04Z</time>
      </trkpt>
      <trkpt lat="47.16872" lon="-1.63411">
        <ele>76</ele>
        <time>2022-04-10T09:48:06Z</time>
      </trkpt>
      <trkpt lat="47.16864" lon="-1.63425">
        <ele>77</ele>
        <time>2022-04-10T09:48:08Z</time>
      </trkpt>
      <trkpt lat="47.16857" lon="-1.63439">
        <ele>77</ele>
        <time>2022-04-10T09:48:10Z</time>
      </trkpt>
      <trkpt lat="47.16849" lon="-1.63452">
        <ele>77</ele>
        <time>2022-04-10T09:48:12Z</time>
      </trkpt>
      <trkpt lat="47.16841" lon="-1.63466">
        <ele>77</ele>
        <time>2022-04-10T09:48:14Z</time>
      </trkpt>
      <trkpt lat="47.16833" lon="-1.63479">
        <ele>77</ele>
        <time>2022-04-10T09:48:16Z</time>
      </trkpt>
      <trkpt lat="47.16825" lon="-1.63493">
        <ele>78</ele>
        <time>2022-04-10T09:48:18Z</time>
      </trkpt>
      <trkpt lat="47.16818" lon="-1.63507">
        <ele>77</ele>
        <time>2022-04-10T09:48:20Z</time>
      </trkpt>
      <trkpt lat="47.16809" lon="-1.63521">
        <ele>77</ele>
        <time>2022-04-10T09:48:22Z</time>
      </trkpt>
      <trkpt lat="47.16802" lon="-1.63535">
        <ele>77</ele>
        <time>2022-04-10T09:48:24Z</time>
      </trkpt>
      <trkpt lat="47.16793" lon="-1.63548">
        <ele>77</ele>
        <time>2022-04-10T09:48:26Z</time>
      </trkpt>
      <trkpt lat="47.16785" lon="-1.63561">
        <ele>77</ele>
        <time>2022-04-10T09:48:28Z</time>
      </trkpt>
      <trkpt lat="47.16777" lon="-1.63575">
        <ele>77</ele>
        <time>2022-04-10T09:48:30Z</time>
      </trkpt>
      <trkpt lat="47.1677" lon="-1.63587">
        <ele>77</ele>
        <time>2022-04-10T09:48:32Z</time>
      </trkpt>
      <trkpt lat="47.16762" lon="-1.636">
        <ele>77</ele>
        <time>2022-04-10T09:48:34Z</time>
      </trkpt>
      <trkpt lat="47.16755" lon="-1.63613">
        <ele>77</ele>
        <time>2022-04-10T09:48:36Z</time>
      </trkpt>
      <trkpt lat="47.16747" lon="-1.63626">
        <ele>77</ele>
        <time>2022-04-10T09:48:38Z</time>
      </trkpt>
      <trkpt lat="47.16747" lon="-1.63642">
        <ele>76</ele>
        <time>2022-04-10T09:48:40Z</time>
      </trkpt>
      <trkpt lat="47.16759" lon="-1.63649">
        <ele>76</ele>
        <time>2022-04-10T09:48:42Z</time>
      </trkpt>
      <trkpt lat="47.16772" lon="-1.63652">
        <ele>76</ele>
        <time>2022-04-10T09:48:44Z</time>
      </trkpt>
      <trkpt lat="47.16784" lon="-1.63656">
        <ele>76</ele>
        <time>2022-04-10T09:48:46Z</time>
      </trkpt>
      <trkpt lat="47.16796" lon="-1.63661">
        <ele>76</ele>
        <time>2022-04-10T09:48:48Z</time>
      </trkpt>
      <trkpt lat="47.16809" lon="-1.63665">
        <ele>76</ele>
        <time>2022-04-10T09:48:50Z</time>
      </trkpt>
      <trkpt lat="47.16821" lon="-1.6367">
        <ele>76</ele>
        <time>2022-04-10T09:48:52Z</time>
      </trkpt>
      <trkpt lat="47.16834" lon="-1.63674">
        <ele>76</ele>
        <time>2022-04-10T09:48:54Z</time>
      </trkpt>
      <trkpt lat="47.16847" lon="-1.63679">
        <ele>76</ele>
        <time>2022-04-10T09:48:56Z</time>
      </trkpt>
      <trkpt lat="47.1686" lon="-1.63684">
        <ele>76</ele>
        <time>2022-04-10T09:48:58Z</time>
      </trkpt>
      <trkpt lat="47.16874" lon="-1.63689">
        <ele>76</ele>
        <time>2022-04-10T09:49:00Z</time>
      </trkpt>
      <trkpt lat="47.16887" lon="-1.63694">
        <ele>77</ele>
        <time>2022-04-10T09:49:02Z</time>
      </trkpt>
      <trkpt lat="47.169" lon="-1.63698">
        <ele>77</ele>
        <time>2022-04-10T09:49:04Z</time>
      </trkpt>
      <trkpt lat="47.16913" lon="-1.63704">
        <ele>77</ele>
        <time>2022-04-10T09:49:06Z</time>
      </trkpt>
      <trkpt lat="47.16926" lon="-1.63709">
        <ele>77</ele>
        <time>2022-04-10T09:49:08Z</time>
      </trkpt>
      <trkpt lat="47.1694" lon="-1.63714">
        <ele>77</ele>
        <time>2022-04-10T09:49:10Z</time>
      </trkpt>
      <trkpt lat="47.16953" lon="-1.6372">
        <ele>77</ele>
        <time>2022-04-10T09:49:12Z</time>
      </trkpt>
      <trkpt lat="47.16966" lon="-1.63725">
        <ele>77</ele>
        <time>2022-04-10T09:49:14Z</time>
      </trkpt>
      <trkpt lat="47.16979" lon="-1.63729">
        <ele>77</ele>
        <time>2022-04-10T09:49:16Z</time>
      </trkpt>
      <trkpt lat="47.16992" lon="-1.63734">
        <ele>77</ele>
        <time>2022-04-10T09:49:18Z</time>
      </trkpt>
      <trkpt lat="47.17006" lon="-1.63739">
        <ele>77</ele>
        <time>2022-04-10T09:49:20Z</time>
      </trkpt>
      <trkpt lat="47.17019" lon="-1.63744">
        <ele>77</ele>
        <time>2022-04-10T09:49:22Z</time>
      </trkpt>
      <trkpt lat="47.17032" lon="-1.63749">
        <ele>77</ele>
        <time>2022-04-10T09:49:24Z</time>
      </trkpt>
      <trkpt lat="47.17045" lon="-1.63756">
        <ele>77</ele>
        <time>2022-04-10T09:49:26Z</time>
      </trkpt>
      <trkpt lat="47.17057" lon="-1.63766">
        <ele>76</ele>
        <time>2022-04-10T09:49:28Z</time>
      </trkpt>
      <trkpt lat="47.17066" lon="-1.63781">
        <ele>77</ele>
        <time>2022-04-10T09:49:30Z</time>
      </trkpt>
      <trkpt lat="47.17073" lon="-1.63799">
        <ele>77</ele>
        <time>2022-04-10T09:49:32Z</time>
      </trkpt>
      <trkpt lat="47.17079" lon="-1.63817">
        <ele>77</ele>
        <time>2022-04-10T09:49:34Z</time>
      </trkpt>
      <trkpt lat="47.17085" lon="-1.63834">
        <ele>77</ele>
        <time>2022-04-10T09:49:36Z</time>
      </trkpt>
      <trkpt lat="47.1709" lon="-1.63851">
        <ele>76</ele>
        <time>2022-04-10T09:49:38Z</time>
      </trkpt>
      <trkpt lat="47.17097" lon="-1.63869">
        <ele>76</ele>
        <time>2022-04-10T09:49:40Z</time>
      </trkpt>
      <trkpt lat="47.17104" lon="-1.63886">
        <ele>76</ele>
        <time>2022-04-10T09:49:42Z</time>
      </trkpt>
      <trkpt lat="47.1711" lon="-1.63903">
        <ele>75</ele>
        <time>2022-04-10T09:49:44Z</time>
      </trkpt>
      <trkpt lat="47.17115" lon="-1.63919">
        <ele>75</ele>
        <time>2022-04-10T09:49:46Z</time>
      </trkpt>
      <trkpt lat="47.17122" lon="-1.63933">
        <ele>75</ele>
        <time>2022-04-10T09:49:48Z</time>
      </trkpt>
      <trkpt lat="47.17131" lon="-1.63941">
        <ele>75</ele>
        <time>2022-04-10T09:49:50Z</time>
      </trkpt>
      <trkpt lat="47.17138" lon="-1.63949">
        <ele>76</ele>
        <time>2022-04-10T09:49:52Z</time>
      </trkpt>
      <trkpt lat="47.17141" lon="-1.63964">
        <ele>76</ele>
        <time>2022-04-10T09:49:54Z</time>
      </trkpt>
      <trkpt lat="47.17141" lon="-1.63984">
        <ele>76</ele>
        <time>2022-04-10T09:49:56Z</time>
      </trkpt>
      <trkpt lat="47.17139" lon="-1.64003">
        <ele>76</ele>
        <time>2022-04-10T09:49:58Z</time>
      </trkpt>
      <trkpt lat="47.17137" lon="-1.64022">
        <ele>76</ele>
        <time>2022-04-10T09:50:00Z</time>
      </trkpt>
      <trkpt lat="47.17135" lon="-1.64042">
        <ele>76</ele>
        <time>2022-04-10T09:50:02Z</time>
      </trkpt>
      <trkpt lat="47.17134" lon="-1.64062">
        <ele>76</ele>
        <time>2022-04-10T09:50:04Z</time>
      </trkpt>
      <trkpt lat="47.17131" lon="-1.64082">
        <ele>76</ele>
        <time>2022-04-10T09:50:06Z</time>
      </trkpt>
      <trkpt lat="47.17129" lon="-1.64102">
        <ele>76</ele>
        <time>2022-04-10T09:50:08Z</time>
      </trkpt>
      <trkpt lat="47.17127" lon="-1.64121">
        <ele>76</ele>
        <time>2022-04-10T09:50:10Z</time>
      </trkpt>
      <trkpt lat="47.17125" lon="-1.64141">
        <ele>77</ele>
        <time>2022-04-10T09:50:12Z</time>
      </trkpt>
      <trkpt lat="47.17122" lon="-1.6416">
        <ele>77</ele>
        <time>2022-04-10T09:50:14Z</time>
      </trkpt>
      <trkpt lat="47.17121" lon="-1.6418">
        <ele>77</ele>
        <time>2022-04-10T09:50:16Z</time>
      </trkpt>
      <trkpt lat="47.17118" lon="-1.642">
        <ele>76</ele>
        <time>2022-04-10T09:50:18Z</time>
      </trkpt>
      <trkpt lat="47.17116" lon="-1.6422">
        <ele>77</ele>
        <time>2022-04-10T09:50:20Z</time>
      </trkpt>
      <trkpt lat="47.17114" lon="-1.64241">
        <ele>77</ele>
        <time>2022-04-10T09:50:22Z</time>
      </trkpt>
      <trkpt lat="47.17112" lon="-1.64261">
        <ele>77</ele>
        <time>2022-04-10T09:50:24Z</time>
      </trkpt>
      <trkpt lat="47.17109" lon="-1.64281">
        <ele>77</ele>
        <time>2022-04-10T09:50:26Z</time>
      </trkpt>
      <trkpt lat="47.17107" lon="-1.64302">
        <ele>77</ele>
        <time>2022-04-10T09:50:28Z</time>
      </trkpt>
      <trkpt lat="47.17105" lon="-1.64322">
        <ele>77</ele>
        <time>2022-04-10T09:50:30Z</time>
      </trkpt>
      <trkpt lat="47.17103" lon="-1.64343">
        <ele>77</ele>
        <time>2022-04-10T09:50:32Z</time>
      </trkpt>
      <trkpt lat="47.17101" lon="-1.64363">
        <ele>77</ele>
        <time>2022-04-10T09:50:34Z</time>
      </trkpt>
      <trkpt lat="47.171" lon="-1.64384">
        <ele>77</ele>
        <time>2022-04-10T09:50:36Z</time>
      </trkpt>
      <trkpt lat="47.17098" lon="-1.64405">
        <ele>77</ele>
        <time>2022-04-10T09:50:38Z</time>
      </trkpt>
      <trkpt lat="47.17097" lon="-1.64426">
        <ele>77</ele>
        <time>2022-04-10T09:50:40Z</time>
      </trkpt>
      <trkpt lat="47.17095" lon="-1.64447">
        <ele>76</ele>
        <time>2022-04-10T09:50:42Z</time>
      </trkpt>
      <trkpt lat="47.17094" lon="-1.64469">
        <ele>77</ele>
        <time>2022-04-10T09:50:44Z</time>
      </trkpt>
      <trkpt lat="47.17093" lon="-1.6449">
        <ele>77</ele>
        <time>2022-04-10T09:50:46Z</time>
      </trkpt>
      <trkpt lat="47.17093" lon="-1.64512">
        <ele>77</ele>
        <time>2022-04-10T09:50:48Z</time>
      </trkpt>
      <trkpt lat="47.17092" lon="-1.64533">
        <ele>76</ele>
        <time>2022-04-10T09:50:50Z</time>
      </trkpt>
      <trkpt lat="47.17091" lon="-1.64554">
        <ele>76</ele>
        <time>2022-04-10T09:50:52Z</time>
      </trkpt>
      <trkpt lat="47.1709" lon="-1.64575">
        <ele>76</ele>
        <time>2022-04-10T09:50:54Z</time>
      </trkpt>
      <trkpt lat="47.1709" lon="-1.64596">
        <ele>77</ele>
        <time>2022-04-10T09:50:56Z</time>
      </trkpt>
      <trkpt lat="47.1709" lon="-1.64617">
        <ele>76</ele>
        <time>2022-04-10T09:50:58Z</time>
      </trkpt>
      <trkpt lat="47.1709" lon="-1.64638">
        <ele>76</ele>
        <time>2022-04-10T09:51:00Z</time>
      </trkpt>
      <trkpt lat="47.1709" lon="-1.64659">
        <ele>76</ele>
        <time>2022-04-10T09:51:02Z</time>
      </trkpt>
      <trkpt lat="47.17091" lon="-1.64692">
        <ele>76</ele>
        <time>2022-04-10T09:51:05Z</time>
      </trkpt>
      <trkpt lat="47.17092" lon="-1.64713">
        <ele>76</ele>
        <time>2022-04-10T09:51:07Z</time>
      </trkpt>
      <trkpt lat="47.17092" lon="-1.64735">
        <ele>76</ele>
        <time>2022-04-10T09:51:09Z</time>
      </trkpt>
      <trkpt lat="47.17094" lon="-1.64767">
        <ele>76</ele>
        <time>2022-04-10T09:51:12Z</time>
      </trkpt>
      <trkpt lat="47.17095" lon="-1.64799">
        <ele>76</ele>
        <time>2022-04-10T09:51:15Z</time>
      </trkpt>
      <trkpt lat="47.17097" lon="-1.64822">
        <ele>76</ele>
        <time>2022-04-10T09:51:17Z</time>
      </trkpt>
      <trkpt lat="47.17098" lon="-1.64846">
        <ele>76</ele>
        <time>2022-04-10T09:51:19Z</time>
      </trkpt>
      <trkpt lat="47.171" lon="-1.64868">
        <ele>75</ele>
        <time>2022-04-10T09:51:21Z</time>
      </trkpt>
      <trkpt lat="47.17102" lon="-1.64891">
        <ele>75</ele>
        <time>2022-04-10T09:51:23Z</time>
      </trkpt>
      <trkpt lat="47.17104" lon="-1.64913">
        <ele>75</ele>
        <time>2022-04-10T09:51:25Z</time>
      </trkpt>
      <trkpt lat="47.17105" lon="-1.64935">
        <ele>75</ele>
        <time>2022-04-10T09:51:27Z</time>
      </trkpt>
      <trkpt lat="47.17107" lon="-1.64957">
        <ele>74</ele>
        <time>2022-04-10T09:51:29Z</time>
      </trkpt>
      <trkpt lat="47.17108" lon="-1.64979">
        <ele>75</ele>
        <time>2022-04-10T09:51:31Z</time>
      </trkpt>
      <trkpt lat="47.1711" lon="-1.65001">
        <ele>75</ele>
        <time>2022-04-10T09:51:33Z</time>
      </trkpt>
      <trkpt lat="47.17111" lon="-1.65022">
        <ele>75</ele>
        <time>2022-04-10T09:51:35Z</time>
      </trkpt>
      <trkpt lat="47.17113" lon="-1.65044">
        <ele>75</ele>
        <time>2022-04-10T09:51:37Z</time>
      </trkpt>
      <trkpt lat="47.17115" lon="-1.65067">
        <ele>75</ele>
        <time>2022-04-10T09:51:39Z</time>
      </trkpt>
      <trkpt lat="47.17117" lon="-1.65089">
        <ele>75</ele>
        <time>2022-04-10T09:51:41Z</time>
      </trkpt>
      <trkpt lat="47.17118" lon="-1.65111">
        <ele>75</ele>
        <time>2022-04-10T09:51:43Z</time>
      </trkpt>
      <trkpt lat="47.1712" lon="-1.65133">
        <ele>75</ele>
        <time>2022-04-10T09:51:45Z</time>
      </trkpt>
      <trkpt lat="47.17121" lon="-1.65155">
        <ele>76</ele>
        <time>2022-04-10T09:51:47Z</time>
      </trkpt>
      <trkpt lat="47.17123" lon="-1.65176">
        <ele>76</ele>
        <time>2022-04-10T09:51:49Z</time>
      </trkpt>
      <trkpt lat="47.17124" lon="-1.65197">
        <ele>76</ele>
        <time>2022-04-10T09:51:51Z</time>
      </trkpt>
      <trkpt lat="47.17126" lon="-1.65216">
        <ele>76</ele>
        <time>2022-04-10T09:51:53Z</time>
      </trkpt>
      <trkpt lat="47.17127" lon="-1.65235">
        <ele>77</ele>
        <time>2022-04-10T09:51:55Z</time>
      </trkpt>
      <trkpt lat="47.17129" lon="-1.65254">
        <ele>77</ele>
        <time>2022-04-10T09:51:57Z</time>
      </trkpt>
      <trkpt lat="47.17132" lon="-1.65274">
        <ele>77</ele>
        <time>2022-04-10T09:51:59Z</time>
      </trkpt>
      <trkpt lat="47.17138" lon="-1.65291">
        <ele>78</ele>
        <time>2022-04-10T09:52:01Z</time>
      </trkpt>
      <trkpt lat="47.1714" lon="-1.6531">
        <ele>78</ele>
        <time>2022-04-10T09:52:03Z</time>
      </trkpt>
      <trkpt lat="47.17137" lon="-1.65327">
        <ele>78</ele>
        <time>2022-04-10T09:52:05Z</time>
      </trkpt>
      <trkpt lat="47.17128" lon="-1.65341">
        <ele>78</ele>
        <time>2022-04-10T09:52:07Z</time>
      </trkpt>
      <trkpt lat="47.17121" lon="-1.65358">
        <ele>78</ele>
        <time>2022-04-10T09:52:09Z</time>
      </trkpt>
      <trkpt lat="47.17122" lon="-1.65377">
        <ele>78</ele>
        <time>2022-04-10T09:52:11Z</time>
      </trkpt>
      <trkpt lat="47.17122" lon="-1.65395">
        <ele>79</ele>
        <time>2022-04-10T09:52:13Z</time>
      </trkpt>
      <trkpt lat="47.17123" lon="-1.65412">
        <ele>79</ele>
        <time>2022-04-10T09:52:15Z</time>
      </trkpt>
      <trkpt lat="47.17122" lon="-1.65429">
        <ele>79</ele>
        <time>2022-04-10T09:52:17Z</time>
      </trkpt>
      <trkpt lat="47.17122" lon="-1.65445">
        <ele>80</ele>
        <time>2022-04-10T09:52:19Z</time>
      </trkpt>
      <trkpt lat="47.17121" lon="-1.65461">
        <ele>80</ele>
        <time>2022-04-10T09:52:21Z</time>
      </trkpt>
      <trkpt lat="47.1712" lon="-1.65477">
        <ele>81</ele>
        <time>2022-04-10T09:52:23Z</time>
      </trkpt>
      <trkpt lat="47.17117" lon="-1.65493">
        <ele>81</ele>
        <time>2022-04-10T09:52:25Z</time>
      </trkpt>
      <trkpt lat="47.17114" lon="-1.65508">
        <ele>82</ele>
        <time>2022-04-10T09:52:27Z</time>
      </trkpt>
      <trkpt lat="47.17109" lon="-1.65522">
        <ele>83</ele>
        <time>2022-04-10T09:52:29Z</time>
      </trkpt>
      <trkpt lat="47.17103" lon="-1.65537">
        <ele>83</ele>
        <time>2022-04-10T09:52:31Z</time>
      </trkpt>
      <trkpt lat="47.17096" lon="-1.6555">
        <ele>83</ele>
        <time>2022-04-10T09:52:33Z</time>
      </trkpt>
      <trkpt lat="47.17089" lon="-1.65563">
        <ele>84</ele>
        <time>2022-04-10T09:52:35Z</time>
      </trkpt>
      <trkpt lat="47.17082" lon="-1.65575">
        <ele>84</ele>
        <time>2022-04-10T09:52:37Z</time>
      </trkpt>
      <trkpt lat="47.17075" lon="-1.65587">
        <ele>84</ele>
        <time>2022-04-10T09:52:39Z</time>
      </trkpt>
      <trkpt lat="47.17067" lon="-1.656">
        <ele>84</ele>
        <time>2022-04-10T09:52:41Z</time>
      </trkpt>
      <trkpt lat="47.1706" lon="-1.65613">
        <ele>84</ele>
        <time>2022-04-10T09:52:43Z</time>
      </trkpt>
      <trkpt lat="47.17052" lon="-1.65627">
        <ele>83</ele>
        <time>2022-04-10T09:52:45Z</time>
      </trkpt>
      <trkpt lat="47.17045" lon="-1.65641">
        <ele>83</ele>
        <time>2022-04-10T09:52:47Z</time>
      </trkpt>
      <trkpt lat="47.17036" lon="-1.65656">
        <ele>83</ele>
        <time>2022-04-10T09:52:49Z</time>
      </trkpt>
      <trkpt lat="47.17028" lon="-1.65673">
        <ele>82</ele>
        <time>2022-04-10T09:52:51Z</time>
      </trkpt>
      <trkpt lat="47.1702" lon="-1.65688">
        <ele>82</ele>
        <time>2022-04-10T09:52:53Z</time>
      </trkpt>
      <trkpt lat="47.17013" lon="-1.65706">
        <ele>82</ele>
        <time>2022-04-10T09:52:55Z</time>
      </trkpt>
      <trkpt lat="47.17008" lon="-1.65725">
        <ele>82</ele>
        <time>2022-04-10T09:52:57Z</time>
      </trkpt>
      <trkpt lat="47.17005" lon="-1.65744">
        <ele>82</ele>
        <time>2022-04-10T09:52:59Z</time>
      </trkpt>
      <trkpt lat="47.16999" lon="-1.65761">
        <ele>82</ele>
        <time>2022-04-10T09:53:01Z</time>
      </trkpt>
      <trkpt lat="47.16988" lon="-1.65771">
        <ele>82</ele>
        <time>2022-04-10T09:53:03Z</time>
      </trkpt>
      <trkpt lat="47.16975" lon="-1.65778">
        <ele>81</ele>
        <time>2022-04-10T09:53:05Z</time>
      </trkpt>
      <trkpt lat="47.16963" lon="-1.65789">
        <ele>81</ele>
        <time>2022-04-10T09:53:07Z</time>
      </trkpt>
      <trkpt lat="47.16955" lon="-1.65805">
        <ele>82</ele>
        <time>2022-04-10T09:53:09Z</time>
      </trkpt>
      <trkpt lat="47.16946" lon="-1.65822">
        <ele>81</ele>
        <time>2022-04-10T09:53:11Z</time>
      </trkpt>
      <trkpt lat="47.16938" lon="-1.65839">
        <ele>81</ele>
        <time>2022-04-10T09:53:13Z</time>
      </trkpt>
      <trkpt lat="47.1693" lon="-1.65856">
        <ele>80</ele>
        <time>2022-04-10T09:53:15Z</time>
      </trkpt>
      <trkpt lat="47.16922" lon="-1.65873">
        <ele>79</ele>
        <time>2022-04-10T09:53:17Z</time>
      </trkpt>
      <trkpt lat="47.16913" lon="-1.65889">
        <ele>79</ele>
        <time>2022-04-10T09:53:19Z</time>
      </trkpt>
      <trkpt lat="47.16905" lon="-1.65907">
        <ele>79</ele>
        <time>2022-04-10T09:53:21Z</time>
      </trkpt>
      <trkpt lat="47.16896" lon="-1.65924">
        <ele>79</ele>
        <time>2022-04-10T09:53:23Z</time>
      </trkpt>
      <trkpt lat="47.16888" lon="-1.65942">
        <ele>79</ele>
        <time>2022-04-10T09:53:25Z</time>
      </trkpt>
      <trkpt lat="47.16881" lon="-1.65959">
        <ele>78</ele>
        <time>2022-04-10T09:53:27Z</time>
      </trkpt>
      <trkpt lat="47.16874" lon="-1.65978">
        <ele>78</ele>
        <time>2022-04-10T09:53:29Z</time>
      </trkpt>
      <trkpt lat="47.16868" lon="-1.65998">
        <ele>78</ele>
        <time>2022-04-10T09:53:31Z</time>
      </trkpt>
      <trkpt lat="47.16863" lon="-1.66017">
        <ele>77</ele>
        <time>2022-04-10T09:53:33Z</time>
      </trkpt>
      <trkpt lat="47.16858" lon="-1.66037">
        <ele>77</ele>
        <time>2022-04-10T09:53:35Z</time>
      </trkpt>
      <trkpt lat="47.16855" lon="-1.66057">
        <ele>77</ele>
        <time>2022-04-10T09:53:37Z</time>
      </trkpt>
      <trkpt lat="47.16851" lon="-1.66077">
        <ele>77</ele>
        <time>2022-04-10T09:53:39Z</time>
      </trkpt>
      <trkpt lat="47.1685" lon="-1.66096">
        <ele>77</ele>
        <time>2022-04-10T09:53:41Z</time>
      </trkpt>
      <trkpt lat="47.16848" lon="-1.66116">
        <ele>77</ele>
        <time>2022-04-10T09:53:43Z</time>
      </trkpt>
      <trkpt lat="47.16848" lon="-1.66135">
        <ele>77</ele>
        <time>2022-04-10T09:53:45Z</time>
      </trkpt>
      <trkpt lat="47.16849" lon="-1.66155">
        <ele>76</ele>
        <time>2022-04-10T09:53:47Z</time>
      </trkpt>
      <trkpt lat="47.1685" lon="-1.66174">
        <ele>76</ele>
        <time>2022-04-10T09:53:49Z</time>
      </trkpt>
      <trkpt lat="47.16851" lon="-1.66194">
        <ele>76</ele>
        <time>2022-04-10T09:53:51Z</time>
      </trkpt>
      <trkpt lat="47.16852" lon="-1.66214">
        <ele>76</ele>
        <time>2022-04-10T09:53:53Z</time>
      </trkpt>
      <trkpt lat="47.16854" lon="-1.66233">
        <ele>76</ele>
        <time>2022-04-10T09:53:55Z</time>
      </trkpt>
      <trkpt lat="47.16855" lon="-1.66252">
        <ele>76</ele>
        <time>2022-04-10T09:53:57Z</time>
      </trkpt>
      <trkpt lat="47.16857" lon="-1.66271">
        <ele>77</ele>
        <time>2022-04-10T09:53:59Z</time>
      </trkpt>
      <trkpt lat="47.16858" lon="-1.6629">
        <ele>77</ele>
        <time>2022-04-10T09:54:01Z</time>
      </trkpt>
      <trkpt lat="47.16859" lon="-1.66309">
        <ele>77</ele>
        <time>2022-04-10T09:54:03Z</time>
      </trkpt>
      <trkpt lat="47.1686" lon="-1.66328">
        <ele>77</ele>
        <time>2022-04-10T09:54:05Z</time>
      </trkpt>
      <trkpt lat="47.16862" lon="-1.66346">
        <ele>77</ele>
        <time>2022-04-10T09:54:07Z</time>
      </trkpt>
      <trkpt lat="47.16864" lon="-1.66365">
        <ele>77</ele>
        <time>2022-04-10T09:54:09Z</time>
      </trkpt>
      <trkpt lat="47.16866" lon="-1.66384">
        <ele>77</ele>
        <time>2022-04-10T09:54:11Z</time>
      </trkpt>
      <trkpt lat="47.16868" lon="-1.66403">
        <ele>76</ele>
        <time>2022-04-10T09:54:13Z</time>
      </trkpt>
      <trkpt lat="47.1687" lon="-1.66422">
        <ele>76</ele>
        <time>2022-04-10T09:54:15Z</time>
      </trkpt>
      <trkpt lat="47.16872" lon="-1.66441">
        <ele>76</ele>
        <time>2022-04-10T09:54:17Z</time>
      </trkpt>
      <trkpt lat="47.16874" lon="-1.6646">
        <ele>76</ele>
        <time>2022-04-10T09:54:19Z</time>
      </trkpt>
      <trkpt lat="47.16876" lon="-1.66479">
        <ele>77</ele>
        <time>2022-04-10T09:54:21Z</time>
      </trkpt>
      <trkpt lat="47.16878" lon="-1.66497">
        <ele>77</ele>
        <time>2022-04-10T09:54:23Z</time>
      </trkpt>
      <trkpt lat="47.16881" lon="-1.66515">
        <ele>78</ele>
        <time>2022-04-10T09:54:25Z</time>
      </trkpt>
      <trkpt lat="47.16882" lon="-1.66534">
        <ele>77</ele>
        <time>2022-04-10T09:54:27Z</time>
      </trkpt>
      <trkpt lat="47.16884" lon="-1.66553">
        <ele>77</ele>
        <time>2022-04-10T09:54:29Z</time>
      </trkpt>
      <trkpt lat="47.16887" lon="-1.66572">
        <ele>77</ele>
        <time>2022-04-10T09:54:31Z</time>
      </trkpt>
      <trkpt lat="47.16889" lon="-1.66591">
        <ele>77</ele>
        <time>2022-04-10T09:54:33Z</time>
      </trkpt>
      <trkpt lat="47.16891" lon="-1.66611">
        <ele>77</ele>
        <time>2022-04-10T09:54:35Z</time>
      </trkpt>
      <trkpt lat="47.16893" lon="-1.6663">
        <ele>77</ele>
        <time>2022-04-10T09:54:37Z</time>
      </trkpt>
      <trkpt lat="47.16894" lon="-1.66649">
        <ele>76</ele>
        <time>2022-04-10T09:54:39Z</time>
      </trkpt>
      <trkpt lat="47.16895" lon="-1.66669">
        <ele>76</ele>
        <time>2022-04-10T09:54:41Z</time>
      </trkpt>
      <trkpt lat="47.16894" lon="-1.66688">
        <ele>76</ele>
        <time>2022-04-10T09:54:43Z</time>
      </trkpt>
      <trkpt lat="47.1689" lon="-1.66708">
        <ele>76</ele>
        <time>2022-04-10T09:54:45Z</time>
      </trkpt>
      <trkpt lat="47.16884" lon="-1.66727">
        <ele>76</ele>
        <time>2022-04-10T09:54:47Z</time>
      </trkpt>
      <trkpt lat="47.16878" lon="-1.66744">
        <ele>76</ele>
        <time>2022-04-10T09:54:49Z</time>
      </trkpt>
      <trkpt lat="47.1687" lon="-1.6676">
        <ele>76</ele>
        <time>2022-04-10T09:54:51Z</time>
      </trkpt>
      <trkpt lat="47.16862" lon="-1.66777">
        <ele>76</ele>
        <time>2022-04-10T09:54:53Z</time>
      </trkpt>
      <trkpt lat="47.16853" lon="-1.66793">
        <ele>76</ele>
        <time>2022-04-10T09:54:55Z</time>
      </trkpt>
      <trkpt lat="47.16845" lon="-1.66808">
        <ele>76</ele>
        <time>2022-04-10T09:54:57Z</time>
      </trkpt>
      <trkpt lat="47.16836" lon="-1.66824">
        <ele>76</ele>
        <time>2022-04-10T09:54:59Z</time>
      </trkpt>
      <trkpt lat="47.16829" lon="-1.66838">
        <ele>77</ele>
        <time>2022-04-10T09:55:01Z</time>
      </trkpt>
      <trkpt lat="47.16821" lon="-1.66854">
        <ele>77</ele>
        <time>2022-04-10T09:55:03Z</time>
      </trkpt>
      <trkpt lat="47.16812" lon="-1.66868">
        <ele>77</ele>
        <time>2022-04-10T09:55:05Z</time>
      </trkpt>
      <trkpt lat="47.16803" lon="-1.66882">
        <ele>77</ele>
        <time>2022-04-10T09:55:07Z</time>
      </trkpt>
      <trkpt lat="47.16793" lon="-1.66894">
        <ele>77</ele>
        <time>2022-04-10T09:55:09Z</time>
      </trkpt>
      <trkpt lat="47.16782" lon="-1.66903">
        <ele>77</ele>
        <time>2022-04-10T09:55:11Z</time>
      </trkpt>
      <trkpt lat="47.16772" lon="-1.66911">
        <ele>78</ele>
        <time>2022-04-10T09:55:13Z</time>
      </trkpt>
      <trkpt lat="47.16763" lon="-1.66917">
        <ele>79</ele>
        <time>2022-04-10T09:55:15Z</time>
      </trkpt>
      <trkpt lat="47.16754" lon="-1.66921">
        <ele>80</ele>
        <time>2022-04-10T09:55:17Z</time>
      </trkpt>
      <trkpt lat="47.16744" lon="-1.66924">
        <ele>81</ele>
        <time>2022-04-10T09:55:19Z</time>
      </trkpt>
      <trkpt lat="47.16733" lon="-1.66928">
        <ele>82</ele>
        <time>2022-04-10T09:55:21Z</time>
      </trkpt>
      <trkpt lat="47.16721" lon="-1.66931">
        <ele>82</ele>
        <time>2022-04-10T09:55:23Z</time>
      </trkpt>
      <trkpt lat="47.16709" lon="-1.66937">
        <ele>83</ele>
        <time>2022-04-10T09:55:25Z</time>
      </trkpt>
      <trkpt lat="47.16698" lon="-1.66946">
        <ele>83</ele>
        <time>2022-04-10T09:55:27Z</time>
      </trkpt>
      <trkpt lat="47.16688" lon="-1.66958">
        <ele>83</ele>
        <time>2022-04-10T09:55:29Z</time>
      </trkpt>
      <trkpt lat="47.16678" lon="-1.66975">
        <ele>83</ele>
        <time>2022-04-10T09:55:31Z</time>
      </trkpt>
      <trkpt lat="47.1667" lon="-1.66994">
        <ele>83</ele>
        <time>2022-04-10T09:55:33Z</time>
      </trkpt>
      <trkpt lat="47.16664" lon="-1.67012">
        <ele>84</ele>
        <time>2022-04-10T09:55:35Z</time>
      </trkpt>
      <trkpt lat="47.16659" lon="-1.67032">
        <ele>83</ele>
        <time>2022-04-10T09:55:37Z</time>
      </trkpt>
      <trkpt lat="47.16654" lon="-1.67052">
        <ele>82</ele>
        <time>2022-04-10T09:55:39Z</time>
      </trkpt>
      <trkpt lat="47.16649" lon="-1.6707">
        <ele>82</ele>
        <time>2022-04-10T09:55:41Z</time>
      </trkpt>
      <trkpt lat="47.16646" lon="-1.67089">
        <ele>80</ele>
        <time>2022-04-10T09:55:43Z</time>
      </trkpt>
      <trkpt lat="47.16642" lon="-1.67109">
        <ele>79</ele>
        <time>2022-04-10T09:55:45Z</time>
      </trkpt>
      <trkpt lat="47.16638" lon="-1.67127">
        <ele>79</ele>
        <time>2022-04-10T09:55:47Z</time>
      </trkpt>
      <trkpt lat="47.16634" lon="-1.67146">
        <ele>79</ele>
        <time>2022-04-10T09:55:49Z</time>
      </trkpt>
      <trkpt lat="47.16631" lon="-1.67165">
        <ele>78</ele>
        <time>2022-04-10T09:55:51Z</time>
      </trkpt>
      <trkpt lat="47.16627" lon="-1.67183">
        <ele>78</ele>
        <time>2022-04-10T09:55:53Z</time>
      </trkpt>
      <trkpt lat="47.16623" lon="-1.67201">
        <ele>78</ele>
        <time>2022-04-10T09:55:55Z</time>
      </trkpt>
      <trkpt lat="47.16619" lon="-1.67218">
        <ele>78</ele>
        <time>2022-04-10T09:55:57Z</time>
      </trkpt>
      <trkpt lat="47.16617" lon="-1.67234">
        <ele>77</ele>
        <time>2022-04-10T09:55:59Z</time>
      </trkpt>
      <trkpt lat="47.16614" lon="-1.67249">
        <ele>77</ele>
        <time>2022-04-10T09:56:01Z</time>
      </trkpt>
      <trkpt lat="47.16611" lon="-1.67262">
        <ele>77</ele>
        <time>2022-04-10T09:56:03Z</time>
      </trkpt>
      <trkpt lat="47.16605" lon="-1.67276">
        <ele>76</ele>
        <time>2022-04-10T09:56:05Z</time>
      </trkpt>
      <trkpt lat="47.16599" lon="-1.67292">
        <ele>76</ele>
        <time>2022-04-10T09:56:07Z</time>
      </trkpt>
      <trkpt lat="47.16591" lon="-1.67308">
        <ele>77</ele>
        <time>2022-04-10T09:56:09Z</time>
      </trkpt>
      <trkpt lat="47.16584" lon="-1.67325">
        <ele>77</ele>
        <time>2022-04-10T09:56:11Z</time>
      </trkpt>
      <trkpt lat="47.16576" lon="-1.67341">
        <ele>77</ele>
        <time>2022-04-10T09:56:13Z</time>
      </trkpt>
      <trkpt lat="47.16569" lon="-1.67358">
        <ele>77</ele>
        <time>2022-04-10T09:56:15Z</time>
      </trkpt>
      <trkpt lat="47.16559" lon="-1.67374">
        <ele>77</ele>
        <time>2022-04-10T09:56:17Z</time>
      </trkpt>
      <trkpt lat="47.16549" lon="-1.67388">
        <ele>77</ele>
        <time>2022-04-10T09:56:19Z</time>
      </trkpt>
      <trkpt lat="47.1654" lon="-1.67402">
        <ele>78</ele>
        <time>2022-04-10T09:56:21Z</time>
      </trkpt>
      <trkpt lat="47.1653" lon="-1.67416">
        <ele>78</ele>
        <time>2022-04-10T09:56:23Z</time>
      </trkpt>
      <trkpt lat="47.16521" lon="-1.67429">
        <ele>78</ele>
        <time>2022-04-10T09:56:25Z</time>
      </trkpt>
      <trkpt lat="47.16513" lon="-1.67443">
        <ele>77</ele>
        <time>2022-04-10T09:56:27Z</time>
      </trkpt>
      <trkpt lat="47.16505" lon="-1.67458">
        <ele>78</ele>
        <time>2022-04-10T09:56:29Z</time>
      </trkpt>
      <trkpt lat="47.16497" lon="-1.67473">
        <ele>78</ele>
        <time>2022-04-10T09:56:31Z</time>
      </trkpt>
      <trkpt lat="47.16488" lon="-1.67488">
        <ele>78</ele>
        <time>2022-04-10T09:56:33Z</time>
      </trkpt>
      <trkpt lat="47.1648" lon="-1.67503">
        <ele>78</ele>
        <time>2022-04-10T09:56:35Z</time>
      </trkpt>
      <trkpt lat="47.16471" lon="-1.67518">
        <ele>78</ele>
        <time>2022-04-10T09:56:37Z</time>
      </trkpt>
      <trkpt lat="47.16462" lon="-1.67533">
        <ele>78</ele>
        <time>2022-04-10T09:56:39Z</time>
      </trkpt>
      <trkpt lat="47.16454" lon="-1.67547">
        <ele>78</ele>
        <time>2022-04-10T09:56:41Z</time>
      </trkpt>
      <trkpt lat="47.16446" lon="-1.67563">
        <ele>78</ele>
        <time>2022-04-10T09:56:43Z</time>
      </trkpt>
      <trkpt lat="47.16438" lon="-1.67578">
        <ele>78</ele>
        <time>2022-04-10T09:56:45Z</time>
      </trkpt>
      <trkpt lat="47.1643" lon="-1.67594">
        <ele>78</ele>
        <time>2022-04-10T09:56:47Z</time>
      </trkpt>
      <trkpt lat="47.16423" lon="-1.6761">
        <ele>78</ele>
        <time>2022-04-10T09:56:49Z</time>
      </trkpt>
      <trkpt lat="47.16416" lon="-1.67625">
        <ele>77</ele>
        <time>2022-04-10T09:56:51Z</time>
      </trkpt>
      <trkpt lat="47.16408" lon="-1.67641">
        <ele>77</ele>
        <time>2022-04-10T09:56:53Z</time>
      </trkpt>
      <trkpt lat="47.16401" lon="-1.67657">
        <ele>77</ele>
        <time>2022-04-10T09:56:55Z</time>
      </trkpt>
      <trkpt lat="47.16394" lon="-1.67672">
        <ele>77</ele>
        <time>2022-04-10T09:56:57Z</time>
      </trkpt>
      <trkpt lat="47.16386" lon="-1.67687">
        <ele>77</ele>
        <time>2022-04-10T09:56:59Z</time>
      </trkpt>
      <trkpt lat="47.16377" lon="-1.67702">
        <ele>77</ele>
        <time>2022-04-10T09:57:01Z</time>
      </trkpt>
      <trkpt lat="47.1637" lon="-1.67716">
        <ele>77</ele>
        <time>2022-04-10T09:57:03Z</time>
      </trkpt>
      <trkpt lat="47.16361" lon="-1.67731">
        <ele>77</ele>
        <time>2022-04-10T09:57:05Z</time>
      </trkpt>
      <trkpt lat="47.16354" lon="-1.67746">
        <ele>77</ele>
        <time>2022-04-10T09:57:07Z</time>
      </trkpt>
      <trkpt lat="47.16346" lon="-1.67761">
        <ele>77</ele>
        <time>2022-04-10T09:57:09Z</time>
      </trkpt>
      <trkpt lat="47.16337" lon="-1.67776">
        <ele>78</ele>
        <time>2022-04-10T09:57:11Z</time>
      </trkpt>
      <trkpt lat="47.16328" lon="-1.6779">
        <ele>78</ele>
        <time>2022-04-10T09:57:13Z</time>
      </trkpt>
      <trkpt lat="47.1632" lon="-1.67805">
        <ele>78</ele>
        <time>2022-04-10T09:57:15Z</time>
      </trkpt>
      <trkpt lat="47.16312" lon="-1.6782">
        <ele>78</ele>
        <time>2022-04-10T09:57:17Z</time>
      </trkpt>
      <trkpt lat="47.16304" lon="-1.67834">
        <ele>78</ele>
        <time>2022-04-10T09:57:19Z</time>
      </trkpt>
      <trkpt lat="47.16296" lon="-1.67848">
        <ele>77</ele>
        <time>2022-04-10T09:57:21Z</time>
      </trkpt>
      <trkpt lat="47.16288" lon="-1.67862">
        <ele>78</ele>
        <time>2022-04-10T09:57:23Z</time>
      </trkpt>
      <trkpt lat="47.1628" lon="-1.67876">
        <ele>78</ele>
        <time>2022-04-10T09:57:25Z</time>
      </trkpt>
      <trkpt lat="47.16272" lon="-1.6789">
        <ele>78</ele>
        <time>2022-04-10T09:57:27Z</time>
      </trkpt>
      <trkpt lat="47.16265" lon="-1.67905">
        <ele>78</ele>
        <time>2022-04-10T09:57:29Z</time>
      </trkpt>
      <trkpt lat="47.16257" lon="-1.67919">
        <ele>78</ele>
        <time>2022-04-10T09:57:31Z</time>
      </trkpt>
      <trkpt lat="47.16248" lon="-1.67932">
        <ele>78</ele>
        <time>2022-04-10T09:57:33Z</time>
      </trkpt>
      <trkpt lat="47.1624" lon="-1.67946">
        <ele>78</ele>
        <time>2022-04-10T09:57:35Z</time>
      </trkpt>
      <trkpt lat="47.16231" lon="-1.67959">
        <ele>78</ele>
        <time>2022-04-10T09:57:37Z</time>
      </trkpt>
      <trkpt lat="47.16224" lon="-1.67976">
        <ele>78</ele>
        <time>2022-04-10T09:57:39Z</time>
      </trkpt>
      <trkpt lat="47.16218" lon="-1.67991">
        <ele>78</ele>
        <time>2022-04-10T09:57:41Z</time>
      </trkpt>
      <trkpt lat="47.16206" lon="-1.67998">
        <ele>77</ele>
        <time>2022-04-10T09:57:43Z</time>
      </trkpt>
      <trkpt lat="47.16195" lon="-1.68009">
        <ele>77</ele>
        <time>2022-04-10T09:57:45Z</time>
      </trkpt>
      <trkpt lat="47.16186" lon="-1.68024">
        <ele>77</ele>
        <time>2022-04-10T09:57:47Z</time>
      </trkpt>
      <trkpt lat="47.16177" lon="-1.68036">
        <ele>77</ele>
        <time>2022-04-10T09:57:49Z</time>
      </trkpt>
      <trkpt lat="47.16168" lon="-1.68048">
        <ele>78</ele>
        <time>2022-04-10T09:57:51Z</time>
      </trkpt>
      <trkpt lat="47.16161" lon="-1.6806">
        <ele>78</ele>
        <time>2022-04-10T09:57:53Z</time>
      </trkpt>
      <trkpt lat="47.16154" lon="-1.68073">
        <ele>78</ele>
        <time>2022-04-10T09:57:55Z</time>
      </trkpt>
      <trkpt lat="47.16148" lon="-1.68088">
        <ele>78</ele>
        <time>2022-04-10T09:57:57Z</time>
      </trkpt>
      <trkpt lat="47.16142" lon="-1.68105">
        <ele>78</ele>
        <time>2022-04-10T09:57:59Z</time>
      </trkpt>
      <trkpt lat="47.16139" lon="-1.68122">
        <ele>78</ele>
        <time>2022-04-10T09:58:01Z</time>
      </trkpt>
      <trkpt lat="47.16135" lon="-1.6814">
        <ele>77</ele>
        <time>2022-04-10T09:58:03Z</time>
      </trkpt>
      <trkpt lat="47.16131" lon="-1.68158">
        <ele>77</ele>
        <time>2022-04-10T09:58:05Z</time>
      </trkpt>
      <trkpt lat="47.16127" lon="-1.68175">
        <ele>77</ele>
        <time>2022-04-10T09:58:07Z</time>
      </trkpt>
      <trkpt lat="47.16123" lon="-1.68192">
        <ele>77</ele>
        <time>2022-04-10T09:58:09Z</time>
      </trkpt>
      <trkpt lat="47.16119" lon="-1.6821">
        <ele>77</ele>
        <time>2022-04-10T09:58:11Z</time>
      </trkpt>
      <trkpt lat="47.16115" lon="-1.68229">
        <ele>77</ele>
        <time>2022-04-10T09:58:13Z</time>
      </trkpt>
      <trkpt lat="47.1611" lon="-1.68247">
        <ele>77</ele>
        <time>2022-04-10T09:58:15Z</time>
      </trkpt>
      <trkpt lat="47.16106" lon="-1.68266">
        <ele>77</ele>
        <time>2022-04-10T09:58:17Z</time>
      </trkpt>
      <trkpt lat="47.16103" lon="-1.6829">
        <ele>78</ele>
        <time>2022-04-10T09:58:19Z</time>
      </trkpt>
      <trkpt lat="47.16098" lon="-1.68312">
        <ele>77</ele>
        <time>2022-04-10T09:58:21Z</time>
      </trkpt>
      <trkpt lat="47.16095" lon="-1.68333">
        <ele>76</ele>
        <time>2022-04-10T09:58:23Z</time>
      </trkpt>
      <trkpt lat="47.1609" lon="-1.68353">
        <ele>76</ele>
        <time>2022-04-10T09:58:25Z</time>
      </trkpt>
      <trkpt lat="47.16087" lon="-1.68372">
        <ele>76</ele>
        <time>2022-04-10T09:58:27Z</time>
      </trkpt>
      <trkpt lat="47.16083" lon="-1.68392">
        <ele>75</ele>
        <time>2022-04-10T09:58:29Z</time>
      </trkpt>
      <trkpt lat="47.1608" lon="-1.68411">
        <ele>75</ele>
        <time>2022-04-10T09:58:31Z</time>
      </trkpt>
      <trkpt lat="47.16076" lon="-1.68429">
        <ele>75</ele>
        <time>2022-04-10T09:58:33Z</time>
      </trkpt>
      <trkpt lat="47.16072" lon="-1.68447">
        <ele>75</ele>
        <time>2022-04-10T09:58:35Z</time>
      </trkpt>
      <trkpt lat="47.16069" lon="-1.68466">
        <ele>75</ele>
        <time>2022-04-10T09:58:37Z</time>
      </trkpt>
      <trkpt lat="47.16066" lon="-1.68485">
        <ele>74</ele>
        <time>2022-04-10T09:58:39Z</time>
      </trkpt>
      <trkpt lat="47.16063" lon="-1.68503">
        <ele>74</ele>
        <time>2022-04-10T09:58:41Z</time>
      </trkpt>
      <trkpt lat="47.1606" lon="-1.68522">
        <ele>74</ele>
        <time>2022-04-10T09:58:43Z</time>
      </trkpt>
      <trkpt lat="47.16058" lon="-1.6854">
        <ele>74</ele>
        <time>2022-04-10T09:58:45Z</time>
      </trkpt>
      <trkpt lat="47.16055" lon="-1.68559">
        <ele>74</ele>
        <time>2022-04-10T09:58:47Z</time>
      </trkpt>
      <trkpt lat="47.16052" lon="-1.68577">
        <ele>74</ele>
        <time>2022-04-10T09:58:49Z</time>
      </trkpt>
      <trkpt lat="47.1605" lon="-1.68596">
        <ele>74</ele>
        <time>2022-04-10T09:58:51Z</time>
      </trkpt>
      <trkpt lat="47.16048" lon="-1.68614">
        <ele>74</ele>
        <time>2022-04-10T09:58:53Z</time>
      </trkpt>
      <trkpt lat="47.16046" lon="-1.68634">
        <ele>74</ele>
        <time>2022-04-10T09:58:55Z</time>
      </trkpt>
      <trkpt lat="47.16045" lon="-1.68653">
        <ele>74</ele>
        <time>2022-04-10T09:58:57Z</time>
      </trkpt>
      <trkpt lat="47.16045" lon="-1.68672">
        <ele>74</ele>
        <time>2022-04-10T09:58:59Z</time>
      </trkpt>
      <trkpt lat="47.16046" lon="-1.68692">
        <ele>74</ele>
        <time>2022-04-10T09:59:01Z</time>
      </trkpt>
      <trkpt lat="47.16048" lon="-1.68711">
        <ele>74</ele>
        <time>2022-04-10T09:59:03Z</time>
      </trkpt>
      <trkpt lat="47.1605" lon="-1.68728">
        <ele>74</ele>
        <time>2022-04-10T09:59:05Z</time>
      </trkpt>
      <trkpt lat="47.16053" lon="-1.68746">
        <ele>75</ele>
        <time>2022-04-10T09:59:07Z</time>
      </trkpt>
      <trkpt lat="47.16056" lon="-1.68764">
        <ele>75</ele>
        <time>2022-04-10T09:59:09Z</time>
      </trkpt>
      <trkpt lat="47.1606" lon="-1.6878">
        <ele>75</ele>
        <time>2022-04-10T09:59:11Z</time>
      </trkpt>
      <trkpt lat="47.16065" lon="-1.68797">
        <ele>75</ele>
        <time>2022-04-10T09:59:13Z</time>
      </trkpt>
      <trkpt lat="47.1607" lon="-1.68813">
        <ele>76</ele>
        <time>2022-04-10T09:59:15Z</time>
      </trkpt>
      <trkpt lat="47.16075" lon="-1.6883">
        <ele>76</ele>
        <time>2022-04-10T09:59:17Z</time>
      </trkpt>
      <trkpt lat="47.1608" lon="-1.68847">
        <ele>76</ele>
        <time>2022-04-10T09:59:19Z</time>
      </trkpt>
      <trkpt lat="47.16085" lon="-1.68864">
        <ele>75</ele>
        <time>2022-04-10T09:59:21Z</time>
      </trkpt>
      <trkpt lat="47.1609" lon="-1.68881">
        <ele>75</ele>
        <time>2022-04-10T09:59:23Z</time>
      </trkpt>
      <trkpt lat="47.16096" lon="-1.68899">
        <ele>75</ele>
        <time>2022-04-10T09:59:25Z</time>
      </trkpt>
      <trkpt lat="47.16101" lon="-1.68918">
        <ele>75</ele>
        <time>2022-04-10T09:59:27Z</time>
      </trkpt>
      <trkpt lat="47.16106" lon="-1.68938">
        <ele>74</ele>
        <time>2022-04-10T09:59:29Z</time>
      </trkpt>
      <trkpt lat="47.16112" lon="-1.68958">
        <ele>73</ele>
        <time>2022-04-10T09:59:31Z</time>
      </trkpt>
      <trkpt lat="47.16118" lon="-1.6898">
        <ele>73</ele>
        <time>2022-04-10T09:59:33Z</time>
      </trkpt>
      <trkpt lat="47.16125" lon="-1.69002">
        <ele>73</ele>
        <time>2022-04-10T09:59:35Z</time>
      </trkpt>
      <trkpt lat="47.16131" lon="-1.69025">
        <ele>72</ele>
        <time>2022-04-10T09:59:37Z</time>
      </trkpt>
      <trkpt lat="47.16136" lon="-1.69049">
        <ele>72</ele>
        <time>2022-04-10T09:59:39Z</time>
      </trkpt>
      <trkpt lat="47.1614" lon="-1.69073">
        <ele>71</ele>
        <time>2022-04-10T09:59:41Z</time>
      </trkpt>
      <trkpt lat="47.16143" lon="-1.69096">
        <ele>71</ele>
        <time>2022-04-10T09:59:43Z</time>
      </trkpt>
      <trkpt lat="47.16145" lon="-1.6912">
        <ele>71</ele>
        <time>2022-04-10T09:59:45Z</time>
      </trkpt>
      <trkpt lat="47.16147" lon="-1.69143">
        <ele>71</ele>
        <time>2022-04-10T09:59:47Z</time>
      </trkpt>
      <trkpt lat="47.16147" lon="-1.69165">
        <ele>71</ele>
        <time>2022-04-10T09:59:49Z</time>
      </trkpt>
      <trkpt lat="47.16146" lon="-1.69189">
        <ele>71</ele>
        <time>2022-04-10T09:59:51Z</time>
      </trkpt>
      <trkpt lat="47.16145" lon="-1.69213">
        <ele>70</ele>
        <time>2022-04-10T09:59:53Z</time>
      </trkpt>
      <trkpt lat="47.16143" lon="-1.69236">
        <ele>70</ele>
        <time>2022-04-10T09:59:55Z</time>
      </trkpt>
      <trkpt lat="47.16141" lon="-1.69259">
        <ele>70</ele>
        <time>2022-04-10T09:59:57Z</time>
      </trkpt>
      <trkpt lat="47.16138" lon="-1.69282">
        <ele>70</ele>
        <time>2022-04-10T09:59:59Z</time>
      </trkpt>
      <trkpt lat="47.16135" lon="-1.69305">
        <ele>69</ele>
        <time>2022-04-10T10:00:01Z</time>
      </trkpt>
      <trkpt lat="47.16131" lon="-1.69326">
        <ele>70</ele>
        <time>2022-04-10T10:00:03Z</time>
      </trkpt>
      <trkpt lat="47.16128" lon="-1.69347">
        <ele>70</ele>
        <time>2022-04-10T10:00:05Z</time>
      </trkpt>
      <trkpt lat="47.16125" lon="-1.69369">
        <ele>70</ele>
        <time>2022-04-10T10:00:07Z</time>
      </trkpt>
      <trkpt lat="47.16123" lon="-1.6939">
        <ele>69</ele>
        <time>2022-04-10T10:00:09Z</time>
      </trkpt>
      <trkpt lat="47.16121" lon="-1.6941">
        <ele>69</ele>
        <time>2022-04-10T10:00:11Z</time>
      </trkpt>
      <trkpt lat="47.16119" lon="-1.6943">
        <ele>69</ele>
        <time>2022-04-10T10:00:13Z</time>
      </trkpt>
      <trkpt lat="47.16117" lon="-1.6945">
        <ele>69</ele>
        <time>2022-04-10T10:00:15Z</time>
      </trkpt>
      <trkpt lat="47.16116" lon="-1.6947">
        <ele>69</ele>
        <time>2022-04-10T10:00:17Z</time>
      </trkpt>
      <trkpt lat="47.16115" lon="-1.69489">
        <ele>70</ele>
        <time>2022-04-10T10:00:19Z</time>
      </trkpt>
      <trkpt lat="47.16113" lon="-1.69509">
        <ele>70</ele>
        <time>2022-04-10T10:00:21Z</time>
      </trkpt>
      <trkpt lat="47.16112" lon="-1.69528">
        <ele>70</ele>
        <time>2022-04-10T10:00:23Z</time>
      </trkpt>
      <trkpt lat="47.16111" lon="-1.69547">
        <ele>70</ele>
        <time>2022-04-10T10:00:25Z</time>
      </trkpt>
      <trkpt lat="47.16109" lon="-1.69567">
        <ele>70</ele>
        <time>2022-04-10T10:00:27Z</time>
      </trkpt>
      <trkpt lat="47.16108" lon="-1.69586">
        <ele>70</ele>
        <time>2022-04-10T10:00:29Z</time>
      </trkpt>
      <trkpt lat="47.16107" lon="-1.69605">
        <ele>70</ele>
        <time>2022-04-10T10:00:31Z</time>
      </trkpt>
      <trkpt lat="47.16106" lon="-1.69623">
        <ele>71</ele>
        <time>2022-04-10T10:00:33Z</time>
      </trkpt>
      <trkpt lat="47.16105" lon="-1.69642">
        <ele>71</ele>
        <time>2022-04-10T10:00:35Z</time>
      </trkpt>
      <trkpt lat="47.16103" lon="-1.69661">
        <ele>71</ele>
        <time>2022-04-10T10:00:37Z</time>
      </trkpt>
      <trkpt lat="47.16102" lon="-1.69679">
        <ele>71</ele>
        <time>2022-04-10T10:00:39Z</time>
      </trkpt>
      <trkpt lat="47.16101" lon="-1.69698">
        <ele>71</ele>
        <time>2022-04-10T10:00:41Z</time>
      </trkpt>
      <trkpt lat="47.161" lon="-1.69717">
        <ele>72</ele>
        <time>2022-04-10T10:00:43Z</time>
      </trkpt>
      <trkpt lat="47.16098" lon="-1.69737">
        <ele>72</ele>
        <time>2022-04-10T10:00:45Z</time>
      </trkpt>
      <trkpt lat="47.16096" lon="-1.69757">
        <ele>72</ele>
        <time>2022-04-10T10:00:47Z</time>
      </trkpt>
      <trkpt lat="47.16095" lon="-1.69776">
        <ele>72</ele>
        <time>2022-04-10T10:00:49Z</time>
      </trkpt>
      <trkpt lat="47.16094" lon="-1.69795">
        <ele>72</ele>
        <time>2022-04-10T10:00:51Z</time>
      </trkpt>
      <trkpt lat="47.16093" lon="-1.69815">
        <ele>73</ele>
        <time>2022-04-10T10:00:53Z</time>
      </trkpt>
      <trkpt lat="47.16092" lon="-1.69834">
        <ele>73</ele>
        <time>2022-04-10T10:00:55Z</time>
      </trkpt>
      <trkpt lat="47.16091" lon="-1.69853">
        <ele>73</ele>
        <time>2022-04-10T10:00:57Z</time>
      </trkpt>
      <trkpt lat="47.1609" lon="-1.69872">
        <ele>73</ele>
        <time>2022-04-10T10:00:59Z</time>
      </trkpt>
      <trkpt lat="47.16087" lon="-1.69893">
        <ele>73</ele>
        <time>2022-04-10T10:01:01Z</time>
      </trkpt>
      <trkpt lat="47.16086" lon="-1.69913">
        <ele>73</ele>
        <time>2022-04-10T10:01:03Z</time>
      </trkpt>
      <trkpt lat="47.16085" lon="-1.69932">
        <ele>74</ele>
        <time>2022-04-10T10:01:05Z</time>
      </trkpt>
      <trkpt lat="47.16082" lon="-1.69961">
        <ele>74</ele>
        <time>2022-04-10T10:01:08Z</time>
      </trkpt>
      <trkpt lat="47.1608" lon="-1.69992">
        <ele>73</ele>
        <time>2022-04-10T10:01:11Z</time>
      </trkpt>
      <trkpt lat="47.16079" lon="-1.70012">
        <ele>73</ele>
        <time>2022-04-10T10:01:13Z</time>
      </trkpt>
      <trkpt lat="47.16077" lon="-1.70042">
        <ele>74</ele>
        <time>2022-04-10T10:01:16Z</time>
      </trkpt>
      <trkpt lat="47.16075" lon="-1.70072">
        <ele>73</ele>
        <time>2022-04-10T10:01:19Z</time>
      </trkpt>
      <trkpt lat="47.16074" lon="-1.70092">
        <ele>73</ele>
        <time>2022-04-10T10:01:21Z</time>
      </trkpt>
      <trkpt lat="47.16071" lon="-1.70113">
        <ele>73</ele>
        <time>2022-04-10T10:01:23Z</time>
      </trkpt>
      <trkpt lat="47.16067" lon="-1.70132">
        <ele>73</ele>
        <time>2022-04-10T10:01:25Z</time>
      </trkpt>
      <trkpt lat="47.16062" lon="-1.7015">
        <ele>73</ele>
        <time>2022-04-10T10:01:27Z</time>
      </trkpt>
      <trkpt lat="47.16055" lon="-1.70168">
        <ele>73</ele>
        <time>2022-04-10T10:01:29Z</time>
      </trkpt>
      <trkpt lat="47.16048" lon="-1.70184">
        <ele>73</ele>
        <time>2022-04-10T10:01:31Z</time>
      </trkpt>
      <trkpt lat="47.16042" lon="-1.70199">
        <ele>73</ele>
        <time>2022-04-10T10:01:33Z</time>
      </trkpt>
      <trkpt lat="47.16034" lon="-1.70215">
        <ele>74</ele>
        <time>2022-04-10T10:01:35Z</time>
      </trkpt>
      <trkpt lat="47.16027" lon="-1.70231">
        <ele>74</ele>
        <time>2022-04-10T10:01:37Z</time>
      </trkpt>
      <trkpt lat="47.16019" lon="-1.70247">
        <ele>74</ele>
        <time>2022-04-10T10:01:39Z</time>
      </trkpt>
      <trkpt lat="47.16011" lon="-1.70264">
        <ele>75</ele>
        <time>2022-04-10T10:01:41Z</time>
      </trkpt>
      <trkpt lat="47.16003" lon="-1.7028">
        <ele>74</ele>
        <time>2022-04-10T10:01:43Z</time>
      </trkpt>
      <trkpt lat="47.15996" lon="-1.70297">
        <ele>75</ele>
        <time>2022-04-10T10:01:45Z</time>
      </trkpt>
      <trkpt lat="47.15988" lon="-1.70314">
        <ele>75</ele>
        <time>2022-04-10T10:01:47Z</time>
      </trkpt>
      <trkpt lat="47.15981" lon="-1.70332">
        <ele>75</ele>
        <time>2022-04-10T10:01:49Z</time>
      </trkpt>
      <trkpt lat="47.15973" lon="-1.70349">
        <ele>75</ele>
        <time>2022-04-10T10:01:51Z</time>
      </trkpt>
      <trkpt lat="47.15966" lon="-1.70365">
        <ele>75</ele>
        <time>2022-04-10T10:01:53Z</time>
      </trkpt>
      <trkpt lat="47.15959" lon="-1.70382">
        <ele>76</ele>
        <time>2022-04-10T10:01:55Z</time>
      </trkpt>
      <trkpt lat="47.15951" lon="-1.70398">
        <ele>76</ele>
        <time>2022-04-10T10:01:57Z</time>
      </trkpt>
      <trkpt lat="47.15944" lon="-1.70415">
        <ele>76</ele>
        <time>2022-04-10T10:01:59Z</time>
      </trkpt>
      <trkpt lat="47.15937" lon="-1.70431">
        <ele>76</ele>
        <time>2022-04-10T10:02:01Z</time>
      </trkpt>
      <trkpt lat="47.1593" lon="-1.70447">
        <ele>76</ele>
        <time>2022-04-10T10:02:03Z</time>
      </trkpt>
      <trkpt lat="47.15922" lon="-1.70462">
        <ele>76</ele>
        <time>2022-04-10T10:02:05Z</time>
      </trkpt>
      <trkpt lat="47.15913" lon="-1.7048">
        <ele>75</ele>
        <time>2022-04-10T10:02:07Z</time>
      </trkpt>
      <trkpt lat="47.15905" lon="-1.70497">
        <ele>74</ele>
        <time>2022-04-10T10:02:09Z</time>
      </trkpt>
      <trkpt lat="47.15898" lon="-1.70514">
        <ele>73</ele>
        <time>2022-04-10T10:02:11Z</time>
      </trkpt>
      <trkpt lat="47.15892" lon="-1.70532">
        <ele>73</ele>
        <time>2022-04-10T10:02:13Z</time>
      </trkpt>
      <trkpt lat="47.15887" lon="-1.7055">
        <ele>72</ele>
        <time>2022-04-10T10:02:15Z</time>
      </trkpt>
      <trkpt lat="47.15881" lon="-1.70569">
        <ele>72</ele>
        <time>2022-04-10T10:02:17Z</time>
      </trkpt>
      <trkpt lat="47.15876" lon="-1.70587">
        <ele>72</ele>
        <time>2022-04-10T10:02:19Z</time>
      </trkpt>
      <trkpt lat="47.15871" lon="-1.70605">
        <ele>71</ele>
        <time>2022-04-10T10:02:21Z</time>
      </trkpt>
      <trkpt lat="47.15865" lon="-1.70623">
        <ele>71</ele>
        <time>2022-04-10T10:02:23Z</time>
      </trkpt>
      <trkpt lat="47.1586" lon="-1.70641">
        <ele>71</ele>
        <time>2022-04-10T10:02:25Z</time>
      </trkpt>
      <trkpt lat="47.15854" lon="-1.70659">
        <ele>71</ele>
        <time>2022-04-10T10:02:27Z</time>
      </trkpt>
      <trkpt lat="47.15847" lon="-1.70675">
        <ele>71</ele>
        <time>2022-04-10T10:02:29Z</time>
      </trkpt>
      <trkpt lat="47.1584" lon="-1.70691">
        <ele>71</ele>
        <time>2022-04-10T10:02:31Z</time>
      </trkpt>
      <trkpt lat="47.15833" lon="-1.70707">
        <ele>71</ele>
        <time>2022-04-10T10:02:33Z</time>
      </trkpt>
      <trkpt lat="47.15826" lon="-1.70723">
        <ele>71</ele>
        <time>2022-04-10T10:02:35Z</time>
      </trkpt>
      <trkpt lat="47.15818" lon="-1.70738">
        <ele>71</ele>
        <time>2022-04-10T10:02:37Z</time>
      </trkpt>
      <trkpt lat="47.15811" lon="-1.70753">
        <ele>71</ele>
        <time>2022-04-10T10:02:39Z</time>
      </trkpt>
      <trkpt lat="47.15804" lon="-1.70768">
        <ele>71</ele>
        <time>2022-04-10T10:02:41Z</time>
      </trkpt>
      <trkpt lat="47.15797" lon="-1.70783">
        <ele>71</ele>
        <time>2022-04-10T10:02:43Z</time>
      </trkpt>
      <trkpt lat="47.1579" lon="-1.70799">
        <ele>71</ele>
        <time>2022-04-10T10:02:45Z</time>
      </trkpt>
      <trkpt lat="47.15783" lon="-1.70814">
        <ele>71</ele>
        <time>2022-04-10T10:02:47Z</time>
      </trkpt>
      <trkpt lat="47.15775" lon="-1.70829">
        <ele>71</ele>
        <time>2022-04-10T10:02:49Z</time>
      </trkpt>
      <trkpt lat="47.15767" lon="-1.70844">
        <ele>71</ele>
        <time>2022-04-10T10:02:51Z</time>
      </trkpt>
      <trkpt lat="47.15759" lon="-1.70859">
        <ele>71</ele>
        <time>2022-04-10T10:02:53Z</time>
      </trkpt>
      <trkpt lat="47.1575" lon="-1.70874">
        <ele>72</ele>
        <time>2022-04-10T10:02:55Z</time>
      </trkpt>
      <trkpt lat="47.15742" lon="-1.70889">
        <ele>72</ele>
        <time>2022-04-10T10:02:57Z</time>
      </trkpt>
      <trkpt lat="47.15734" lon="-1.70903">
        <ele>72</ele>
        <time>2022-04-10T10:02:59Z</time>
      </trkpt>
      <trkpt lat="47.15726" lon="-1.70918">
        <ele>72</ele>
        <time>2022-04-10T10:03:01Z</time>
      </trkpt>
      <trkpt lat="47.15718" lon="-1.70933">
        <ele>72</ele>
        <time>2022-04-10T10:03:03Z</time>
      </trkpt>
      <trkpt lat="47.1571" lon="-1.70948">
        <ele>72</ele>
        <time>2022-04-10T10:03:05Z</time>
      </trkpt>
      <trkpt lat="47.15703" lon="-1.70963">
        <ele>72</ele>
        <time>2022-04-10T10:03:07Z</time>
      </trkpt>
      <trkpt lat="47.15695" lon="-1.70978">
        <ele>72</ele>
        <time>2022-04-10T10:03:09Z</time>
      </trkpt>
      <trkpt lat="47.15688" lon="-1.70993">
        <ele>72</ele>
        <time>2022-04-10T10:03:11Z</time>
      </trkpt>
      <trkpt lat="47.15682" lon="-1.71009">
        <ele>72</ele>
        <time>2022-04-10T10:03:13Z</time>
      </trkpt>
      <trkpt lat="47.15675" lon="-1.71023">
        <ele>72</ele>
        <time>2022-04-10T10:03:15Z</time>
      </trkpt>
      <trkpt lat="47.15669" lon="-1.71037">
        <ele>72</ele>
        <time>2022-04-10T10:03:17Z</time>
      </trkpt>
      <trkpt lat="47.15662" lon="-1.71051">
        <ele>72</ele>
        <time>2022-04-10T10:03:19Z</time>
      </trkpt>
      <trkpt lat="47.15657" lon="-1.71062">
        <ele>72</ele>
        <time>2022-04-10T10:03:22Z</time>
      </trkpt>
      <trkpt lat="47.15647" lon="-1.7107">
        <ele>72</ele>
        <time>2022-04-10T10:03:34Z</time>
      </trkpt>
      <trkpt lat="47.15637" lon="-1.71077">
        <ele>72</ele>
        <time>2022-04-10T10:03:36Z</time>
      </trkpt>
      <trkpt lat="47.15629" lon="-1.71088">
        <ele>72</ele>
        <time>2022-04-10T10:03:38Z</time>
      </trkpt>
      <trkpt lat="47.15622" lon="-1.71101">
        <ele>72</ele>
        <time>2022-04-10T10:03:40Z</time>
      </trkpt>
      <trkpt lat="47.15615" lon="-1.71114">
        <ele>73</ele>
        <time>2022-04-10T10:03:42Z</time>
      </trkpt>
      <trkpt lat="47.15608" lon="-1.71127">
        <ele>73</ele>
        <time>2022-04-10T10:03:44Z</time>
      </trkpt>
      <trkpt lat="47.15602" lon="-1.71139">
        <ele>73</ele>
        <time>2022-04-10T10:03:46Z</time>
      </trkpt>
      <trkpt lat="47.15596" lon="-1.7115">
        <ele>73</ele>
        <time>2022-04-10T10:03:48Z</time>
      </trkpt>
      <trkpt lat="47.15587" lon="-1.71163">
        <ele>73</ele>
        <time>2022-04-10T10:03:51Z</time>
      </trkpt>
      <trkpt lat="47.15582" lon="-1.71175">
        <ele>74</ele>
        <time>2022-04-10T10:05:26Z</time>
      </trkpt>
      <trkpt lat="47.15573" lon="-1.7119">
        <ele>74</ele>
        <time>2022-04-10T10:05:29Z</time>
      </trkpt>
      <trkpt lat="47.15565" lon="-1.71202">
        <ele>73</ele>
        <time>2022-04-10T10:05:31Z</time>
      </trkpt>
      <trkpt lat="47.15558" lon="-1.71216">
        <ele>74</ele>
        <time>2022-04-10T10:05:33Z</time>
      </trkpt>
      <trkpt lat="47.15551" lon="-1.71231">
        <ele>73</ele>
        <time>2022-04-10T10:05:35Z</time>
      </trkpt>
      <trkpt lat="47.15544" lon="-1.71248">
        <ele>73</ele>
        <time>2022-04-10T10:05:37Z</time>
      </trkpt>
      <trkpt lat="47.15537" lon="-1.71265">
        <ele>73</ele>
        <time>2022-04-10T10:05:39Z</time>
      </trkpt>
      <trkpt lat="47.1553" lon="-1.71282">
        <ele>73</ele>
        <time>2022-04-10T10:05:41Z</time>
      </trkpt>
      <trkpt lat="47.15522" lon="-1.71298">
        <ele>73</ele>
        <time>2022-04-10T10:05:43Z</time>
      </trkpt>
      <trkpt lat="47.15515" lon="-1.71315">
        <ele>72</ele>
        <time>2022-04-10T10:05:45Z</time>
      </trkpt>
      <trkpt lat="47.15506" lon="-1.71332">
        <ele>72</ele>
        <time>2022-04-10T10:05:47Z</time>
      </trkpt>
      <trkpt lat="47.15496" lon="-1.71347">
        <ele>73</ele>
        <time>2022-04-10T10:05:49Z</time>
      </trkpt>
      <trkpt lat="47.15487" lon="-1.71362">
        <ele>73</ele>
        <time>2022-04-10T10:05:51Z</time>
      </trkpt>
      <trkpt lat="47.15476" lon="-1.71377">
        <ele>73</ele>
        <time>2022-04-10T10:05:53Z</time>
      </trkpt>
      <trkpt lat="47.15466" lon="-1.7139">
        <ele>73</ele>
        <time>2022-04-10T10:05:55Z</time>
      </trkpt>
      <trkpt lat="47.15455" lon="-1.71401">
        <ele>72</ele>
        <time>2022-04-10T10:05:57Z</time>
      </trkpt>
      <trkpt lat="47.15444" lon="-1.71412">
        <ele>72</ele>
        <time>2022-04-10T10:05:59Z</time>
      </trkpt>
      <trkpt lat="47.15433" lon="-1.71423">
        <ele>72</ele>
        <time>2022-04-10T10:06:01Z</time>
      </trkpt>
      <trkpt lat="47.15422" lon="-1.71434">
        <ele>72</ele>
        <time>2022-04-10T10:06:03Z</time>
      </trkpt>
      <trkpt lat="47.15411" lon="-1.71444">
        <ele>72</ele>
        <time>2022-04-10T10:06:05Z</time>
      </trkpt>
      <trkpt lat="47.15399" lon="-1.71454">
        <ele>72</ele>
        <time>2022-04-10T10:06:07Z</time>
      </trkpt>
      <trkpt lat="47.15388" lon="-1.71464">
        <ele>72</ele>
        <time>2022-04-10T10:06:09Z</time>
      </trkpt>
      <trkpt lat="47.15376" lon="-1.71473">
        <ele>72</ele>
        <time>2022-04-10T10:06:11Z</time>
      </trkpt>
      <trkpt lat="47.15364" lon="-1.71484">
        <ele>71</ele>
        <time>2022-04-10T10:06:13Z</time>
      </trkpt>
      <trkpt lat="47.15352" lon="-1.71496">
        <ele>71</ele>
        <time>2022-04-10T10:06:15Z</time>
      </trkpt>
      <trkpt lat="47.15341" lon="-1.71508">
        <ele>71</ele>
        <time>2022-04-10T10:06:17Z</time>
      </trkpt>
      <trkpt lat="47.1533" lon="-1.7152">
        <ele>71</ele>
        <time>2022-04-10T10:06:19Z</time>
      </trkpt>
      <trkpt lat="47.15319" lon="-1.71533">
        <ele>71</ele>
        <time>2022-04-10T10:06:21Z</time>
      </trkpt>
      <trkpt lat="47.15308" lon="-1.71545">
        <ele>70</ele>
        <time>2022-04-10T10:06:23Z</time>
      </trkpt>
      <trkpt lat="47.15296" lon="-1.71558">
        <ele>70</ele>
        <time>2022-04-10T10:06:25Z</time>
      </trkpt>
      <trkpt lat="47.15285" lon="-1.7157">
        <ele>70</ele>
        <time>2022-04-10T10:06:27Z</time>
      </trkpt>
      <trkpt lat="47.15274" lon="-1.71582">
        <ele>70</ele>
        <time>2022-04-10T10:06:29Z</time>
      </trkpt>
      <trkpt lat="47.15263" lon="-1.71594">
        <ele>70</ele>
        <time>2022-04-10T10:06:31Z</time>
      </trkpt>
      <trkpt lat="47.15253" lon="-1.71607">
        <ele>70</ele>
        <time>2022-04-10T10:06:33Z</time>
      </trkpt>
      <trkpt lat="47.15244" lon="-1.71621">
        <ele>70</ele>
        <time>2022-04-10T10:06:35Z</time>
      </trkpt>
      <trkpt lat="47.15231" lon="-1.71626">
        <ele>70</ele>
        <time>2022-04-10T10:06:37Z</time>
      </trkpt>
      <trkpt lat="47.15219" lon="-1.71617">
        <ele>70</ele>
        <time>2022-04-10T10:06:39Z</time>
      </trkpt>
      <trkpt lat="47.15208" lon="-1.71609">
        <ele>70</ele>
        <time>2022-04-10T10:06:41Z</time>
      </trkpt>
      <trkpt lat="47.15198" lon="-1.71601">
        <ele>70</ele>
        <time>2022-04-10T10:06:43Z</time>
      </trkpt>
      <trkpt lat="47.15188" lon="-1.71594">
        <ele>70</ele>
        <time>2022-04-10T10:06:45Z</time>
      </trkpt>
      <trkpt lat="47.15178" lon="-1.71586">
        <ele>70</ele>
        <time>2022-04-10T10:06:47Z</time>
      </trkpt>
      <trkpt lat="47.15168" lon="-1.71579">
        <ele>70</ele>
        <time>2022-04-10T10:06:49Z</time>
      </trkpt>
      <trkpt lat="47.15158" lon="-1.71571">
        <ele>70</ele>
        <time>2022-04-10T10:06:51Z</time>
      </trkpt>
      <trkpt lat="47.15148" lon="-1.71563">
        <ele>70</ele>
        <time>2022-04-10T10:06:53Z</time>
      </trkpt>
      <trkpt lat="47.15137" lon="-1.71555">
        <ele>70</ele>
        <time>2022-04-10T10:06:55Z</time>
      </trkpt>
      <trkpt lat="47.15127" lon="-1.71546">
        <ele>70</ele>
        <time>2022-04-10T10:06:57Z</time>
      </trkpt>
      <trkpt lat="47.15117" lon="-1.71538">
        <ele>70</ele>
        <time>2022-04-10T10:06:59Z</time>
      </trkpt>
      <trkpt lat="47.15108" lon="-1.71529">
        <ele>70</ele>
        <time>2022-04-10T10:07:01Z</time>
      </trkpt>
      <trkpt lat="47.15099" lon="-1.7152">
        <ele>71</ele>
        <time>2022-04-10T10:07:03Z</time>
      </trkpt>
      <trkpt lat="47.15091" lon="-1.71512">
        <ele>71</ele>
        <time>2022-04-10T10:07:05Z</time>
      </trkpt>
      <trkpt lat="47.15081" lon="-1.71502">
        <ele>71</ele>
        <time>2022-04-10T10:07:07Z</time>
      </trkpt>
      <trkpt lat="47.15072" lon="-1.71491">
        <ele>71</ele>
        <time>2022-04-10T10:07:09Z</time>
      </trkpt>
      <trkpt lat="47.15061" lon="-1.71481">
        <ele>71</ele>
        <time>2022-04-10T10:07:11Z</time>
      </trkpt>
      <trkpt lat="47.15051" lon="-1.71472">
        <ele>71</ele>
        <time>2022-04-10T10:07:13Z</time>
      </trkpt>
      <trkpt lat="47.15041" lon="-1.71464">
        <ele>70</ele>
        <time>2022-04-10T10:07:15Z</time>
      </trkpt>
      <trkpt lat="47.15032" lon="-1.71455">
        <ele>70</ele>
        <time>2022-04-10T10:07:17Z</time>
      </trkpt>
      <trkpt lat="47.15023" lon="-1.71446">
        <ele>70</ele>
        <time>2022-04-10T10:07:19Z</time>
      </trkpt>
      <trkpt lat="47.15014" lon="-1.71438">
        <ele>71</ele>
        <time>2022-04-10T10:07:21Z</time>
      </trkpt>
      <trkpt lat="47.15005" lon="-1.71429">
        <ele>71</ele>
        <time>2022-04-10T10:07:23Z</time>
      </trkpt>
      <trkpt lat="47.14997" lon="-1.71421">
        <ele>71</ele>
        <time>2022-04-10T10:07:25Z</time>
      </trkpt>
      <trkpt lat="47.14989" lon="-1.71413">
        <ele>71</ele>
        <time>2022-04-10T10:07:27Z</time>
      </trkpt>
      <trkpt lat="47.14981" lon="-1.71405">
        <ele>72</ele>
        <time>2022-04-10T10:07:29Z</time>
      </trkpt>
      <trkpt lat="47.14973" lon="-1.71397">
        <ele>72</ele>
        <time>2022-04-10T10:07:31Z</time>
      </trkpt>
      <trkpt lat="47.14964" lon="-1.71389">
        <ele>72</ele>
        <time>2022-04-10T10:07:33Z</time>
      </trkpt>
      <trkpt lat="47.14956" lon="-1.7138">
        <ele>72</ele>
        <time>2022-04-10T10:07:35Z</time>
      </trkpt>
      <trkpt lat="47.14948" lon="-1.71371">
        <ele>73</ele>
        <time>2022-04-10T10:07:37Z</time>
      </trkpt>
      <trkpt lat="47.1494" lon="-1.71362">
        <ele>73</ele>
        <time>2022-04-10T10:07:39Z</time>
      </trkpt>
      <trkpt lat="47.14933" lon="-1.71352">
        <ele>73</ele>
        <time>2022-04-10T10:07:41Z</time>
      </trkpt>
      <trkpt lat="47.14925" lon="-1.71343">
        <ele>72</ele>
        <time>2022-04-10T10:07:43Z</time>
      </trkpt>
      <trkpt lat="47.14917" lon="-1.71332">
        <ele>73</ele>
        <time>2022-04-10T10:07:45Z</time>
      </trkpt>
      <trkpt lat="47.14909" lon="-1.71322">
        <ele>73</ele>
        <time>2022-04-10T10:07:47Z</time>
      </trkpt>
      <trkpt lat="47.14901" lon="-1.71313">
        <ele>73</ele>
        <time>2022-04-10T10:07:49Z</time>
      </trkpt>
      <trkpt lat="47.14893" lon="-1.71303">
        <ele>73</ele>
        <time>2022-04-10T10:07:51Z</time>
      </trkpt>
      <trkpt lat="47.14885" lon="-1.71295">
        <ele>73</ele>
        <time>2022-04-10T10:07:53Z</time>
      </trkpt>
      <trkpt lat="47.14876" lon="-1.71287">
        <ele>73</ele>
        <time>2022-04-10T10:07:55Z</time>
      </trkpt>
      <trkpt lat="47.14868" lon="-1.7128">
        <ele>73</ele>
        <time>2022-04-10T10:07:57Z</time>
      </trkpt>
      <trkpt lat="47.1486" lon="-1.71271">
        <ele>73</ele>
        <time>2022-04-10T10:07:59Z</time>
      </trkpt>
      <trkpt lat="47.14853" lon="-1.7126">
        <ele>73</ele>
        <time>2022-04-10T10:08:01Z</time>
      </trkpt>
      <trkpt lat="47.14847" lon="-1.71248">
        <ele>73</ele>
        <time>2022-04-10T10:08:03Z</time>
      </trkpt>
      <trkpt lat="47.14842" lon="-1.71235">
        <ele>73</ele>
        <time>2022-04-10T10:08:05Z</time>
      </trkpt>
      <trkpt lat="47.14837" lon="-1.71222">
        <ele>73</ele>
        <time>2022-04-10T10:08:07Z</time>
      </trkpt>
      <trkpt lat="47.14832" lon="-1.71208">
        <ele>73</ele>
        <time>2022-04-10T10:08:09Z</time>
      </trkpt>
      <trkpt lat="47.14827" lon="-1.71195">
        <ele>73</ele>
        <time>2022-04-10T10:08:11Z</time>
      </trkpt>
      <trkpt lat="47.14823" lon="-1.71182">
        <ele>73</ele>
        <time>2022-04-10T10:08:13Z</time>
      </trkpt>
      <trkpt lat="47.14818" lon="-1.71169">
        <ele>73</ele>
        <time>2022-04-10T10:08:15Z</time>
      </trkpt>
      <trkpt lat="47.14813" lon="-1.71155">
        <ele>73</ele>
        <time>2022-04-10T10:08:17Z</time>
      </trkpt>
      <trkpt lat="47.14807" lon="-1.71142">
        <ele>73</ele>
        <time>2022-04-10T10:08:19Z</time>
      </trkpt>
      <trkpt lat="47.14802" lon="-1.71129">
        <ele>73</ele>
        <time>2022-04-10T10:08:21Z</time>
      </trkpt>
      <trkpt lat="47.14796" lon="-1.71117">
        <ele>73</ele>
        <time>2022-04-10T10:08:23Z</time>
      </trkpt>
      <trkpt lat="47.1479" lon="-1.71104">
        <ele>73</ele>
        <time>2022-04-10T10:08:25Z</time>
      </trkpt>
      <trkpt lat="47.14784" lon="-1.7109">
        <ele>73</ele>
        <time>2022-04-10T10:08:27Z</time>
      </trkpt>
      <trkpt lat="47.14779" lon="-1.71076">
        <ele>73</ele>
        <time>2022-04-10T10:08:29Z</time>
      </trkpt>
      <trkpt lat="47.14774" lon="-1.71061">
        <ele>73</ele>
        <time>2022-04-10T10:08:31Z</time>
      </trkpt>
      <trkpt lat="47.14769" lon="-1.71047">
        <ele>73</ele>
        <time>2022-04-10T10:08:33Z</time>
      </trkpt>
      <trkpt lat="47.14764" lon="-1.71032">
        <ele>73</ele>
        <time>2022-04-10T10:08:35Z</time>
      </trkpt>
      <trkpt lat="47.1476" lon="-1.71018">
        <ele>72</ele>
        <time>2022-04-10T10:08:37Z</time>
      </trkpt>
      <trkpt lat="47.14756" lon="-1.71003">
        <ele>72</ele>
        <time>2022-04-10T10:08:39Z</time>
      </trkpt>
      <trkpt lat="47.14752" lon="-1.7099">
        <ele>72</ele>
        <time>2022-04-10T10:08:41Z</time>
      </trkpt>
      <trkpt lat="47.14745" lon="-1.70981">
        <ele>72</ele>
        <time>2022-04-10T10:08:43Z</time>
      </trkpt>
      <trkpt lat="47.14735" lon="-1.70985">
        <ele>72</ele>
        <time>2022-04-10T10:08:45Z</time>
      </trkpt>
      <trkpt lat="47.14726" lon="-1.70996">
        <ele>72</ele>
        <time>2022-04-10T10:08:47Z</time>
      </trkpt>
      <trkpt lat="47.1472" lon="-1.71008">
        <ele>72</ele>
        <time>2022-04-10T10:08:49Z</time>
      </trkpt>
      <trkpt lat="47.14715" lon="-1.71022">
        <ele>72</ele>
        <time>2022-04-10T10:08:51Z</time>
      </trkpt>
      <trkpt lat="47.14714" lon="-1.71039">
        <ele>71</ele>
        <time>2022-04-10T10:08:53Z</time>
      </trkpt>
      <trkpt lat="47.14714" lon="-1.71056">
        <ele>72</ele>
        <time>2022-04-10T10:08:55Z</time>
      </trkpt>
      <trkpt lat="47.14716" lon="-1.71071">
        <ele>71</ele>
        <time>2022-04-10T10:08:57Z</time>
      </trkpt>
      <trkpt lat="47.14719" lon="-1.71088">
        <ele>71</ele>
        <time>2022-04-10T10:08:59Z</time>
      </trkpt>
      <trkpt lat="47.1472" lon="-1.71105">
        <ele>71</ele>
        <time>2022-04-10T10:09:01Z</time>
      </trkpt>
      <trkpt lat="47.14723" lon="-1.71122">
        <ele>71</ele>
        <time>2022-04-10T10:09:03Z</time>
      </trkpt>
      <trkpt lat="47.14725" lon="-1.7114">
        <ele>71</ele>
        <time>2022-04-10T10:09:05Z</time>
      </trkpt>
      <trkpt lat="47.14728" lon="-1.71158">
        <ele>71</ele>
        <time>2022-04-10T10:09:07Z</time>
      </trkpt>
      <trkpt lat="47.14731" lon="-1.71176">
        <ele>71</ele>
        <time>2022-04-10T10:09:09Z</time>
      </trkpt>
      <trkpt lat="47.14735" lon="-1.71194">
        <ele>71</ele>
        <time>2022-04-10T10:09:11Z</time>
      </trkpt>
      <trkpt lat="47.1474" lon="-1.71211">
        <ele>71</ele>
        <time>2022-04-10T10:09:13Z</time>
      </trkpt>
      <trkpt lat="47.14744" lon="-1.71228">
        <ele>72</ele>
        <time>2022-04-10T10:09:15Z</time>
      </trkpt>
      <trkpt lat="47.14749" lon="-1.71244">
        <ele>72</ele>
        <time>2022-04-10T10:09:17Z</time>
      </trkpt>
      <trkpt lat="47.14754" lon="-1.71261">
        <ele>72</ele>
        <time>2022-04-10T10:09:19Z</time>
      </trkpt>
      <trkpt lat="47.14758" lon="-1.71278">
        <ele>73</ele>
        <time>2022-04-10T10:09:21Z</time>
      </trkpt>
      <trkpt lat="47.14761" lon="-1.71295">
        <ele>73</ele>
        <time>2022-04-10T10:09:23Z</time>
      </trkpt>
      <trkpt lat="47.14766" lon="-1.71312">
        <ele>73</ele>
        <time>2022-04-10T10:09:25Z</time>
      </trkpt>
      <trkpt lat="47.14769" lon="-1.7133">
        <ele>73</ele>
        <time>2022-04-10T10:09:27Z</time>
      </trkpt>
      <trkpt lat="47.14771" lon="-1.71349">
        <ele>73</ele>
        <time>2022-04-10T10:09:29Z</time>
      </trkpt>
      <trkpt lat="47.14774" lon="-1.71367">
        <ele>73</ele>
        <time>2022-04-10T10:09:31Z</time>
      </trkpt>
      <trkpt lat="47.14776" lon="-1.71386">
        <ele>73</ele>
        <time>2022-04-10T10:09:33Z</time>
      </trkpt>
      <trkpt lat="47.14779" lon="-1.71403">
        <ele>74</ele>
        <time>2022-04-10T10:09:35Z</time>
      </trkpt>
      <trkpt lat="47.14781" lon="-1.71421">
        <ele>73</ele>
        <time>2022-04-10T10:09:37Z</time>
      </trkpt>
      <trkpt lat="47.14784" lon="-1.71439">
        <ele>73</ele>
        <time>2022-04-10T10:09:39Z</time>
      </trkpt>
      <trkpt lat="47.14786" lon="-1.71457">
        <ele>73</ele>
        <time>2022-04-10T10:09:41Z</time>
      </trkpt>
      <trkpt lat="47.14789" lon="-1.71475">
        <ele>73</ele>
        <time>2022-04-10T10:09:43Z</time>
      </trkpt>
      <trkpt lat="47.14792" lon="-1.71492">
        <ele>73</ele>
        <time>2022-04-10T10:09:45Z</time>
      </trkpt>
      <trkpt lat="47.14794" lon="-1.71511">
        <ele>73</ele>
        <time>2022-04-10T10:09:47Z</time>
      </trkpt>
      <trkpt lat="47.14795" lon="-1.71529">
        <ele>73</ele>
        <time>2022-04-10T10:09:49Z</time>
      </trkpt>
      <trkpt lat="47.14795" lon="-1.71547">
        <ele>73</ele>
        <time>2022-04-10T10:09:51Z</time>
      </trkpt>
      <trkpt lat="47.14794" lon="-1.71566">
        <ele>73</ele>
        <time>2022-04-10T10:09:53Z</time>
      </trkpt>
      <trkpt lat="47.14793" lon="-1.71584">
        <ele>73</ele>
        <time>2022-04-10T10:09:55Z</time>
      </trkpt>
      <trkpt lat="47.1479" lon="-1.71602">
        <ele>73</ele>
        <time>2022-04-10T10:09:57Z</time>
      </trkpt>
      <trkpt lat="47.14787" lon="-1.71619">
        <ele>73</ele>
        <time>2022-04-10T10:09:59Z</time>
      </trkpt>
      <trkpt lat="47.14784" lon="-1.71636">
        <ele>73</ele>
        <time>2022-04-10T10:10:01Z</time>
      </trkpt>
      <trkpt lat="47.14781" lon="-1.71654">
        <ele>73</ele>
        <time>2022-04-10T10:10:03Z</time>
      </trkpt>
      <trkpt lat="47.14778" lon="-1.71671">
        <ele>73</ele>
        <time>2022-04-10T10:10:05Z</time>
      </trkpt>
      <trkpt lat="47.14775" lon="-1.71688">
        <ele>73</ele>
        <time>2022-04-10T10:10:07Z</time>
      </trkpt>
      <trkpt lat="47.14772" lon="-1.71706">
        <ele>73</ele>
        <time>2022-04-10T10:10:09Z</time>
      </trkpt>
      <trkpt lat="47.14769" lon="-1.71724">
        <ele>73</ele>
        <time>2022-04-10T10:10:11Z</time>
      </trkpt>
      <trkpt lat="47.14766" lon="-1.71741">
        <ele>73</ele>
        <time>2022-04-10T10:10:13Z</time>
      </trkpt>
      <trkpt lat="47.14763" lon="-1.71759">
        <ele>74</ele>
        <time>2022-04-10T10:10:15Z</time>
      </trkpt>
      <trkpt lat="47.14758" lon="-1.71775">
        <ele>74</ele>
        <time>2022-04-10T10:10:17Z</time>
      </trkpt>
      <trkpt lat="47.14752" lon="-1.71791">
        <ele>74</ele>
        <time>2022-04-10T10:10:19Z</time>
      </trkpt>
      <trkpt lat="47.14743" lon="-1.71804">
        <ele>74</ele>
        <time>2022-04-10T10:10:21Z</time>
      </trkpt>
      <trkpt lat="47.14733" lon="-1.71815">
        <ele>74</ele>
        <time>2022-04-10T10:10:23Z</time>
      </trkpt>
      <trkpt lat="47.14721" lon="-1.71823">
        <ele>74</ele>
        <time>2022-04-10T10:10:25Z</time>
      </trkpt>
      <trkpt lat="47.14709" lon="-1.71829">
        <ele>74</ele>
        <time>2022-04-10T10:10:27Z</time>
      </trkpt>
      <trkpt lat="47.14696" lon="-1.71836">
        <ele>74</ele>
        <time>2022-04-10T10:10:29Z</time>
      </trkpt>
      <trkpt lat="47.14684" lon="-1.71841">
        <ele>74</ele>
        <time>2022-04-10T10:10:31Z</time>
      </trkpt>
      <trkpt lat="47.14672" lon="-1.71847">
        <ele>74</ele>
        <time>2022-04-10T10:10:33Z</time>
      </trkpt>
      <trkpt lat="47.14661" lon="-1.71852">
        <ele>74</ele>
        <time>2022-04-10T10:10:35Z</time>
      </trkpt>
      <trkpt lat="47.14649" lon="-1.71855">
        <ele>74</ele>
        <time>2022-04-10T10:10:37Z</time>
      </trkpt>
      <trkpt lat="47.14636" lon="-1.71856">
        <ele>74</ele>
        <time>2022-04-10T10:10:39Z</time>
      </trkpt>
      <trkpt lat="47.14624" lon="-1.71856">
        <ele>73</ele>
        <time>2022-04-10T10:10:41Z</time>
      </trkpt>
      <trkpt lat="47.14611" lon="-1.71854">
        <ele>73</ele>
        <time>2022-04-10T10:10:43Z</time>
      </trkpt>
      <trkpt lat="47.14599" lon="-1.71851">
        <ele>73</ele>
        <time>2022-04-10T10:10:45Z</time>
      </trkpt>
      <trkpt lat="47.14587" lon="-1.71846">
        <ele>74</ele>
        <time>2022-04-10T10:10:47Z</time>
      </trkpt>
      <trkpt lat="47.14575" lon="-1.71841">
        <ele>73</ele>
        <time>2022-04-10T10:10:49Z</time>
      </trkpt>
      <trkpt lat="47.14563" lon="-1.71834">
        <ele>73</ele>
        <time>2022-04-10T10:10:51Z</time>
      </trkpt>
      <trkpt lat="47.14551" lon="-1.71828">
        <ele>73</ele>
        <time>2022-04-10T10:10:53Z</time>
      </trkpt>
      <trkpt lat="47.1454" lon="-1.71823">
        <ele>73</ele>
        <time>2022-04-10T10:10:55Z</time>
      </trkpt>
      <trkpt lat="47.14528" lon="-1.71817">
        <ele>72</ele>
        <time>2022-04-10T10:10:57Z</time>
      </trkpt>
      <trkpt lat="47.14516" lon="-1.71811">
        <ele>72</ele>
        <time>2022-04-10T10:10:59Z</time>
      </trkpt>
      <trkpt lat="47.14505" lon="-1.71806">
        <ele>71</ele>
        <time>2022-04-10T10:11:01Z</time>
      </trkpt>
      <trkpt lat="47.14494" lon="-1.718">
        <ele>71</ele>
        <time>2022-04-10T10:11:03Z</time>
      </trkpt>
      <trkpt lat="47.14482" lon="-1.71795">
        <ele>71</ele>
        <time>2022-04-10T10:11:05Z</time>
      </trkpt>
      <trkpt lat="47.1447" lon="-1.7179">
        <ele>72</ele>
        <time>2022-04-10T10:11:07Z</time>
      </trkpt>
      <trkpt lat="47.14458" lon="-1.71786">
        <ele>72</ele>
        <time>2022-04-10T10:11:09Z</time>
      </trkpt>
      <trkpt lat="47.14446" lon="-1.71782">
        <ele>71</ele>
        <time>2022-04-10T10:11:11Z</time>
      </trkpt>
      <trkpt lat="47.14433" lon="-1.7178">
        <ele>71</ele>
        <time>2022-04-10T10:11:13Z</time>
      </trkpt>
      <trkpt lat="47.14421" lon="-1.7178">
        <ele>71</ele>
        <time>2022-04-10T10:11:15Z</time>
      </trkpt>
      <trkpt lat="47.14407" lon="-1.71781">
        <ele>71</ele>
        <time>2022-04-10T10:11:17Z</time>
      </trkpt>
      <trkpt lat="47.14395" lon="-1.71784">
        <ele>71</ele>
        <time>2022-04-10T10:11:19Z</time>
      </trkpt>
      <trkpt lat="47.14382" lon="-1.71788">
        <ele>70</ele>
        <time>2022-04-10T10:11:21Z</time>
      </trkpt>
      <trkpt lat="47.1437" lon="-1.71792">
        <ele>70</ele>
        <time>2022-04-10T10:11:23Z</time>
      </trkpt>
      <trkpt lat="47.14358" lon="-1.71796">
        <ele>70</ele>
        <time>2022-04-10T10:11:25Z</time>
      </trkpt>
      <trkpt lat="47.14346" lon="-1.718">
        <ele>70</ele>
        <time>2022-04-10T10:11:27Z</time>
      </trkpt>
      <trkpt lat="47.14333" lon="-1.71804">
        <ele>70</ele>
        <time>2022-04-10T10:11:29Z</time>
      </trkpt>
      <trkpt lat="47.14321" lon="-1.71808">
        <ele>70</ele>
        <time>2022-04-10T10:11:31Z</time>
      </trkpt>
      <trkpt lat="47.14308" lon="-1.71812">
        <ele>69</ele>
        <time>2022-04-10T10:11:33Z</time>
      </trkpt>
      <trkpt lat="47.14295" lon="-1.71817">
        <ele>69</ele>
        <time>2022-04-10T10:11:35Z</time>
      </trkpt>
      <trkpt lat="47.14283" lon="-1.71821">
        <ele>69</ele>
        <time>2022-04-10T10:11:37Z</time>
      </trkpt>
      <trkpt lat="47.14263" lon="-1.71828">
        <ele>69</ele>
        <time>2022-04-10T10:11:40Z</time>
      </trkpt>
      <trkpt lat="47.1425" lon="-1.71832">
        <ele>69</ele>
        <time>2022-04-10T10:11:42Z</time>
      </trkpt>
      <trkpt lat="47.14236" lon="-1.71836">
        <ele>68</ele>
        <time>2022-04-10T10:11:44Z</time>
      </trkpt>
      <trkpt lat="47.14223" lon="-1.71841">
        <ele>68</ele>
        <time>2022-04-10T10:11:46Z</time>
      </trkpt>
      <trkpt lat="47.14211" lon="-1.71845">
        <ele>68</ele>
        <time>2022-04-10T10:11:48Z</time>
      </trkpt>
      <trkpt lat="47.14198" lon="-1.71849">
        <ele>68</ele>
        <time>2022-04-10T10:11:50Z</time>
      </trkpt>
      <trkpt lat="47.14185" lon="-1.71853">
        <ele>67</ele>
        <time>2022-04-10T10:11:52Z</time>
      </trkpt>
      <trkpt lat="47.14172" lon="-1.71858">
        <ele>67</ele>
        <time>2022-04-10T10:11:54Z</time>
      </trkpt>
      <trkpt lat="47.14159" lon="-1.71862">
        <ele>67</ele>
        <time>2022-04-10T10:11:56Z</time>
      </trkpt>
      <trkpt lat="47.14146" lon="-1.71866">
        <ele>66</ele>
        <time>2022-04-10T10:11:58Z</time>
      </trkpt>
      <trkpt lat="47.14131" lon="-1.71872">
        <ele>66</ele>
        <time>2022-04-10T10:12:00Z</time>
      </trkpt>
      <trkpt lat="47.14118" lon="-1.71877">
        <ele>65</ele>
        <time>2022-04-10T10:12:02Z</time>
      </trkpt>
      <trkpt lat="47.14103" lon="-1.71881">
        <ele>64</ele>
        <time>2022-04-10T10:12:04Z</time>
      </trkpt>
      <trkpt lat="47.14088" lon="-1.71886">
        <ele>64</ele>
        <time>2022-04-10T10:12:06Z</time>
      </trkpt>
      <trkpt lat="47.14073" lon="-1.71891">
        <ele>63</ele>
        <time>2022-04-10T10:12:08Z</time>
      </trkpt>
      <trkpt lat="47.14058" lon="-1.71895">
        <ele>62</ele>
        <time>2022-04-10T10:12:10Z</time>
      </trkpt>
      <trkpt lat="47.14044" lon="-1.719">
        <ele>62</ele>
        <time>2022-04-10T10:12:12Z</time>
      </trkpt>
      <trkpt lat="47.14031" lon="-1.71903">
        <ele>61</ele>
        <time>2022-04-10T10:12:14Z</time>
      </trkpt>
      <trkpt lat="47.14018" lon="-1.71907">
        <ele>60</ele>
        <time>2022-04-10T10:12:16Z</time>
      </trkpt>
      <trkpt lat="47.14005" lon="-1.71904">
        <ele>59</ele>
        <time>2022-04-10T10:12:18Z</time>
      </trkpt>
      <trkpt lat="47.13991" lon="-1.71901">
        <ele>58</ele>
        <time>2022-04-10T10:12:20Z</time>
      </trkpt>
      <trkpt lat="47.13977" lon="-1.71901">
        <ele>58</ele>
        <time>2022-04-10T10:12:22Z</time>
      </trkpt>
      <trkpt lat="47.13968" lon="-1.71915">
        <ele>58</ele>
        <time>2022-04-10T10:12:24Z</time>
      </trkpt>
      <trkpt lat="47.13968" lon="-1.71934">
        <ele>58</ele>
        <time>2022-04-10T10:12:26Z</time>
      </trkpt>
      <trkpt lat="47.13965" lon="-1.71952">
        <ele>58</ele>
        <time>2022-04-10T10:12:28Z</time>
      </trkpt>
      <trkpt lat="47.13957" lon="-1.71967">
        <ele>58</ele>
        <time>2022-04-10T10:12:30Z</time>
      </trkpt>
      <trkpt lat="47.13945" lon="-1.71977">
        <ele>58</ele>
        <time>2022-04-10T10:12:32Z</time>
      </trkpt>
      <trkpt lat="47.13933" lon="-1.71982">
        <ele>58</ele>
        <time>2022-04-10T10:12:34Z</time>
      </trkpt>
      <trkpt lat="47.13921" lon="-1.71988">
        <ele>58</ele>
        <time>2022-04-10T10:12:36Z</time>
      </trkpt>
      <trkpt lat="47.1391" lon="-1.71993">
        <ele>58</ele>
        <time>2022-04-10T10:12:38Z</time>
      </trkpt>
      <trkpt lat="47.13899" lon="-1.71999">
        <ele>58</ele>
        <time>2022-04-10T10:12:40Z</time>
      </trkpt>
      <trkpt lat="47.13887" lon="-1.72007">
        <ele>58</ele>
        <time>2022-04-10T10:12:42Z</time>
      </trkpt>
      <trkpt lat="47.13877" lon="-1.72016">
        <ele>58</ele>
        <time>2022-04-10T10:12:44Z</time>
      </trkpt>
      <trkpt lat="47.13867" lon="-1.72028">
        <ele>59</ele>
        <time>2022-04-10T10:12:46Z</time>
      </trkpt>
      <trkpt lat="47.13858" lon="-1.72041">
        <ele>59</ele>
        <time>2022-04-10T10:12:48Z</time>
      </trkpt>
      <trkpt lat="47.1385" lon="-1.72055">
        <ele>59</ele>
        <time>2022-04-10T10:12:50Z</time>
      </trkpt>
      <trkpt lat="47.13842" lon="-1.72069">
        <ele>60</ele>
        <time>2022-04-10T10:12:52Z</time>
      </trkpt>
      <trkpt lat="47.13834" lon="-1.72082">
        <ele>60</ele>
        <time>2022-04-10T10:12:54Z</time>
      </trkpt>
      <trkpt lat="47.13825" lon="-1.72095">
        <ele>60</ele>
        <time>2022-04-10T10:12:56Z</time>
      </trkpt>
      <trkpt lat="47.13817" lon="-1.72109">
        <ele>60</ele>
        <time>2022-04-10T10:12:58Z</time>
      </trkpt>
      <trkpt lat="47.1381" lon="-1.72122">
        <ele>60</ele>
        <time>2022-04-10T10:13:00Z</time>
      </trkpt>
      <trkpt lat="47.13801" lon="-1.72135">
        <ele>61</ele>
        <time>2022-04-10T10:13:02Z</time>
      </trkpt>
      <trkpt lat="47.13794" lon="-1.72149">
        <ele>61</ele>
        <time>2022-04-10T10:13:04Z</time>
      </trkpt>
      <trkpt lat="47.13787" lon="-1.72161">
        <ele>61</ele>
        <time>2022-04-10T10:13:06Z</time>
      </trkpt>
      <trkpt lat="47.13779" lon="-1.72173">
        <ele>62</ele>
        <time>2022-04-10T10:13:08Z</time>
      </trkpt>
      <trkpt lat="47.13772" lon="-1.72186">
        <ele>62</ele>
        <time>2022-04-10T10:13:10Z</time>
      </trkpt>
      <trkpt lat="47.13764" lon="-1.72199">
        <ele>63</ele>
        <time>2022-04-10T10:13:12Z</time>
      </trkpt>
      <trkpt lat="47.13757" lon="-1.72212">
        <ele>63</ele>
        <time>2022-04-10T10:13:14Z</time>
      </trkpt>
      <trkpt lat="47.1375" lon="-1.72226">
        <ele>63</ele>
        <time>2022-04-10T10:13:16Z</time>
      </trkpt>
      <trkpt lat="47.13744" lon="-1.7224">
        <ele>64</ele>
        <time>2022-04-10T10:13:18Z</time>
      </trkpt>
      <trkpt lat="47.1374" lon="-1.72256">
        <ele>65</ele>
        <time>2022-04-10T10:13:20Z</time>
      </trkpt>
      <trkpt lat="47.13738" lon="-1.72273">
        <ele>65</ele>
        <time>2022-04-10T10:13:22Z</time>
      </trkpt>
      <trkpt lat="47.13735" lon="-1.72291">
        <ele>66</ele>
        <time>2022-04-10T10:13:24Z</time>
      </trkpt>
      <trkpt lat="47.13733" lon="-1.72309">
        <ele>66</ele>
        <time>2022-04-10T10:13:26Z</time>
      </trkpt>
      <trkpt lat="47.13731" lon="-1.72327">
        <ele>66</ele>
        <time>2022-04-10T10:13:28Z</time>
      </trkpt>
      <trkpt lat="47.13729" lon="-1.72344">
        <ele>67</ele>
        <time>2022-04-10T10:13:30Z</time>
      </trkpt>
      <trkpt lat="47.13725" lon="-1.7236">
        <ele>67</ele>
        <time>2022-04-10T10:13:32Z</time>
      </trkpt>
      <trkpt lat="47.13721" lon="-1.72376">
        <ele>67</ele>
        <time>2022-04-10T10:13:34Z</time>
      </trkpt>
      <trkpt lat="47.13717" lon="-1.72393">
        <ele>67</ele>
        <time>2022-04-10T10:13:36Z</time>
      </trkpt>
      <trkpt lat="47.13712" lon="-1.7241">
        <ele>67</ele>
        <time>2022-04-10T10:13:38Z</time>
      </trkpt>
      <trkpt lat="47.13708" lon="-1.72426">
        <ele>68</ele>
        <time>2022-04-10T10:13:40Z</time>
      </trkpt>
      <trkpt lat="47.13703" lon="-1.72441">
        <ele>68</ele>
        <time>2022-04-10T10:13:42Z</time>
      </trkpt>
      <trkpt lat="47.13699" lon="-1.72457">
        <ele>68</ele>
        <time>2022-04-10T10:13:44Z</time>
      </trkpt>
      <trkpt lat="47.13695" lon="-1.72473">
        <ele>68</ele>
        <time>2022-04-10T10:13:46Z</time>
      </trkpt>
      <trkpt lat="47.1369" lon="-1.72489">
        <ele>68</ele>
        <time>2022-04-10T10:13:48Z</time>
      </trkpt>
      <trkpt lat="47.13686" lon="-1.72506">
        <ele>68</ele>
        <time>2022-04-10T10:13:50Z</time>
      </trkpt>
      <trkpt lat="47.13683" lon="-1.72524">
        <ele>68</ele>
        <time>2022-04-10T10:13:52Z</time>
      </trkpt>
      <trkpt lat="47.13681" lon="-1.72543">
        <ele>69</ele>
        <time>2022-04-10T10:13:54Z</time>
      </trkpt>
      <trkpt lat="47.1368" lon="-1.72561">
        <ele>68</ele>
        <time>2022-04-10T10:13:56Z</time>
      </trkpt>
      <trkpt lat="47.13679" lon="-1.72578">
        <ele>69</ele>
        <time>2022-04-10T10:13:58Z</time>
      </trkpt>
      <trkpt lat="47.13678" lon="-1.72596">
        <ele>69</ele>
        <time>2022-04-10T10:14:00Z</time>
      </trkpt>
      <trkpt lat="47.13678" lon="-1.72613">
        <ele>69</ele>
        <time>2022-04-10T10:14:02Z</time>
      </trkpt>
      <trkpt lat="47.13676" lon="-1.72632">
        <ele>69</ele>
        <time>2022-04-10T10:14:04Z</time>
      </trkpt>
      <trkpt lat="47.13673" lon="-1.72649">
        <ele>69</ele>
        <time>2022-04-10T10:14:06Z</time>
      </trkpt>
      <trkpt lat="47.13671" lon="-1.72666">
        <ele>69</ele>
        <time>2022-04-10T10:14:08Z</time>
      </trkpt>
      <trkpt lat="47.13668" lon="-1.72682">
        <ele>70</ele>
        <time>2022-04-10T10:14:10Z</time>
      </trkpt>
      <trkpt lat="47.13665" lon="-1.72699">
        <ele>70</ele>
        <time>2022-04-10T10:14:12Z</time>
      </trkpt>
      <trkpt lat="47.13664" lon="-1.72716">
        <ele>70</ele>
        <time>2022-04-10T10:14:14Z</time>
      </trkpt>
      <trkpt lat="47.13662" lon="-1.72734">
        <ele>70</ele>
        <time>2022-04-10T10:14:16Z</time>
      </trkpt>
      <trkpt lat="47.1366" lon="-1.72751">
        <ele>71</ele>
        <time>2022-04-10T10:14:18Z</time>
      </trkpt>
      <trkpt lat="47.13658" lon="-1.72769">
        <ele>71</ele>
        <time>2022-04-10T10:14:20Z</time>
      </trkpt>
      <trkpt lat="47.13657" lon="-1.72787">
        <ele>71</ele>
        <time>2022-04-10T10:14:22Z</time>
      </trkpt>
      <trkpt lat="47.13655" lon="-1.72805">
        <ele>71</ele>
        <time>2022-04-10T10:14:24Z</time>
      </trkpt>
      <trkpt lat="47.13654" lon="-1.72823">
        <ele>70</ele>
        <time>2022-04-10T10:14:26Z</time>
      </trkpt>
      <trkpt lat="47.13653" lon="-1.72841">
        <ele>69</ele>
        <time>2022-04-10T10:14:28Z</time>
      </trkpt>
      <trkpt lat="47.13652" lon="-1.72861">
        <ele>69</ele>
        <time>2022-04-10T10:14:30Z</time>
      </trkpt>
      <trkpt lat="47.13649" lon="-1.72881">
        <ele>67</ele>
        <time>2022-04-10T10:14:32Z</time>
      </trkpt>
      <trkpt lat="47.13647" lon="-1.72904">
        <ele>67</ele>
        <time>2022-04-10T10:14:34Z</time>
      </trkpt>
      <trkpt lat="47.13645" lon="-1.72927">
        <ele>66</ele>
        <time>2022-04-10T10:14:36Z</time>
      </trkpt>
      <trkpt lat="47.13643" lon="-1.72953">
        <ele>65</ele>
        <time>2022-04-10T10:14:38Z</time>
      </trkpt>
      <trkpt lat="47.13642" lon="-1.72967">
        <ele>64</ele>
        <time>2022-04-10T10:14:39Z</time>
      </trkpt>
      <trkpt lat="47.13641" lon="-1.7298">
        <ele>63</ele>
        <time>2022-04-10T10:14:40Z</time>
      </trkpt>
      <trkpt lat="47.1364" lon="-1.72994">
        <ele>63</ele>
        <time>2022-04-10T10:14:41Z</time>
      </trkpt>
      <trkpt lat="47.13638" lon="-1.73008">
        <ele>62</ele>
        <time>2022-04-10T10:14:42Z</time>
      </trkpt>
      <trkpt lat="47.13635" lon="-1.73021">
        <ele>62</ele>
        <time>2022-04-10T10:14:43Z</time>
      </trkpt>
      <trkpt lat="47.13631" lon="-1.73033">
        <ele>61</ele>
        <time>2022-04-10T10:14:44Z</time>
      </trkpt>
      <trkpt lat="47.13625" lon="-1.73043">
        <ele>61</ele>
        <time>2022-04-10T10:14:45Z</time>
      </trkpt>
      <trkpt lat="47.13618" lon="-1.73052">
        <ele>61</ele>
        <time>2022-04-10T10:14:46Z</time>
      </trkpt>
      <trkpt lat="47.1361" lon="-1.73059">
        <ele>60</ele>
        <time>2022-04-10T10:14:47Z</time>
      </trkpt>
      <trkpt lat="47.13596" lon="-1.73071">
        <ele>60</ele>
        <time>2022-04-10T10:14:49Z</time>
      </trkpt>
      <trkpt lat="47.13582" lon="-1.73082">
        <ele>59</ele>
        <time>2022-04-10T10:14:51Z</time>
      </trkpt>
      <trkpt lat="47.13569" lon="-1.73094">
        <ele>59</ele>
        <time>2022-04-10T10:14:53Z</time>
      </trkpt>
      <trkpt lat="47.13558" lon="-1.73106">
        <ele>59</ele>
        <time>2022-04-10T10:14:55Z</time>
      </trkpt>
      <trkpt lat="47.13545" lon="-1.73118">
        <ele>59</ele>
        <time>2022-04-10T10:14:57Z</time>
      </trkpt>
      <trkpt lat="47.13534" lon="-1.73131">
        <ele>58</ele>
        <time>2022-04-10T10:14:59Z</time>
      </trkpt>
      <trkpt lat="47.13523" lon="-1.73146">
        <ele>57</ele>
        <time>2022-04-10T10:15:01Z</time>
      </trkpt>
      <trkpt lat="47.13514" lon="-1.73164">
        <ele>57</ele>
        <time>2022-04-10T10:15:03Z</time>
      </trkpt>
      <trkpt lat="47.13511" lon="-1.73186">
        <ele>57</ele>
        <time>2022-04-10T10:15:05Z</time>
      </trkpt>
      <trkpt lat="47.13508" lon="-1.73208">
        <ele>57</ele>
        <time>2022-04-10T10:15:07Z</time>
      </trkpt>
      <trkpt lat="47.13505" lon="-1.73231">
        <ele>56</ele>
        <time>2022-04-10T10:15:09Z</time>
      </trkpt>
      <trkpt lat="47.13503" lon="-1.73255">
        <ele>56</ele>
        <time>2022-04-10T10:15:11Z</time>
      </trkpt>
      <trkpt lat="47.13501" lon="-1.73279">
        <ele>56</ele>
        <time>2022-04-10T10:15:13Z</time>
      </trkpt>
      <trkpt lat="47.13503" lon="-1.73302">
        <ele>56</ele>
        <time>2022-04-10T10:15:15Z</time>
      </trkpt>
      <trkpt lat="47.13509" lon="-1.73324">
        <ele>56</ele>
        <time>2022-04-10T10:15:17Z</time>
      </trkpt>
      <trkpt lat="47.13515" lon="-1.73344">
        <ele>56</ele>
        <time>2022-04-10T10:15:19Z</time>
      </trkpt>
      <trkpt lat="47.1352" lon="-1.73362">
        <ele>56</ele>
        <time>2022-04-10T10:15:21Z</time>
      </trkpt>
      <trkpt lat="47.13526" lon="-1.73379">
        <ele>57</ele>
        <time>2022-04-10T10:15:23Z</time>
      </trkpt>
      <trkpt lat="47.13533" lon="-1.73396">
        <ele>58</ele>
        <time>2022-04-10T10:15:25Z</time>
      </trkpt>
      <trkpt lat="47.13539" lon="-1.73415">
        <ele>58</ele>
        <time>2022-04-10T10:15:27Z</time>
      </trkpt>
      <trkpt lat="47.13544" lon="-1.73433">
        <ele>59</ele>
        <time>2022-04-10T10:15:29Z</time>
      </trkpt>
      <trkpt lat="47.1355" lon="-1.73452">
        <ele>60</ele>
        <time>2022-04-10T10:15:31Z</time>
      </trkpt>
      <trkpt lat="47.13555" lon="-1.73471">
        <ele>60</ele>
        <time>2022-04-10T10:15:33Z</time>
      </trkpt>
      <trkpt lat="47.13561" lon="-1.73489">
        <ele>60</ele>
        <time>2022-04-10T10:15:35Z</time>
      </trkpt>
      <trkpt lat="47.13566" lon="-1.73508">
        <ele>61</ele>
        <time>2022-04-10T10:15:37Z</time>
      </trkpt>
      <trkpt lat="47.13571" lon="-1.73528">
        <ele>60</ele>
        <time>2022-04-10T10:15:39Z</time>
      </trkpt>
      <trkpt lat="47.13577" lon="-1.73547">
        <ele>60</ele>
        <time>2022-04-10T10:15:41Z</time>
      </trkpt>
      <trkpt lat="47.13583" lon="-1.73566">
        <ele>60</ele>
        <time>2022-04-10T10:15:43Z</time>
      </trkpt>
      <trkpt lat="47.1359" lon="-1.73586">
        <ele>60</ele>
        <time>2022-04-10T10:15:45Z</time>
      </trkpt>
      <trkpt lat="47.13597" lon="-1.73604">
        <ele>61</ele>
        <time>2022-04-10T10:15:47Z</time>
      </trkpt>
      <trkpt lat="47.13604" lon="-1.73623">
        <ele>60</ele>
        <time>2022-04-10T10:15:49Z</time>
      </trkpt>
      <trkpt lat="47.13611" lon="-1.73642">
        <ele>60</ele>
        <time>2022-04-10T10:15:51Z</time>
      </trkpt>
      <trkpt lat="47.13617" lon="-1.73661">
        <ele>60</ele>
        <time>2022-04-10T10:15:53Z</time>
      </trkpt>
      <trkpt lat="47.13623" lon="-1.7368">
        <ele>60</ele>
        <time>2022-04-10T10:15:55Z</time>
      </trkpt>
      <trkpt lat="47.13628" lon="-1.737">
        <ele>60</ele>
        <time>2022-04-10T10:15:57Z</time>
      </trkpt>
      <trkpt lat="47.13632" lon="-1.73721">
        <ele>60</ele>
        <time>2022-04-10T10:15:59Z</time>
      </trkpt>
      <trkpt lat="47.13635" lon="-1.73742">
        <ele>60</ele>
        <time>2022-04-10T10:16:01Z</time>
      </trkpt>
      <trkpt lat="47.13638" lon="-1.73765">
        <ele>60</ele>
        <time>2022-04-10T10:16:03Z</time>
      </trkpt>
      <trkpt lat="47.13639" lon="-1.7379">
        <ele>59</ele>
        <time>2022-04-10T10:16:05Z</time>
      </trkpt>
      <trkpt lat="47.1364" lon="-1.73803">
        <ele>59</ele>
        <time>2022-04-10T10:16:06Z</time>
      </trkpt>
      <trkpt lat="47.13642" lon="-1.73828">
        <ele>58</ele>
        <time>2022-04-10T10:16:08Z</time>
      </trkpt>
      <trkpt lat="47.13643" lon="-1.7385">
        <ele>58</ele>
        <time>2022-04-10T10:16:10Z</time>
      </trkpt>
      <trkpt lat="47.13644" lon="-1.73871">
        <ele>58</ele>
        <time>2022-04-10T10:16:12Z</time>
      </trkpt>
      <trkpt lat="47.13646" lon="-1.73892">
        <ele>58</ele>
        <time>2022-04-10T10:16:14Z</time>
      </trkpt>
      <trkpt lat="47.13647" lon="-1.73911">
        <ele>58</ele>
        <time>2022-04-10T10:16:16Z</time>
      </trkpt>
      <trkpt lat="47.13648" lon="-1.73929">
        <ele>58</ele>
        <time>2022-04-10T10:16:18Z</time>
      </trkpt>
      <trkpt lat="47.13648" lon="-1.73946">
        <ele>57</ele>
        <time>2022-04-10T10:16:20Z</time>
      </trkpt>
      <trkpt lat="47.13649" lon="-1.73963">
        <ele>58</ele>
        <time>2022-04-10T10:16:22Z</time>
      </trkpt>
      <trkpt lat="47.13649" lon="-1.73981">
        <ele>58</ele>
        <time>2022-04-10T10:16:24Z</time>
      </trkpt>
      <trkpt lat="47.13648" lon="-1.73999">
        <ele>58</ele>
        <time>2022-04-10T10:16:26Z</time>
      </trkpt>
      <trkpt lat="47.13645" lon="-1.74018">
        <ele>58</ele>
        <time>2022-04-10T10:16:28Z</time>
      </trkpt>
      <trkpt lat="47.13643" lon="-1.74037">
        <ele>59</ele>
        <time>2022-04-10T10:16:30Z</time>
      </trkpt>
      <trkpt lat="47.13642" lon="-1.74056">
        <ele>59</ele>
        <time>2022-04-10T10:16:32Z</time>
      </trkpt>
      <trkpt lat="47.13641" lon="-1.74074">
        <ele>60</ele>
        <time>2022-04-10T10:16:34Z</time>
      </trkpt>
      <trkpt lat="47.13641" lon="-1.74091">
        <ele>60</ele>
        <time>2022-04-10T10:16:36Z</time>
      </trkpt>
      <trkpt lat="47.13642" lon="-1.74108">
        <ele>60</ele>
        <time>2022-04-10T10:16:38Z</time>
      </trkpt>
      <trkpt lat="47.13643" lon="-1.74124">
        <ele>60</ele>
        <time>2022-04-10T10:16:40Z</time>
      </trkpt>
      <trkpt lat="47.13645" lon="-1.74141">
        <ele>60</ele>
        <time>2022-04-10T10:16:42Z</time>
      </trkpt>
      <trkpt lat="47.13648" lon="-1.74157">
        <ele>60</ele>
        <time>2022-04-10T10:16:44Z</time>
      </trkpt>
      <trkpt lat="47.13652" lon="-1.74173">
        <ele>60</ele>
        <time>2022-04-10T10:16:46Z</time>
      </trkpt>
      <trkpt lat="47.13656" lon="-1.7419">
        <ele>59</ele>
        <time>2022-04-10T10:16:48Z</time>
      </trkpt>
      <trkpt lat="47.1366" lon="-1.74207">
        <ele>59</ele>
        <time>2022-04-10T10:16:50Z</time>
      </trkpt>
      <trkpt lat="47.13664" lon="-1.74224">
        <ele>59</ele>
        <time>2022-04-10T10:16:52Z</time>
      </trkpt>
      <trkpt lat="47.13669" lon="-1.74242">
        <ele>59</ele>
        <time>2022-04-10T10:16:54Z</time>
      </trkpt>
      <trkpt lat="47.13673" lon="-1.74259">
        <ele>59</ele>
        <time>2022-04-10T10:16:56Z</time>
      </trkpt>
      <trkpt lat="47.13679" lon="-1.74278">
        <ele>58</ele>
        <time>2022-04-10T10:16:58Z</time>
      </trkpt>
      <trkpt lat="47.13686" lon="-1.74298">
        <ele>58</ele>
        <time>2022-04-10T10:17:00Z</time>
      </trkpt>
      <trkpt lat="47.13693" lon="-1.74318">
        <ele>57</ele>
        <time>2022-04-10T10:17:02Z</time>
      </trkpt>
      <trkpt lat="47.13694" lon="-1.74342">
        <ele>56</ele>
        <time>2022-04-10T10:17:04Z</time>
      </trkpt>
      <trkpt lat="47.13695" lon="-1.74367">
        <ele>56</ele>
        <time>2022-04-10T10:17:06Z</time>
      </trkpt>
      <trkpt lat="47.13695" lon="-1.74394">
        <ele>55</ele>
        <time>2022-04-10T10:17:08Z</time>
      </trkpt>
      <trkpt lat="47.13695" lon="-1.74407">
        <ele>54</ele>
        <time>2022-04-10T10:17:09Z</time>
      </trkpt>
      <trkpt lat="47.13695" lon="-1.74421">
        <ele>54</ele>
        <time>2022-04-10T10:17:10Z</time>
      </trkpt>
      <trkpt lat="47.13694" lon="-1.74446">
        <ele>53</ele>
        <time>2022-04-10T10:17:12Z</time>
      </trkpt>
      <trkpt lat="47.13684" lon="-1.74467">
        <ele>52</ele>
        <time>2022-04-10T10:17:14Z</time>
      </trkpt>
      <trkpt lat="47.13678" lon="-1.74476">
        <ele>52</ele>
        <time>2022-04-10T10:17:15Z</time>
      </trkpt>
      <trkpt lat="47.13663" lon="-1.7449">
        <ele>52</ele>
        <time>2022-04-10T10:17:17Z</time>
      </trkpt>
      <trkpt lat="47.13649" lon="-1.74504">
        <ele>52</ele>
        <time>2022-04-10T10:17:19Z</time>
      </trkpt>
      <trkpt lat="47.13636" lon="-1.74517">
        <ele>52</ele>
        <time>2022-04-10T10:17:21Z</time>
      </trkpt>
      <trkpt lat="47.13624" lon="-1.74529">
        <ele>53</ele>
        <time>2022-04-10T10:17:23Z</time>
      </trkpt>
      <trkpt lat="47.13611" lon="-1.74541">
        <ele>52</ele>
        <time>2022-04-10T10:17:25Z</time>
      </trkpt>
      <trkpt lat="47.13599" lon="-1.74554">
        <ele>51</ele>
        <time>2022-04-10T10:17:27Z</time>
      </trkpt>
      <trkpt lat="47.13585" lon="-1.74569">
        <ele>50</ele>
        <time>2022-04-10T10:17:29Z</time>
      </trkpt>
      <trkpt lat="47.13571" lon="-1.74582">
        <ele>50</ele>
        <time>2022-04-10T10:17:31Z</time>
      </trkpt>
      <trkpt lat="47.13558" lon="-1.74597">
        <ele>50</ele>
        <time>2022-04-10T10:17:33Z</time>
      </trkpt>
      <trkpt lat="47.13545" lon="-1.74611">
        <ele>50</ele>
        <time>2022-04-10T10:17:35Z</time>
      </trkpt>
      <trkpt lat="47.13532" lon="-1.74624">
        <ele>50</ele>
        <time>2022-04-10T10:17:37Z</time>
      </trkpt>
      <trkpt lat="47.1352" lon="-1.74635">
        <ele>51</ele>
        <time>2022-04-10T10:17:39Z</time>
      </trkpt>
      <trkpt lat="47.1351" lon="-1.74646">
        <ele>51</ele>
        <time>2022-04-10T10:17:41Z</time>
      </trkpt>
      <trkpt lat="47.135" lon="-1.74658">
        <ele>51</ele>
        <time>2022-04-10T10:17:43Z</time>
      </trkpt>
      <trkpt lat="47.13494" lon="-1.74672">
        <ele>51</ele>
        <time>2022-04-10T10:17:45Z</time>
      </trkpt>
      <trkpt lat="47.13489" lon="-1.74688">
        <ele>52</ele>
        <time>2022-04-10T10:17:47Z</time>
      </trkpt>
      <trkpt lat="47.13485" lon="-1.74703">
        <ele>53</ele>
        <time>2022-04-10T10:17:49Z</time>
      </trkpt>
      <trkpt lat="47.13479" lon="-1.74717">
        <ele>53</ele>
        <time>2022-04-10T10:17:51Z</time>
      </trkpt>
      <trkpt lat="47.13471" lon="-1.74729">
        <ele>54</ele>
        <time>2022-04-10T10:17:53Z</time>
      </trkpt>
      <trkpt lat="47.13462" lon="-1.74739">
        <ele>54</ele>
        <time>2022-04-10T10:17:55Z</time>
      </trkpt>
      <trkpt lat="47.13452" lon="-1.74747">
        <ele>55</ele>
        <time>2022-04-10T10:17:57Z</time>
      </trkpt>
      <trkpt lat="47.13443" lon="-1.74754">
        <ele>55</ele>
        <time>2022-04-10T10:17:59Z</time>
      </trkpt>
      <trkpt lat="47.13434" lon="-1.7476">
        <ele>55</ele>
        <time>2022-04-10T10:18:01Z</time>
      </trkpt>
      <trkpt lat="47.13426" lon="-1.74768">
        <ele>56</ele>
        <time>2022-04-10T10:18:03Z</time>
      </trkpt>
      <trkpt lat="47.13417" lon="-1.74775">
        <ele>56</ele>
        <time>2022-04-10T10:18:05Z</time>
      </trkpt>
      <trkpt lat="47.13408" lon="-1.74783">
        <ele>56</ele>
        <time>2022-04-10T10:18:07Z</time>
      </trkpt>
      <trkpt lat="47.13399" lon="-1.74792">
        <ele>56</ele>
        <time>2022-04-10T10:18:09Z</time>
      </trkpt>
      <trkpt lat="47.13392" lon="-1.74802">
        <ele>57</ele>
        <time>2022-04-10T10:18:11Z</time>
      </trkpt>
      <trkpt lat="47.13385" lon="-1.74814">
        <ele>57</ele>
        <time>2022-04-10T10:18:13Z</time>
      </trkpt>
      <trkpt lat="47.1338" lon="-1.74829">
        <ele>58</ele>
        <time>2022-04-10T10:18:15Z</time>
      </trkpt>
      <trkpt lat="47.13377" lon="-1.74844">
        <ele>58</ele>
        <time>2022-04-10T10:18:17Z</time>
      </trkpt>
      <trkpt lat="47.13373" lon="-1.74858">
        <ele>58</ele>
        <time>2022-04-10T10:18:19Z</time>
      </trkpt>
      <trkpt lat="47.13369" lon="-1.74872">
        <ele>58</ele>
        <time>2022-04-10T10:18:21Z</time>
      </trkpt>
      <trkpt lat="47.13365" lon="-1.74887">
        <ele>59</ele>
        <time>2022-04-10T10:18:23Z</time>
      </trkpt>
      <trkpt lat="47.13361" lon="-1.74903">
        <ele>59</ele>
        <time>2022-04-10T10:18:25Z</time>
      </trkpt>
      <trkpt lat="47.13355" lon="-1.74918">
        <ele>59</ele>
        <time>2022-04-10T10:18:27Z</time>
      </trkpt>
      <trkpt lat="47.1335" lon="-1.74932">
        <ele>59</ele>
        <time>2022-04-10T10:18:29Z</time>
      </trkpt>
      <trkpt lat="47.13344" lon="-1.74946">
        <ele>60</ele>
        <time>2022-04-10T10:18:31Z</time>
      </trkpt>
      <trkpt lat="47.13338" lon="-1.7496">
        <ele>60</ele>
        <time>2022-04-10T10:18:33Z</time>
      </trkpt>
      <trkpt lat="47.1333" lon="-1.74974">
        <ele>60</ele>
        <time>2022-04-10T10:18:35Z</time>
      </trkpt>
      <trkpt lat="47.13324" lon="-1.74987">
        <ele>60</ele>
        <time>2022-04-10T10:18:37Z</time>
      </trkpt>
      <trkpt lat="47.13314" lon="-1.74997">
        <ele>60</ele>
        <time>2022-04-10T10:18:39Z</time>
      </trkpt>
      <trkpt lat="47.13305" lon="-1.75007">
        <ele>61</ele>
        <time>2022-04-10T10:18:41Z</time>
      </trkpt>
      <trkpt lat="47.13295" lon="-1.75016">
        <ele>61</ele>
        <time>2022-04-10T10:18:43Z</time>
      </trkpt>
      <trkpt lat="47.13285" lon="-1.75024">
        <ele>61</ele>
        <time>2022-04-10T10:18:45Z</time>
      </trkpt>
      <trkpt lat="47.13276" lon="-1.75032">
        <ele>62</ele>
        <time>2022-04-10T10:18:47Z</time>
      </trkpt>
      <trkpt lat="47.13266" lon="-1.75038">
        <ele>62</ele>
        <time>2022-04-10T10:18:49Z</time>
      </trkpt>
      <trkpt lat="47.13256" lon="-1.75045">
        <ele>62</ele>
        <time>2022-04-10T10:18:51Z</time>
      </trkpt>
      <trkpt lat="47.13247" lon="-1.75053">
        <ele>62</ele>
        <time>2022-04-10T10:18:53Z</time>
      </trkpt>
      <trkpt lat="47.13238" lon="-1.75061">
        <ele>63</ele>
        <time>2022-04-10T10:18:55Z</time>
      </trkpt>
      <trkpt lat="47.1323" lon="-1.7507">
        <ele>63</ele>
        <time>2022-04-10T10:18:57Z</time>
      </trkpt>
      <trkpt lat="47.13222" lon="-1.75078">
        <ele>63</ele>
        <time>2022-04-10T10:18:59Z</time>
      </trkpt>
      <trkpt lat="47.13214" lon="-1.75088">
        <ele>64</ele>
        <time>2022-04-10T10:19:01Z</time>
      </trkpt>
      <trkpt lat="47.13206" lon="-1.75098">
        <ele>64</ele>
        <time>2022-04-10T10:19:03Z</time>
      </trkpt>
      <trkpt lat="47.13198" lon="-1.7511">
        <ele>64</ele>
        <time>2022-04-10T10:19:05Z</time>
      </trkpt>
      <trkpt lat="47.13191" lon="-1.75123">
        <ele>64</ele>
        <time>2022-04-10T10:19:07Z</time>
      </trkpt>
      <trkpt lat="47.13185" lon="-1.75137">
        <ele>65</ele>
        <time>2022-04-10T10:19:09Z</time>
      </trkpt>
      <trkpt lat="47.13179" lon="-1.75151">
        <ele>65</ele>
        <time>2022-04-10T10:19:11Z</time>
      </trkpt>
      <trkpt lat="47.13173" lon="-1.75165">
        <ele>65</ele>
        <time>2022-04-10T10:19:13Z</time>
      </trkpt>
      <trkpt lat="47.13167" lon="-1.75179">
        <ele>65</ele>
        <time>2022-04-10T10:19:15Z</time>
      </trkpt>
      <trkpt lat="47.13161" lon="-1.75194">
        <ele>66</ele>
        <time>2022-04-10T10:19:17Z</time>
      </trkpt>
      <trkpt lat="47.13158" lon="-1.75209">
        <ele>65</ele>
        <time>2022-04-10T10:19:19Z</time>
      </trkpt>
      <trkpt lat="47.13154" lon="-1.75226">
        <ele>65</ele>
        <time>2022-04-10T10:19:21Z</time>
      </trkpt>
      <trkpt lat="47.13151" lon="-1.75242">
        <ele>66</ele>
        <time>2022-04-10T10:19:23Z</time>
      </trkpt>
      <trkpt lat="47.13149" lon="-1.75257">
        <ele>66</ele>
        <time>2022-04-10T10:19:25Z</time>
      </trkpt>
      <trkpt lat="47.13147" lon="-1.75273">
        <ele>66</ele>
        <time>2022-04-10T10:19:27Z</time>
      </trkpt>
      <trkpt lat="47.13147" lon="-1.7529">
        <ele>66</ele>
        <time>2022-04-10T10:19:29Z</time>
      </trkpt>
      <trkpt lat="47.13144" lon="-1.75306">
        <ele>66</ele>
        <time>2022-04-10T10:19:31Z</time>
      </trkpt>
      <trkpt lat="47.13139" lon="-1.75321">
        <ele>66</ele>
        <time>2022-04-10T10:19:33Z</time>
      </trkpt>
      <trkpt lat="47.13134" lon="-1.75336">
        <ele>67</ele>
        <time>2022-04-10T10:19:35Z</time>
      </trkpt>
      <trkpt lat="47.13131" lon="-1.75351">
        <ele>67</ele>
        <time>2022-04-10T10:19:37Z</time>
      </trkpt>
      <trkpt lat="47.13128" lon="-1.75367">
        <ele>68</ele>
        <time>2022-04-10T10:19:39Z</time>
      </trkpt>
      <trkpt lat="47.13126" lon="-1.75382">
        <ele>68</ele>
        <time>2022-04-10T10:19:41Z</time>
      </trkpt>
      <trkpt lat="47.13123" lon="-1.75397">
        <ele>69</ele>
        <time>2022-04-10T10:19:43Z</time>
      </trkpt>
      <trkpt lat="47.13118" lon="-1.7541">
        <ele>69</ele>
        <time>2022-04-10T10:19:45Z</time>
      </trkpt>
      <trkpt lat="47.13115" lon="-1.75423">
        <ele>70</ele>
        <time>2022-04-10T10:19:47Z</time>
      </trkpt>
      <trkpt lat="47.13114" lon="-1.75439">
        <ele>70</ele>
        <time>2022-04-10T10:19:49Z</time>
      </trkpt>
      <trkpt lat="47.13111" lon="-1.75456">
        <ele>71</ele>
        <time>2022-04-10T10:19:51Z</time>
      </trkpt>
      <trkpt lat="47.13108" lon="-1.75472">
        <ele>71</ele>
        <time>2022-04-10T10:19:53Z</time>
      </trkpt>
      <trkpt lat="47.13107" lon="-1.75489">
        <ele>71</ele>
        <time>2022-04-10T10:19:55Z</time>
      </trkpt>
      <trkpt lat="47.13105" lon="-1.75506">
        <ele>72</ele>
        <time>2022-04-10T10:19:57Z</time>
      </trkpt>
      <trkpt lat="47.13102" lon="-1.75522">
        <ele>72</ele>
        <time>2022-04-10T10:19:59Z</time>
      </trkpt>
      <trkpt lat="47.131" lon="-1.75539">
        <ele>72</ele>
        <time>2022-04-10T10:20:01Z</time>
      </trkpt>
      <trkpt lat="47.13097" lon="-1.75556">
        <ele>72</ele>
        <time>2022-04-10T10:20:03Z</time>
      </trkpt>
      <trkpt lat="47.13094" lon="-1.75572">
        <ele>73</ele>
        <time>2022-04-10T10:20:05Z</time>
      </trkpt>
      <trkpt lat="47.13091" lon="-1.75588">
        <ele>73</ele>
        <time>2022-04-10T10:20:07Z</time>
      </trkpt>
      <trkpt lat="47.13088" lon="-1.75605">
        <ele>73</ele>
        <time>2022-04-10T10:20:09Z</time>
      </trkpt>
      <trkpt lat="47.13085" lon="-1.75623">
        <ele>73</ele>
        <time>2022-04-10T10:20:11Z</time>
      </trkpt>
      <trkpt lat="47.13082" lon="-1.7564">
        <ele>72</ele>
        <time>2022-04-10T10:20:13Z</time>
      </trkpt>
      <trkpt lat="47.13078" lon="-1.75658">
        <ele>73</ele>
        <time>2022-04-10T10:20:15Z</time>
      </trkpt>
      <trkpt lat="47.13074" lon="-1.75677">
        <ele>73</ele>
        <time>2022-04-10T10:20:17Z</time>
      </trkpt>
      <trkpt lat="47.13071" lon="-1.75694">
        <ele>73</ele>
        <time>2022-04-10T10:20:19Z</time>
      </trkpt>
      <trkpt lat="47.13067" lon="-1.7571">
        <ele>73</ele>
        <time>2022-04-10T10:20:21Z</time>
      </trkpt>
      <trkpt lat="47.13062" lon="-1.75726">
        <ele>73</ele>
        <time>2022-04-10T10:20:23Z</time>
      </trkpt>
      <trkpt lat="47.13056" lon="-1.75741">
        <ele>73</ele>
        <time>2022-04-10T10:20:25Z</time>
      </trkpt>
      <trkpt lat="47.13049" lon="-1.75755">
        <ele>73</ele>
        <time>2022-04-10T10:20:27Z</time>
      </trkpt>
      <trkpt lat="47.1304" lon="-1.75768">
        <ele>74</ele>
        <time>2022-04-10T10:20:29Z</time>
      </trkpt>
      <trkpt lat="47.13032" lon="-1.7578">
        <ele>74</ele>
        <time>2022-04-10T10:20:31Z</time>
      </trkpt>
      <trkpt lat="47.13023" lon="-1.75793">
        <ele>74</ele>
        <time>2022-04-10T10:20:33Z</time>
      </trkpt>
      <trkpt lat="47.13015" lon="-1.75806">
        <ele>74</ele>
        <time>2022-04-10T10:20:35Z</time>
      </trkpt>
      <trkpt lat="47.13008" lon="-1.7582">
        <ele>74</ele>
        <time>2022-04-10T10:20:37Z</time>
      </trkpt>
      <trkpt lat="47.13005" lon="-1.75836">
        <ele>75</ele>
        <time>2022-04-10T10:20:39Z</time>
      </trkpt>
      <trkpt lat="47.13006" lon="-1.75854">
        <ele>75</ele>
        <time>2022-04-10T10:20:41Z</time>
      </trkpt>
      <trkpt lat="47.13008" lon="-1.75873">
        <ele>75</ele>
        <time>2022-04-10T10:20:43Z</time>
      </trkpt>
      <trkpt lat="47.13006" lon="-1.75891">
        <ele>76</ele>
        <time>2022-04-10T10:20:45Z</time>
      </trkpt>
      <trkpt lat="47.13002" lon="-1.75908">
        <ele>75</ele>
        <time>2022-04-10T10:20:47Z</time>
      </trkpt>
      <trkpt lat="47.12999" lon="-1.75926">
        <ele>75</ele>
        <time>2022-04-10T10:20:49Z</time>
      </trkpt>
      <trkpt lat="47.12996" lon="-1.75943">
        <ele>76</ele>
        <time>2022-04-10T10:20:51Z</time>
      </trkpt>
      <trkpt lat="47.12992" lon="-1.7596">
        <ele>76</ele>
        <time>2022-04-10T10:20:53Z</time>
      </trkpt>
      <trkpt lat="47.1299" lon="-1.75978">
        <ele>76</ele>
        <time>2022-04-10T10:20:55Z</time>
      </trkpt>
      <trkpt lat="47.12987" lon="-1.75996">
        <ele>77</ele>
        <time>2022-04-10T10:20:57Z</time>
      </trkpt>
      <trkpt lat="47.12986" lon="-1.76014">
        <ele>76</ele>
        <time>2022-04-10T10:20:59Z</time>
      </trkpt>
      <trkpt lat="47.12985" lon="-1.76033">
        <ele>77</ele>
        <time>2022-04-10T10:21:01Z</time>
      </trkpt>
      <trkpt lat="47.12985" lon="-1.76051">
        <ele>77</ele>
        <time>2022-04-10T10:21:03Z</time>
      </trkpt>
      <trkpt lat="47.12984" lon="-1.7607">
        <ele>78</ele>
        <time>2022-04-10T10:21:05Z</time>
      </trkpt>
      <trkpt lat="47.12985" lon="-1.76088">
        <ele>78</ele>
        <time>2022-04-10T10:21:07Z</time>
      </trkpt>
      <trkpt lat="47.12987" lon="-1.76105">
        <ele>78</ele>
        <time>2022-04-10T10:21:09Z</time>
      </trkpt>
      <trkpt lat="47.12989" lon="-1.76123">
        <ele>79</ele>
        <time>2022-04-10T10:21:11Z</time>
      </trkpt>
      <trkpt lat="47.12993" lon="-1.7614">
        <ele>79</ele>
        <time>2022-04-10T10:21:13Z</time>
      </trkpt>
      <trkpt lat="47.12998" lon="-1.76157">
        <ele>79</ele>
        <time>2022-04-10T10:21:15Z</time>
      </trkpt>
      <trkpt lat="47.13003" lon="-1.76174">
        <ele>79</ele>
        <time>2022-04-10T10:21:17Z</time>
      </trkpt>
      <trkpt lat="47.13008" lon="-1.76192">
        <ele>79</ele>
        <time>2022-04-10T10:21:19Z</time>
      </trkpt>
      <trkpt lat="47.13013" lon="-1.7621">
        <ele>79</ele>
        <time>2022-04-10T10:21:21Z</time>
      </trkpt>
      <trkpt lat="47.13017" lon="-1.76228">
        <ele>79</ele>
        <time>2022-04-10T10:21:23Z</time>
      </trkpt>
      <trkpt lat="47.13021" lon="-1.76246">
        <ele>79</ele>
        <time>2022-04-10T10:21:25Z</time>
      </trkpt>
      <trkpt lat="47.13026" lon="-1.76264">
        <ele>79</ele>
        <time>2022-04-10T10:21:27Z</time>
      </trkpt>
      <trkpt lat="47.1303" lon="-1.76283">
        <ele>80</ele>
        <time>2022-04-10T10:21:29Z</time>
      </trkpt>
      <trkpt lat="47.13033" lon="-1.76302">
        <ele>80</ele>
        <time>2022-04-10T10:21:31Z</time>
      </trkpt>
      <trkpt lat="47.13037" lon="-1.76321">
        <ele>80</ele>
        <time>2022-04-10T10:21:33Z</time>
      </trkpt>
      <trkpt lat="47.13041" lon="-1.76341">
        <ele>80</ele>
        <time>2022-04-10T10:21:35Z</time>
      </trkpt>
      <trkpt lat="47.13044" lon="-1.76361">
        <ele>80</ele>
        <time>2022-04-10T10:21:37Z</time>
      </trkpt>
      <trkpt lat="47.13048" lon="-1.76381">
        <ele>80</ele>
        <time>2022-04-10T10:21:39Z</time>
      </trkpt>
      <trkpt lat="47.13051" lon="-1.76402">
        <ele>80</ele>
        <time>2022-04-10T10:21:41Z</time>
      </trkpt>
      <trkpt lat="47.13053" lon="-1.76423">
        <ele>80</ele>
        <time>2022-04-10T10:21:43Z</time>
      </trkpt>
      <trkpt lat="47.13054" lon="-1.76443">
        <ele>79</ele>
        <time>2022-04-10T10:21:45Z</time>
      </trkpt>
      <trkpt lat="47.13055" lon="-1.76464">
        <ele>79</ele>
        <time>2022-04-10T10:21:47Z</time>
      </trkpt>
      <trkpt lat="47.13056" lon="-1.76486">
        <ele>79</ele>
        <time>2022-04-10T10:21:49Z</time>
      </trkpt>
      <trkpt lat="47.13057" lon="-1.76508">
        <ele>79</ele>
        <time>2022-04-10T10:21:51Z</time>
      </trkpt>
      <trkpt lat="47.13059" lon="-1.76529">
        <ele>79</ele>
        <time>2022-04-10T10:21:53Z</time>
      </trkpt>
      <trkpt lat="47.1306" lon="-1.76551">
        <ele>79</ele>
        <time>2022-04-10T10:21:55Z</time>
      </trkpt>
      <trkpt lat="47.13062" lon="-1.76573">
        <ele>79</ele>
        <time>2022-04-10T10:21:57Z</time>
      </trkpt>
      <trkpt lat="47.13063" lon="-1.76594">
        <ele>79</ele>
        <time>2022-04-10T10:21:59Z</time>
      </trkpt>
      <trkpt lat="47.13065" lon="-1.76616">
        <ele>79</ele>
        <time>2022-04-10T10:22:01Z</time>
      </trkpt>
      <trkpt lat="47.13067" lon="-1.76637">
        <ele>79</ele>
        <time>2022-04-10T10:22:03Z</time>
      </trkpt>
      <trkpt lat="47.13069" lon="-1.76658">
        <ele>79</ele>
        <time>2022-04-10T10:22:05Z</time>
      </trkpt>
      <trkpt lat="47.13071" lon="-1.76679">
        <ele>79</ele>
        <time>2022-04-10T10:22:07Z</time>
      </trkpt>
      <trkpt lat="47.1307" lon="-1.76701">
        <ele>79</ele>
        <time>2022-04-10T10:22:09Z</time>
      </trkpt>
      <trkpt lat="47.13067" lon="-1.76722">
        <ele>79</ele>
        <time>2022-04-10T10:22:11Z</time>
      </trkpt>
      <trkpt lat="47.13065" lon="-1.76744">
        <ele>79</ele>
        <time>2022-04-10T10:22:13Z</time>
      </trkpt>
      <trkpt lat="47.13062" lon="-1.76766">
        <ele>79</ele>
        <time>2022-04-10T10:22:15Z</time>
      </trkpt>
      <trkpt lat="47.13059" lon="-1.76787">
        <ele>79</ele>
        <time>2022-04-10T10:22:17Z</time>
      </trkpt>
      <trkpt lat="47.13056" lon="-1.76809">
        <ele>80</ele>
        <time>2022-04-10T10:22:19Z</time>
      </trkpt>
      <trkpt lat="47.13054" lon="-1.76831">
        <ele>80</ele>
        <time>2022-04-10T10:22:21Z</time>
      </trkpt>
      <trkpt lat="47.13051" lon="-1.76853">
        <ele>79</ele>
        <time>2022-04-10T10:22:23Z</time>
      </trkpt>
      <trkpt lat="47.13049" lon="-1.76874">
        <ele>79</ele>
        <time>2022-04-10T10:22:25Z</time>
      </trkpt>
      <trkpt lat="47.13047" lon="-1.76896">
        <ele>79</ele>
        <time>2022-04-10T10:22:27Z</time>
      </trkpt>
      <trkpt lat="47.13045" lon="-1.76918">
        <ele>79</ele>
        <time>2022-04-10T10:22:29Z</time>
      </trkpt>
      <trkpt lat="47.13043" lon="-1.7694">
        <ele>79</ele>
        <time>2022-04-10T10:22:31Z</time>
      </trkpt>
      <trkpt lat="47.13042" lon="-1.7696">
        <ele>79</ele>
        <time>2022-04-10T10:22:33Z</time>
      </trkpt>
      <trkpt lat="47.13041" lon="-1.76982">
        <ele>79</ele>
        <time>2022-04-10T10:22:35Z</time>
      </trkpt>
      <trkpt lat="47.1304" lon="-1.77003">
        <ele>79</ele>
        <time>2022-04-10T10:22:37Z</time>
      </trkpt>
      <trkpt lat="47.13038" lon="-1.77023">
        <ele>79</ele>
        <time>2022-04-10T10:22:39Z</time>
      </trkpt>
      <trkpt lat="47.13037" lon="-1.77043">
        <ele>79</ele>
        <time>2022-04-10T10:22:41Z</time>
      </trkpt>
      <trkpt lat="47.13035" lon="-1.77064">
        <ele>79</ele>
        <time>2022-04-10T10:22:43Z</time>
      </trkpt>
      <trkpt lat="47.13033" lon="-1.77084">
        <ele>80</ele>
        <time>2022-04-10T10:22:45Z</time>
      </trkpt>
      <trkpt lat="47.13031" lon="-1.77105">
        <ele>80</ele>
        <time>2022-04-10T10:22:47Z</time>
      </trkpt>
      <trkpt lat="47.13028" lon="-1.77125">
        <ele>79</ele>
        <time>2022-04-10T10:22:49Z</time>
      </trkpt>
      <trkpt lat="47.13025" lon="-1.77145">
        <ele>79</ele>
        <time>2022-04-10T10:22:51Z</time>
      </trkpt>
      <trkpt lat="47.13022" lon="-1.77165">
        <ele>79</ele>
        <time>2022-04-10T10:22:53Z</time>
      </trkpt>
      <trkpt lat="47.13018" lon="-1.77184">
        <ele>80</ele>
        <time>2022-04-10T10:22:55Z</time>
      </trkpt>
      <trkpt lat="47.13013" lon="-1.77204">
        <ele>80</ele>
        <time>2022-04-10T10:22:57Z</time>
      </trkpt>
      <trkpt lat="47.13008" lon="-1.77223">
        <ele>80</ele>
        <time>2022-04-10T10:22:59Z</time>
      </trkpt>
      <trkpt lat="47.13003" lon="-1.77242">
        <ele>80</ele>
        <time>2022-04-10T10:23:01Z</time>
      </trkpt>
      <trkpt lat="47.12998" lon="-1.77261">
        <ele>80</ele>
        <time>2022-04-10T10:23:03Z</time>
      </trkpt>
      <trkpt lat="47.12992" lon="-1.77279">
        <ele>80</ele>
        <time>2022-04-10T10:23:05Z</time>
      </trkpt>
      <trkpt lat="47.12986" lon="-1.77297">
        <ele>80</ele>
        <time>2022-04-10T10:23:07Z</time>
      </trkpt>
      <trkpt lat="47.12979" lon="-1.77315">
        <ele>80</ele>
        <time>2022-04-10T10:23:09Z</time>
      </trkpt>
      <trkpt lat="47.12973" lon="-1.77333">
        <ele>80</ele>
        <time>2022-04-10T10:23:11Z</time>
      </trkpt>
      <trkpt lat="47.12966" lon="-1.77351">
        <ele>80</ele>
        <time>2022-04-10T10:23:13Z</time>
      </trkpt>
      <trkpt lat="47.12959" lon="-1.77368">
        <ele>81</ele>
        <time>2022-04-10T10:23:15Z</time>
      </trkpt>
      <trkpt lat="47.12952" lon="-1.77386">
        <ele>81</ele>
        <time>2022-04-10T10:23:17Z</time>
      </trkpt>
      <trkpt lat="47.12944" lon="-1.77404">
        <ele>81</ele>
        <time>2022-04-10T10:23:19Z</time>
      </trkpt>
      <trkpt lat="47.12934" lon="-1.77429">
        <ele>81</ele>
        <time>2022-04-10T10:23:22Z</time>
      </trkpt>
      <trkpt lat="47.12927" lon="-1.77446">
        <ele>81</ele>
        <time>2022-04-10T10:23:24Z</time>
      </trkpt>
      <trkpt lat="47.12921" lon="-1.77465">
        <ele>81</ele>
        <time>2022-04-10T10:23:26Z</time>
      </trkpt>
      <trkpt lat="47.12916" lon="-1.77482">
        <ele>81</ele>
        <time>2022-04-10T10:23:28Z</time>
      </trkpt>
      <trkpt lat="47.12911" lon="-1.775">
        <ele>81</ele>
        <time>2022-04-10T10:23:30Z</time>
      </trkpt>
      <trkpt lat="47.12907" lon="-1.77518">
        <ele>81</ele>
        <time>2022-04-10T10:23:32Z</time>
      </trkpt>
      <trkpt lat="47.12902" lon="-1.77536">
        <ele>81</ele>
        <time>2022-04-10T10:23:34Z</time>
      </trkpt>
      <trkpt lat="47.12898" lon="-1.77554">
        <ele>81</ele>
        <time>2022-04-10T10:23:36Z</time>
      </trkpt>
      <trkpt lat="47.12893" lon="-1.77572">
        <ele>81</ele>
        <time>2022-04-10T10:23:38Z</time>
      </trkpt>
      <trkpt lat="47.12888" lon="-1.7759">
        <ele>81</ele>
        <time>2022-04-10T10:23:40Z</time>
      </trkpt>
      <trkpt lat="47.12884" lon="-1.77608">
        <ele>81</ele>
        <time>2022-04-10T10:23:42Z</time>
      </trkpt>
      <trkpt lat="47.1288" lon="-1.77626">
        <ele>82</ele>
        <time>2022-04-10T10:23:44Z</time>
      </trkpt>
      <trkpt lat="47.12876" lon="-1.77644">
        <ele>83</ele>
        <time>2022-04-10T10:23:46Z</time>
      </trkpt>
      <trkpt lat="47.12872" lon="-1.77661">
        <ele>84</ele>
        <time>2022-04-10T10:23:48Z</time>
      </trkpt>
      <trkpt lat="47.12868" lon="-1.7768">
        <ele>84</ele>
        <time>2022-04-10T10:23:50Z</time>
      </trkpt>
      <trkpt lat="47.12865" lon="-1.77698">
        <ele>84</ele>
        <time>2022-04-10T10:23:52Z</time>
      </trkpt>
      <trkpt lat="47.12861" lon="-1.77717">
        <ele>85</ele>
        <time>2022-04-10T10:23:54Z</time>
      </trkpt>
      <trkpt lat="47.12856" lon="-1.77735">
        <ele>86</ele>
        <time>2022-04-10T10:23:56Z</time>
      </trkpt>
      <trkpt lat="47.1285" lon="-1.77754">
        <ele>86</ele>
        <time>2022-04-10T10:23:58Z</time>
      </trkpt>
      <trkpt lat="47.12843" lon="-1.77773">
        <ele>86</ele>
        <time>2022-04-10T10:24:00Z</time>
      </trkpt>
      <trkpt lat="47.12836" lon="-1.77791">
        <ele>85</ele>
        <time>2022-04-10T10:24:02Z</time>
      </trkpt>
      <trkpt lat="47.12829" lon="-1.77809">
        <ele>85</ele>
        <time>2022-04-10T10:24:04Z</time>
      </trkpt>
      <trkpt lat="47.12822" lon="-1.77826">
        <ele>85</ele>
        <time>2022-04-10T10:24:06Z</time>
      </trkpt>
      <trkpt lat="47.12814" lon="-1.77844">
        <ele>85</ele>
        <time>2022-04-10T10:24:08Z</time>
      </trkpt>
      <trkpt lat="47.12808" lon="-1.77861">
        <ele>84</ele>
        <time>2022-04-10T10:24:10Z</time>
      </trkpt>
      <trkpt lat="47.12801" lon="-1.77879">
        <ele>84</ele>
        <time>2022-04-10T10:24:12Z</time>
      </trkpt>
      <trkpt lat="47.12796" lon="-1.77897">
        <ele>83</ele>
        <time>2022-04-10T10:24:14Z</time>
      </trkpt>
      <trkpt lat="47.12791" lon="-1.77915">
        <ele>83</ele>
        <time>2022-04-10T10:24:16Z</time>
      </trkpt>
      <trkpt lat="47.12785" lon="-1.77934">
        <ele>82</ele>
        <time>2022-04-10T10:24:18Z</time>
      </trkpt>
      <trkpt lat="47.1278" lon="-1.77952">
        <ele>82</ele>
        <time>2022-04-10T10:24:20Z</time>
      </trkpt>
      <trkpt lat="47.12775" lon="-1.77971">
        <ele>82</ele>
        <time>2022-04-10T10:24:22Z</time>
      </trkpt>
      <trkpt lat="47.1277" lon="-1.7799">
        <ele>81</ele>
        <time>2022-04-10T10:24:24Z</time>
      </trkpt>
      <trkpt lat="47.12764" lon="-1.78008">
        <ele>81</ele>
        <time>2022-04-10T10:24:26Z</time>
      </trkpt>
      <trkpt lat="47.12758" lon="-1.78026">
        <ele>81</ele>
        <time>2022-04-10T10:24:28Z</time>
      </trkpt>
      <trkpt lat="47.12752" lon="-1.78045">
        <ele>81</ele>
        <time>2022-04-10T10:24:30Z</time>
      </trkpt>
      <trkpt lat="47.12744" lon="-1.78061">
        <ele>81</ele>
        <time>2022-04-10T10:24:32Z</time>
      </trkpt>
      <trkpt lat="47.12734" lon="-1.78076">
        <ele>81</ele>
        <time>2022-04-10T10:24:34Z</time>
      </trkpt>
      <trkpt lat="47.12724" lon="-1.78089">
        <ele>81</ele>
        <time>2022-04-10T10:24:36Z</time>
      </trkpt>
      <trkpt lat="47.12714" lon="-1.78103">
        <ele>81</ele>
        <time>2022-04-10T10:24:38Z</time>
      </trkpt>
      <trkpt lat="47.12704" lon="-1.78117">
        <ele>81</ele>
        <time>2022-04-10T10:24:40Z</time>
      </trkpt>
      <trkpt lat="47.12694" lon="-1.7813">
        <ele>81</ele>
        <time>2022-04-10T10:24:42Z</time>
      </trkpt>
      <trkpt lat="47.12684" lon="-1.78144">
        <ele>81</ele>
        <time>2022-04-10T10:24:44Z</time>
      </trkpt>
      <trkpt lat="47.12674" lon="-1.78158">
        <ele>82</ele>
        <time>2022-04-10T10:24:46Z</time>
      </trkpt>
      <trkpt lat="47.12664" lon="-1.78171">
        <ele>82</ele>
        <time>2022-04-10T10:24:48Z</time>
      </trkpt>
      <trkpt lat="47.12654" lon="-1.78185">
        <ele>82</ele>
        <time>2022-04-10T10:24:50Z</time>
      </trkpt>
      <trkpt lat="47.12644" lon="-1.782">
        <ele>82</ele>
        <time>2022-04-10T10:24:52Z</time>
      </trkpt>
      <trkpt lat="47.12635" lon="-1.78214">
        <ele>81</ele>
        <time>2022-04-10T10:24:54Z</time>
      </trkpt>
      <trkpt lat="47.12628" lon="-1.78231">
        <ele>81</ele>
        <time>2022-04-10T10:24:56Z</time>
      </trkpt>
      <trkpt lat="47.12622" lon="-1.78249">
        <ele>81</ele>
        <time>2022-04-10T10:24:58Z</time>
      </trkpt>
      <trkpt lat="47.12618" lon="-1.78268">
        <ele>81</ele>
        <time>2022-04-10T10:25:00Z</time>
      </trkpt>
      <trkpt lat="47.12613" lon="-1.78287">
        <ele>81</ele>
        <time>2022-04-10T10:25:02Z</time>
      </trkpt>
      <trkpt lat="47.12609" lon="-1.78306">
        <ele>81</ele>
        <time>2022-04-10T10:25:04Z</time>
      </trkpt>
      <trkpt lat="47.12605" lon="-1.78327">
        <ele>81</ele>
        <time>2022-04-10T10:25:06Z</time>
      </trkpt>
      <trkpt lat="47.126" lon="-1.78346">
        <ele>81</ele>
        <time>2022-04-10T10:25:08Z</time>
      </trkpt>
      <trkpt lat="47.12595" lon="-1.78367">
        <ele>80</ele>
        <time>2022-04-10T10:25:10Z</time>
      </trkpt>
      <trkpt lat="47.12591" lon="-1.78387">
        <ele>80</ele>
        <time>2022-04-10T10:25:12Z</time>
      </trkpt>
      <trkpt lat="47.12586" lon="-1.78406">
        <ele>80</ele>
        <time>2022-04-10T10:25:14Z</time>
      </trkpt>
      <trkpt lat="47.12581" lon="-1.78426">
        <ele>80</ele>
        <time>2022-04-10T10:25:16Z</time>
      </trkpt>
      <trkpt lat="47.12577" lon="-1.78446">
        <ele>79</ele>
        <time>2022-04-10T10:25:18Z</time>
      </trkpt>
      <trkpt lat="47.12572" lon="-1.78466">
        <ele>79</ele>
        <time>2022-04-10T10:25:20Z</time>
      </trkpt>
      <trkpt lat="47.12567" lon="-1.78486">
        <ele>78</ele>
        <time>2022-04-10T10:25:22Z</time>
      </trkpt>
      <trkpt lat="47.12563" lon="-1.78506">
        <ele>78</ele>
        <time>2022-04-10T10:25:24Z</time>
      </trkpt>
      <trkpt lat="47.12558" lon="-1.78526">
        <ele>78</ele>
        <time>2022-04-10T10:25:26Z</time>
      </trkpt>
      <trkpt lat="47.12553" lon="-1.78547">
        <ele>77</ele>
        <time>2022-04-10T10:25:28Z</time>
      </trkpt>
      <trkpt lat="47.12548" lon="-1.78568">
        <ele>77</ele>
        <time>2022-04-10T10:25:30Z</time>
      </trkpt>
      <trkpt lat="47.12543" lon="-1.78589">
        <ele>77</ele>
        <time>2022-04-10T10:25:32Z</time>
      </trkpt>
      <trkpt lat="47.12537" lon="-1.7861">
        <ele>76</ele>
        <time>2022-04-10T10:25:34Z</time>
      </trkpt>
      <trkpt lat="47.12531" lon="-1.7863">
        <ele>76</ele>
        <time>2022-04-10T10:25:36Z</time>
      </trkpt>
      <trkpt lat="47.12525" lon="-1.7865">
        <ele>76</ele>
        <time>2022-04-10T10:25:38Z</time>
      </trkpt>
      <trkpt lat="47.12518" lon="-1.78669">
        <ele>76</ele>
        <time>2022-04-10T10:25:40Z</time>
      </trkpt>
      <trkpt lat="47.12511" lon="-1.78687">
        <ele>76</ele>
        <time>2022-04-10T10:25:42Z</time>
      </trkpt>
      <trkpt lat="47.12504" lon="-1.78706">
        <ele>76</ele>
        <time>2022-04-10T10:25:44Z</time>
      </trkpt>
      <trkpt lat="47.12498" lon="-1.78726">
        <ele>75</ele>
        <time>2022-04-10T10:25:46Z</time>
      </trkpt>
      <trkpt lat="47.12492" lon="-1.78747">
        <ele>76</ele>
        <time>2022-04-10T10:25:48Z</time>
      </trkpt>
      <trkpt lat="47.12488" lon="-1.78768">
        <ele>76</ele>
        <time>2022-04-10T10:25:50Z</time>
      </trkpt>
      <trkpt lat="47.12483" lon="-1.78788">
        <ele>75</ele>
        <time>2022-04-10T10:25:52Z</time>
      </trkpt>
      <trkpt lat="47.12479" lon="-1.78809">
        <ele>75</ele>
        <time>2022-04-10T10:25:54Z</time>
      </trkpt>
      <trkpt lat="47.12475" lon="-1.78829">
        <ele>75</ele>
        <time>2022-04-10T10:25:56Z</time>
      </trkpt>
      <trkpt lat="47.12471" lon="-1.7885">
        <ele>75</ele>
        <time>2022-04-10T10:25:58Z</time>
      </trkpt>
      <trkpt lat="47.12469" lon="-1.78871">
        <ele>75</ele>
        <time>2022-04-10T10:26:00Z</time>
      </trkpt>
      <trkpt lat="47.12469" lon="-1.78892">
        <ele>76</ele>
        <time>2022-04-10T10:26:02Z</time>
      </trkpt>
      <trkpt lat="47.12467" lon="-1.78912">
        <ele>76</ele>
        <time>2022-04-10T10:26:04Z</time>
      </trkpt>
      <trkpt lat="47.12463" lon="-1.78932">
        <ele>76</ele>
        <time>2022-04-10T10:26:06Z</time>
      </trkpt>
      <trkpt lat="47.12459" lon="-1.78952">
        <ele>76</ele>
        <time>2022-04-10T10:26:08Z</time>
      </trkpt>
      <trkpt lat="47.12453" lon="-1.78972">
        <ele>76</ele>
        <time>2022-04-10T10:26:10Z</time>
      </trkpt>
      <trkpt lat="47.12448" lon="-1.78992">
        <ele>76</ele>
        <time>2022-04-10T10:26:12Z</time>
      </trkpt>
      <trkpt lat="47.12443" lon="-1.79012">
        <ele>76</ele>
        <time>2022-04-10T10:26:14Z</time>
      </trkpt>
      <trkpt lat="47.12438" lon="-1.79032">
        <ele>76</ele>
        <time>2022-04-10T10:26:16Z</time>
      </trkpt>
      <trkpt lat="47.12433" lon="-1.79052">
        <ele>76</ele>
        <time>2022-04-10T10:26:18Z</time>
      </trkpt>
      <trkpt lat="47.12429" lon="-1.79071">
        <ele>75</ele>
        <time>2022-04-10T10:26:20Z</time>
      </trkpt>
      <trkpt lat="47.12425" lon="-1.7909">
        <ele>75</ele>
        <time>2022-04-10T10:26:22Z</time>
      </trkpt>
      <trkpt lat="47.12422" lon="-1.7911">
        <ele>75</ele>
        <time>2022-04-10T10:26:24Z</time>
      </trkpt>
      <trkpt lat="47.12419" lon="-1.7913">
        <ele>75</ele>
        <time>2022-04-10T10:26:26Z</time>
      </trkpt>
      <trkpt lat="47.12418" lon="-1.7915">
        <ele>74</ele>
        <time>2022-04-10T10:26:28Z</time>
      </trkpt>
      <trkpt lat="47.12419" lon="-1.79171">
        <ele>74</ele>
        <time>2022-04-10T10:26:30Z</time>
      </trkpt>
      <trkpt lat="47.12421" lon="-1.79192">
        <ele>74</ele>
        <time>2022-04-10T10:26:32Z</time>
      </trkpt>
      <trkpt lat="47.12423" lon="-1.79212">
        <ele>73</ele>
        <time>2022-04-10T10:26:34Z</time>
      </trkpt>
      <trkpt lat="47.12425" lon="-1.79233">
        <ele>73</ele>
        <time>2022-04-10T10:26:36Z</time>
      </trkpt>
      <trkpt lat="47.12425" lon="-1.79253">
        <ele>73</ele>
        <time>2022-04-10T10:26:38Z</time>
      </trkpt>
      <trkpt lat="47.12422" lon="-1.79274">
        <ele>73</ele>
        <time>2022-04-10T10:26:40Z</time>
      </trkpt>
      <trkpt lat="47.12415" lon="-1.79293">
        <ele>73</ele>
        <time>2022-04-10T10:26:42Z</time>
      </trkpt>
      <trkpt lat="47.12408" lon="-1.7931">
        <ele>73</ele>
        <time>2022-04-10T10:26:44Z</time>
      </trkpt>
      <trkpt lat="47.124" lon="-1.79327">
        <ele>73</ele>
        <time>2022-04-10T10:26:46Z</time>
      </trkpt>
      <trkpt lat="47.12392" lon="-1.79343">
        <ele>73</ele>
        <time>2022-04-10T10:26:48Z</time>
      </trkpt>
      <trkpt lat="47.12384" lon="-1.79359">
        <ele>73</ele>
        <time>2022-04-10T10:26:50Z</time>
      </trkpt>
      <trkpt lat="47.12376" lon="-1.79375">
        <ele>73</ele>
        <time>2022-04-10T10:26:52Z</time>
      </trkpt>
      <trkpt lat="47.12369" lon="-1.79393">
        <ele>74</ele>
        <time>2022-04-10T10:26:54Z</time>
      </trkpt>
      <trkpt lat="47.12363" lon="-1.7941">
        <ele>74</ele>
        <time>2022-04-10T10:26:56Z</time>
      </trkpt>
      <trkpt lat="47.12357" lon="-1.79428">
        <ele>74</ele>
        <time>2022-04-10T10:26:58Z</time>
      </trkpt>
      <trkpt lat="47.12353" lon="-1.79447">
        <ele>74</ele>
        <time>2022-04-10T10:27:00Z</time>
      </trkpt>
      <trkpt lat="47.12349" lon="-1.79467">
        <ele>74</ele>
        <time>2022-04-10T10:27:02Z</time>
      </trkpt>
      <trkpt lat="47.12346" lon="-1.79487">
        <ele>74</ele>
        <time>2022-04-10T10:27:04Z</time>
      </trkpt>
      <trkpt lat="47.12343" lon="-1.79507">
        <ele>74</ele>
        <time>2022-04-10T10:27:06Z</time>
      </trkpt>
      <trkpt lat="47.1234" lon="-1.79527">
        <ele>74</ele>
        <time>2022-04-10T10:27:08Z</time>
      </trkpt>
      <trkpt lat="47.12338" lon="-1.79547">
        <ele>74</ele>
        <time>2022-04-10T10:27:10Z</time>
      </trkpt>
      <trkpt lat="47.12334" lon="-1.79564">
        <ele>74</ele>
        <time>2022-04-10T10:27:12Z</time>
      </trkpt>
      <trkpt lat="47.1233" lon="-1.79583">
        <ele>75</ele>
        <time>2022-04-10T10:27:14Z</time>
      </trkpt>
      <trkpt lat="47.1232" lon="-1.79594">
        <ele>74</ele>
        <time>2022-04-10T10:27:16Z</time>
      </trkpt>
      <trkpt lat="47.12307" lon="-1.79598">
        <ele>74</ele>
        <time>2022-04-10T10:27:18Z</time>
      </trkpt>
      <trkpt lat="47.12294" lon="-1.79599">
        <ele>75</ele>
        <time>2022-04-10T10:27:20Z</time>
      </trkpt>
      <trkpt lat="47.12281" lon="-1.79598">
        <ele>75</ele>
        <time>2022-04-10T10:27:22Z</time>
      </trkpt>
      <trkpt lat="47.12269" lon="-1.79598">
        <ele>75</ele>
        <time>2022-04-10T10:27:24Z</time>
      </trkpt>
      <trkpt lat="47.12256" lon="-1.79597">
        <ele>75</ele>
        <time>2022-04-10T10:27:26Z</time>
      </trkpt>
      <trkpt lat="47.12243" lon="-1.79596">
        <ele>75</ele>
        <time>2022-04-10T10:27:28Z</time>
      </trkpt>
      <trkpt lat="47.1223" lon="-1.79597">
        <ele>75</ele>
        <time>2022-04-10T10:27:30Z</time>
      </trkpt>
      <trkpt lat="47.12218" lon="-1.79597">
        <ele>75</ele>
        <time>2022-04-10T10:27:32Z</time>
      </trkpt>
      <trkpt lat="47.12206" lon="-1.79597">
        <ele>75</ele>
        <time>2022-04-10T10:27:34Z</time>
      </trkpt>
      <trkpt lat="47.12194" lon="-1.79596">
        <ele>75</ele>
        <time>2022-04-10T10:27:36Z</time>
      </trkpt>
      <trkpt lat="47.12182" lon="-1.79596">
        <ele>75</ele>
        <time>2022-04-10T10:27:38Z</time>
      </trkpt>
      <trkpt lat="47.1217" lon="-1.79595">
        <ele>75</ele>
        <time>2022-04-10T10:27:40Z</time>
      </trkpt>
      <trkpt lat="47.12158" lon="-1.79595">
        <ele>75</ele>
        <time>2022-04-10T10:27:42Z</time>
      </trkpt>
      <trkpt lat="47.12146" lon="-1.79596">
        <ele>74</ele>
        <time>2022-04-10T10:27:44Z</time>
      </trkpt>
      <trkpt lat="47.12133" lon="-1.79597">
        <ele>74</ele>
        <time>2022-04-10T10:27:46Z</time>
      </trkpt>
      <trkpt lat="47.12121" lon="-1.79598">
        <ele>74</ele>
        <time>2022-04-10T10:27:48Z</time>
      </trkpt>
      <trkpt lat="47.12108" lon="-1.796">
        <ele>73</ele>
        <time>2022-04-10T10:27:50Z</time>
      </trkpt>
      <trkpt lat="47.12095" lon="-1.79603">
        <ele>73</ele>
        <time>2022-04-10T10:27:52Z</time>
      </trkpt>
      <trkpt lat="47.12083" lon="-1.79613">
        <ele>72</ele>
        <time>2022-04-10T10:27:54Z</time>
      </trkpt>
      <trkpt lat="47.12072" lon="-1.79624">
        <ele>72</ele>
        <time>2022-04-10T10:27:56Z</time>
      </trkpt>
      <trkpt lat="47.12061" lon="-1.79636">
        <ele>72</ele>
        <time>2022-04-10T10:27:58Z</time>
      </trkpt>
      <trkpt lat="47.12049" lon="-1.79647">
        <ele>71</ele>
        <time>2022-04-10T10:28:00Z</time>
      </trkpt>
      <trkpt lat="47.12038" lon="-1.79659">
        <ele>71</ele>
        <time>2022-04-10T10:28:02Z</time>
      </trkpt>
      <trkpt lat="47.12026" lon="-1.79671">
        <ele>71</ele>
        <time>2022-04-10T10:28:04Z</time>
      </trkpt>
      <trkpt lat="47.12015" lon="-1.79682">
        <ele>71</ele>
        <time>2022-04-10T10:28:06Z</time>
      </trkpt>
      <trkpt lat="47.12003" lon="-1.79694">
        <ele>70</ele>
        <time>2022-04-10T10:28:08Z</time>
      </trkpt>
      <trkpt lat="47.11991" lon="-1.79706">
        <ele>70</ele>
        <time>2022-04-10T10:28:10Z</time>
      </trkpt>
      <trkpt lat="47.11979" lon="-1.79717">
        <ele>69</ele>
        <time>2022-04-10T10:28:12Z</time>
      </trkpt>
      <trkpt lat="47.11968" lon="-1.7973">
        <ele>69</ele>
        <time>2022-04-10T10:28:14Z</time>
      </trkpt>
      <trkpt lat="47.11958" lon="-1.79743">
        <ele>69</ele>
        <time>2022-04-10T10:28:16Z</time>
      </trkpt>
      <trkpt lat="47.11948" lon="-1.79757">
        <ele>69</ele>
        <time>2022-04-10T10:28:18Z</time>
      </trkpt>
      <trkpt lat="47.11937" lon="-1.79771">
        <ele>70</ele>
        <time>2022-04-10T10:28:20Z</time>
      </trkpt>
      <trkpt lat="47.11926" lon="-1.79784">
        <ele>70</ele>
        <time>2022-04-10T10:28:22Z</time>
      </trkpt>
      <trkpt lat="47.11915" lon="-1.79798">
        <ele>70</ele>
        <time>2022-04-10T10:28:24Z</time>
      </trkpt>
      <trkpt lat="47.11904" lon="-1.79811">
        <ele>69</ele>
        <time>2022-04-10T10:28:26Z</time>
      </trkpt>
      <trkpt lat="47.11894" lon="-1.79824">
        <ele>69</ele>
        <time>2022-04-10T10:28:28Z</time>
      </trkpt>
      <trkpt lat="47.11882" lon="-1.79837">
        <ele>69</ele>
        <time>2022-04-10T10:28:30Z</time>
      </trkpt>
      <trkpt lat="47.11871" lon="-1.79849">
        <ele>69</ele>
        <time>2022-04-10T10:28:32Z</time>
      </trkpt>
      <trkpt lat="47.1186" lon="-1.79862">
        <ele>69</ele>
        <time>2022-04-10T10:28:34Z</time>
      </trkpt>
      <trkpt lat="47.11848" lon="-1.79874">
        <ele>69</ele>
        <time>2022-04-10T10:28:36Z</time>
      </trkpt>
      <trkpt lat="47.11837" lon="-1.79886">
        <ele>68</ele>
        <time>2022-04-10T10:28:38Z</time>
      </trkpt>
      <trkpt lat="47.11826" lon="-1.79898">
        <ele>68</ele>
        <time>2022-04-10T10:28:40Z</time>
      </trkpt>
      <trkpt lat="47.11816" lon="-1.7991">
        <ele>68</ele>
        <time>2022-04-10T10:28:42Z</time>
      </trkpt>
      <trkpt lat="47.11805" lon="-1.79921">
        <ele>68</ele>
        <time>2022-04-10T10:28:44Z</time>
      </trkpt>
      <trkpt lat="47.11794" lon="-1.79933">
        <ele>68</ele>
        <time>2022-04-10T10:28:46Z</time>
      </trkpt>
      <trkpt lat="47.11784" lon="-1.79943">
        <ele>68</ele>
        <time>2022-04-10T10:28:48Z</time>
      </trkpt>
      <trkpt lat="47.11775" lon="-1.79954">
        <ele>68</ele>
        <time>2022-04-10T10:28:50Z</time>
      </trkpt>
      <trkpt lat="47.11767" lon="-1.79965">
        <ele>68</ele>
        <time>2022-04-10T10:28:52Z</time>
      </trkpt>
      <trkpt lat="47.11757" lon="-1.79977">
        <ele>68</ele>
        <time>2022-04-10T10:28:55Z</time>
      </trkpt>
      <trkpt lat="47.11745" lon="-1.79978">
        <ele>68</ele>
        <time>2022-04-10T10:28:57Z</time>
      </trkpt>
      <trkpt lat="47.11732" lon="-1.79975">
        <ele>69</ele>
        <time>2022-04-10T10:28:59Z</time>
      </trkpt>
      <trkpt lat="47.1172" lon="-1.79973">
        <ele>69</ele>
        <time>2022-04-10T10:29:01Z</time>
      </trkpt>
      <trkpt lat="47.11707" lon="-1.79972">
        <ele>69</ele>
        <time>2022-04-10T10:29:03Z</time>
      </trkpt>
      <trkpt lat="47.11694" lon="-1.7997">
        <ele>70</ele>
        <time>2022-04-10T10:29:05Z</time>
      </trkpt>
      <trkpt lat="47.11682" lon="-1.79968">
        <ele>70</ele>
        <time>2022-04-10T10:29:07Z</time>
      </trkpt>
      <trkpt lat="47.1167" lon="-1.79967">
        <ele>70</ele>
        <time>2022-04-10T10:29:09Z</time>
      </trkpt>
      <trkpt lat="47.11657" lon="-1.79965">
        <ele>69</ele>
        <time>2022-04-10T10:29:11Z</time>
      </trkpt>
      <trkpt lat="47.11645" lon="-1.79963">
        <ele>69</ele>
        <time>2022-04-10T10:29:13Z</time>
      </trkpt>
      <trkpt lat="47.11634" lon="-1.79961">
        <ele>70</ele>
        <time>2022-04-10T10:29:15Z</time>
      </trkpt>
      <trkpt lat="47.11623" lon="-1.79959">
        <ele>69</ele>
        <time>2022-04-10T10:29:17Z</time>
      </trkpt>
      <trkpt lat="47.11611" lon="-1.79958">
        <ele>69</ele>
        <time>2022-04-10T10:29:19Z</time>
      </trkpt>
      <trkpt lat="47.116" lon="-1.79956">
        <ele>69</ele>
        <time>2022-04-10T10:29:21Z</time>
      </trkpt>
      <trkpt lat="47.11588" lon="-1.79955">
        <ele>69</ele>
        <time>2022-04-10T10:29:23Z</time>
      </trkpt>
      <trkpt lat="47.11575" lon="-1.79955">
        <ele>69</ele>
        <time>2022-04-10T10:29:25Z</time>
      </trkpt>
      <trkpt lat="47.11563" lon="-1.79957">
        <ele>69</ele>
        <time>2022-04-10T10:29:27Z</time>
      </trkpt>
      <trkpt lat="47.1155" lon="-1.79962">
        <ele>69</ele>
        <time>2022-04-10T10:29:29Z</time>
      </trkpt>
      <trkpt lat="47.11539" lon="-1.79969">
        <ele>68</ele>
        <time>2022-04-10T10:29:31Z</time>
      </trkpt>
      <trkpt lat="47.11528" lon="-1.79978">
        <ele>68</ele>
        <time>2022-04-10T10:29:33Z</time>
      </trkpt>
      <trkpt lat="47.11518" lon="-1.79989">
        <ele>68</ele>
        <time>2022-04-10T10:29:35Z</time>
      </trkpt>
      <trkpt lat="47.11509" lon="-1.80001">
        <ele>67</ele>
        <time>2022-04-10T10:29:37Z</time>
      </trkpt>
      <trkpt lat="47.115" lon="-1.80014">
        <ele>67</ele>
        <time>2022-04-10T10:29:39Z</time>
      </trkpt>
      <trkpt lat="47.11491" lon="-1.80025">
        <ele>67</ele>
        <time>2022-04-10T10:29:41Z</time>
      </trkpt>
      <trkpt lat="47.11482" lon="-1.80038">
        <ele>67</ele>
        <time>2022-04-10T10:29:43Z</time>
      </trkpt>
      <trkpt lat="47.11473" lon="-1.80051">
        <ele>66</ele>
        <time>2022-04-10T10:29:45Z</time>
      </trkpt>
      <trkpt lat="47.11464" lon="-1.80063">
        <ele>66</ele>
        <time>2022-04-10T10:29:47Z</time>
      </trkpt>
      <trkpt lat="47.11455" lon="-1.80075">
        <ele>66</ele>
        <time>2022-04-10T10:29:49Z</time>
      </trkpt>
      <trkpt lat="47.11445" lon="-1.80088">
        <ele>66</ele>
        <time>2022-04-10T10:29:51Z</time>
      </trkpt>
      <trkpt lat="47.11435" lon="-1.801">
        <ele>66</ele>
        <time>2022-04-10T10:29:53Z</time>
      </trkpt>
      <trkpt lat="47.11426" lon="-1.80113">
        <ele>66</ele>
        <time>2022-04-10T10:29:55Z</time>
      </trkpt>
      <trkpt lat="47.11417" lon="-1.80125">
        <ele>66</ele>
        <time>2022-04-10T10:29:57Z</time>
      </trkpt>
      <trkpt lat="47.11408" lon="-1.80138">
        <ele>66</ele>
        <time>2022-04-10T10:29:59Z</time>
      </trkpt>
      <trkpt lat="47.11398" lon="-1.80151">
        <ele>66</ele>
        <time>2022-04-10T10:30:01Z</time>
      </trkpt>
      <trkpt lat="47.11389" lon="-1.80163">
        <ele>65</ele>
        <time>2022-04-10T10:30:03Z</time>
      </trkpt>
      <trkpt lat="47.11379" lon="-1.80176">
        <ele>65</ele>
        <time>2022-04-10T10:30:05Z</time>
      </trkpt>
      <trkpt lat="47.11369" lon="-1.80189">
        <ele>65</ele>
        <time>2022-04-10T10:30:07Z</time>
      </trkpt>
      <trkpt lat="47.11359" lon="-1.80201">
        <ele>65</ele>
        <time>2022-04-10T10:30:09Z</time>
      </trkpt>
      <trkpt lat="47.11349" lon="-1.80214">
        <ele>64</ele>
        <time>2022-04-10T10:30:11Z</time>
      </trkpt>
      <trkpt lat="47.1134" lon="-1.80228">
        <ele>64</ele>
        <time>2022-04-10T10:30:13Z</time>
      </trkpt>
      <trkpt lat="47.1133" lon="-1.80241">
        <ele>64</ele>
        <time>2022-04-10T10:30:15Z</time>
      </trkpt>
      <trkpt lat="47.11321" lon="-1.80255">
        <ele>63</ele>
        <time>2022-04-10T10:30:17Z</time>
      </trkpt>
      <trkpt lat="47.11312" lon="-1.80269">
        <ele>63</ele>
        <time>2022-04-10T10:30:19Z</time>
      </trkpt>
      <trkpt lat="47.11303" lon="-1.80282">
        <ele>63</ele>
        <time>2022-04-10T10:30:21Z</time>
      </trkpt>
      <trkpt lat="47.11293" lon="-1.80295">
        <ele>63</ele>
        <time>2022-04-10T10:30:23Z</time>
      </trkpt>
      <trkpt lat="47.11283" lon="-1.80308">
        <ele>63</ele>
        <time>2022-04-10T10:30:25Z</time>
      </trkpt>
      <trkpt lat="47.11273" lon="-1.80322">
        <ele>63</ele>
        <time>2022-04-10T10:30:27Z</time>
      </trkpt>
      <trkpt lat="47.11263" lon="-1.80335">
        <ele>63</ele>
        <time>2022-04-10T10:30:29Z</time>
      </trkpt>
      <trkpt lat="47.11253" lon="-1.80349">
        <ele>63</ele>
        <time>2022-04-10T10:30:31Z</time>
      </trkpt>
      <trkpt lat="47.11243" lon="-1.80362">
        <ele>63</ele>
        <time>2022-04-10T10:30:33Z</time>
      </trkpt>
      <trkpt lat="47.11234" lon="-1.80373">
        <ele>63</ele>
        <time>2022-04-10T10:30:35Z</time>
      </trkpt>
      <trkpt lat="47.11225" lon="-1.80385">
        <ele>63</ele>
        <time>2022-04-10T10:30:37Z</time>
      </trkpt>
      <trkpt lat="47.11215" lon="-1.80397">
        <ele>64</ele>
        <time>2022-04-10T10:30:39Z</time>
      </trkpt>
      <trkpt lat="47.11204" lon="-1.80408">
        <ele>63</ele>
        <time>2022-04-10T10:30:41Z</time>
      </trkpt>
      <trkpt lat="47.11194" lon="-1.80419">
        <ele>64</ele>
        <time>2022-04-10T10:30:43Z</time>
      </trkpt>
      <trkpt lat="47.11182" lon="-1.80428">
        <ele>64</ele>
        <time>2022-04-10T10:30:45Z</time>
      </trkpt>
      <trkpt lat="47.11171" lon="-1.80437">
        <ele>64</ele>
        <time>2022-04-10T10:30:47Z</time>
      </trkpt>
      <trkpt lat="47.1116" lon="-1.80445">
        <ele>63</ele>
        <time>2022-04-10T10:30:49Z</time>
      </trkpt>
      <trkpt lat="47.11149" lon="-1.80452">
        <ele>63</ele>
        <time>2022-04-10T10:30:51Z</time>
      </trkpt>
      <trkpt lat="47.11138" lon="-1.80459">
        <ele>63</ele>
        <time>2022-04-10T10:30:53Z</time>
      </trkpt>
      <trkpt lat="47.11128" lon="-1.80467">
        <ele>63</ele>
        <time>2022-04-10T10:30:55Z</time>
      </trkpt>
      <trkpt lat="47.11117" lon="-1.80474">
        <ele>63</ele>
        <time>2022-04-10T10:30:57Z</time>
      </trkpt>
      <trkpt lat="47.11106" lon="-1.80482">
        <ele>63</ele>
        <time>2022-04-10T10:30:59Z</time>
      </trkpt>
      <trkpt lat="47.11095" lon="-1.80489">
        <ele>64</ele>
        <time>2022-04-10T10:31:01Z</time>
      </trkpt>
      <trkpt lat="47.11084" lon="-1.80495">
        <ele>64</ele>
        <time>2022-04-10T10:31:03Z</time>
      </trkpt>
      <trkpt lat="47.11073" lon="-1.80502">
        <ele>64</ele>
        <time>2022-04-10T10:31:05Z</time>
      </trkpt>
      <trkpt lat="47.11062" lon="-1.8051">
        <ele>64</ele>
        <time>2022-04-10T10:31:07Z</time>
      </trkpt>
      <trkpt lat="47.11051" lon="-1.80517">
        <ele>64</ele>
        <time>2022-04-10T10:31:09Z</time>
      </trkpt>
      <trkpt lat="47.1104" lon="-1.80525">
        <ele>64</ele>
        <time>2022-04-10T10:31:11Z</time>
      </trkpt>
      <trkpt lat="47.11029" lon="-1.80532">
        <ele>63</ele>
        <time>2022-04-10T10:31:13Z</time>
      </trkpt>
      <trkpt lat="47.11018" lon="-1.8054">
        <ele>63</ele>
        <time>2022-04-10T10:31:15Z</time>
      </trkpt>
      <trkpt lat="47.11006" lon="-1.80547">
        <ele>63</ele>
        <time>2022-04-10T10:31:17Z</time>
      </trkpt>
      <trkpt lat="47.10995" lon="-1.80554">
        <ele>63</ele>
        <time>2022-04-10T10:31:19Z</time>
      </trkpt>
      <trkpt lat="47.10984" lon="-1.80562">
        <ele>63</ele>
        <time>2022-04-10T10:31:21Z</time>
      </trkpt>
      <trkpt lat="47.10972" lon="-1.80571">
        <ele>62</ele>
        <time>2022-04-10T10:31:23Z</time>
      </trkpt>
      <trkpt lat="47.10961" lon="-1.80579">
        <ele>62</ele>
        <time>2022-04-10T10:31:25Z</time>
      </trkpt>
      <trkpt lat="47.1095" lon="-1.80586">
        <ele>62</ele>
        <time>2022-04-10T10:31:27Z</time>
      </trkpt>
      <trkpt lat="47.10938" lon="-1.80594">
        <ele>62</ele>
        <time>2022-04-10T10:31:29Z</time>
      </trkpt>
      <trkpt lat="47.10926" lon="-1.80601">
        <ele>62</ele>
        <time>2022-04-10T10:31:31Z</time>
      </trkpt>
      <trkpt lat="47.10915" lon="-1.80609">
        <ele>63</ele>
        <time>2022-04-10T10:31:33Z</time>
      </trkpt>
      <trkpt lat="47.10904" lon="-1.80616">
        <ele>63</ele>
        <time>2022-04-10T10:31:35Z</time>
      </trkpt>
      <trkpt lat="47.10893" lon="-1.80624">
        <ele>62</ele>
        <time>2022-04-10T10:31:37Z</time>
      </trkpt>
      <trkpt lat="47.10881" lon="-1.80631">
        <ele>63</ele>
        <time>2022-04-10T10:31:39Z</time>
      </trkpt>
      <trkpt lat="47.1087" lon="-1.80637">
        <ele>63</ele>
        <time>2022-04-10T10:31:41Z</time>
      </trkpt>
      <trkpt lat="47.10858" lon="-1.80642">
        <ele>63</ele>
        <time>2022-04-10T10:31:43Z</time>
      </trkpt>
      <trkpt lat="47.10847" lon="-1.80646">
        <ele>63</ele>
        <time>2022-04-10T10:31:45Z</time>
      </trkpt>
      <trkpt lat="47.10834" lon="-1.8065">
        <ele>63</ele>
        <time>2022-04-10T10:31:47Z</time>
      </trkpt>
      <trkpt lat="47.10821" lon="-1.80655">
        <ele>63</ele>
        <time>2022-04-10T10:31:49Z</time>
      </trkpt>
      <trkpt lat="47.10809" lon="-1.80661">
        <ele>63</ele>
        <time>2022-04-10T10:31:51Z</time>
      </trkpt>
      <trkpt lat="47.10795" lon="-1.80666">
        <ele>62</ele>
        <time>2022-04-10T10:31:53Z</time>
      </trkpt>
      <trkpt lat="47.10782" lon="-1.80671">
        <ele>62</ele>
        <time>2022-04-10T10:31:55Z</time>
      </trkpt>
      <trkpt lat="47.10769" lon="-1.80675">
        <ele>62</ele>
        <time>2022-04-10T10:31:57Z</time>
      </trkpt>
      <trkpt lat="47.10756" lon="-1.80679">
        <ele>62</ele>
        <time>2022-04-10T10:31:59Z</time>
      </trkpt>
      <trkpt lat="47.10743" lon="-1.80682">
        <ele>62</ele>
        <time>2022-04-10T10:32:01Z</time>
      </trkpt>
      <trkpt lat="47.10731" lon="-1.80684">
        <ele>62</ele>
        <time>2022-04-10T10:32:03Z</time>
      </trkpt>
      <trkpt lat="47.10719" lon="-1.80686">
        <ele>62</ele>
        <time>2022-04-10T10:32:05Z</time>
      </trkpt>
      <trkpt lat="47.10706" lon="-1.80688">
        <ele>62</ele>
        <time>2022-04-10T10:32:07Z</time>
      </trkpt>
      <trkpt lat="47.10694" lon="-1.80689">
        <ele>62</ele>
        <time>2022-04-10T10:32:09Z</time>
      </trkpt>
      <trkpt lat="47.10681" lon="-1.80691">
        <ele>63</ele>
        <time>2022-04-10T10:32:11Z</time>
      </trkpt>
      <trkpt lat="47.10668" lon="-1.80692">
        <ele>63</ele>
        <time>2022-04-10T10:32:13Z</time>
      </trkpt>
      <trkpt lat="47.10656" lon="-1.80693">
        <ele>63</ele>
        <time>2022-04-10T10:32:15Z</time>
      </trkpt>
      <trkpt lat="47.10645" lon="-1.80694">
        <ele>63</ele>
        <time>2022-04-10T10:32:17Z</time>
      </trkpt>
      <trkpt lat="47.10632" lon="-1.80697">
        <ele>63</ele>
        <time>2022-04-10T10:32:19Z</time>
      </trkpt>
      <trkpt lat="47.1062" lon="-1.807">
        <ele>62</ele>
        <time>2022-04-10T10:32:21Z</time>
      </trkpt>
      <trkpt lat="47.10608" lon="-1.80704">
        <ele>62</ele>
        <time>2022-04-10T10:32:23Z</time>
      </trkpt>
      <trkpt lat="47.10597" lon="-1.8071">
        <ele>62</ele>
        <time>2022-04-10T10:32:25Z</time>
      </trkpt>
      <trkpt lat="47.10585" lon="-1.80718">
        <ele>62</ele>
        <time>2022-04-10T10:32:27Z</time>
      </trkpt>
      <trkpt lat="47.10574" lon="-1.80726">
        <ele>61</ele>
        <time>2022-04-10T10:32:29Z</time>
      </trkpt>
      <trkpt lat="47.10565" lon="-1.80737">
        <ele>61</ele>
        <time>2022-04-10T10:32:31Z</time>
      </trkpt>
      <trkpt lat="47.10556" lon="-1.80749">
        <ele>60</ele>
        <time>2022-04-10T10:32:33Z</time>
      </trkpt>
      <trkpt lat="47.10547" lon="-1.80762">
        <ele>60</ele>
        <time>2022-04-10T10:32:35Z</time>
      </trkpt>
      <trkpt lat="47.10536" lon="-1.80773">
        <ele>60</ele>
        <time>2022-04-10T10:32:37Z</time>
      </trkpt>
      <trkpt lat="47.10526" lon="-1.80784">
        <ele>60</ele>
        <time>2022-04-10T10:32:39Z</time>
      </trkpt>
      <trkpt lat="47.10518" lon="-1.80799">
        <ele>60</ele>
        <time>2022-04-10T10:32:41Z</time>
      </trkpt>
      <trkpt lat="47.10507" lon="-1.80809">
        <ele>60</ele>
        <time>2022-04-10T10:32:43Z</time>
      </trkpt>
      <trkpt lat="47.10495" lon="-1.80818">
        <ele>60</ele>
        <time>2022-04-10T10:32:45Z</time>
      </trkpt>
      <trkpt lat="47.10484" lon="-1.8083">
        <ele>59</ele>
        <time>2022-04-10T10:32:47Z</time>
      </trkpt>
      <trkpt lat="47.10473" lon="-1.80843">
        <ele>59</ele>
        <time>2022-04-10T10:32:49Z</time>
      </trkpt>
      <trkpt lat="47.10464" lon="-1.80857">
        <ele>59</ele>
        <time>2022-04-10T10:32:51Z</time>
      </trkpt>
      <trkpt lat="47.10456" lon="-1.80872">
        <ele>59</ele>
        <time>2022-04-10T10:32:53Z</time>
      </trkpt>
      <trkpt lat="47.10448" lon="-1.80887">
        <ele>59</ele>
        <time>2022-04-10T10:32:55Z</time>
      </trkpt>
      <trkpt lat="47.10439" lon="-1.80902">
        <ele>59</ele>
        <time>2022-04-10T10:32:57Z</time>
      </trkpt>
      <trkpt lat="47.10431" lon="-1.80914">
        <ele>60</ele>
        <time>2022-04-10T10:32:59Z</time>
      </trkpt>
      <trkpt lat="47.10422" lon="-1.80928">
        <ele>60</ele>
        <time>2022-04-10T10:33:01Z</time>
      </trkpt>
      <trkpt lat="47.10414" lon="-1.80941">
        <ele>60</ele>
        <time>2022-04-10T10:33:03Z</time>
      </trkpt>
      <trkpt lat="47.10406" lon="-1.80955">
        <ele>60</ele>
        <time>2022-04-10T10:33:05Z</time>
      </trkpt>
      <trkpt lat="47.10398" lon="-1.80969">
        <ele>60</ele>
        <time>2022-04-10T10:33:07Z</time>
      </trkpt>
      <trkpt lat="47.10391" lon="-1.80981">
        <ele>60</ele>
        <time>2022-04-10T10:33:09Z</time>
      </trkpt>
      <trkpt lat="47.10385" lon="-1.80991">
        <ele>61</ele>
        <time>2022-04-10T10:33:11Z</time>
      </trkpt>
      <trkpt lat="47.10377" lon="-1.81006">
        <ele>62</ele>
        <time>2022-04-10T10:33:14Z</time>
      </trkpt>
      <trkpt lat="47.10372" lon="-1.8102">
        <ele>61</ele>
        <time>2022-04-10T10:33:16Z</time>
      </trkpt>
      <trkpt lat="47.10367" lon="-1.81033">
        <ele>61</ele>
        <time>2022-04-10T10:33:18Z</time>
      </trkpt>
      <trkpt lat="47.10358" lon="-1.81046">
        <ele>61</ele>
        <time>2022-04-10T10:33:21Z</time>
      </trkpt>
      <trkpt lat="47.10349" lon="-1.81038">
        <ele>61</ele>
        <time>2022-04-10T10:33:23Z</time>
      </trkpt>
      <trkpt lat="47.1034" lon="-1.8102">
        <ele>61</ele>
        <time>2022-04-10T10:33:26Z</time>
      </trkpt>
      <trkpt lat="47.1033" lon="-1.81015">
        <ele>61</ele>
        <time>2022-04-10T10:33:29Z</time>
      </trkpt>
      <trkpt lat="47.10319" lon="-1.81012">
        <ele>59</ele>
        <time>2022-04-10T10:33:32Z</time>
      </trkpt>
      <trkpt lat="47.10305" lon="-1.81011">
        <ele>60</ele>
        <time>2022-04-10T10:33:35Z</time>
      </trkpt>
      <trkpt lat="47.10295" lon="-1.8101">
        <ele>59</ele>
        <time>2022-04-10T10:33:37Z</time>
      </trkpt>
      <trkpt lat="47.10285" lon="-1.81009">
        <ele>59</ele>
        <time>2022-04-10T10:33:39Z</time>
      </trkpt>
      <trkpt lat="47.10275" lon="-1.81009">
        <ele>60</ele>
        <time>2022-04-10T10:33:41Z</time>
      </trkpt>
      <trkpt lat="47.10262" lon="-1.81011">
        <ele>60</ele>
        <time>2022-04-10T10:33:44Z</time>
      </trkpt>
      <trkpt lat="47.1025" lon="-1.81013">
        <ele>59</ele>
        <time>2022-04-10T10:33:46Z</time>
      </trkpt>
      <trkpt lat="47.10239" lon="-1.81013">
        <ele>60</ele>
        <time>2022-04-10T10:33:48Z</time>
      </trkpt>
      <trkpt lat="47.10227" lon="-1.81012">
        <ele>60</ele>
        <time>2022-04-10T10:33:50Z</time>
      </trkpt>
      <trkpt lat="47.10215" lon="-1.81008">
        <ele>60</ele>
        <time>2022-04-10T10:33:52Z</time>
      </trkpt>
      <trkpt lat="47.10204" lon="-1.81001">
        <ele>60</ele>
        <time>2022-04-10T10:33:54Z</time>
      </trkpt>
      <trkpt lat="47.10192" lon="-1.80996">
        <ele>60</ele>
        <time>2022-04-10T10:33:56Z</time>
      </trkpt>
      <trkpt lat="47.10181" lon="-1.80991">
        <ele>60</ele>
        <time>2022-04-10T10:33:58Z</time>
      </trkpt>
      <trkpt lat="47.10169" lon="-1.80985">
        <ele>60</ele>
        <time>2022-04-10T10:34:00Z</time>
      </trkpt>
      <trkpt lat="47.10159" lon="-1.80979">
        <ele>59</ele>
        <time>2022-04-10T10:34:02Z</time>
      </trkpt>
      <trkpt lat="47.10148" lon="-1.80974">
        <ele>59</ele>
        <time>2022-04-10T10:34:04Z</time>
      </trkpt>
      <trkpt lat="47.10137" lon="-1.80972">
        <ele>59</ele>
        <time>2022-04-10T10:34:06Z</time>
      </trkpt>
      <trkpt lat="47.10125" lon="-1.80972">
        <ele>59</ele>
        <time>2022-04-10T10:34:08Z</time>
      </trkpt>
      <trkpt lat="47.10112" lon="-1.80972">
        <ele>58</ele>
        <time>2022-04-10T10:34:10Z</time>
      </trkpt>
      <trkpt lat="47.10099" lon="-1.80973">
        <ele>58</ele>
        <time>2022-04-10T10:34:12Z</time>
      </trkpt>
      <trkpt lat="47.10086" lon="-1.80973">
        <ele>59</ele>
        <time>2022-04-10T10:34:14Z</time>
      </trkpt>
      <trkpt lat="47.10074" lon="-1.80973">
        <ele>58</ele>
        <time>2022-04-10T10:34:16Z</time>
      </trkpt>
      <trkpt lat="47.10062" lon="-1.80973">
        <ele>58</ele>
        <time>2022-04-10T10:34:18Z</time>
      </trkpt>
      <trkpt lat="47.1005" lon="-1.80973">
        <ele>59</ele>
        <time>2022-04-10T10:34:20Z</time>
      </trkpt>
      <trkpt lat="47.10039" lon="-1.80974">
        <ele>59</ele>
        <time>2022-04-10T10:34:22Z</time>
      </trkpt>
      <trkpt lat="47.10028" lon="-1.80976">
        <ele>59</ele>
        <time>2022-04-10T10:34:24Z</time>
      </trkpt>
      <trkpt lat="47.10016" lon="-1.80978">
        <ele>59</ele>
        <time>2022-04-10T10:34:26Z</time>
      </trkpt>
      <trkpt lat="47.10005" lon="-1.80978">
        <ele>59</ele>
        <time>2022-04-10T10:34:28Z</time>
      </trkpt>
      <trkpt lat="47.09994" lon="-1.80979">
        <ele>60</ele>
        <time>2022-04-10T10:34:30Z</time>
      </trkpt>
      <trkpt lat="47.09983" lon="-1.80979">
        <ele>60</ele>
        <time>2022-04-10T10:34:32Z</time>
      </trkpt>
      <trkpt lat="47.09972" lon="-1.80979">
        <ele>60</ele>
        <time>2022-04-10T10:34:34Z</time>
      </trkpt>
      <trkpt lat="47.09961" lon="-1.80979">
        <ele>61</ele>
        <time>2022-04-10T10:34:36Z</time>
      </trkpt>
      <trkpt lat="47.0995" lon="-1.8098">
        <ele>61</ele>
        <time>2022-04-10T10:34:38Z</time>
      </trkpt>
      <trkpt lat="47.09939" lon="-1.80981">
        <ele>60</ele>
        <time>2022-04-10T10:34:40Z</time>
      </trkpt>
      <trkpt lat="47.09928" lon="-1.80982">
        <ele>60</ele>
        <time>2022-04-10T10:34:42Z</time>
      </trkpt>
      <trkpt lat="47.09917" lon="-1.80984">
        <ele>60</ele>
        <time>2022-04-10T10:34:44Z</time>
      </trkpt>
      <trkpt lat="47.09905" lon="-1.80984">
        <ele>61</ele>
        <time>2022-04-10T10:34:46Z</time>
      </trkpt>
      <trkpt lat="47.09894" lon="-1.80985">
        <ele>61</ele>
        <time>2022-04-10T10:34:48Z</time>
      </trkpt>
      <trkpt lat="47.09883" lon="-1.80986">
        <ele>61</ele>
        <time>2022-04-10T10:34:50Z</time>
      </trkpt>
      <trkpt lat="47.09872" lon="-1.80986">
        <ele>61</ele>
        <time>2022-04-10T10:34:52Z</time>
      </trkpt>
      <trkpt lat="47.0986" lon="-1.80986">
        <ele>61</ele>
        <time>2022-04-10T10:34:54Z</time>
      </trkpt>
      <trkpt lat="47.09849" lon="-1.80987">
        <ele>62</ele>
        <time>2022-04-10T10:34:56Z</time>
      </trkpt>
      <trkpt lat="47.09838" lon="-1.80988">
        <ele>62</ele>
        <time>2022-04-10T10:34:58Z</time>
      </trkpt>
      <trkpt lat="47.09827" lon="-1.80989">
        <ele>62</ele>
        <time>2022-04-10T10:35:00Z</time>
      </trkpt>
      <trkpt lat="47.09817" lon="-1.8099">
        <ele>63</ele>
        <time>2022-04-10T10:35:02Z</time>
      </trkpt>
      <trkpt lat="47.09807" lon="-1.8099">
        <ele>63</ele>
        <time>2022-04-10T10:35:04Z</time>
      </trkpt>
      <trkpt lat="47.09796" lon="-1.80989">
        <ele>63</ele>
        <time>2022-04-10T10:35:06Z</time>
      </trkpt>
      <trkpt lat="47.09785" lon="-1.8099">
        <ele>63</ele>
        <time>2022-04-10T10:35:08Z</time>
      </trkpt>
      <trkpt lat="47.09775" lon="-1.80988">
        <ele>63</ele>
        <time>2022-04-10T10:35:10Z</time>
      </trkpt>
      <trkpt lat="47.09764" lon="-1.80986">
        <ele>63</ele>
        <time>2022-04-10T10:35:12Z</time>
      </trkpt>
      <trkpt lat="47.09753" lon="-1.80984">
        <ele>63</ele>
        <time>2022-04-10T10:35:14Z</time>
      </trkpt>
      <trkpt lat="47.09741" lon="-1.80981">
        <ele>62</ele>
        <time>2022-04-10T10:35:16Z</time>
      </trkpt>
      <trkpt lat="47.0973" lon="-1.8098">
        <ele>62</ele>
        <time>2022-04-10T10:35:18Z</time>
      </trkpt>
      <trkpt lat="47.09718" lon="-1.80978">
        <ele>62</ele>
        <time>2022-04-10T10:35:20Z</time>
      </trkpt>
      <trkpt lat="47.09706" lon="-1.80975">
        <ele>62</ele>
        <time>2022-04-10T10:35:22Z</time>
      </trkpt>
      <trkpt lat="47.09694" lon="-1.80971">
        <ele>62</ele>
        <time>2022-04-10T10:35:24Z</time>
      </trkpt>
      <trkpt lat="47.09682" lon="-1.80968">
        <ele>62</ele>
        <time>2022-04-10T10:35:26Z</time>
      </trkpt>
      <trkpt lat="47.09671" lon="-1.80966">
        <ele>62</ele>
        <time>2022-04-10T10:35:28Z</time>
      </trkpt>
      <trkpt lat="47.09659" lon="-1.80963">
        <ele>62</ele>
        <time>2022-04-10T10:35:30Z</time>
      </trkpt>
      <trkpt lat="47.09648" lon="-1.80961">
        <ele>62</ele>
        <time>2022-04-10T10:35:32Z</time>
      </trkpt>
      <trkpt lat="47.09636" lon="-1.80959">
        <ele>62</ele>
        <time>2022-04-10T10:35:34Z</time>
      </trkpt>
      <trkpt lat="47.09625" lon="-1.80955">
        <ele>61</ele>
        <time>2022-04-10T10:35:36Z</time>
      </trkpt>
      <trkpt lat="47.09614" lon="-1.80953">
        <ele>61</ele>
        <time>2022-04-10T10:35:38Z</time>
      </trkpt>
      <trkpt lat="47.09602" lon="-1.80951">
        <ele>61</ele>
        <time>2022-04-10T10:35:40Z</time>
      </trkpt>
      <trkpt lat="47.0959" lon="-1.80946">
        <ele>60</ele>
        <time>2022-04-10T10:35:42Z</time>
      </trkpt>
      <trkpt lat="47.09579" lon="-1.80943">
        <ele>60</ele>
        <time>2022-04-10T10:35:44Z</time>
      </trkpt>
      <trkpt lat="47.09568" lon="-1.80941">
        <ele>60</ele>
        <time>2022-04-10T10:35:46Z</time>
      </trkpt>
      <trkpt lat="47.09556" lon="-1.80938">
        <ele>60</ele>
        <time>2022-04-10T10:35:48Z</time>
      </trkpt>
      <trkpt lat="47.09545" lon="-1.80936">
        <ele>60</ele>
        <time>2022-04-10T10:35:50Z</time>
      </trkpt>
      <trkpt lat="47.09533" lon="-1.80933">
        <ele>60</ele>
        <time>2022-04-10T10:35:52Z</time>
      </trkpt>
      <trkpt lat="47.09522" lon="-1.80931">
        <ele>60</ele>
        <time>2022-04-10T10:35:54Z</time>
      </trkpt>
      <trkpt lat="47.09511" lon="-1.80928">
        <ele>60</ele>
        <time>2022-04-10T10:35:56Z</time>
      </trkpt>
      <trkpt lat="47.09499" lon="-1.80926">
        <ele>59</ele>
        <time>2022-04-10T10:35:58Z</time>
      </trkpt>
      <trkpt lat="47.09487" lon="-1.80927">
        <ele>59</ele>
        <time>2022-04-10T10:36:00Z</time>
      </trkpt>
      <trkpt lat="47.09476" lon="-1.80931">
        <ele>59</ele>
        <time>2022-04-10T10:36:02Z</time>
      </trkpt>
      <trkpt lat="47.09465" lon="-1.80938">
        <ele>59</ele>
        <time>2022-04-10T10:36:04Z</time>
      </trkpt>
      <trkpt lat="47.09454" lon="-1.80944">
        <ele>59</ele>
        <time>2022-04-10T10:36:06Z</time>
      </trkpt>
      <trkpt lat="47.09444" lon="-1.8095">
        <ele>59</ele>
        <time>2022-04-10T10:36:08Z</time>
      </trkpt>
      <trkpt lat="47.09434" lon="-1.80957">
        <ele>59</ele>
        <time>2022-04-10T10:36:10Z</time>
      </trkpt>
      <trkpt lat="47.09423" lon="-1.80964">
        <ele>58</ele>
        <time>2022-04-10T10:36:12Z</time>
      </trkpt>
      <trkpt lat="47.09412" lon="-1.8097">
        <ele>58</ele>
        <time>2022-04-10T10:36:14Z</time>
      </trkpt>
      <trkpt lat="47.09401" lon="-1.80977">
        <ele>58</ele>
        <time>2022-04-10T10:36:16Z</time>
      </trkpt>
      <trkpt lat="47.0939" lon="-1.80984">
        <ele>58</ele>
        <time>2022-04-10T10:36:18Z</time>
      </trkpt>
      <trkpt lat="47.09378" lon="-1.8099">
        <ele>57</ele>
        <time>2022-04-10T10:36:20Z</time>
      </trkpt>
      <trkpt lat="47.09366" lon="-1.80997">
        <ele>57</ele>
        <time>2022-04-10T10:36:22Z</time>
      </trkpt>
      <trkpt lat="47.09354" lon="-1.81005">
        <ele>56</ele>
        <time>2022-04-10T10:36:24Z</time>
      </trkpt>
      <trkpt lat="47.09341" lon="-1.81011">
        <ele>56</ele>
        <time>2022-04-10T10:36:26Z</time>
      </trkpt>
      <trkpt lat="47.09328" lon="-1.81018">
        <ele>55</ele>
        <time>2022-04-10T10:36:28Z</time>
      </trkpt>
      <trkpt lat="47.09316" lon="-1.81026">
        <ele>55</ele>
        <time>2022-04-10T10:36:30Z</time>
      </trkpt>
      <trkpt lat="47.09304" lon="-1.81033">
        <ele>55</ele>
        <time>2022-04-10T10:36:32Z</time>
      </trkpt>
      <trkpt lat="47.09292" lon="-1.81041">
        <ele>55</ele>
        <time>2022-04-10T10:36:34Z</time>
      </trkpt>
      <trkpt lat="47.09279" lon="-1.81048">
        <ele>54</ele>
        <time>2022-04-10T10:36:36Z</time>
      </trkpt>
      <trkpt lat="47.09267" lon="-1.81056">
        <ele>54</ele>
        <time>2022-04-10T10:36:38Z</time>
      </trkpt>
      <trkpt lat="47.09255" lon="-1.81063">
        <ele>54</ele>
        <time>2022-04-10T10:36:40Z</time>
      </trkpt>
      <trkpt lat="47.09243" lon="-1.81071">
        <ele>54</ele>
        <time>2022-04-10T10:36:42Z</time>
      </trkpt>
      <trkpt lat="47.09234" lon="-1.81081">
        <ele>54</ele>
        <time>2022-04-10T10:36:44Z</time>
      </trkpt>
      <trkpt lat="47.09223" lon="-1.81089">
        <ele>54</ele>
        <time>2022-04-10T10:36:47Z</time>
      </trkpt>
      <trkpt lat="47.09213" lon="-1.81085">
        <ele>54</ele>
        <time>2022-04-10T10:36:49Z</time>
      </trkpt>
      <trkpt lat="47.09202" lon="-1.81077">
        <ele>54</ele>
        <time>2022-04-10T10:36:51Z</time>
      </trkpt>
      <trkpt lat="47.09192" lon="-1.81068">
        <ele>54</ele>
        <time>2022-04-10T10:36:53Z</time>
      </trkpt>
      <trkpt lat="47.09182" lon="-1.8106">
        <ele>55</ele>
        <time>2022-04-10T10:36:55Z</time>
      </trkpt>
      <trkpt lat="47.09172" lon="-1.81053">
        <ele>55</ele>
        <time>2022-04-10T10:36:57Z</time>
      </trkpt>
      <trkpt lat="47.09162" lon="-1.81046">
        <ele>55</ele>
        <time>2022-04-10T10:36:59Z</time>
      </trkpt>
      <trkpt lat="47.09152" lon="-1.81038">
        <ele>56</ele>
        <time>2022-04-10T10:37:01Z</time>
      </trkpt>
      <trkpt lat="47.09143" lon="-1.8103">
        <ele>56</ele>
        <time>2022-04-10T10:37:03Z</time>
      </trkpt>
      <trkpt lat="47.09133" lon="-1.81022">
        <ele>56</ele>
        <time>2022-04-10T10:37:05Z</time>
      </trkpt>
      <trkpt lat="47.09123" lon="-1.81015">
        <ele>56</ele>
        <time>2022-04-10T10:37:07Z</time>
      </trkpt>
      <trkpt lat="47.09113" lon="-1.81008">
        <ele>57</ele>
        <time>2022-04-10T10:37:09Z</time>
      </trkpt>
      <trkpt lat="47.09103" lon="-1.81001">
        <ele>57</ele>
        <time>2022-04-10T10:37:11Z</time>
      </trkpt>
      <trkpt lat="47.09092" lon="-1.80993">
        <ele>57</ele>
        <time>2022-04-10T10:37:13Z</time>
      </trkpt>
      <trkpt lat="47.09082" lon="-1.80986">
        <ele>57</ele>
        <time>2022-04-10T10:37:15Z</time>
      </trkpt>
      <trkpt lat="47.09072" lon="-1.80978">
        <ele>57</ele>
        <time>2022-04-10T10:37:17Z</time>
      </trkpt>
      <trkpt lat="47.09063" lon="-1.80971">
        <ele>58</ele>
        <time>2022-04-10T10:37:19Z</time>
      </trkpt>
      <trkpt lat="47.09053" lon="-1.80965">
        <ele>58</ele>
        <time>2022-04-10T10:37:21Z</time>
      </trkpt>
      <trkpt lat="47.09043" lon="-1.80957">
        <ele>58</ele>
        <time>2022-04-10T10:37:23Z</time>
      </trkpt>
      <trkpt lat="47.09032" lon="-1.8095">
        <ele>58</ele>
        <time>2022-04-10T10:37:25Z</time>
      </trkpt>
      <trkpt lat="47.09022" lon="-1.80942">
        <ele>57</ele>
        <time>2022-04-10T10:37:27Z</time>
      </trkpt>
      <trkpt lat="47.09012" lon="-1.80935">
        <ele>58</ele>
        <time>2022-04-10T10:37:29Z</time>
      </trkpt>
      <trkpt lat="47.09002" lon="-1.80926">
        <ele>57</ele>
        <time>2022-04-10T10:37:31Z</time>
      </trkpt>
      <trkpt lat="47.08991" lon="-1.80919">
        <ele>57</ele>
        <time>2022-04-10T10:37:33Z</time>
      </trkpt>
      <trkpt lat="47.08981" lon="-1.80911">
        <ele>57</ele>
        <time>2022-04-10T10:37:35Z</time>
      </trkpt>
      <trkpt lat="47.08971" lon="-1.80903">
        <ele>57</ele>
        <time>2022-04-10T10:37:37Z</time>
      </trkpt>
      <trkpt lat="47.08961" lon="-1.80896">
        <ele>57</ele>
        <time>2022-04-10T10:37:39Z</time>
      </trkpt>
      <trkpt lat="47.08951" lon="-1.80889">
        <ele>57</ele>
        <time>2022-04-10T10:37:41Z</time>
      </trkpt>
      <trkpt lat="47.08942" lon="-1.80882">
        <ele>57</ele>
        <time>2022-04-10T10:37:43Z</time>
      </trkpt>
      <trkpt lat="47.08933" lon="-1.80873">
        <ele>58</ele>
        <time>2022-04-10T10:37:45Z</time>
      </trkpt>
      <trkpt lat="47.08924" lon="-1.80863">
        <ele>58</ele>
        <time>2022-04-10T10:37:47Z</time>
      </trkpt>
      <trkpt lat="47.08916" lon="-1.80852">
        <ele>59</ele>
        <time>2022-04-10T10:37:49Z</time>
      </trkpt>
      <trkpt lat="47.08908" lon="-1.80841">
        <ele>59</ele>
        <time>2022-04-10T10:37:51Z</time>
      </trkpt>
      <trkpt lat="47.08901" lon="-1.8083">
        <ele>60</ele>
        <time>2022-04-10T10:37:53Z</time>
      </trkpt>
      <trkpt lat="47.08894" lon="-1.80818">
        <ele>61</ele>
        <time>2022-04-10T10:37:55Z</time>
      </trkpt>
      <trkpt lat="47.08888" lon="-1.80806">
        <ele>61</ele>
        <time>2022-04-10T10:37:57Z</time>
      </trkpt>
      <trkpt lat="47.08882" lon="-1.80794">
        <ele>61</ele>
        <time>2022-04-10T10:37:59Z</time>
      </trkpt>
      <trkpt lat="47.08875" lon="-1.80783">
        <ele>61</ele>
        <time>2022-04-10T10:38:01Z</time>
      </trkpt>
      <trkpt lat="47.08868" lon="-1.80772">
        <ele>61</ele>
        <time>2022-04-10T10:38:03Z</time>
      </trkpt>
      <trkpt lat="47.08862" lon="-1.8076">
        <ele>62</ele>
        <time>2022-04-10T10:38:05Z</time>
      </trkpt>
      <trkpt lat="47.08856" lon="-1.80749">
        <ele>62</ele>
        <time>2022-04-10T10:38:07Z</time>
      </trkpt>
      <trkpt lat="47.08849" lon="-1.80737">
        <ele>62</ele>
        <time>2022-04-10T10:38:09Z</time>
      </trkpt>
      <trkpt lat="47.08843" lon="-1.80724">
        <ele>62</ele>
        <time>2022-04-10T10:38:11Z</time>
      </trkpt>
      <trkpt lat="47.08836" lon="-1.80712">
        <ele>61</ele>
        <time>2022-04-10T10:38:13Z</time>
      </trkpt>
      <trkpt lat="47.08829" lon="-1.80699">
        <ele>61</ele>
        <time>2022-04-10T10:38:15Z</time>
      </trkpt>
      <trkpt lat="47.08822" lon="-1.80687">
        <ele>61</ele>
        <time>2022-04-10T10:38:17Z</time>
      </trkpt>
      <trkpt lat="47.08815" lon="-1.80675">
        <ele>62</ele>
        <time>2022-04-10T10:38:19Z</time>
      </trkpt>
      <trkpt lat="47.08808" lon="-1.80664">
        <ele>61</ele>
        <time>2022-04-10T10:38:21Z</time>
      </trkpt>
      <trkpt lat="47.08801" lon="-1.80652">
        <ele>62</ele>
        <time>2022-04-10T10:38:23Z</time>
      </trkpt>
      <trkpt lat="47.08795" lon="-1.80642">
        <ele>63</ele>
        <time>2022-04-10T10:38:25Z</time>
      </trkpt>
      <trkpt lat="47.08788" lon="-1.80632">
        <ele>63</ele>
        <time>2022-04-10T10:38:27Z</time>
      </trkpt>
      <trkpt lat="47.08782" lon="-1.80622">
        <ele>63</ele>
        <time>2022-04-10T10:38:29Z</time>
      </trkpt>
      <trkpt lat="47.08775" lon="-1.80613">
        <ele>63</ele>
        <time>2022-04-10T10:38:31Z</time>
      </trkpt>
      <trkpt lat="47.08767" lon="-1.80604">
        <ele>64</ele>
        <time>2022-04-10T10:38:33Z</time>
      </trkpt>
      <trkpt lat="47.08759" lon="-1.80596">
        <ele>63</ele>
        <time>2022-04-10T10:38:35Z</time>
      </trkpt>
      <trkpt lat="47.08751" lon="-1.80587">
        <ele>63</ele>
        <time>2022-04-10T10:38:37Z</time>
      </trkpt>
      <trkpt lat="47.08743" lon="-1.8058">
        <ele>63</ele>
        <time>2022-04-10T10:38:39Z</time>
      </trkpt>
      <trkpt lat="47.08733" lon="-1.80572">
        <ele>64</ele>
        <time>2022-04-10T10:38:41Z</time>
      </trkpt>
      <trkpt lat="47.08724" lon="-1.80565">
        <ele>64</ele>
        <time>2022-04-10T10:38:43Z</time>
      </trkpt>
      <trkpt lat="47.08715" lon="-1.80558">
        <ele>64</ele>
        <time>2022-04-10T10:38:45Z</time>
      </trkpt>
      <trkpt lat="47.08706" lon="-1.80551">
        <ele>64</ele>
        <time>2022-04-10T10:38:47Z</time>
      </trkpt>
      <trkpt lat="47.08696" lon="-1.80544">
        <ele>64</ele>
        <time>2022-04-10T10:38:49Z</time>
      </trkpt>
      <trkpt lat="47.08687" lon="-1.80537">
        <ele>63</ele>
        <time>2022-04-10T10:38:51Z</time>
      </trkpt>
      <trkpt lat="47.08679" lon="-1.8053">
        <ele>64</ele>
        <time>2022-04-10T10:38:53Z</time>
      </trkpt>
      <trkpt lat="47.08669" lon="-1.80524">
        <ele>64</ele>
        <time>2022-04-10T10:38:55Z</time>
      </trkpt>
      <trkpt lat="47.08659" lon="-1.80519">
        <ele>64</ele>
        <time>2022-04-10T10:38:57Z</time>
      </trkpt>
      <trkpt lat="47.08649" lon="-1.80515">
        <ele>64</ele>
        <time>2022-04-10T10:38:59Z</time>
      </trkpt>
      <trkpt lat="47.0864" lon="-1.80511">
        <ele>64</ele>
        <time>2022-04-10T10:39:01Z</time>
      </trkpt>
      <trkpt lat="47.0863" lon="-1.80508">
        <ele>64</ele>
        <time>2022-04-10T10:39:03Z</time>
      </trkpt>
      <trkpt lat="47.0862" lon="-1.80506">
        <ele>64</ele>
        <time>2022-04-10T10:39:05Z</time>
      </trkpt>
      <trkpt lat="47.0861" lon="-1.80504">
        <ele>65</ele>
        <time>2022-04-10T10:39:07Z</time>
      </trkpt>
      <trkpt lat="47.086" lon="-1.80502">
        <ele>65</ele>
        <time>2022-04-10T10:39:09Z</time>
      </trkpt>
      <trkpt lat="47.08589" lon="-1.80499">
        <ele>65</ele>
        <time>2022-04-10T10:39:11Z</time>
      </trkpt>
      <trkpt lat="47.08579" lon="-1.80497">
        <ele>65</ele>
        <time>2022-04-10T10:39:13Z</time>
      </trkpt>
      <trkpt lat="47.08569" lon="-1.80494">
        <ele>66</ele>
        <time>2022-04-10T10:39:15Z</time>
      </trkpt>
      <trkpt lat="47.08559" lon="-1.80492">
        <ele>66</ele>
        <time>2022-04-10T10:39:17Z</time>
      </trkpt>
      <trkpt lat="47.0855" lon="-1.8049">
        <ele>67</ele>
        <time>2022-04-10T10:39:19Z</time>
      </trkpt>
      <trkpt lat="47.08541" lon="-1.80487">
        <ele>67</ele>
        <time>2022-04-10T10:39:21Z</time>
      </trkpt>
      <trkpt lat="47.0853" lon="-1.80485">
        <ele>67</ele>
        <time>2022-04-10T10:39:23Z</time>
      </trkpt>
      <trkpt lat="47.0852" lon="-1.80482">
        <ele>67</ele>
        <time>2022-04-10T10:39:25Z</time>
      </trkpt>
      <trkpt lat="47.08509" lon="-1.80479">
        <ele>68</ele>
        <time>2022-04-10T10:39:27Z</time>
      </trkpt>
      <trkpt lat="47.08499" lon="-1.80477">
        <ele>68</ele>
        <time>2022-04-10T10:39:29Z</time>
      </trkpt>
      <trkpt lat="47.08488" lon="-1.80474">
        <ele>68</ele>
        <time>2022-04-10T10:39:31Z</time>
      </trkpt>
      <trkpt lat="47.08477" lon="-1.80472">
        <ele>68</ele>
        <time>2022-04-10T10:39:33Z</time>
      </trkpt>
      <trkpt lat="47.08466" lon="-1.8047">
        <ele>69</ele>
        <time>2022-04-10T10:39:35Z</time>
      </trkpt>
      <trkpt lat="47.08455" lon="-1.8047">
        <ele>69</ele>
        <time>2022-04-10T10:39:37Z</time>
      </trkpt>
      <trkpt lat="47.08444" lon="-1.80469">
        <ele>69</ele>
        <time>2022-04-10T10:39:39Z</time>
      </trkpt>
      <trkpt lat="47.08433" lon="-1.8047">
        <ele>69</ele>
        <time>2022-04-10T10:39:41Z</time>
      </trkpt>
      <trkpt lat="47.08422" lon="-1.8047">
        <ele>70</ele>
        <time>2022-04-10T10:39:43Z</time>
      </trkpt>
      <trkpt lat="47.08411" lon="-1.80471">
        <ele>70</ele>
        <time>2022-04-10T10:39:45Z</time>
      </trkpt>
      <trkpt lat="47.084" lon="-1.80471">
        <ele>70</ele>
        <time>2022-04-10T10:39:47Z</time>
      </trkpt>
      <trkpt lat="47.08389" lon="-1.80472">
        <ele>70</ele>
        <time>2022-04-10T10:39:49Z</time>
      </trkpt>
      <trkpt lat="47.08378" lon="-1.80472">
        <ele>70</ele>
        <time>2022-04-10T10:39:51Z</time>
      </trkpt>
      <trkpt lat="47.08367" lon="-1.80472">
        <ele>70</ele>
        <time>2022-04-10T10:39:53Z</time>
      </trkpt>
      <trkpt lat="47.08355" lon="-1.80473">
        <ele>70</ele>
        <time>2022-04-10T10:39:55Z</time>
      </trkpt>
      <trkpt lat="47.08343" lon="-1.80474">
        <ele>70</ele>
        <time>2022-04-10T10:39:57Z</time>
      </trkpt>
      <trkpt lat="47.08332" lon="-1.80475">
        <ele>70</ele>
        <time>2022-04-10T10:39:59Z</time>
      </trkpt>
      <trkpt lat="47.0832" lon="-1.80477">
        <ele>70</ele>
        <time>2022-04-10T10:40:01Z</time>
      </trkpt>
      <trkpt lat="47.0831" lon="-1.8048">
        <ele>70</ele>
        <time>2022-04-10T10:40:03Z</time>
      </trkpt>
      <trkpt lat="47.08299" lon="-1.80484">
        <ele>69</ele>
        <time>2022-04-10T10:40:05Z</time>
      </trkpt>
      <trkpt lat="47.08289" lon="-1.80488">
        <ele>70</ele>
        <time>2022-04-10T10:40:07Z</time>
      </trkpt>
      <trkpt lat="47.08277" lon="-1.80492">
        <ele>70</ele>
        <time>2022-04-10T10:40:09Z</time>
      </trkpt>
      <trkpt lat="47.08264" lon="-1.80497">
        <ele>70</ele>
        <time>2022-04-10T10:40:11Z</time>
      </trkpt>
      <trkpt lat="47.08251" lon="-1.80501">
        <ele>69</ele>
        <time>2022-04-10T10:40:13Z</time>
      </trkpt>
      <trkpt lat="47.08239" lon="-1.80505">
        <ele>69</ele>
        <time>2022-04-10T10:40:15Z</time>
      </trkpt>
      <trkpt lat="47.08227" lon="-1.8051">
        <ele>68</ele>
        <time>2022-04-10T10:40:17Z</time>
      </trkpt>
      <trkpt lat="47.08215" lon="-1.80515">
        <ele>68</ele>
        <time>2022-04-10T10:40:19Z</time>
      </trkpt>
      <trkpt lat="47.08203" lon="-1.80519">
        <ele>67</ele>
        <time>2022-04-10T10:40:21Z</time>
      </trkpt>
      <trkpt lat="47.0819" lon="-1.80525">
        <ele>67</ele>
        <time>2022-04-10T10:40:23Z</time>
      </trkpt>
      <trkpt lat="47.08177" lon="-1.8053">
        <ele>67</ele>
        <time>2022-04-10T10:40:25Z</time>
      </trkpt>
      <trkpt lat="47.08164" lon="-1.80536">
        <ele>66</ele>
        <time>2022-04-10T10:40:27Z</time>
      </trkpt>
      <trkpt lat="47.0815" lon="-1.80541">
        <ele>66</ele>
        <time>2022-04-10T10:40:29Z</time>
      </trkpt>
      <trkpt lat="47.08137" lon="-1.80546">
        <ele>66</ele>
        <time>2022-04-10T10:40:31Z</time>
      </trkpt>
      <trkpt lat="47.08123" lon="-1.80551">
        <ele>65</ele>
        <time>2022-04-10T10:40:33Z</time>
      </trkpt>
      <trkpt lat="47.08109" lon="-1.80555">
        <ele>64</ele>
        <time>2022-04-10T10:40:35Z</time>
      </trkpt>
      <trkpt lat="47.08095" lon="-1.80558">
        <ele>64</ele>
        <time>2022-04-10T10:40:37Z</time>
      </trkpt>
      <trkpt lat="47.08081" lon="-1.80562">
        <ele>63</ele>
        <time>2022-04-10T10:40:39Z</time>
      </trkpt>
      <trkpt lat="47.08067" lon="-1.80566">
        <ele>63</ele>
        <time>2022-04-10T10:40:41Z</time>
      </trkpt>
      <trkpt lat="47.08053" lon="-1.80569">
        <ele>63</ele>
        <time>2022-04-10T10:40:43Z</time>
      </trkpt>
      <trkpt lat="47.0804" lon="-1.80572">
        <ele>63</ele>
        <time>2022-04-10T10:40:45Z</time>
      </trkpt>
      <trkpt lat="47.08027" lon="-1.80576">
        <ele>63</ele>
        <time>2022-04-10T10:40:47Z</time>
      </trkpt>
      <trkpt lat="47.08013" lon="-1.80579">
        <ele>63</ele>
        <time>2022-04-10T10:40:49Z</time>
      </trkpt>
      <trkpt lat="47.08001" lon="-1.80581">
        <ele>63</ele>
        <time>2022-04-10T10:40:51Z</time>
      </trkpt>
      <trkpt lat="47.07988" lon="-1.80581">
        <ele>63</ele>
        <time>2022-04-10T10:40:53Z</time>
      </trkpt>
      <trkpt lat="47.07976" lon="-1.8058">
        <ele>63</ele>
        <time>2022-04-10T10:40:55Z</time>
      </trkpt>
      <trkpt lat="47.07963" lon="-1.80578">
        <ele>63</ele>
        <time>2022-04-10T10:40:57Z</time>
      </trkpt>
      <trkpt lat="47.07951" lon="-1.80573">
        <ele>63</ele>
        <time>2022-04-10T10:40:59Z</time>
      </trkpt>
      <trkpt lat="47.07941" lon="-1.80563">
        <ele>63</ele>
        <time>2022-04-10T10:41:01Z</time>
      </trkpt>
      <trkpt lat="47.07932" lon="-1.8055">
        <ele>62</ele>
        <time>2022-04-10T10:41:03Z</time>
      </trkpt>
      <trkpt lat="47.07924" lon="-1.80535">
        <ele>62</ele>
        <time>2022-04-10T10:41:05Z</time>
      </trkpt>
      <trkpt lat="47.07918" lon="-1.80519">
        <ele>62</ele>
        <time>2022-04-10T10:41:07Z</time>
      </trkpt>
      <trkpt lat="47.07912" lon="-1.80503">
        <ele>61</ele>
        <time>2022-04-10T10:41:09Z</time>
      </trkpt>
      <trkpt lat="47.07907" lon="-1.80487">
        <ele>62</ele>
        <time>2022-04-10T10:41:11Z</time>
      </trkpt>
      <trkpt lat="47.07903" lon="-1.80469">
        <ele>61</ele>
        <time>2022-04-10T10:41:13Z</time>
      </trkpt>
      <trkpt lat="47.07901" lon="-1.80451">
        <ele>61</ele>
        <time>2022-04-10T10:41:15Z</time>
      </trkpt>
      <trkpt lat="47.07901" lon="-1.80433">
        <ele>62</ele>
        <time>2022-04-10T10:41:17Z</time>
      </trkpt>
      <trkpt lat="47.079" lon="-1.80415">
        <ele>62</ele>
        <time>2022-04-10T10:41:19Z</time>
      </trkpt>
      <trkpt lat="47.07901" lon="-1.80396">
        <ele>63</ele>
        <time>2022-04-10T10:41:21Z</time>
      </trkpt>
      <trkpt lat="47.07901" lon="-1.80378">
        <ele>63</ele>
        <time>2022-04-10T10:41:23Z</time>
      </trkpt>
      <trkpt lat="47.07901" lon="-1.8036">
        <ele>63</ele>
        <time>2022-04-10T10:41:25Z</time>
      </trkpt>
      <trkpt lat="47.07902" lon="-1.80342">
        <ele>63</ele>
        <time>2022-04-10T10:41:27Z</time>
      </trkpt>
      <trkpt lat="47.07902" lon="-1.80323">
        <ele>63</ele>
        <time>2022-04-10T10:41:29Z</time>
      </trkpt>
      <trkpt lat="47.07902" lon="-1.80305">
        <ele>63</ele>
        <time>2022-04-10T10:41:31Z</time>
      </trkpt>
      <trkpt lat="47.07902" lon="-1.80288">
        <ele>63</ele>
        <time>2022-04-10T10:41:33Z</time>
      </trkpt>
      <trkpt lat="47.07902" lon="-1.80269">
        <ele>63</ele>
        <time>2022-04-10T10:41:35Z</time>
      </trkpt>
      <trkpt lat="47.07903" lon="-1.80252">
        <ele>63</ele>
        <time>2022-04-10T10:41:37Z</time>
      </trkpt>
      <trkpt lat="47.07902" lon="-1.80234">
        <ele>63</ele>
        <time>2022-04-10T10:41:39Z</time>
      </trkpt>
      <trkpt lat="47.07901" lon="-1.80217">
        <ele>63</ele>
        <time>2022-04-10T10:41:41Z</time>
      </trkpt>
      <trkpt lat="47.07901" lon="-1.80199">
        <ele>64</ele>
        <time>2022-04-10T10:41:43Z</time>
      </trkpt>
      <trkpt lat="47.07901" lon="-1.80182">
        <ele>64</ele>
        <time>2022-04-10T10:41:45Z</time>
      </trkpt>
      <trkpt lat="47.079" lon="-1.80165">
        <ele>64</ele>
        <time>2022-04-10T10:41:47Z</time>
      </trkpt>
      <trkpt lat="47.079" lon="-1.80148">
        <ele>64</ele>
        <time>2022-04-10T10:41:49Z</time>
      </trkpt>
      <trkpt lat="47.07899" lon="-1.80131">
        <ele>65</ele>
        <time>2022-04-10T10:41:51Z</time>
      </trkpt>
      <trkpt lat="47.07899" lon="-1.80113">
        <ele>64</ele>
        <time>2022-04-10T10:41:53Z</time>
      </trkpt>
      <trkpt lat="47.07899" lon="-1.80096">
        <ele>64</ele>
        <time>2022-04-10T10:41:55Z</time>
      </trkpt>
      <trkpt lat="47.07899" lon="-1.80078">
        <ele>64</ele>
        <time>2022-04-10T10:41:57Z</time>
      </trkpt>
      <trkpt lat="47.07898" lon="-1.80062">
        <ele>63</ele>
        <time>2022-04-10T10:41:59Z</time>
      </trkpt>
      <trkpt lat="47.07897" lon="-1.80048">
        <ele>63</ele>
        <time>2022-04-10T10:42:01Z</time>
      </trkpt>
      <trkpt lat="47.07896" lon="-1.80035">
        <ele>63</ele>
        <time>2022-04-10T10:42:04Z</time>
      </trkpt>
      <trkpt lat="47.0789" lon="-1.80018">
        <ele>63</ele>
        <time>2022-04-10T10:42:08Z</time>
      </trkpt>
      <trkpt lat="47.07886" lon="-1.80004">
        <ele>63</ele>
        <time>2022-04-10T10:42:10Z</time>
      </trkpt>
      <trkpt lat="47.07888" lon="-1.79987">
        <ele>63</ele>
        <time>2022-04-10T10:42:12Z</time>
      </trkpt>
      <trkpt lat="47.07896" lon="-1.79974">
        <ele>62</ele>
        <time>2022-04-10T10:42:14Z</time>
      </trkpt>
      <trkpt lat="47.07901" lon="-1.79957">
        <ele>61</ele>
        <time>2022-04-10T10:42:16Z</time>
      </trkpt>
      <trkpt lat="47.07905" lon="-1.7994">
        <ele>61</ele>
        <time>2022-04-10T10:42:18Z</time>
      </trkpt>
      <trkpt lat="47.07909" lon="-1.79925">
        <ele>60</ele>
        <time>2022-04-10T10:42:20Z</time>
      </trkpt>
      <trkpt lat="47.07914" lon="-1.7991">
        <ele>60</ele>
        <time>2022-04-10T10:42:22Z</time>
      </trkpt>
      <trkpt lat="47.0792" lon="-1.79894">
        <ele>60</ele>
        <time>2022-04-10T10:42:24Z</time>
      </trkpt>
      <trkpt lat="47.07926" lon="-1.7988">
        <ele>60</ele>
        <time>2022-04-10T10:42:26Z</time>
      </trkpt>
      <trkpt lat="47.07931" lon="-1.79864">
        <ele>60</ele>
        <time>2022-04-10T10:42:28Z</time>
      </trkpt>
      <trkpt lat="47.07937" lon="-1.79848">
        <ele>60</ele>
        <time>2022-04-10T10:42:30Z</time>
      </trkpt>
      <trkpt lat="47.07943" lon="-1.79833">
        <ele>60</ele>
        <time>2022-04-10T10:42:32Z</time>
      </trkpt>
      <trkpt lat="47.07949" lon="-1.79817">
        <ele>59</ele>
        <time>2022-04-10T10:42:34Z</time>
      </trkpt>
      <trkpt lat="47.07954" lon="-1.79801">
        <ele>60</ele>
        <time>2022-04-10T10:42:36Z</time>
      </trkpt>
      <trkpt lat="47.07956" lon="-1.79784">
        <ele>60</ele>
        <time>2022-04-10T10:42:38Z</time>
      </trkpt>
      <trkpt lat="47.07958" lon="-1.79768">
        <ele>60</ele>
        <time>2022-04-10T10:42:40Z</time>
      </trkpt>
      <trkpt lat="47.0796" lon="-1.79751">
        <ele>60</ele>
        <time>2022-04-10T10:42:42Z</time>
      </trkpt>
      <trkpt lat="47.07962" lon="-1.79734">
        <ele>60</ele>
        <time>2022-04-10T10:42:44Z</time>
      </trkpt>
      <trkpt lat="47.07963" lon="-1.79718">
        <ele>61</ele>
        <time>2022-04-10T10:42:46Z</time>
      </trkpt>
      <trkpt lat="47.07965" lon="-1.79702">
        <ele>61</ele>
        <time>2022-04-10T10:42:48Z</time>
      </trkpt>
      <trkpt lat="47.07966" lon="-1.79685">
        <ele>61</ele>
        <time>2022-04-10T10:42:50Z</time>
      </trkpt>
      <trkpt lat="47.07966" lon="-1.79668">
        <ele>62</ele>
        <time>2022-04-10T10:42:52Z</time>
      </trkpt>
      <trkpt lat="47.07967" lon="-1.79651">
        <ele>62</ele>
        <time>2022-04-10T10:42:54Z</time>
      </trkpt>
      <trkpt lat="47.07967" lon="-1.79634">
        <ele>62</ele>
        <time>2022-04-10T10:42:56Z</time>
      </trkpt>
      <trkpt lat="47.07966" lon="-1.79616">
        <ele>62</ele>
        <time>2022-04-10T10:42:58Z</time>
      </trkpt>
      <trkpt lat="47.07965" lon="-1.79599">
        <ele>62</ele>
        <time>2022-04-10T10:43:00Z</time>
      </trkpt>
      <trkpt lat="47.07964" lon="-1.79582">
        <ele>62</ele>
        <time>2022-04-10T10:43:02Z</time>
      </trkpt>
      <trkpt lat="47.07963" lon="-1.79566">
        <ele>62</ele>
        <time>2022-04-10T10:43:05Z</time>
      </trkpt>
      <trkpt lat="47.07967" lon="-1.79582">
        <ele>62</ele>
        <time>2022-04-10T10:43:10Z</time>
      </trkpt>
      <trkpt lat="47.07962" lon="-1.79569">
        <ele>62</ele>
        <time>2022-04-10T10:44:18Z</time>
      </trkpt>
      <trkpt lat="47.0796" lon="-1.79554">
        <ele>62</ele>
        <time>2022-04-10T10:44:20Z</time>
      </trkpt>
      <trkpt lat="47.07958" lon="-1.79538">
        <ele>62</ele>
        <time>2022-04-10T10:44:22Z</time>
      </trkpt>
      <trkpt lat="47.07955" lon="-1.79523">
        <ele>62</ele>
        <time>2022-04-10T10:44:24Z</time>
      </trkpt>
      <trkpt lat="47.07952" lon="-1.79505">
        <ele>61</ele>
        <time>2022-04-10T10:44:26Z</time>
      </trkpt>
      <trkpt lat="47.07948" lon="-1.79488">
        <ele>61</ele>
        <time>2022-04-10T10:44:28Z</time>
      </trkpt>
      <trkpt lat="47.07943" lon="-1.79471">
        <ele>60</ele>
        <time>2022-04-10T10:44:30Z</time>
      </trkpt>
      <trkpt lat="47.07939" lon="-1.79454">
        <ele>59</ele>
        <time>2022-04-10T10:44:32Z</time>
      </trkpt>
      <trkpt lat="47.07934" lon="-1.79436">
        <ele>59</ele>
        <time>2022-04-10T10:44:34Z</time>
      </trkpt>
      <trkpt lat="47.07929" lon="-1.79419">
        <ele>58</ele>
        <time>2022-04-10T10:44:36Z</time>
      </trkpt>
      <trkpt lat="47.07925" lon="-1.794">
        <ele>58</ele>
        <time>2022-04-10T10:44:38Z</time>
      </trkpt>
      <trkpt lat="47.0792" lon="-1.79382">
        <ele>58</ele>
        <time>2022-04-10T10:44:40Z</time>
      </trkpt>
      <trkpt lat="47.07915" lon="-1.79363">
        <ele>57</ele>
        <time>2022-04-10T10:44:42Z</time>
      </trkpt>
      <trkpt lat="47.0791" lon="-1.79343">
        <ele>57</ele>
        <time>2022-04-10T10:44:44Z</time>
      </trkpt>
      <trkpt lat="47.07905" lon="-1.79323">
        <ele>56</ele>
        <time>2022-04-10T10:44:46Z</time>
      </trkpt>
      <trkpt lat="47.079" lon="-1.79305">
        <ele>56</ele>
        <time>2022-04-10T10:44:48Z</time>
      </trkpt>
      <trkpt lat="47.07895" lon="-1.79287">
        <ele>55</ele>
        <time>2022-04-10T10:44:50Z</time>
      </trkpt>
      <trkpt lat="47.0789" lon="-1.79269">
        <ele>55</ele>
        <time>2022-04-10T10:44:52Z</time>
      </trkpt>
      <trkpt lat="47.07886" lon="-1.79251">
        <ele>54</ele>
        <time>2022-04-10T10:44:54Z</time>
      </trkpt>
      <trkpt lat="47.07881" lon="-1.79233">
        <ele>54</ele>
        <time>2022-04-10T10:44:56Z</time>
      </trkpt>
      <trkpt lat="47.07876" lon="-1.79213">
        <ele>53</ele>
        <time>2022-04-10T10:44:58Z</time>
      </trkpt>
      <trkpt lat="47.07871" lon="-1.79193">
        <ele>52</ele>
        <time>2022-04-10T10:45:00Z</time>
      </trkpt>
      <trkpt lat="47.07866" lon="-1.79174">
        <ele>52</ele>
        <time>2022-04-10T10:45:02Z</time>
      </trkpt>
      <trkpt lat="47.0786" lon="-1.79154">
        <ele>51</ele>
        <time>2022-04-10T10:45:04Z</time>
      </trkpt>
      <trkpt lat="47.07855" lon="-1.79133">
        <ele>50</ele>
        <time>2022-04-10T10:45:06Z</time>
      </trkpt>
      <trkpt lat="47.0785" lon="-1.79113">
        <ele>50</ele>
        <time>2022-04-10T10:45:08Z</time>
      </trkpt>
      <trkpt lat="47.07845" lon="-1.79093">
        <ele>50</ele>
        <time>2022-04-10T10:45:10Z</time>
      </trkpt>
      <trkpt lat="47.0784" lon="-1.79074">
        <ele>50</ele>
        <time>2022-04-10T10:45:12Z</time>
      </trkpt>
      <trkpt lat="47.07835" lon="-1.79056">
        <ele>51</ele>
        <time>2022-04-10T10:45:14Z</time>
      </trkpt>
      <trkpt lat="47.0783" lon="-1.79038">
        <ele>50</ele>
        <time>2022-04-10T10:45:16Z</time>
      </trkpt>
      <trkpt lat="47.07826" lon="-1.7902">
        <ele>50</ele>
        <time>2022-04-10T10:45:18Z</time>
      </trkpt>
      <trkpt lat="47.07821" lon="-1.79003">
        <ele>50</ele>
        <time>2022-04-10T10:45:20Z</time>
      </trkpt>
      <trkpt lat="47.07817" lon="-1.78985">
        <ele>50</ele>
        <time>2022-04-10T10:45:22Z</time>
      </trkpt>
      <trkpt lat="47.07812" lon="-1.78967">
        <ele>50</ele>
        <time>2022-04-10T10:45:24Z</time>
      </trkpt>
      <trkpt lat="47.07808" lon="-1.78949">
        <ele>50</ele>
        <time>2022-04-10T10:45:26Z</time>
      </trkpt>
      <trkpt lat="47.07804" lon="-1.78933">
        <ele>50</ele>
        <time>2022-04-10T10:45:28Z</time>
      </trkpt>
      <trkpt lat="47.078" lon="-1.7892">
        <ele>51</ele>
        <time>2022-04-10T10:45:30Z</time>
      </trkpt>
      <trkpt lat="47.07797" lon="-1.78906">
        <ele>52</ele>
        <time>2022-04-10T10:45:32Z</time>
      </trkpt>
      <trkpt lat="47.07794" lon="-1.78893">
        <ele>52</ele>
        <time>2022-04-10T10:45:34Z</time>
      </trkpt>
      <trkpt lat="47.0779" lon="-1.7888">
        <ele>53</ele>
        <time>2022-04-10T10:45:36Z</time>
      </trkpt>
      <trkpt lat="47.07786" lon="-1.78867">
        <ele>54</ele>
        <time>2022-04-10T10:45:38Z</time>
      </trkpt>
      <trkpt lat="47.07783" lon="-1.78854">
        <ele>54</ele>
        <time>2022-04-10T10:45:40Z</time>
      </trkpt>
      <trkpt lat="47.07778" lon="-1.78835">
        <ele>54</ele>
        <time>2022-04-10T10:45:43Z</time>
      </trkpt>
      <trkpt lat="47.07775" lon="-1.78823">
        <ele>55</ele>
        <time>2022-04-10T10:45:45Z</time>
      </trkpt>
      <trkpt lat="47.07772" lon="-1.7881">
        <ele>55</ele>
        <time>2022-04-10T10:45:47Z</time>
      </trkpt>
      <trkpt lat="47.07769" lon="-1.78798">
        <ele>56</ele>
        <time>2022-04-10T10:45:49Z</time>
      </trkpt>
      <trkpt lat="47.07763" lon="-1.78779">
        <ele>56</ele>
        <time>2022-04-10T10:45:52Z</time>
      </trkpt>
      <trkpt lat="47.07759" lon="-1.78767">
        <ele>56</ele>
        <time>2022-04-10T10:45:54Z</time>
      </trkpt>
      <trkpt lat="47.07755" lon="-1.78755">
        <ele>57</ele>
        <time>2022-04-10T10:45:56Z</time>
      </trkpt>
      <trkpt lat="47.0775" lon="-1.78743">
        <ele>57</ele>
        <time>2022-04-10T10:45:58Z</time>
      </trkpt>
      <trkpt lat="47.07745" lon="-1.78732">
        <ele>58</ele>
        <time>2022-04-10T10:46:00Z</time>
      </trkpt>
      <trkpt lat="47.0774" lon="-1.7872">
        <ele>58</ele>
        <time>2022-04-10T10:46:02Z</time>
      </trkpt>
      <trkpt lat="47.07735" lon="-1.78709">
        <ele>58</ele>
        <time>2022-04-10T10:46:04Z</time>
      </trkpt>
      <trkpt lat="47.07729" lon="-1.78698">
        <ele>59</ele>
        <time>2022-04-10T10:46:06Z</time>
      </trkpt>
      <trkpt lat="47.07723" lon="-1.78686">
        <ele>59</ele>
        <time>2022-04-10T10:46:08Z</time>
      </trkpt>
      <trkpt lat="47.07718" lon="-1.78674">
        <ele>59</ele>
        <time>2022-04-10T10:46:10Z</time>
      </trkpt>
      <trkpt lat="47.07712" lon="-1.78663">
        <ele>60</ele>
        <time>2022-04-10T10:46:12Z</time>
      </trkpt>
      <trkpt lat="47.07707" lon="-1.78652">
        <ele>60</ele>
        <time>2022-04-10T10:46:14Z</time>
      </trkpt>
      <trkpt lat="47.07702" lon="-1.78641">
        <ele>60</ele>
        <time>2022-04-10T10:46:16Z</time>
      </trkpt>
      <trkpt lat="47.07697" lon="-1.7863">
        <ele>60</ele>
        <time>2022-04-10T10:46:18Z</time>
      </trkpt>
      <trkpt lat="47.07689" lon="-1.78614">
        <ele>61</ele>
        <time>2022-04-10T10:46:21Z</time>
      </trkpt>
      <trkpt lat="47.07682" lon="-1.78598">
        <ele>61</ele>
        <time>2022-04-10T10:46:24Z</time>
      </trkpt>
      <trkpt lat="47.07677" lon="-1.78587">
        <ele>61</ele>
        <time>2022-04-10T10:46:26Z</time>
      </trkpt>
      <trkpt lat="47.0767" lon="-1.7857">
        <ele>61</ele>
        <time>2022-04-10T10:46:29Z</time>
      </trkpt>
      <trkpt lat="47.07664" lon="-1.78553">
        <ele>61</ele>
        <time>2022-04-10T10:46:32Z</time>
      </trkpt>
      <trkpt lat="47.07659" lon="-1.78541">
        <ele>61</ele>
        <time>2022-04-10T10:46:34Z</time>
      </trkpt>
      <trkpt lat="47.07655" lon="-1.78529">
        <ele>61</ele>
        <time>2022-04-10T10:46:36Z</time>
      </trkpt>
      <trkpt lat="47.07652" lon="-1.78516">
        <ele>61</ele>
        <time>2022-04-10T10:46:38Z</time>
      </trkpt>
      <trkpt lat="47.07648" lon="-1.78503">
        <ele>62</ele>
        <time>2022-04-10T10:46:40Z</time>
      </trkpt>
      <trkpt lat="47.07645" lon="-1.78489">
        <ele>62</ele>
        <time>2022-04-10T10:46:42Z</time>
      </trkpt>
      <trkpt lat="47.07641" lon="-1.78476">
        <ele>61</ele>
        <time>2022-04-10T10:46:44Z</time>
      </trkpt>
      <trkpt lat="47.07636" lon="-1.78463">
        <ele>61</ele>
        <time>2022-04-10T10:46:46Z</time>
      </trkpt>
      <trkpt lat="47.07631" lon="-1.7845">
        <ele>61</ele>
        <time>2022-04-10T10:46:48Z</time>
      </trkpt>
      <trkpt lat="47.07627" lon="-1.78437">
        <ele>61</ele>
        <time>2022-04-10T10:46:50Z</time>
      </trkpt>
      <trkpt lat="47.07621" lon="-1.78424">
        <ele>61</ele>
        <time>2022-04-10T10:46:52Z</time>
      </trkpt>
      <trkpt lat="47.07615" lon="-1.78412">
        <ele>61</ele>
        <time>2022-04-10T10:46:54Z</time>
      </trkpt>
      <trkpt lat="47.0761" lon="-1.784">
        <ele>61</ele>
        <time>2022-04-10T10:46:56Z</time>
      </trkpt>
      <trkpt lat="47.07604" lon="-1.78388">
        <ele>60</ele>
        <time>2022-04-10T10:46:58Z</time>
      </trkpt>
      <trkpt lat="47.07598" lon="-1.78376">
        <ele>61</ele>
        <time>2022-04-10T10:47:00Z</time>
      </trkpt>
      <trkpt lat="47.07592" lon="-1.78365">
        <ele>61</ele>
        <time>2022-04-10T10:47:02Z</time>
      </trkpt>
      <trkpt lat="47.07585" lon="-1.78353">
        <ele>60</ele>
        <time>2022-04-10T10:47:04Z</time>
      </trkpt>
      <trkpt lat="47.07579" lon="-1.78342">
        <ele>60</ele>
        <time>2022-04-10T10:47:06Z</time>
      </trkpt>
      <trkpt lat="47.07573" lon="-1.78331">
        <ele>60</ele>
        <time>2022-04-10T10:47:08Z</time>
      </trkpt>
      <trkpt lat="47.07567" lon="-1.78319">
        <ele>60</ele>
        <time>2022-04-10T10:47:10Z</time>
      </trkpt>
      <trkpt lat="47.0756" lon="-1.78307">
        <ele>60</ele>
        <time>2022-04-10T10:47:12Z</time>
      </trkpt>
      <trkpt lat="47.07554" lon="-1.78296">
        <ele>61</ele>
        <time>2022-04-10T10:47:14Z</time>
      </trkpt>
      <trkpt lat="47.07548" lon="-1.78284">
        <ele>61</ele>
        <time>2022-04-10T10:47:16Z</time>
      </trkpt>
      <trkpt lat="47.07542" lon="-1.78272">
        <ele>61</ele>
        <time>2022-04-10T10:47:18Z</time>
      </trkpt>
      <trkpt lat="47.07535" lon="-1.7826">
        <ele>61</ele>
        <time>2022-04-10T10:47:20Z</time>
      </trkpt>
      <trkpt lat="47.07529" lon="-1.78249">
        <ele>62</ele>
        <time>2022-04-10T10:47:22Z</time>
      </trkpt>
      <trkpt lat="47.07522" lon="-1.78238">
        <ele>62</ele>
        <time>2022-04-10T10:47:24Z</time>
      </trkpt>
      <trkpt lat="47.07516" lon="-1.78226">
        <ele>62</ele>
        <time>2022-04-10T10:47:26Z</time>
      </trkpt>
      <trkpt lat="47.07509" lon="-1.78215">
        <ele>62</ele>
        <time>2022-04-10T10:47:28Z</time>
      </trkpt>
      <trkpt lat="47.07501" lon="-1.78203">
        <ele>62</ele>
        <time>2022-04-10T10:47:30Z</time>
      </trkpt>
      <trkpt lat="47.07494" lon="-1.78192">
        <ele>62</ele>
        <time>2022-04-10T10:47:32Z</time>
      </trkpt>
      <trkpt lat="47.07486" lon="-1.78181">
        <ele>62</ele>
        <time>2022-04-10T10:47:34Z</time>
      </trkpt>
      <trkpt lat="47.07478" lon="-1.78171">
        <ele>62</ele>
        <time>2022-04-10T10:47:36Z</time>
      </trkpt>
      <trkpt lat="47.07469" lon="-1.78161">
        <ele>62</ele>
        <time>2022-04-10T10:47:38Z</time>
      </trkpt>
      <trkpt lat="47.07461" lon="-1.78152">
        <ele>62</ele>
        <time>2022-04-10T10:47:40Z</time>
      </trkpt>
      <trkpt lat="47.07452" lon="-1.78144">
        <ele>63</ele>
        <time>2022-04-10T10:47:42Z</time>
      </trkpt>
      <trkpt lat="47.07443" lon="-1.78136">
        <ele>62</ele>
        <time>2022-04-10T10:47:44Z</time>
      </trkpt>
      <trkpt lat="47.07435" lon="-1.78128">
        <ele>62</ele>
        <time>2022-04-10T10:47:46Z</time>
      </trkpt>
      <trkpt lat="47.07426" lon="-1.78121">
        <ele>62</ele>
        <time>2022-04-10T10:47:48Z</time>
      </trkpt>
      <trkpt lat="47.07418" lon="-1.78113">
        <ele>62</ele>
        <time>2022-04-10T10:47:50Z</time>
      </trkpt>
      <trkpt lat="47.0741" lon="-1.78106">
        <ele>63</ele>
        <time>2022-04-10T10:47:52Z</time>
      </trkpt>
      <trkpt lat="47.07402" lon="-1.78098">
        <ele>63</ele>
        <time>2022-04-10T10:47:54Z</time>
      </trkpt>
      <trkpt lat="47.07394" lon="-1.78089">
        <ele>63</ele>
        <time>2022-04-10T10:47:56Z</time>
      </trkpt>
      <trkpt lat="47.07386" lon="-1.7808">
        <ele>64</ele>
        <time>2022-04-10T10:47:58Z</time>
      </trkpt>
      <trkpt lat="47.07377" lon="-1.78071">
        <ele>64</ele>
        <time>2022-04-10T10:48:00Z</time>
      </trkpt>
      <trkpt lat="47.0737" lon="-1.78062">
        <ele>65</ele>
        <time>2022-04-10T10:48:02Z</time>
      </trkpt>
      <trkpt lat="47.07362" lon="-1.78052">
        <ele>65</ele>
        <time>2022-04-10T10:48:04Z</time>
      </trkpt>
      <trkpt lat="47.07354" lon="-1.78041">
        <ele>64</ele>
        <time>2022-04-10T10:48:06Z</time>
      </trkpt>
      <trkpt lat="47.07346" lon="-1.78031">
        <ele>64</ele>
        <time>2022-04-10T10:48:08Z</time>
      </trkpt>
      <trkpt lat="47.07338" lon="-1.7802">
        <ele>64</ele>
        <time>2022-04-10T10:48:10Z</time>
      </trkpt>
      <trkpt lat="47.07329" lon="-1.78011">
        <ele>65</ele>
        <time>2022-04-10T10:48:12Z</time>
      </trkpt>
      <trkpt lat="47.07321" lon="-1.78001">
        <ele>66</ele>
        <time>2022-04-10T10:48:14Z</time>
      </trkpt>
      <trkpt lat="47.07314" lon="-1.77991">
        <ele>66</ele>
        <time>2022-04-10T10:48:16Z</time>
      </trkpt>
      <trkpt lat="47.07306" lon="-1.77981">
        <ele>67</ele>
        <time>2022-04-10T10:48:18Z</time>
      </trkpt>
      <trkpt lat="47.07297" lon="-1.77972">
        <ele>67</ele>
        <time>2022-04-10T10:48:20Z</time>
      </trkpt>
      <trkpt lat="47.07289" lon="-1.77962">
        <ele>68</ele>
        <time>2022-04-10T10:48:22Z</time>
      </trkpt>
      <trkpt lat="47.0728" lon="-1.77952">
        <ele>69</ele>
        <time>2022-04-10T10:48:24Z</time>
      </trkpt>
      <trkpt lat="47.07271" lon="-1.77941">
        <ele>69</ele>
        <time>2022-04-10T10:48:26Z</time>
      </trkpt>
      <trkpt lat="47.07262" lon="-1.77931">
        <ele>70</ele>
        <time>2022-04-10T10:48:28Z</time>
      </trkpt>
      <trkpt lat="47.07254" lon="-1.77921">
        <ele>70</ele>
        <time>2022-04-10T10:48:30Z</time>
      </trkpt>
      <trkpt lat="47.07245" lon="-1.7791">
        <ele>70</ele>
        <time>2022-04-10T10:48:32Z</time>
      </trkpt>
      <trkpt lat="47.07236" lon="-1.779">
        <ele>70</ele>
        <time>2022-04-10T10:48:34Z</time>
      </trkpt>
      <trkpt lat="47.07228" lon="-1.7789">
        <ele>71</ele>
        <time>2022-04-10T10:48:36Z</time>
      </trkpt>
      <trkpt lat="47.07219" lon="-1.77879">
        <ele>71</ele>
        <time>2022-04-10T10:48:38Z</time>
      </trkpt>
      <trkpt lat="47.0721" lon="-1.77869">
        <ele>71</ele>
        <time>2022-04-10T10:48:40Z</time>
      </trkpt>
      <trkpt lat="47.072" lon="-1.77858">
        <ele>71</ele>
        <time>2022-04-10T10:48:42Z</time>
      </trkpt>
      <trkpt lat="47.0719" lon="-1.77847">
        <ele>70</ele>
        <time>2022-04-10T10:48:44Z</time>
      </trkpt>
      <trkpt lat="47.07181" lon="-1.77836">
        <ele>70</ele>
        <time>2022-04-10T10:48:46Z</time>
      </trkpt>
      <trkpt lat="47.07172" lon="-1.77825">
        <ele>70</ele>
        <time>2022-04-10T10:48:48Z</time>
      </trkpt>
      <trkpt lat="47.07163" lon="-1.77813">
        <ele>70</ele>
        <time>2022-04-10T10:48:50Z</time>
      </trkpt>
      <trkpt lat="47.07154" lon="-1.77801">
        <ele>70</ele>
        <time>2022-04-10T10:48:52Z</time>
      </trkpt>
      <trkpt lat="47.07146" lon="-1.77789">
        <ele>70</ele>
        <time>2022-04-10T10:48:54Z</time>
      </trkpt>
      <trkpt lat="47.07138" lon="-1.77776">
        <ele>70</ele>
        <time>2022-04-10T10:48:56Z</time>
      </trkpt>
      <trkpt lat="47.07131" lon="-1.77762">
        <ele>70</ele>
        <time>2022-04-10T10:48:58Z</time>
      </trkpt>
      <trkpt lat="47.07125" lon="-1.77748">
        <ele>70</ele>
        <time>2022-04-10T10:49:00Z</time>
      </trkpt>
      <trkpt lat="47.07119" lon="-1.77733">
        <ele>70</ele>
        <time>2022-04-10T10:49:02Z</time>
      </trkpt>
      <trkpt lat="47.07113" lon="-1.77719">
        <ele>70</ele>
        <time>2022-04-10T10:49:04Z</time>
      </trkpt>
      <trkpt lat="47.07107" lon="-1.77705">
        <ele>70</ele>
        <time>2022-04-10T10:49:06Z</time>
      </trkpt>
      <trkpt lat="47.07101" lon="-1.7769">
        <ele>70</ele>
        <time>2022-04-10T10:49:08Z</time>
      </trkpt>
      <trkpt lat="47.07096" lon="-1.77676">
        <ele>70</ele>
        <time>2022-04-10T10:49:10Z</time>
      </trkpt>
      <trkpt lat="47.0709" lon="-1.77663">
        <ele>70</ele>
        <time>2022-04-10T10:49:12Z</time>
      </trkpt>
      <trkpt lat="47.07085" lon="-1.77649">
        <ele>70</ele>
        <time>2022-04-10T10:49:14Z</time>
      </trkpt>
      <trkpt lat="47.07079" lon="-1.77634">
        <ele>69</ele>
        <time>2022-04-10T10:49:16Z</time>
      </trkpt>
      <trkpt lat="47.07073" lon="-1.77619">
        <ele>69</ele>
        <time>2022-04-10T10:49:18Z</time>
      </trkpt>
      <trkpt lat="47.07068" lon="-1.77604">
        <ele>69</ele>
        <time>2022-04-10T10:49:20Z</time>
      </trkpt>
      <trkpt lat="47.07062" lon="-1.7759">
        <ele>70</ele>
        <time>2022-04-10T10:49:22Z</time>
      </trkpt>
      <trkpt lat="47.07056" lon="-1.77575">
        <ele>70</ele>
        <time>2022-04-10T10:49:24Z</time>
      </trkpt>
      <trkpt lat="47.0705" lon="-1.7756">
        <ele>70</ele>
        <time>2022-04-10T10:49:26Z</time>
      </trkpt>
      <trkpt lat="47.07044" lon="-1.77546">
        <ele>70</ele>
        <time>2022-04-10T10:49:28Z</time>
      </trkpt>
      <trkpt lat="47.07039" lon="-1.77532">
        <ele>70</ele>
        <time>2022-04-10T10:49:30Z</time>
      </trkpt>
      <trkpt lat="47.07034" lon="-1.77519">
        <ele>71</ele>
        <time>2022-04-10T10:49:32Z</time>
      </trkpt>
      <trkpt lat="47.07028" lon="-1.77504">
        <ele>71</ele>
        <time>2022-04-10T10:49:34Z</time>
      </trkpt>
      <trkpt lat="47.07023" lon="-1.7749">
        <ele>72</ele>
        <time>2022-04-10T10:49:36Z</time>
      </trkpt>
      <trkpt lat="47.07017" lon="-1.77476">
        <ele>72</ele>
        <time>2022-04-10T10:49:38Z</time>
      </trkpt>
      <trkpt lat="47.07011" lon="-1.77463">
        <ele>72</ele>
        <time>2022-04-10T10:49:40Z</time>
      </trkpt>
      <trkpt lat="47.07004" lon="-1.7745">
        <ele>72</ele>
        <time>2022-04-10T10:49:42Z</time>
      </trkpt>
      <trkpt lat="47.06997" lon="-1.77437">
        <ele>71</ele>
        <time>2022-04-10T10:49:44Z</time>
      </trkpt>
      <trkpt lat="47.06989" lon="-1.77425">
        <ele>70</ele>
        <time>2022-04-10T10:49:46Z</time>
      </trkpt>
      <trkpt lat="47.06982" lon="-1.77413">
        <ele>71</ele>
        <time>2022-04-10T10:49:48Z</time>
      </trkpt>
      <trkpt lat="47.06974" lon="-1.77401">
        <ele>70</ele>
        <time>2022-04-10T10:49:50Z</time>
      </trkpt>
      <trkpt lat="47.06966" lon="-1.7739">
        <ele>70</ele>
        <time>2022-04-10T10:49:52Z</time>
      </trkpt>
      <trkpt lat="47.06958" lon="-1.77379">
        <ele>69</ele>
        <time>2022-04-10T10:49:54Z</time>
      </trkpt>
      <trkpt lat="47.06949" lon="-1.77368">
        <ele>69</ele>
        <time>2022-04-10T10:49:56Z</time>
      </trkpt>
      <trkpt lat="47.06942" lon="-1.77357">
        <ele>69</ele>
        <time>2022-04-10T10:49:58Z</time>
      </trkpt>
      <trkpt lat="47.06934" lon="-1.77347">
        <ele>70</ele>
        <time>2022-04-10T10:50:00Z</time>
      </trkpt>
      <trkpt lat="47.06926" lon="-1.77337">
        <ele>70</ele>
        <time>2022-04-10T10:50:02Z</time>
      </trkpt>
      <trkpt lat="47.06918" lon="-1.77326">
        <ele>71</ele>
        <time>2022-04-10T10:50:04Z</time>
      </trkpt>
      <trkpt lat="47.0691" lon="-1.77315">
        <ele>72</ele>
        <time>2022-04-10T10:50:06Z</time>
      </trkpt>
      <trkpt lat="47.06903" lon="-1.77303">
        <ele>72</ele>
        <time>2022-04-10T10:50:08Z</time>
      </trkpt>
      <trkpt lat="47.06895" lon="-1.77291">
        <ele>72</ele>
        <time>2022-04-10T10:50:10Z</time>
      </trkpt>
      <trkpt lat="47.06887" lon="-1.7728">
        <ele>72</ele>
        <time>2022-04-10T10:50:12Z</time>
      </trkpt>
      <trkpt lat="47.06878" lon="-1.77268">
        <ele>72</ele>
        <time>2022-04-10T10:50:14Z</time>
      </trkpt>
      <trkpt lat="47.0687" lon="-1.77256">
        <ele>72</ele>
        <time>2022-04-10T10:50:16Z</time>
      </trkpt>
      <trkpt lat="47.06862" lon="-1.77245">
        <ele>72</ele>
        <time>2022-04-10T10:50:18Z</time>
      </trkpt>
      <trkpt lat="47.06853" lon="-1.77234">
        <ele>73</ele>
        <time>2022-04-10T10:50:20Z</time>
      </trkpt>
      <trkpt lat="47.06846" lon="-1.77223">
        <ele>73</ele>
        <time>2022-04-10T10:50:22Z</time>
      </trkpt>
      <trkpt lat="47.06838" lon="-1.77212">
        <ele>73</ele>
        <time>2022-04-10T10:50:24Z</time>
      </trkpt>
      <trkpt lat="47.0683" lon="-1.772">
        <ele>72</ele>
        <time>2022-04-10T10:50:26Z</time>
      </trkpt>
      <trkpt lat="47.06822" lon="-1.77189">
        <ele>72</ele>
        <time>2022-04-10T10:50:28Z</time>
      </trkpt>
      <trkpt lat="47.06815" lon="-1.77177">
        <ele>72</ele>
        <time>2022-04-10T10:50:30Z</time>
      </trkpt>
      <trkpt lat="47.06807" lon="-1.77165">
        <ele>72</ele>
        <time>2022-04-10T10:50:32Z</time>
      </trkpt>
      <trkpt lat="47.068" lon="-1.77153">
        <ele>73</ele>
        <time>2022-04-10T10:50:34Z</time>
      </trkpt>
      <trkpt lat="47.06793" lon="-1.77142">
        <ele>73</ele>
        <time>2022-04-10T10:50:36Z</time>
      </trkpt>
      <trkpt lat="47.06785" lon="-1.77129">
        <ele>72</ele>
        <time>2022-04-10T10:50:38Z</time>
      </trkpt>
      <trkpt lat="47.06778" lon="-1.77117">
        <ele>71</ele>
        <time>2022-04-10T10:50:40Z</time>
      </trkpt>
      <trkpt lat="47.06771" lon="-1.77104">
        <ele>71</ele>
        <time>2022-04-10T10:50:42Z</time>
      </trkpt>
      <trkpt lat="47.06763" lon="-1.77091">
        <ele>71</ele>
        <time>2022-04-10T10:50:44Z</time>
      </trkpt>
      <trkpt lat="47.06756" lon="-1.77079">
        <ele>71</ele>
        <time>2022-04-10T10:50:46Z</time>
      </trkpt>
      <trkpt lat="47.06749" lon="-1.77066">
        <ele>71</ele>
        <time>2022-04-10T10:50:48Z</time>
      </trkpt>
      <trkpt lat="47.06742" lon="-1.77054">
        <ele>71</ele>
        <time>2022-04-10T10:50:50Z</time>
      </trkpt>
      <trkpt lat="47.06736" lon="-1.77042">
        <ele>71</ele>
        <time>2022-04-10T10:50:52Z</time>
      </trkpt>
      <trkpt lat="47.06728" lon="-1.77031">
        <ele>71</ele>
        <time>2022-04-10T10:50:54Z</time>
      </trkpt>
      <trkpt lat="47.06721" lon="-1.77019">
        <ele>72</ele>
        <time>2022-04-10T10:50:56Z</time>
      </trkpt>
      <trkpt lat="47.06714" lon="-1.77008">
        <ele>72</ele>
        <time>2022-04-10T10:50:58Z</time>
      </trkpt>
      <trkpt lat="47.06707" lon="-1.76995">
        <ele>73</ele>
        <time>2022-04-10T10:51:00Z</time>
      </trkpt>
      <trkpt lat="47.06699" lon="-1.76983">
        <ele>73</ele>
        <time>2022-04-10T10:51:02Z</time>
      </trkpt>
      <trkpt lat="47.06692" lon="-1.76971">
        <ele>73</ele>
        <time>2022-04-10T10:51:04Z</time>
      </trkpt>
      <trkpt lat="47.06685" lon="-1.7696">
        <ele>73</ele>
        <time>2022-04-10T10:51:06Z</time>
      </trkpt>
      <trkpt lat="47.06678" lon="-1.76948">
        <ele>74</ele>
        <time>2022-04-10T10:51:08Z</time>
      </trkpt>
      <trkpt lat="47.06671" lon="-1.76937">
        <ele>74</ele>
        <time>2022-04-10T10:51:10Z</time>
      </trkpt>
      <trkpt lat="47.06664" lon="-1.76926">
        <ele>74</ele>
        <time>2022-04-10T10:51:12Z</time>
      </trkpt>
      <trkpt lat="47.06657" lon="-1.76914">
        <ele>74</ele>
        <time>2022-04-10T10:51:14Z</time>
      </trkpt>
      <trkpt lat="47.0665" lon="-1.76902">
        <ele>75</ele>
        <time>2022-04-10T10:51:16Z</time>
      </trkpt>
      <trkpt lat="47.06644" lon="-1.76891">
        <ele>74</ele>
        <time>2022-04-10T10:51:18Z</time>
      </trkpt>
      <trkpt lat="47.06637" lon="-1.76879">
        <ele>74</ele>
        <time>2022-04-10T10:51:20Z</time>
      </trkpt>
      <trkpt lat="47.0663" lon="-1.76868">
        <ele>75</ele>
        <time>2022-04-10T10:51:22Z</time>
      </trkpt>
      <trkpt lat="47.06624" lon="-1.76857">
        <ele>74</ele>
        <time>2022-04-10T10:51:24Z</time>
      </trkpt>
      <trkpt lat="47.06617" lon="-1.76846">
        <ele>74</ele>
        <time>2022-04-10T10:51:26Z</time>
      </trkpt>
      <trkpt lat="47.06611" lon="-1.76835">
        <ele>74</ele>
        <time>2022-04-10T10:51:28Z</time>
      </trkpt>
      <trkpt lat="47.06605" lon="-1.76824">
        <ele>74</ele>
        <time>2022-04-10T10:51:30Z</time>
      </trkpt>
      <trkpt lat="47.06598" lon="-1.76813">
        <ele>75</ele>
        <time>2022-04-10T10:51:32Z</time>
      </trkpt>
      <trkpt lat="47.06592" lon="-1.76802">
        <ele>75</ele>
        <time>2022-04-10T10:51:34Z</time>
      </trkpt>
      <trkpt lat="47.06585" lon="-1.76791">
        <ele>75</ele>
        <time>2022-04-10T10:51:36Z</time>
      </trkpt>
      <trkpt lat="47.06578" lon="-1.7678">
        <ele>76</ele>
        <time>2022-04-10T10:51:38Z</time>
      </trkpt>
      <trkpt lat="47.06572" lon="-1.76769">
        <ele>76</ele>
        <time>2022-04-10T10:51:40Z</time>
      </trkpt>
      <trkpt lat="47.06565" lon="-1.76757">
        <ele>76</ele>
        <time>2022-04-10T10:51:42Z</time>
      </trkpt>
      <trkpt lat="47.06558" lon="-1.76745">
        <ele>76</ele>
        <time>2022-04-10T10:51:44Z</time>
      </trkpt>
      <trkpt lat="47.06551" lon="-1.76733">
        <ele>76</ele>
        <time>2022-04-10T10:51:46Z</time>
      </trkpt>
      <trkpt lat="47.06544" lon="-1.76721">
        <ele>76</ele>
        <time>2022-04-10T10:51:48Z</time>
      </trkpt>
      <trkpt lat="47.06537" lon="-1.76709">
        <ele>76</ele>
        <time>2022-04-10T10:51:50Z</time>
      </trkpt>
      <trkpt lat="47.0653" lon="-1.76697">
        <ele>76</ele>
        <time>2022-04-10T10:51:52Z</time>
      </trkpt>
      <trkpt lat="47.06523" lon="-1.76686">
        <ele>76</ele>
        <time>2022-04-10T10:51:54Z</time>
      </trkpt>
      <trkpt lat="47.06516" lon="-1.76674">
        <ele>76</ele>
        <time>2022-04-10T10:51:56Z</time>
      </trkpt>
      <trkpt lat="47.06508" lon="-1.76661">
        <ele>75</ele>
        <time>2022-04-10T10:51:58Z</time>
      </trkpt>
      <trkpt lat="47.06501" lon="-1.76648">
        <ele>75</ele>
        <time>2022-04-10T10:52:00Z</time>
      </trkpt>
      <trkpt lat="47.06494" lon="-1.76635">
        <ele>75</ele>
        <time>2022-04-10T10:52:02Z</time>
      </trkpt>
      <trkpt lat="47.06486" lon="-1.76622">
        <ele>75</ele>
        <time>2022-04-10T10:52:04Z</time>
      </trkpt>
      <trkpt lat="47.06479" lon="-1.76608">
        <ele>76</ele>
        <time>2022-04-10T10:52:06Z</time>
      </trkpt>
      <trkpt lat="47.06472" lon="-1.76594">
        <ele>75</ele>
        <time>2022-04-10T10:52:08Z</time>
      </trkpt>
      <trkpt lat="47.06466" lon="-1.76579">
        <ele>76</ele>
        <time>2022-04-10T10:52:10Z</time>
      </trkpt>
      <trkpt lat="47.06459" lon="-1.76564">
        <ele>76</ele>
        <time>2022-04-10T10:52:12Z</time>
      </trkpt>
      <trkpt lat="47.06453" lon="-1.76549">
        <ele>76</ele>
        <time>2022-04-10T10:52:14Z</time>
      </trkpt>
      <trkpt lat="47.06447" lon="-1.76535">
        <ele>76</ele>
        <time>2022-04-10T10:52:16Z</time>
      </trkpt>
      <trkpt lat="47.06441" lon="-1.7652">
        <ele>76</ele>
        <time>2022-04-10T10:52:18Z</time>
      </trkpt>
      <trkpt lat="47.06436" lon="-1.76505">
        <ele>75</ele>
        <time>2022-04-10T10:52:20Z</time>
      </trkpt>
      <trkpt lat="47.0643" lon="-1.7649">
        <ele>75</ele>
        <time>2022-04-10T10:52:22Z</time>
      </trkpt>
      <trkpt lat="47.06424" lon="-1.76475">
        <ele>74</ele>
        <time>2022-04-10T10:52:24Z</time>
      </trkpt>
      <trkpt lat="47.06417" lon="-1.76461">
        <ele>74</ele>
        <time>2022-04-10T10:52:26Z</time>
      </trkpt>
      <trkpt lat="47.0641" lon="-1.76448">
        <ele>73</ele>
        <time>2022-04-10T10:52:28Z</time>
      </trkpt>
      <trkpt lat="47.06403" lon="-1.76436">
        <ele>74</ele>
        <time>2022-04-10T10:52:30Z</time>
      </trkpt>
      <trkpt lat="47.06394" lon="-1.76425">
        <ele>74</ele>
        <time>2022-04-10T10:52:32Z</time>
      </trkpt>
      <trkpt lat="47.06385" lon="-1.76415">
        <ele>74</ele>
        <time>2022-04-10T10:52:34Z</time>
      </trkpt>
      <trkpt lat="47.06376" lon="-1.76406">
        <ele>73</ele>
        <time>2022-04-10T10:52:36Z</time>
      </trkpt>
      <trkpt lat="47.06365" lon="-1.764">
        <ele>73</ele>
        <time>2022-04-10T10:52:38Z</time>
      </trkpt>
      <trkpt lat="47.06355" lon="-1.76396">
        <ele>73</ele>
        <time>2022-04-10T10:52:40Z</time>
      </trkpt>
      <trkpt lat="47.06345" lon="-1.76392">
        <ele>73</ele>
        <time>2022-04-10T10:52:42Z</time>
      </trkpt>
      <trkpt lat="47.06334" lon="-1.76387">
        <ele>74</ele>
        <time>2022-04-10T10:52:44Z</time>
      </trkpt>
      <trkpt lat="47.06324" lon="-1.76383">
        <ele>74</ele>
        <time>2022-04-10T10:52:46Z</time>
      </trkpt>
      <trkpt lat="47.06315" lon="-1.76375">
        <ele>74</ele>
        <time>2022-04-10T10:52:48Z</time>
      </trkpt>
      <trkpt lat="47.06307" lon="-1.76366">
        <ele>74</ele>
        <time>2022-04-10T10:52:50Z</time>
      </trkpt>
      <trkpt lat="47.06301" lon="-1.76352">
        <ele>74</ele>
        <time>2022-04-10T10:52:53Z</time>
      </trkpt>
      <trkpt lat="47.06296" lon="-1.7634">
        <ele>75</ele>
        <time>2022-04-10T10:52:56Z</time>
      </trkpt>
      <trkpt lat="47.06294" lon="-1.76325">
        <ele>75</ele>
        <time>2022-04-10T10:52:58Z</time>
      </trkpt>
      <trkpt lat="47.06295" lon="-1.76309">
        <ele>75</ele>
        <time>2022-04-10T10:53:00Z</time>
      </trkpt>
      <trkpt lat="47.06298" lon="-1.76293">
        <ele>75</ele>
        <time>2022-04-10T10:53:02Z</time>
      </trkpt>
      <trkpt lat="47.06301" lon="-1.76277">
        <ele>75</ele>
        <time>2022-04-10T10:53:04Z</time>
      </trkpt>
      <trkpt lat="47.06302" lon="-1.76261">
        <ele>75</ele>
        <time>2022-04-10T10:53:06Z</time>
      </trkpt>
      <trkpt lat="47.06302" lon="-1.76244">
        <ele>75</ele>
        <time>2022-04-10T10:53:08Z</time>
      </trkpt>
      <trkpt lat="47.063" lon="-1.76229">
        <ele>75</ele>
        <time>2022-04-10T10:53:10Z</time>
      </trkpt>
      <trkpt lat="47.06298" lon="-1.76213">
        <ele>75</ele>
        <time>2022-04-10T10:53:12Z</time>
      </trkpt>
      <trkpt lat="47.06294" lon="-1.76198">
        <ele>75</ele>
        <time>2022-04-10T10:53:14Z</time>
      </trkpt>
      <trkpt lat="47.06289" lon="-1.76184">
        <ele>75</ele>
        <time>2022-04-10T10:53:16Z</time>
      </trkpt>
      <trkpt lat="47.06284" lon="-1.7617">
        <ele>75</ele>
        <time>2022-04-10T10:53:18Z</time>
      </trkpt>
      <trkpt lat="47.06277" lon="-1.76158">
        <ele>75</ele>
        <time>2022-04-10T10:53:20Z</time>
      </trkpt>
      <trkpt lat="47.0627" lon="-1.76147">
        <ele>75</ele>
        <time>2022-04-10T10:53:22Z</time>
      </trkpt>
      <trkpt lat="47.06262" lon="-1.76137">
        <ele>75</ele>
        <time>2022-04-10T10:53:24Z</time>
      </trkpt>
      <trkpt lat="47.06254" lon="-1.76127">
        <ele>76</ele>
        <time>2022-04-10T10:53:26Z</time>
      </trkpt>
      <trkpt lat="47.06245" lon="-1.76117">
        <ele>76</ele>
        <time>2022-04-10T10:53:28Z</time>
      </trkpt>
      <trkpt lat="47.06236" lon="-1.76106">
        <ele>76</ele>
        <time>2022-04-10T10:53:30Z</time>
      </trkpt>
      <trkpt lat="47.06222" lon="-1.76089">
        <ele>76</ele>
        <time>2022-04-10T10:53:33Z</time>
      </trkpt>
      <trkpt lat="47.06208" lon="-1.76071">
        <ele>76</ele>
        <time>2022-04-10T10:53:36Z</time>
      </trkpt>
      <trkpt lat="47.06198" lon="-1.7606">
        <ele>76</ele>
        <time>2022-04-10T10:53:38Z</time>
      </trkpt>
      <trkpt lat="47.06188" lon="-1.76049">
        <ele>76</ele>
        <time>2022-04-10T10:53:40Z</time>
      </trkpt>
      <trkpt lat="47.06179" lon="-1.76038">
        <ele>76</ele>
        <time>2022-04-10T10:53:42Z</time>
      </trkpt>
      <trkpt lat="47.06168" lon="-1.76027">
        <ele>75</ele>
        <time>2022-04-10T10:53:44Z</time>
      </trkpt>
      <trkpt lat="47.06159" lon="-1.76015">
        <ele>75</ele>
        <time>2022-04-10T10:53:46Z</time>
      </trkpt>
      <trkpt lat="47.0615" lon="-1.76004">
        <ele>75</ele>
        <time>2022-04-10T10:53:48Z</time>
      </trkpt>
      <trkpt lat="47.06141" lon="-1.75993">
        <ele>74</ele>
        <time>2022-04-10T10:53:50Z</time>
      </trkpt>
      <trkpt lat="47.06131" lon="-1.75982">
        <ele>74</ele>
        <time>2022-04-10T10:53:52Z</time>
      </trkpt>
      <trkpt lat="47.06122" lon="-1.7597">
        <ele>73</ele>
        <time>2022-04-10T10:53:54Z</time>
      </trkpt>
      <trkpt lat="47.06112" lon="-1.75959">
        <ele>73</ele>
        <time>2022-04-10T10:53:56Z</time>
      </trkpt>
      <trkpt lat="47.06103" lon="-1.75948">
        <ele>72</ele>
        <time>2022-04-10T10:53:58Z</time>
      </trkpt>
      <trkpt lat="47.06093" lon="-1.75936">
        <ele>72</ele>
        <time>2022-04-10T10:54:00Z</time>
      </trkpt>
      <trkpt lat="47.06084" lon="-1.75924">
        <ele>72</ele>
        <time>2022-04-10T10:54:02Z</time>
      </trkpt>
      <trkpt lat="47.06074" lon="-1.75913">
        <ele>72</ele>
        <time>2022-04-10T10:54:04Z</time>
      </trkpt>
      <trkpt lat="47.06065" lon="-1.75902">
        <ele>71</ele>
        <time>2022-04-10T10:54:06Z</time>
      </trkpt>
      <trkpt lat="47.06056" lon="-1.75891">
        <ele>71</ele>
        <time>2022-04-10T10:54:08Z</time>
      </trkpt>
      <trkpt lat="47.06047" lon="-1.75879">
        <ele>71</ele>
        <time>2022-04-10T10:54:10Z</time>
      </trkpt>
      <trkpt lat="47.06037" lon="-1.75867">
        <ele>71</ele>
        <time>2022-04-10T10:54:12Z</time>
      </trkpt>
      <trkpt lat="47.06027" lon="-1.75856">
        <ele>71</ele>
        <time>2022-04-10T10:54:14Z</time>
      </trkpt>
      <trkpt lat="47.06017" lon="-1.75845">
        <ele>72</ele>
        <time>2022-04-10T10:54:16Z</time>
      </trkpt>
      <trkpt lat="47.06008" lon="-1.75835">
        <ele>72</ele>
        <time>2022-04-10T10:54:18Z</time>
      </trkpt>
      <trkpt lat="47.05998" lon="-1.75824">
        <ele>72</ele>
        <time>2022-04-10T10:54:20Z</time>
      </trkpt>
      <trkpt lat="47.05988" lon="-1.75812">
        <ele>72</ele>
        <time>2022-04-10T10:54:22Z</time>
      </trkpt>
      <trkpt lat="47.05979" lon="-1.75801">
        <ele>71</ele>
        <time>2022-04-10T10:54:24Z</time>
      </trkpt>
      <trkpt lat="47.0597" lon="-1.75789">
        <ele>71</ele>
        <time>2022-04-10T10:54:26Z</time>
      </trkpt>
      <trkpt lat="47.05962" lon="-1.75776">
        <ele>71</ele>
        <time>2022-04-10T10:54:28Z</time>
      </trkpt>
      <trkpt lat="47.05954" lon="-1.75762">
        <ele>72</ele>
        <time>2022-04-10T10:54:30Z</time>
      </trkpt>
      <trkpt lat="47.05947" lon="-1.75748">
        <ele>71</ele>
        <time>2022-04-10T10:54:32Z</time>
      </trkpt>
      <trkpt lat="47.05941" lon="-1.75733">
        <ele>71</ele>
        <time>2022-04-10T10:54:34Z</time>
      </trkpt>
      <trkpt lat="47.05935" lon="-1.75718">
        <ele>71</ele>
        <time>2022-04-10T10:54:36Z</time>
      </trkpt>
      <trkpt lat="47.0593" lon="-1.75703">
        <ele>71</ele>
        <time>2022-04-10T10:54:38Z</time>
      </trkpt>
      <trkpt lat="47.05924" lon="-1.75689">
        <ele>71</ele>
        <time>2022-04-10T10:54:40Z</time>
      </trkpt>
      <trkpt lat="47.05919" lon="-1.75674">
        <ele>71</ele>
        <time>2022-04-10T10:54:42Z</time>
      </trkpt>
      <trkpt lat="47.05914" lon="-1.7566">
        <ele>71</ele>
        <time>2022-04-10T10:54:44Z</time>
      </trkpt>
      <trkpt lat="47.05909" lon="-1.75645">
        <ele>72</ele>
        <time>2022-04-10T10:54:46Z</time>
      </trkpt>
      <trkpt lat="47.05903" lon="-1.75629">
        <ele>72</ele>
        <time>2022-04-10T10:54:48Z</time>
      </trkpt>
      <trkpt lat="47.05898" lon="-1.75614">
        <ele>72</ele>
        <time>2022-04-10T10:54:50Z</time>
      </trkpt>
      <trkpt lat="47.05893" lon="-1.75599">
        <ele>72</ele>
        <time>2022-04-10T10:54:52Z</time>
      </trkpt>
      <trkpt lat="47.05888" lon="-1.75584">
        <ele>72</ele>
        <time>2022-04-10T10:54:54Z</time>
      </trkpt>
      <trkpt lat="47.05883" lon="-1.75569">
        <ele>71</ele>
        <time>2022-04-10T10:54:56Z</time>
      </trkpt>
      <trkpt lat="47.05878" lon="-1.75553">
        <ele>71</ele>
        <time>2022-04-10T10:54:58Z</time>
      </trkpt>
      <trkpt lat="47.05873" lon="-1.75539">
        <ele>70</ele>
        <time>2022-04-10T10:55:00Z</time>
      </trkpt>
      <trkpt lat="47.05868" lon="-1.75524">
        <ele>69</ele>
        <time>2022-04-10T10:55:02Z</time>
      </trkpt>
      <trkpt lat="47.05863" lon="-1.75508">
        <ele>69</ele>
        <time>2022-04-10T10:55:04Z</time>
      </trkpt>
      <trkpt lat="47.05858" lon="-1.75493">
        <ele>68</ele>
        <time>2022-04-10T10:55:06Z</time>
      </trkpt>
      <trkpt lat="47.05853" lon="-1.75478">
        <ele>68</ele>
        <time>2022-04-10T10:55:08Z</time>
      </trkpt>
      <trkpt lat="47.05848" lon="-1.75462">
        <ele>67</ele>
        <time>2022-04-10T10:55:10Z</time>
      </trkpt>
      <trkpt lat="47.05843" lon="-1.75447">
        <ele>67</ele>
        <time>2022-04-10T10:55:12Z</time>
      </trkpt>
      <trkpt lat="47.05838" lon="-1.75432">
        <ele>67</ele>
        <time>2022-04-10T10:55:14Z</time>
      </trkpt>
      <trkpt lat="47.05832" lon="-1.75418">
        <ele>67</ele>
        <time>2022-04-10T10:55:16Z</time>
      </trkpt>
      <trkpt lat="47.05827" lon="-1.75403">
        <ele>67</ele>
        <time>2022-04-10T10:55:18Z</time>
      </trkpt>
      <trkpt lat="47.05821" lon="-1.7539">
        <ele>66</ele>
        <time>2022-04-10T10:55:20Z</time>
      </trkpt>
      <trkpt lat="47.05815" lon="-1.75376">
        <ele>66</ele>
        <time>2022-04-10T10:55:22Z</time>
      </trkpt>
      <trkpt lat="47.05809" lon="-1.75362">
        <ele>66</ele>
        <time>2022-04-10T10:55:24Z</time>
      </trkpt>
      <trkpt lat="47.05804" lon="-1.75348">
        <ele>66</ele>
        <time>2022-04-10T10:55:26Z</time>
      </trkpt>
      <trkpt lat="47.05797" lon="-1.75335">
        <ele>66</ele>
        <time>2022-04-10T10:55:28Z</time>
      </trkpt>
      <trkpt lat="47.05792" lon="-1.75322">
        <ele>66</ele>
        <time>2022-04-10T10:55:30Z</time>
      </trkpt>
      <trkpt lat="47.05786" lon="-1.75309">
        <ele>66</ele>
        <time>2022-04-10T10:55:32Z</time>
      </trkpt>
      <trkpt lat="47.0578" lon="-1.75296">
        <ele>65</ele>
        <time>2022-04-10T10:55:34Z</time>
      </trkpt>
      <trkpt lat="47.05775" lon="-1.75284">
        <ele>65</ele>
        <time>2022-04-10T10:55:36Z</time>
      </trkpt>
      <trkpt lat="47.05769" lon="-1.75272">
        <ele>65</ele>
        <time>2022-04-10T10:55:38Z</time>
      </trkpt>
      <trkpt lat="47.05763" lon="-1.75259">
        <ele>64</ele>
        <time>2022-04-10T10:55:40Z</time>
      </trkpt>
      <trkpt lat="47.05757" lon="-1.75245">
        <ele>64</ele>
        <time>2022-04-10T10:55:42Z</time>
      </trkpt>
      <trkpt lat="47.05751" lon="-1.75232">
        <ele>64</ele>
        <time>2022-04-10T10:55:44Z</time>
      </trkpt>
      <trkpt lat="47.05745" lon="-1.75218">
        <ele>64</ele>
        <time>2022-04-10T10:55:46Z</time>
      </trkpt>
      <trkpt lat="47.05739" lon="-1.75204">
        <ele>63</ele>
        <time>2022-04-10T10:55:48Z</time>
      </trkpt>
      <trkpt lat="47.05733" lon="-1.7519">
        <ele>63</ele>
        <time>2022-04-10T10:55:50Z</time>
      </trkpt>
      <trkpt lat="47.05726" lon="-1.75176">
        <ele>63</ele>
        <time>2022-04-10T10:55:52Z</time>
      </trkpt>
      <trkpt lat="47.05721" lon="-1.75161">
        <ele>62</ele>
        <time>2022-04-10T10:55:54Z</time>
      </trkpt>
      <trkpt lat="47.05714" lon="-1.75147">
        <ele>61</ele>
        <time>2022-04-10T10:55:56Z</time>
      </trkpt>
      <trkpt lat="47.05707" lon="-1.75132">
        <ele>61</ele>
        <time>2022-04-10T10:55:58Z</time>
      </trkpt>
      <trkpt lat="47.057" lon="-1.75116">
        <ele>61</ele>
        <time>2022-04-10T10:56:00Z</time>
      </trkpt>
      <trkpt lat="47.05691" lon="-1.751">
        <ele>60</ele>
        <time>2022-04-10T10:56:02Z</time>
      </trkpt>
      <trkpt lat="47.05682" lon="-1.75084">
        <ele>60</ele>
        <time>2022-04-10T10:56:04Z</time>
      </trkpt>
      <trkpt lat="47.05672" lon="-1.7507">
        <ele>59</ele>
        <time>2022-04-10T10:56:06Z</time>
      </trkpt>
      <trkpt lat="47.0566" lon="-1.75056">
        <ele>59</ele>
        <time>2022-04-10T10:56:08Z</time>
      </trkpt>
      <trkpt lat="47.05647" lon="-1.75043">
        <ele>58</ele>
        <time>2022-04-10T10:56:10Z</time>
      </trkpt>
      <trkpt lat="47.05634" lon="-1.7503">
        <ele>57</ele>
        <time>2022-04-10T10:56:12Z</time>
      </trkpt>
      <trkpt lat="47.05622" lon="-1.75018">
        <ele>57</ele>
        <time>2022-04-10T10:56:14Z</time>
      </trkpt>
      <trkpt lat="47.05609" lon="-1.75005">
        <ele>57</ele>
        <time>2022-04-10T10:56:16Z</time>
      </trkpt>
      <trkpt lat="47.05596" lon="-1.74993">
        <ele>57</ele>
        <time>2022-04-10T10:56:18Z</time>
      </trkpt>
      <trkpt lat="47.05584" lon="-1.7498">
        <ele>56</ele>
        <time>2022-04-10T10:56:20Z</time>
      </trkpt>
      <trkpt lat="47.05571" lon="-1.74968">
        <ele>56</ele>
        <time>2022-04-10T10:56:22Z</time>
      </trkpt>
      <trkpt lat="47.05559" lon="-1.74956">
        <ele>56</ele>
        <time>2022-04-10T10:56:24Z</time>
      </trkpt>
      <trkpt lat="47.05546" lon="-1.74944">
        <ele>56</ele>
        <time>2022-04-10T10:56:26Z</time>
      </trkpt>
      <trkpt lat="47.05533" lon="-1.74931">
        <ele>55</ele>
        <time>2022-04-10T10:56:28Z</time>
      </trkpt>
      <trkpt lat="47.0552" lon="-1.74919">
        <ele>55</ele>
        <time>2022-04-10T10:56:30Z</time>
      </trkpt>
      <trkpt lat="47.05508" lon="-1.74906">
        <ele>55</ele>
        <time>2022-04-10T10:56:32Z</time>
      </trkpt>
      <trkpt lat="47.05495" lon="-1.74894">
        <ele>55</ele>
        <time>2022-04-10T10:56:34Z</time>
      </trkpt>
      <trkpt lat="47.05482" lon="-1.74882">
        <ele>54</ele>
        <time>2022-04-10T10:56:36Z</time>
      </trkpt>
      <trkpt lat="47.05469" lon="-1.74871">
        <ele>54</ele>
        <time>2022-04-10T10:56:38Z</time>
      </trkpt>
      <trkpt lat="47.05456" lon="-1.74859">
        <ele>54</ele>
        <time>2022-04-10T10:56:40Z</time>
      </trkpt>
      <trkpt lat="47.05443" lon="-1.74849">
        <ele>54</ele>
        <time>2022-04-10T10:56:42Z</time>
      </trkpt>
      <trkpt lat="47.05431" lon="-1.74838">
        <ele>54</ele>
        <time>2022-04-10T10:56:44Z</time>
      </trkpt>
      <trkpt lat="47.05418" lon="-1.74827">
        <ele>54</ele>
        <time>2022-04-10T10:56:46Z</time>
      </trkpt>
      <trkpt lat="47.05407" lon="-1.74817">
        <ele>53</ele>
        <time>2022-04-10T10:56:48Z</time>
      </trkpt>
      <trkpt lat="47.05395" lon="-1.74808">
        <ele>53</ele>
        <time>2022-04-10T10:56:50Z</time>
      </trkpt>
      <trkpt lat="47.05384" lon="-1.74799">
        <ele>52</ele>
        <time>2022-04-10T10:56:52Z</time>
      </trkpt>
      <trkpt lat="47.05373" lon="-1.7479">
        <ele>52</ele>
        <time>2022-04-10T10:56:54Z</time>
      </trkpt>
      <trkpt lat="47.05363" lon="-1.74779">
        <ele>52</ele>
        <time>2022-04-10T10:56:56Z</time>
      </trkpt>
      <trkpt lat="47.05354" lon="-1.74767">
        <ele>52</ele>
        <time>2022-04-10T10:56:58Z</time>
      </trkpt>
      <trkpt lat="47.05346" lon="-1.74753">
        <ele>53</ele>
        <time>2022-04-10T10:57:00Z</time>
      </trkpt>
      <trkpt lat="47.05337" lon="-1.7474">
        <ele>53</ele>
        <time>2022-04-10T10:57:02Z</time>
      </trkpt>
      <trkpt lat="47.05329" lon="-1.74726">
        <ele>53</ele>
        <time>2022-04-10T10:57:04Z</time>
      </trkpt>
      <trkpt lat="47.05322" lon="-1.74712">
        <ele>54</ele>
        <time>2022-04-10T10:57:06Z</time>
      </trkpt>
      <trkpt lat="47.05315" lon="-1.74697">
        <ele>54</ele>
        <time>2022-04-10T10:57:08Z</time>
      </trkpt>
      <trkpt lat="47.05309" lon="-1.74683">
        <ele>55</ele>
        <time>2022-04-10T10:57:10Z</time>
      </trkpt>
      <trkpt lat="47.05302" lon="-1.74669">
        <ele>55</ele>
        <time>2022-04-10T10:57:12Z</time>
      </trkpt>
      <trkpt lat="47.05295" lon="-1.74654">
        <ele>55</ele>
        <time>2022-04-10T10:57:14Z</time>
      </trkpt>
      <trkpt lat="47.05288" lon="-1.7464">
        <ele>55</ele>
        <time>2022-04-10T10:57:16Z</time>
      </trkpt>
      <trkpt lat="47.05282" lon="-1.74626">
        <ele>55</ele>
        <time>2022-04-10T10:57:18Z</time>
      </trkpt>
      <trkpt lat="47.05276" lon="-1.74612">
        <ele>55</ele>
        <time>2022-04-10T10:57:20Z</time>
      </trkpt>
      <trkpt lat="47.0527" lon="-1.74598">
        <ele>55</ele>
        <time>2022-04-10T10:57:22Z</time>
      </trkpt>
      <trkpt lat="47.05264" lon="-1.74584">
        <ele>55</ele>
        <time>2022-04-10T10:57:24Z</time>
      </trkpt>
      <trkpt lat="47.05259" lon="-1.74572">
        <ele>54</ele>
        <time>2022-04-10T10:57:26Z</time>
      </trkpt>
      <trkpt lat="47.05253" lon="-1.7456">
        <ele>54</ele>
        <time>2022-04-10T10:57:28Z</time>
      </trkpt>
      <trkpt lat="47.05248" lon="-1.74549">
        <ele>54</ele>
        <time>2022-04-10T10:57:30Z</time>
      </trkpt>
      <trkpt lat="47.05242" lon="-1.74532">
        <ele>54</ele>
        <time>2022-04-10T10:57:33Z</time>
      </trkpt>
      <trkpt lat="47.05238" lon="-1.7452">
        <ele>55</ele>
        <time>2022-04-10T10:57:35Z</time>
      </trkpt>
      <trkpt lat="47.05234" lon="-1.74507">
        <ele>55</ele>
        <time>2022-04-10T10:57:37Z</time>
      </trkpt>
      <trkpt lat="47.0523" lon="-1.7449">
        <ele>56</ele>
        <time>2022-04-10T10:57:40Z</time>
      </trkpt>
      <trkpt lat="47.05228" lon="-1.74476">
        <ele>55</ele>
        <time>2022-04-10T10:57:42Z</time>
      </trkpt>
      <trkpt lat="47.05226" lon="-1.74457">
        <ele>56</ele>
        <time>2022-04-10T10:57:45Z</time>
      </trkpt>
      <trkpt lat="47.05224" lon="-1.74438">
        <ele>57</ele>
        <time>2022-04-10T10:57:48Z</time>
      </trkpt>
      <trkpt lat="47.05224" lon="-1.7442">
        <ele>57</ele>
        <time>2022-04-10T10:57:51Z</time>
      </trkpt>
      <trkpt lat="47.05225" lon="-1.74402">
        <ele>58</ele>
        <time>2022-04-10T10:57:54Z</time>
      </trkpt>
      <trkpt lat="47.05225" lon="-1.74384">
        <ele>58</ele>
        <time>2022-04-10T10:57:57Z</time>
      </trkpt>
      <trkpt lat="47.05225" lon="-1.74366">
        <ele>58</ele>
        <time>2022-04-10T10:58:00Z</time>
      </trkpt>
      <trkpt lat="47.05226" lon="-1.74348">
        <ele>59</ele>
        <time>2022-04-10T10:58:03Z</time>
      </trkpt>
      <trkpt lat="47.05226" lon="-1.7433">
        <ele>59</ele>
        <time>2022-04-10T10:58:06Z</time>
      </trkpt>
      <trkpt lat="47.05227" lon="-1.74312">
        <ele>60</ele>
        <time>2022-04-10T10:58:09Z</time>
      </trkpt>
      <trkpt lat="47.05226" lon="-1.74293">
        <ele>60</ele>
        <time>2022-04-10T10:58:12Z</time>
      </trkpt>
      <trkpt lat="47.05227" lon="-1.74275">
        <ele>61</ele>
        <time>2022-04-10T10:58:15Z</time>
      </trkpt>
      <trkpt lat="47.05227" lon="-1.74257">
        <ele>62</ele>
        <time>2022-04-10T10:58:18Z</time>
      </trkpt>
      <trkpt lat="47.05227" lon="-1.74239">
        <ele>62</ele>
        <time>2022-04-10T10:58:21Z</time>
      </trkpt>
      <trkpt lat="47.05228" lon="-1.74221">
        <ele>63</ele>
        <time>2022-04-10T10:58:24Z</time>
      </trkpt>
      <trkpt lat="47.05228" lon="-1.74202">
        <ele>64</ele>
        <time>2022-04-10T10:58:27Z</time>
      </trkpt>
      <trkpt lat="47.05228" lon="-1.74183">
        <ele>64</ele>
        <time>2022-04-10T10:58:30Z</time>
      </trkpt>
      <trkpt lat="47.05229" lon="-1.74164">
        <ele>64</ele>
        <time>2022-04-10T10:58:33Z</time>
      </trkpt>
      <trkpt lat="47.05229" lon="-1.74151">
        <ele>64</ele>
        <time>2022-04-10T10:58:35Z</time>
      </trkpt>
      <trkpt lat="47.05229" lon="-1.74133">
        <ele>64</ele>
        <time>2022-04-10T10:58:38Z</time>
      </trkpt>
      <trkpt lat="47.0523" lon="-1.74113">
        <ele>63</ele>
        <time>2022-04-10T10:58:41Z</time>
      </trkpt>
      <trkpt lat="47.0523" lon="-1.74094">
        <ele>64</ele>
        <time>2022-04-10T10:58:44Z</time>
      </trkpt>
      <trkpt lat="47.05231" lon="-1.74081">
        <ele>64</ele>
        <time>2022-04-10T10:58:46Z</time>
      </trkpt>
      <trkpt lat="47.0523" lon="-1.74062">
        <ele>65</ele>
        <time>2022-04-10T10:58:49Z</time>
      </trkpt>
      <trkpt lat="47.05231" lon="-1.74043">
        <ele>65</ele>
        <time>2022-04-10T10:58:52Z</time>
      </trkpt>
      <trkpt lat="47.05231" lon="-1.74023">
        <ele>65</ele>
        <time>2022-04-10T10:58:55Z</time>
      </trkpt>
      <trkpt lat="47.05231" lon="-1.74004">
        <ele>65</ele>
        <time>2022-04-10T10:58:58Z</time>
      </trkpt>
      <trkpt lat="47.05231" lon="-1.7399">
        <ele>65</ele>
        <time>2022-04-10T10:59:00Z</time>
      </trkpt>
      <trkpt lat="47.05232" lon="-1.73977">
        <ele>66</ele>
        <time>2022-04-10T10:59:02Z</time>
      </trkpt>
      <trkpt lat="47.05232" lon="-1.73963">
        <ele>65</ele>
        <time>2022-04-10T10:59:04Z</time>
      </trkpt>
      <trkpt lat="47.05232" lon="-1.7395">
        <ele>66</ele>
        <time>2022-04-10T10:59:06Z</time>
      </trkpt>
      <trkpt lat="47.05232" lon="-1.73936">
        <ele>66</ele>
        <time>2022-04-10T10:59:08Z</time>
      </trkpt>
      <trkpt lat="47.05232" lon="-1.73922">
        <ele>66</ele>
        <time>2022-04-10T10:59:10Z</time>
      </trkpt>
      <trkpt lat="47.05233" lon="-1.73908">
        <ele>66</ele>
        <time>2022-04-10T10:59:12Z</time>
      </trkpt>
      <trkpt lat="47.05233" lon="-1.73895">
        <ele>66</ele>
        <time>2022-04-10T10:59:14Z</time>
      </trkpt>
      <trkpt lat="47.05233" lon="-1.7388">
        <ele>66</ele>
        <time>2022-04-10T10:59:16Z</time>
      </trkpt>
      <trkpt lat="47.05233" lon="-1.73865">
        <ele>66</ele>
        <time>2022-04-10T10:59:18Z</time>
      </trkpt>
      <trkpt lat="47.05233" lon="-1.7385">
        <ele>67</ele>
        <time>2022-04-10T10:59:20Z</time>
      </trkpt>
      <trkpt lat="47.05233" lon="-1.73835">
        <ele>67</ele>
        <time>2022-04-10T10:59:22Z</time>
      </trkpt>
      <trkpt lat="47.05234" lon="-1.73819">
        <ele>67</ele>
        <time>2022-04-10T10:59:24Z</time>
      </trkpt>
      <trkpt lat="47.05234" lon="-1.73803">
        <ele>67</ele>
        <time>2022-04-10T10:59:26Z</time>
      </trkpt>
      <trkpt lat="47.05234" lon="-1.73788">
        <ele>67</ele>
        <time>2022-04-10T10:59:28Z</time>
      </trkpt>
      <trkpt lat="47.05234" lon="-1.73774">
        <ele>68</ele>
        <time>2022-04-10T10:59:30Z</time>
      </trkpt>
      <trkpt lat="47.05235" lon="-1.73758">
        <ele>67</ele>
        <time>2022-04-10T10:59:32Z</time>
      </trkpt>
      <trkpt lat="47.05235" lon="-1.73743">
        <ele>68</ele>
        <time>2022-04-10T10:59:34Z</time>
      </trkpt>
      <trkpt lat="47.05235" lon="-1.73728">
        <ele>68</ele>
        <time>2022-04-10T10:59:36Z</time>
      </trkpt>
      <trkpt lat="47.05236" lon="-1.73713">
        <ele>67</ele>
        <time>2022-04-10T10:59:38Z</time>
      </trkpt>
      <trkpt lat="47.05237" lon="-1.73698">
        <ele>67</ele>
        <time>2022-04-10T10:59:40Z</time>
      </trkpt>
      <trkpt lat="47.05238" lon="-1.73683">
        <ele>67</ele>
        <time>2022-04-10T10:59:42Z</time>
      </trkpt>
      <trkpt lat="47.0524" lon="-1.73668">
        <ele>66</ele>
        <time>2022-04-10T10:59:44Z</time>
      </trkpt>
      <trkpt lat="47.05243" lon="-1.73653">
        <ele>65</ele>
        <time>2022-04-10T10:59:46Z</time>
      </trkpt>
      <trkpt lat="47.05247" lon="-1.73638">
        <ele>65</ele>
        <time>2022-04-10T10:59:48Z</time>
      </trkpt>
      <trkpt lat="47.05251" lon="-1.73624">
        <ele>65</ele>
        <time>2022-04-10T10:59:50Z</time>
      </trkpt>
      <trkpt lat="47.05255" lon="-1.73609">
        <ele>64</ele>
        <time>2022-04-10T10:59:52Z</time>
      </trkpt>
      <trkpt lat="47.05261" lon="-1.73594">
        <ele>63</ele>
        <time>2022-04-10T10:59:54Z</time>
      </trkpt>
      <trkpt lat="47.05266" lon="-1.73577">
        <ele>63</ele>
        <time>2022-04-10T10:59:56Z</time>
      </trkpt>
      <trkpt lat="47.05272" lon="-1.73559">
        <ele>63</ele>
        <time>2022-04-10T10:59:58Z</time>
      </trkpt>
      <trkpt lat="47.05278" lon="-1.73542">
        <ele>62</ele>
        <time>2022-04-10T11:00:00Z</time>
      </trkpt>
      <trkpt lat="47.05284" lon="-1.73524">
        <ele>62</ele>
        <time>2022-04-10T11:00:02Z</time>
      </trkpt>
      <trkpt lat="47.05291" lon="-1.73506">
        <ele>61</ele>
        <time>2022-04-10T11:00:04Z</time>
      </trkpt>
      <trkpt lat="47.05296" lon="-1.73487">
        <ele>61</ele>
        <time>2022-04-10T11:00:06Z</time>
      </trkpt>
      <trkpt lat="47.05302" lon="-1.73469">
        <ele>61</ele>
        <time>2022-04-10T11:00:08Z</time>
      </trkpt>
      <trkpt lat="47.05306" lon="-1.7345">
        <ele>61</ele>
        <time>2022-04-10T11:00:10Z</time>
      </trkpt>
      <trkpt lat="47.05309" lon="-1.73431">
        <ele>61</ele>
        <time>2022-04-10T11:00:12Z</time>
      </trkpt>
      <trkpt lat="47.05313" lon="-1.73412">
        <ele>61</ele>
        <time>2022-04-10T11:00:14Z</time>
      </trkpt>
      <trkpt lat="47.05316" lon="-1.73392">
        <ele>61</ele>
        <time>2022-04-10T11:00:16Z</time>
      </trkpt>
      <trkpt lat="47.05318" lon="-1.73374">
        <ele>61</ele>
        <time>2022-04-10T11:00:18Z</time>
      </trkpt>
      <trkpt lat="47.0532" lon="-1.73355">
        <ele>61</ele>
        <time>2022-04-10T11:00:20Z</time>
      </trkpt>
      <trkpt lat="47.05322" lon="-1.73336">
        <ele>62</ele>
        <time>2022-04-10T11:00:22Z</time>
      </trkpt>
      <trkpt lat="47.05324" lon="-1.73317">
        <ele>61</ele>
        <time>2022-04-10T11:00:24Z</time>
      </trkpt>
      <trkpt lat="47.05326" lon="-1.73298">
        <ele>62</ele>
        <time>2022-04-10T11:00:26Z</time>
      </trkpt>
      <trkpt lat="47.05327" lon="-1.73281">
        <ele>62</ele>
        <time>2022-04-10T11:00:28Z</time>
      </trkpt>
      <trkpt lat="47.05326" lon="-1.73264">
        <ele>62</ele>
        <time>2022-04-10T11:00:30Z</time>
      </trkpt>
      <trkpt lat="47.05324" lon="-1.73249">
        <ele>64</ele>
        <time>2022-04-10T11:00:32Z</time>
      </trkpt>
      <trkpt lat="47.05322" lon="-1.73233">
        <ele>64</ele>
        <time>2022-04-10T11:00:34Z</time>
      </trkpt>
      <trkpt lat="47.0532" lon="-1.73217">
        <ele>63</ele>
        <time>2022-04-10T11:00:36Z</time>
      </trkpt>
      <trkpt lat="47.05317" lon="-1.73201">
        <ele>63</ele>
        <time>2022-04-10T11:00:38Z</time>
      </trkpt>
      <trkpt lat="47.05314" lon="-1.73186">
        <ele>63</ele>
        <time>2022-04-10T11:00:40Z</time>
      </trkpt>
      <trkpt lat="47.05311" lon="-1.7317">
        <ele>64</ele>
        <time>2022-04-10T11:00:42Z</time>
      </trkpt>
      <trkpt lat="47.05309" lon="-1.73155">
        <ele>64</ele>
        <time>2022-04-10T11:00:44Z</time>
      </trkpt>
      <trkpt lat="47.05306" lon="-1.7314">
        <ele>64</ele>
        <time>2022-04-10T11:00:46Z</time>
      </trkpt>
      <trkpt lat="47.05311" lon="-1.73127">
        <ele>64</ele>
        <time>2022-04-10T11:00:48Z</time>
      </trkpt>
      <trkpt lat="47.05321" lon="-1.7312">
        <ele>63</ele>
        <time>2022-04-10T11:00:50Z</time>
      </trkpt>
      <trkpt lat="47.05329" lon="-1.73109">
        <ele>64</ele>
        <time>2022-04-10T11:00:52Z</time>
      </trkpt>
      <trkpt lat="47.05337" lon="-1.73097">
        <ele>64</ele>
        <time>2022-04-10T11:00:54Z</time>
      </trkpt>
      <trkpt lat="47.05345" lon="-1.73084">
        <ele>64</ele>
        <time>2022-04-10T11:00:56Z</time>
      </trkpt>
      <trkpt lat="47.05353" lon="-1.73072">
        <ele>64</ele>
        <time>2022-04-10T11:00:58Z</time>
      </trkpt>
      <trkpt lat="47.0536" lon="-1.73059">
        <ele>64</ele>
        <time>2022-04-10T11:01:00Z</time>
      </trkpt>
      <trkpt lat="47.05368" lon="-1.73046">
        <ele>65</ele>
        <time>2022-04-10T11:01:02Z</time>
      </trkpt>
      <trkpt lat="47.05376" lon="-1.73034">
        <ele>65</ele>
        <time>2022-04-10T11:01:04Z</time>
      </trkpt>
      <trkpt lat="47.05383" lon="-1.73022">
        <ele>65</ele>
        <time>2022-04-10T11:01:06Z</time>
      </trkpt>
      <trkpt lat="47.05391" lon="-1.73009">
        <ele>65</ele>
        <time>2022-04-10T11:01:08Z</time>
      </trkpt>
      <trkpt lat="47.05398" lon="-1.72996">
        <ele>66</ele>
        <time>2022-04-10T11:01:10Z</time>
      </trkpt>
      <trkpt lat="47.05405" lon="-1.72982">
        <ele>66</ele>
        <time>2022-04-10T11:01:12Z</time>
      </trkpt>
      <trkpt lat="47.05411" lon="-1.72968">
        <ele>66</ele>
        <time>2022-04-10T11:01:14Z</time>
      </trkpt>
      <trkpt lat="47.05417" lon="-1.72954">
        <ele>66</ele>
        <time>2022-04-10T11:01:16Z</time>
      </trkpt>
      <trkpt lat="47.05424" lon="-1.7294">
        <ele>66</ele>
        <time>2022-04-10T11:01:18Z</time>
      </trkpt>
      <trkpt lat="47.0543" lon="-1.72926">
        <ele>66</ele>
        <time>2022-04-10T11:01:20Z</time>
      </trkpt>
      <trkpt lat="47.05436" lon="-1.72912">
        <ele>66</ele>
        <time>2022-04-10T11:01:22Z</time>
      </trkpt>
      <trkpt lat="47.05443" lon="-1.72898">
        <ele>66</ele>
        <time>2022-04-10T11:01:24Z</time>
      </trkpt>
      <trkpt lat="47.05452" lon="-1.72886">
        <ele>66</ele>
        <time>2022-04-10T11:01:26Z</time>
      </trkpt>
      <trkpt lat="47.05461" lon="-1.72874">
        <ele>65</ele>
        <time>2022-04-10T11:01:28Z</time>
      </trkpt>
      <trkpt lat="47.0547" lon="-1.72861">
        <ele>65</ele>
        <time>2022-04-10T11:01:30Z</time>
      </trkpt>
      <trkpt lat="47.05479" lon="-1.7285">
        <ele>65</ele>
        <time>2022-04-10T11:01:32Z</time>
      </trkpt>
      <trkpt lat="47.05486" lon="-1.72838">
        <ele>64</ele>
        <time>2022-04-10T11:01:34Z</time>
      </trkpt>
      <trkpt lat="47.05494" lon="-1.72825">
        <ele>64</ele>
        <time>2022-04-10T11:01:36Z</time>
      </trkpt>
      <trkpt lat="47.05502" lon="-1.72811">
        <ele>63</ele>
        <time>2022-04-10T11:01:38Z</time>
      </trkpt>
      <trkpt lat="47.05508" lon="-1.72799">
        <ele>63</ele>
        <time>2022-04-10T11:01:40Z</time>
      </trkpt>
      <trkpt lat="47.05514" lon="-1.72787">
        <ele>63</ele>
        <time>2022-04-10T11:01:42Z</time>
      </trkpt>
      <trkpt lat="47.0552" lon="-1.72773">
        <ele>63</ele>
        <time>2022-04-10T11:01:44Z</time>
      </trkpt>
      <trkpt lat="47.05523" lon="-1.72756">
        <ele>63</ele>
        <time>2022-04-10T11:01:46Z</time>
      </trkpt>
      <trkpt lat="47.05525" lon="-1.72738">
        <ele>63</ele>
        <time>2022-04-10T11:01:48Z</time>
      </trkpt>
      <trkpt lat="47.05527" lon="-1.72721">
        <ele>62</ele>
        <time>2022-04-10T11:01:50Z</time>
      </trkpt>
      <trkpt lat="47.05528" lon="-1.72705">
        <ele>63</ele>
        <time>2022-04-10T11:01:52Z</time>
      </trkpt>
      <trkpt lat="47.05531" lon="-1.72689">
        <ele>63</ele>
        <time>2022-04-10T11:01:54Z</time>
      </trkpt>
      <trkpt lat="47.05534" lon="-1.72674">
        <ele>63</ele>
        <time>2022-04-10T11:01:56Z</time>
      </trkpt>
      <trkpt lat="47.05537" lon="-1.72658">
        <ele>63</ele>
        <time>2022-04-10T11:01:59Z</time>
      </trkpt>
      <trkpt lat="47.0555" lon="-1.72652">
        <ele>62</ele>
        <time>2022-04-10T11:02:02Z</time>
      </trkpt>
      <trkpt lat="47.0556" lon="-1.72652">
        <ele>62</ele>
        <time>2022-04-10T11:02:04Z</time>
      </trkpt>
      <trkpt lat="47.0557" lon="-1.72653">
        <ele>63</ele>
        <time>2022-04-10T11:02:06Z</time>
      </trkpt>
      <trkpt lat="47.0558" lon="-1.72648">
        <ele>63</ele>
        <time>2022-04-10T11:02:09Z</time>
      </trkpt>
      <trkpt lat="47.05587" lon="-1.7264">
        <ele>63</ele>
        <time>2022-04-10T11:02:15Z</time>
      </trkpt>
      <trkpt lat="47.05581" lon="-1.72629">
        <ele>66</ele>
        <time>2022-04-10T11:02:23Z</time>
      </trkpt>
      <trkpt lat="47.05576" lon="-1.72618">
        <ele>67</ele>
        <time>2022-04-10T11:02:40Z</time>
      </trkpt>
      <trkpt lat="47.05572" lon="-1.72602">
        <ele>67</ele>
        <time>2022-04-10T11:02:43Z</time>
      </trkpt>
      <trkpt lat="47.05569" lon="-1.72587">
        <ele>68</ele>
        <time>2022-04-10T11:02:45Z</time>
      </trkpt>
      <trkpt lat="47.05566" lon="-1.72572">
        <ele>68</ele>
        <time>2022-04-10T11:02:47Z</time>
      </trkpt>
      <trkpt lat="47.05562" lon="-1.72556">
        <ele>68</ele>
        <time>2022-04-10T11:02:49Z</time>
      </trkpt>
      <trkpt lat="47.05559" lon="-1.7254">
        <ele>68</ele>
        <time>2022-04-10T11:02:51Z</time>
      </trkpt>
      <trkpt lat="47.05556" lon="-1.72524">
        <ele>68</ele>
        <time>2022-04-10T11:02:53Z</time>
      </trkpt>
      <trkpt lat="47.05552" lon="-1.72508">
        <ele>68</ele>
        <time>2022-04-10T11:02:55Z</time>
      </trkpt>
      <trkpt lat="47.05548" lon="-1.72492">
        <ele>69</ele>
        <time>2022-04-10T11:02:57Z</time>
      </trkpt>
      <trkpt lat="47.05544" lon="-1.72475">
        <ele>69</ele>
        <time>2022-04-10T11:02:59Z</time>
      </trkpt>
      <trkpt lat="47.0554" lon="-1.7246">
        <ele>69</ele>
        <time>2022-04-10T11:03:01Z</time>
      </trkpt>
      <trkpt lat="47.05535" lon="-1.72444">
        <ele>69</ele>
        <time>2022-04-10T11:03:03Z</time>
      </trkpt>
      <trkpt lat="47.05531" lon="-1.72428">
        <ele>69</ele>
        <time>2022-04-10T11:03:05Z</time>
      </trkpt>
      <trkpt lat="47.05527" lon="-1.72414">
        <ele>68</ele>
        <time>2022-04-10T11:03:07Z</time>
      </trkpt>
      <trkpt lat="47.05523" lon="-1.724">
        <ele>68</ele>
        <time>2022-04-10T11:03:09Z</time>
      </trkpt>
      <trkpt lat="47.05519" lon="-1.72386">
        <ele>68</ele>
        <time>2022-04-10T11:03:11Z</time>
      </trkpt>
      <trkpt lat="47.05515" lon="-1.7237">
        <ele>68</ele>
        <time>2022-04-10T11:03:13Z</time>
      </trkpt>
      <trkpt lat="47.05511" lon="-1.72356">
        <ele>69</ele>
        <time>2022-04-10T11:03:15Z</time>
      </trkpt>
      <trkpt lat="47.05507" lon="-1.72341">
        <ele>69</ele>
        <time>2022-04-10T11:03:17Z</time>
      </trkpt>
      <trkpt lat="47.05502" lon="-1.72326">
        <ele>68</ele>
        <time>2022-04-10T11:03:19Z</time>
      </trkpt>
      <trkpt lat="47.05498" lon="-1.72311">
        <ele>68</ele>
        <time>2022-04-10T11:03:21Z</time>
      </trkpt>
      <trkpt lat="47.05494" lon="-1.72297">
        <ele>68</ele>
        <time>2022-04-10T11:03:23Z</time>
      </trkpt>
      <trkpt lat="47.0549" lon="-1.72281">
        <ele>68</ele>
        <time>2022-04-10T11:03:25Z</time>
      </trkpt>
      <trkpt lat="47.05486" lon="-1.72266">
        <ele>68</ele>
        <time>2022-04-10T11:03:27Z</time>
      </trkpt>
      <trkpt lat="47.05483" lon="-1.7225">
        <ele>67</ele>
        <time>2022-04-10T11:03:29Z</time>
      </trkpt>
      <trkpt lat="47.0548" lon="-1.72233">
        <ele>66</ele>
        <time>2022-04-10T11:03:31Z</time>
      </trkpt>
      <trkpt lat="47.05476" lon="-1.72215">
        <ele>66</ele>
        <time>2022-04-10T11:03:33Z</time>
      </trkpt>
      <trkpt lat="47.05472" lon="-1.72198">
        <ele>65</ele>
        <time>2022-04-10T11:03:35Z</time>
      </trkpt>
      <trkpt lat="47.05468" lon="-1.7218">
        <ele>65</ele>
        <time>2022-04-10T11:03:37Z</time>
      </trkpt>
      <trkpt lat="47.05464" lon="-1.72161">
        <ele>64</ele>
        <time>2022-04-10T11:03:39Z</time>
      </trkpt>
      <trkpt lat="47.0546" lon="-1.72142">
        <ele>63</ele>
        <time>2022-04-10T11:03:41Z</time>
      </trkpt>
      <trkpt lat="47.05456" lon="-1.72123">
        <ele>62</ele>
        <time>2022-04-10T11:03:43Z</time>
      </trkpt>
      <trkpt lat="47.05452" lon="-1.72104">
        <ele>62</ele>
        <time>2022-04-10T11:03:45Z</time>
      </trkpt>
      <trkpt lat="47.05448" lon="-1.72084">
        <ele>61</ele>
        <time>2022-04-10T11:03:47Z</time>
      </trkpt>
      <trkpt lat="47.05443" lon="-1.72065">
        <ele>61</ele>
        <time>2022-04-10T11:03:49Z</time>
      </trkpt>
      <trkpt lat="47.05439" lon="-1.72045">
        <ele>61</ele>
        <time>2022-04-10T11:03:51Z</time>
      </trkpt>
      <trkpt lat="47.05434" lon="-1.72024">
        <ele>60</ele>
        <time>2022-04-10T11:03:53Z</time>
      </trkpt>
      <trkpt lat="47.0543" lon="-1.72004">
        <ele>59</ele>
        <time>2022-04-10T11:03:55Z</time>
      </trkpt>
      <trkpt lat="47.05426" lon="-1.71984">
        <ele>60</ele>
        <time>2022-04-10T11:03:57Z</time>
      </trkpt>
      <trkpt lat="47.05422" lon="-1.71965">
        <ele>60</ele>
        <time>2022-04-10T11:03:59Z</time>
      </trkpt>
      <trkpt lat="47.05419" lon="-1.71949">
        <ele>60</ele>
        <time>2022-04-10T11:04:01Z</time>
      </trkpt>
      <trkpt lat="47.05415" lon="-1.71932">
        <ele>60</ele>
        <time>2022-04-10T11:04:03Z</time>
      </trkpt>
      <trkpt lat="47.05411" lon="-1.71916">
        <ele>59</ele>
        <time>2022-04-10T11:04:05Z</time>
      </trkpt>
      <trkpt lat="47.05408" lon="-1.71898">
        <ele>59</ele>
        <time>2022-04-10T11:04:07Z</time>
      </trkpt>
      <trkpt lat="47.05405" lon="-1.7188">
        <ele>58</ele>
        <time>2022-04-10T11:04:09Z</time>
      </trkpt>
      <trkpt lat="47.054" lon="-1.71863">
        <ele>57</ele>
        <time>2022-04-10T11:04:11Z</time>
      </trkpt>
      <trkpt lat="47.05397" lon="-1.71845">
        <ele>56</ele>
        <time>2022-04-10T11:04:13Z</time>
      </trkpt>
      <trkpt lat="47.05393" lon="-1.71826">
        <ele>56</ele>
        <time>2022-04-10T11:04:15Z</time>
      </trkpt>
      <trkpt lat="47.05389" lon="-1.71807">
        <ele>55</ele>
        <time>2022-04-10T11:04:17Z</time>
      </trkpt>
      <trkpt lat="47.05386" lon="-1.71789">
        <ele>55</ele>
        <time>2022-04-10T11:04:19Z</time>
      </trkpt>
      <trkpt lat="47.05385" lon="-1.7177">
        <ele>55</ele>
        <time>2022-04-10T11:04:21Z</time>
      </trkpt>
      <trkpt lat="47.05386" lon="-1.71751">
        <ele>55</ele>
        <time>2022-04-10T11:04:23Z</time>
      </trkpt>
      <trkpt lat="47.05386" lon="-1.71732">
        <ele>55</ele>
        <time>2022-04-10T11:04:25Z</time>
      </trkpt>
      <trkpt lat="47.05388" lon="-1.71713">
        <ele>55</ele>
        <time>2022-04-10T11:04:27Z</time>
      </trkpt>
      <trkpt lat="47.0539" lon="-1.71694">
        <ele>55</ele>
        <time>2022-04-10T11:04:29Z</time>
      </trkpt>
      <trkpt lat="47.05391" lon="-1.71676">
        <ele>54</ele>
        <time>2022-04-10T11:04:31Z</time>
      </trkpt>
      <trkpt lat="47.05393" lon="-1.71657">
        <ele>53</ele>
        <time>2022-04-10T11:04:33Z</time>
      </trkpt>
      <trkpt lat="47.05395" lon="-1.71639">
        <ele>53</ele>
        <time>2022-04-10T11:04:35Z</time>
      </trkpt>
      <trkpt lat="47.05396" lon="-1.7162">
        <ele>53</ele>
        <time>2022-04-10T11:04:37Z</time>
      </trkpt>
      <trkpt lat="47.05398" lon="-1.71601">
        <ele>52</ele>
        <time>2022-04-10T11:04:39Z</time>
      </trkpt>
      <trkpt lat="47.054" lon="-1.71583">
        <ele>52</ele>
        <time>2022-04-10T11:04:41Z</time>
      </trkpt>
      <trkpt lat="47.05401" lon="-1.71564">
        <ele>52</ele>
        <time>2022-04-10T11:04:43Z</time>
      </trkpt>
      <trkpt lat="47.05402" lon="-1.71547">
        <ele>52</ele>
        <time>2022-04-10T11:04:45Z</time>
      </trkpt>
      <trkpt lat="47.05404" lon="-1.71529">
        <ele>52</ele>
        <time>2022-04-10T11:04:47Z</time>
      </trkpt>
      <trkpt lat="47.05405" lon="-1.71512">
        <ele>52</ele>
        <time>2022-04-10T11:04:49Z</time>
      </trkpt>
      <trkpt lat="47.05407" lon="-1.71495">
        <ele>52</ele>
        <time>2022-04-10T11:04:51Z</time>
      </trkpt>
      <trkpt lat="47.05408" lon="-1.71478">
        <ele>52</ele>
        <time>2022-04-10T11:04:53Z</time>
      </trkpt>
      <trkpt lat="47.05409" lon="-1.7146">
        <ele>53</ele>
        <time>2022-04-10T11:04:55Z</time>
      </trkpt>
      <trkpt lat="47.0541" lon="-1.71443">
        <ele>53</ele>
        <time>2022-04-10T11:04:57Z</time>
      </trkpt>
      <trkpt lat="47.0541" lon="-1.71426">
        <ele>53</ele>
        <time>2022-04-10T11:04:59Z</time>
      </trkpt>
      <trkpt lat="47.0541" lon="-1.7141">
        <ele>53</ele>
        <time>2022-04-10T11:05:01Z</time>
      </trkpt>
      <trkpt lat="47.0541" lon="-1.71393">
        <ele>53</ele>
        <time>2022-04-10T11:05:03Z</time>
      </trkpt>
      <trkpt lat="47.05408" lon="-1.71376">
        <ele>53</ele>
        <time>2022-04-10T11:05:05Z</time>
      </trkpt>
      <trkpt lat="47.05405" lon="-1.71359">
        <ele>54</ele>
        <time>2022-04-10T11:05:07Z</time>
      </trkpt>
      <trkpt lat="47.05403" lon="-1.71341">
        <ele>54</ele>
        <time>2022-04-10T11:05:09Z</time>
      </trkpt>
      <trkpt lat="47.05401" lon="-1.71325">
        <ele>55</ele>
        <time>2022-04-10T11:05:11Z</time>
      </trkpt>
      <trkpt lat="47.05398" lon="-1.71308">
        <ele>55</ele>
        <time>2022-04-10T11:05:13Z</time>
      </trkpt>
      <trkpt lat="47.05396" lon="-1.71292">
        <ele>55</ele>
        <time>2022-04-10T11:05:15Z</time>
      </trkpt>
      <trkpt lat="47.05394" lon="-1.71276">
        <ele>55</ele>
        <time>2022-04-10T11:05:17Z</time>
      </trkpt>
      <trkpt lat="47.05393" lon="-1.7126">
        <ele>56</ele>
        <time>2022-04-10T11:05:19Z</time>
      </trkpt>
      <trkpt lat="47.05392" lon="-1.71243">
        <ele>56</ele>
        <time>2022-04-10T11:05:21Z</time>
      </trkpt>
      <trkpt lat="47.05392" lon="-1.71226">
        <ele>56</ele>
        <time>2022-04-10T11:05:23Z</time>
      </trkpt>
      <trkpt lat="47.05393" lon="-1.71209">
        <ele>56</ele>
        <time>2022-04-10T11:05:25Z</time>
      </trkpt>
      <trkpt lat="47.05393" lon="-1.71192">
        <ele>56</ele>
        <time>2022-04-10T11:05:27Z</time>
      </trkpt>
      <trkpt lat="47.05394" lon="-1.71175">
        <ele>56</ele>
        <time>2022-04-10T11:05:29Z</time>
      </trkpt>
      <trkpt lat="47.05396" lon="-1.71158">
        <ele>56</ele>
        <time>2022-04-10T11:05:31Z</time>
      </trkpt>
      <trkpt lat="47.05397" lon="-1.71142">
        <ele>56</ele>
        <time>2022-04-10T11:05:33Z</time>
      </trkpt>
      <trkpt lat="47.05399" lon="-1.71126">
        <ele>55</ele>
        <time>2022-04-10T11:05:35Z</time>
      </trkpt>
      <trkpt lat="47.054" lon="-1.7111">
        <ele>55</ele>
        <time>2022-04-10T11:05:37Z</time>
      </trkpt>
      <trkpt lat="47.05401" lon="-1.71094">
        <ele>54</ele>
        <time>2022-04-10T11:05:39Z</time>
      </trkpt>
      <trkpt lat="47.05403" lon="-1.71078">
        <ele>54</ele>
        <time>2022-04-10T11:05:41Z</time>
      </trkpt>
      <trkpt lat="47.05405" lon="-1.71061">
        <ele>53</ele>
        <time>2022-04-10T11:05:43Z</time>
      </trkpt>
      <trkpt lat="47.05406" lon="-1.71045">
        <ele>53</ele>
        <time>2022-04-10T11:05:45Z</time>
      </trkpt>
      <trkpt lat="47.05408" lon="-1.71029">
        <ele>53</ele>
        <time>2022-04-10T11:05:47Z</time>
      </trkpt>
      <trkpt lat="47.0541" lon="-1.71012">
        <ele>52</ele>
        <time>2022-04-10T11:05:49Z</time>
      </trkpt>
      <trkpt lat="47.05412" lon="-1.70994">
        <ele>52</ele>
        <time>2022-04-10T11:05:51Z</time>
      </trkpt>
      <trkpt lat="47.05413" lon="-1.70976">
        <ele>51</ele>
        <time>2022-04-10T11:05:53Z</time>
      </trkpt>
      <trkpt lat="47.05415" lon="-1.70958">
        <ele>51</ele>
        <time>2022-04-10T11:05:55Z</time>
      </trkpt>
      <trkpt lat="47.05417" lon="-1.70939">
        <ele>51</ele>
        <time>2022-04-10T11:05:57Z</time>
      </trkpt>
      <trkpt lat="47.05418" lon="-1.7092">
        <ele>50</ele>
        <time>2022-04-10T11:05:59Z</time>
      </trkpt>
      <trkpt lat="47.05419" lon="-1.70902">
        <ele>50</ele>
        <time>2022-04-10T11:06:01Z</time>
      </trkpt>
      <trkpt lat="47.05419" lon="-1.70882">
        <ele>50</ele>
        <time>2022-04-10T11:06:03Z</time>
      </trkpt>
      <trkpt lat="47.05419" lon="-1.70864">
        <ele>50</ele>
        <time>2022-04-10T11:06:05Z</time>
      </trkpt>
      <trkpt lat="47.05417" lon="-1.70846">
        <ele>51</ele>
        <time>2022-04-10T11:06:07Z</time>
      </trkpt>
      <trkpt lat="47.05414" lon="-1.70828">
        <ele>52</ele>
        <time>2022-04-10T11:06:09Z</time>
      </trkpt>
      <trkpt lat="47.05411" lon="-1.7081">
        <ele>51</ele>
        <time>2022-04-10T11:06:11Z</time>
      </trkpt>
      <trkpt lat="47.05408" lon="-1.70792">
        <ele>51</ele>
        <time>2022-04-10T11:06:13Z</time>
      </trkpt>
      <trkpt lat="47.05405" lon="-1.70775">
        <ele>52</ele>
        <time>2022-04-10T11:06:15Z</time>
      </trkpt>
      <trkpt lat="47.05402" lon="-1.70758">
        <ele>52</ele>
        <time>2022-04-10T11:06:17Z</time>
      </trkpt>
      <trkpt lat="47.054" lon="-1.70741">
        <ele>53</ele>
        <time>2022-04-10T11:06:19Z</time>
      </trkpt>
      <trkpt lat="47.05397" lon="-1.70724">
        <ele>53</ele>
        <time>2022-04-10T11:06:21Z</time>
      </trkpt>
      <trkpt lat="47.05394" lon="-1.70707">
        <ele>52</ele>
        <time>2022-04-10T11:06:23Z</time>
      </trkpt>
      <trkpt lat="47.05391" lon="-1.7069">
        <ele>52</ele>
        <time>2022-04-10T11:06:25Z</time>
      </trkpt>
      <trkpt lat="47.05388" lon="-1.70673">
        <ele>52</ele>
        <time>2022-04-10T11:06:27Z</time>
      </trkpt>
      <trkpt lat="47.05385" lon="-1.70657">
        <ele>53</ele>
        <time>2022-04-10T11:06:29Z</time>
      </trkpt>
      <trkpt lat="47.05383" lon="-1.7064">
        <ele>53</ele>
        <time>2022-04-10T11:06:31Z</time>
      </trkpt>
      <trkpt lat="47.0538" lon="-1.70625">
        <ele>53</ele>
        <time>2022-04-10T11:06:33Z</time>
      </trkpt>
      <trkpt lat="47.05378" lon="-1.70608">
        <ele>53</ele>
        <time>2022-04-10T11:06:35Z</time>
      </trkpt>
      <trkpt lat="47.05375" lon="-1.70592">
        <ele>53</ele>
        <time>2022-04-10T11:06:37Z</time>
      </trkpt>
      <trkpt lat="47.05372" lon="-1.70575">
        <ele>53</ele>
        <time>2022-04-10T11:06:39Z</time>
      </trkpt>
      <trkpt lat="47.0537" lon="-1.70559">
        <ele>53</ele>
        <time>2022-04-10T11:06:41Z</time>
      </trkpt>
      <trkpt lat="47.05367" lon="-1.70543">
        <ele>53</ele>
        <time>2022-04-10T11:06:43Z</time>
      </trkpt>
      <trkpt lat="47.05365" lon="-1.70527">
        <ele>52</ele>
        <time>2022-04-10T11:06:45Z</time>
      </trkpt>
      <trkpt lat="47.05362" lon="-1.70511">
        <ele>52</ele>
        <time>2022-04-10T11:06:47Z</time>
      </trkpt>
      <trkpt lat="47.05359" lon="-1.70495">
        <ele>53</ele>
        <time>2022-04-10T11:06:49Z</time>
      </trkpt>
      <trkpt lat="47.05356" lon="-1.7048">
        <ele>53</ele>
        <time>2022-04-10T11:06:51Z</time>
      </trkpt>
      <trkpt lat="47.05354" lon="-1.70465">
        <ele>53</ele>
        <time>2022-04-10T11:06:53Z</time>
      </trkpt>
      <trkpt lat="47.05351" lon="-1.7045">
        <ele>53</ele>
        <time>2022-04-10T11:06:55Z</time>
      </trkpt>
      <trkpt lat="47.05347" lon="-1.70434">
        <ele>52</ele>
        <time>2022-04-10T11:06:57Z</time>
      </trkpt>
      <trkpt lat="47.05344" lon="-1.70419">
        <ele>52</ele>
        <time>2022-04-10T11:06:59Z</time>
      </trkpt>
      <trkpt lat="47.0534" lon="-1.70404">
        <ele>52</ele>
        <time>2022-04-10T11:07:01Z</time>
      </trkpt>
      <trkpt lat="47.05336" lon="-1.70389">
        <ele>52</ele>
        <time>2022-04-10T11:07:03Z</time>
      </trkpt>
      <trkpt lat="47.05331" lon="-1.70374">
        <ele>52</ele>
        <time>2022-04-10T11:07:05Z</time>
      </trkpt>
      <trkpt lat="47.05326" lon="-1.7036">
        <ele>52</ele>
        <time>2022-04-10T11:07:07Z</time>
      </trkpt>
      <trkpt lat="47.05321" lon="-1.70345">
        <ele>52</ele>
        <time>2022-04-10T11:07:09Z</time>
      </trkpt>
      <trkpt lat="47.05316" lon="-1.70331">
        <ele>51</ele>
        <time>2022-04-10T11:07:11Z</time>
      </trkpt>
      <trkpt lat="47.0531" lon="-1.70316">
        <ele>51</ele>
        <time>2022-04-10T11:07:13Z</time>
      </trkpt>
      <trkpt lat="47.05306" lon="-1.70301">
        <ele>51</ele>
        <time>2022-04-10T11:07:15Z</time>
      </trkpt>
      <trkpt lat="47.053" lon="-1.70287">
        <ele>50</ele>
        <time>2022-04-10T11:07:17Z</time>
      </trkpt>
      <trkpt lat="47.05294" lon="-1.70273">
        <ele>50</ele>
        <time>2022-04-10T11:07:19Z</time>
      </trkpt>
      <trkpt lat="47.05289" lon="-1.70258">
        <ele>49</ele>
        <time>2022-04-10T11:07:21Z</time>
      </trkpt>
      <trkpt lat="47.05283" lon="-1.70243">
        <ele>49</ele>
        <time>2022-04-10T11:07:23Z</time>
      </trkpt>
      <trkpt lat="47.05277" lon="-1.70227">
        <ele>48</ele>
        <time>2022-04-10T11:07:25Z</time>
      </trkpt>
      <trkpt lat="47.05271" lon="-1.70211">
        <ele>48</ele>
        <time>2022-04-10T11:07:27Z</time>
      </trkpt>
      <trkpt lat="47.05265" lon="-1.70196">
        <ele>47</ele>
        <time>2022-04-10T11:07:29Z</time>
      </trkpt>
      <trkpt lat="47.05259" lon="-1.7018">
        <ele>47</ele>
        <time>2022-04-10T11:07:31Z</time>
      </trkpt>
      <trkpt lat="47.05254" lon="-1.70165">
        <ele>47</ele>
        <time>2022-04-10T11:07:33Z</time>
      </trkpt>
      <trkpt lat="47.05248" lon="-1.70149">
        <ele>46</ele>
        <time>2022-04-10T11:07:35Z</time>
      </trkpt>
      <trkpt lat="47.05242" lon="-1.70132">
        <ele>46</ele>
        <time>2022-04-10T11:07:37Z</time>
      </trkpt>
      <trkpt lat="47.05235" lon="-1.70115">
        <ele>46</ele>
        <time>2022-04-10T11:07:39Z</time>
      </trkpt>
      <trkpt lat="47.05229" lon="-1.70099">
        <ele>46</ele>
        <time>2022-04-10T11:07:41Z</time>
      </trkpt>
      <trkpt lat="47.05223" lon="-1.70083">
        <ele>46</ele>
        <time>2022-04-10T11:07:43Z</time>
      </trkpt>
      <trkpt lat="47.05217" lon="-1.70066">
        <ele>45</ele>
        <time>2022-04-10T11:07:45Z</time>
      </trkpt>
      <trkpt lat="47.05211" lon="-1.70049">
        <ele>45</ele>
        <time>2022-04-10T11:07:47Z</time>
      </trkpt>
      <trkpt lat="47.05205" lon="-1.70032">
        <ele>45</ele>
        <time>2022-04-10T11:07:49Z</time>
      </trkpt>
      <trkpt lat="47.05198" lon="-1.70016">
        <ele>45</ele>
        <time>2022-04-10T11:07:51Z</time>
      </trkpt>
      <trkpt lat="47.05192" lon="-1.69999">
        <ele>45</ele>
        <time>2022-04-10T11:07:53Z</time>
      </trkpt>
      <trkpt lat="47.05187" lon="-1.69984">
        <ele>44</ele>
        <time>2022-04-10T11:07:55Z</time>
      </trkpt>
      <trkpt lat="47.0518" lon="-1.69969">
        <ele>45</ele>
        <time>2022-04-10T11:07:57Z</time>
      </trkpt>
      <trkpt lat="47.05174" lon="-1.69953">
        <ele>45</ele>
        <time>2022-04-10T11:07:59Z</time>
      </trkpt>
      <trkpt lat="47.05168" lon="-1.69939">
        <ele>45</ele>
        <time>2022-04-10T11:08:01Z</time>
      </trkpt>
      <trkpt lat="47.05163" lon="-1.69923">
        <ele>45</ele>
        <time>2022-04-10T11:08:03Z</time>
      </trkpt>
      <trkpt lat="47.0516" lon="-1.69907">
        <ele>45</ele>
        <time>2022-04-10T11:08:05Z</time>
      </trkpt>
      <trkpt lat="47.05158" lon="-1.6989">
        <ele>44</ele>
        <time>2022-04-10T11:08:07Z</time>
      </trkpt>
      <trkpt lat="47.05157" lon="-1.69873">
        <ele>44</ele>
        <time>2022-04-10T11:08:09Z</time>
      </trkpt>
      <trkpt lat="47.05154" lon="-1.69855">
        <ele>45</ele>
        <time>2022-04-10T11:08:11Z</time>
      </trkpt>
      <trkpt lat="47.05149" lon="-1.69839">
        <ele>44</ele>
        <time>2022-04-10T11:08:13Z</time>
      </trkpt>
      <trkpt lat="47.05144" lon="-1.69825">
        <ele>44</ele>
        <time>2022-04-10T11:08:15Z</time>
      </trkpt>
      <trkpt lat="47.05138" lon="-1.69812">
        <ele>44</ele>
        <time>2022-04-10T11:08:17Z</time>
      </trkpt>
      <trkpt lat="47.05131" lon="-1.698">
        <ele>44</ele>
        <time>2022-04-10T11:08:19Z</time>
      </trkpt>
      <trkpt lat="47.05123" lon="-1.69789">
        <ele>44</ele>
        <time>2022-04-10T11:08:21Z</time>
      </trkpt>
      <trkpt lat="47.05115" lon="-1.69779">
        <ele>45</ele>
        <time>2022-04-10T11:08:23Z</time>
      </trkpt>
      <trkpt lat="47.05106" lon="-1.69769">
        <ele>45</ele>
        <time>2022-04-10T11:08:25Z</time>
      </trkpt>
      <trkpt lat="47.05098" lon="-1.69759">
        <ele>45</ele>
        <time>2022-04-10T11:08:27Z</time>
      </trkpt>
      <trkpt lat="47.05089" lon="-1.69748">
        <ele>45</ele>
        <time>2022-04-10T11:08:29Z</time>
      </trkpt>
      <trkpt lat="47.0508" lon="-1.69738">
        <ele>45</ele>
        <time>2022-04-10T11:08:31Z</time>
      </trkpt>
      <trkpt lat="47.05072" lon="-1.69727">
        <ele>45</ele>
        <time>2022-04-10T11:08:33Z</time>
      </trkpt>
      <trkpt lat="47.05064" lon="-1.69717">
        <ele>46</ele>
        <time>2022-04-10T11:08:35Z</time>
      </trkpt>
      <trkpt lat="47.05055" lon="-1.69707">
        <ele>47</ele>
        <time>2022-04-10T11:08:37Z</time>
      </trkpt>
      <trkpt lat="47.05047" lon="-1.69697">
        <ele>47</ele>
        <time>2022-04-10T11:08:39Z</time>
      </trkpt>
      <trkpt lat="47.05039" lon="-1.69686">
        <ele>47</ele>
        <time>2022-04-10T11:08:41Z</time>
      </trkpt>
      <trkpt lat="47.0503" lon="-1.69676">
        <ele>47</ele>
        <time>2022-04-10T11:08:43Z</time>
      </trkpt>
      <trkpt lat="47.05022" lon="-1.69665">
        <ele>47</ele>
        <time>2022-04-10T11:08:45Z</time>
      </trkpt>
      <trkpt lat="47.05015" lon="-1.69655">
        <ele>47</ele>
        <time>2022-04-10T11:08:47Z</time>
      </trkpt>
      <trkpt lat="47.05007" lon="-1.69642">
        <ele>47</ele>
        <time>2022-04-10T11:08:49Z</time>
      </trkpt>
      <trkpt lat="47.05001" lon="-1.69629">
        <ele>48</ele>
        <time>2022-04-10T11:08:51Z</time>
      </trkpt>
      <trkpt lat="47.04996" lon="-1.69615">
        <ele>48</ele>
        <time>2022-04-10T11:08:53Z</time>
      </trkpt>
      <trkpt lat="47.04991" lon="-1.696">
        <ele>48</ele>
        <time>2022-04-10T11:08:55Z</time>
      </trkpt>
      <trkpt lat="47.04986" lon="-1.69585">
        <ele>49</ele>
        <time>2022-04-10T11:08:57Z</time>
      </trkpt>
      <trkpt lat="47.04982" lon="-1.6957">
        <ele>50</ele>
        <time>2022-04-10T11:08:59Z</time>
      </trkpt>
      <trkpt lat="47.04977" lon="-1.69553">
        <ele>50</ele>
        <time>2022-04-10T11:09:01Z</time>
      </trkpt>
      <trkpt lat="47.04972" lon="-1.69537">
        <ele>50</ele>
        <time>2022-04-10T11:09:03Z</time>
      </trkpt>
      <trkpt lat="47.04968" lon="-1.6952">
        <ele>50</ele>
        <time>2022-04-10T11:09:05Z</time>
      </trkpt>
      <trkpt lat="47.04964" lon="-1.69503">
        <ele>50</ele>
        <time>2022-04-10T11:09:07Z</time>
      </trkpt>
      <trkpt lat="47.0496" lon="-1.69487">
        <ele>50</ele>
        <time>2022-04-10T11:09:09Z</time>
      </trkpt>
      <trkpt lat="47.04956" lon="-1.69471">
        <ele>50</ele>
        <time>2022-04-10T11:09:11Z</time>
      </trkpt>
      <trkpt lat="47.04952" lon="-1.69454">
        <ele>49</ele>
        <time>2022-04-10T11:09:13Z</time>
      </trkpt>
      <trkpt lat="47.04948" lon="-1.69438">
        <ele>49</ele>
        <time>2022-04-10T11:09:15Z</time>
      </trkpt>
      <trkpt lat="47.04943" lon="-1.69422">
        <ele>49</ele>
        <time>2022-04-10T11:09:17Z</time>
      </trkpt>
      <trkpt lat="47.04939" lon="-1.69406">
        <ele>49</ele>
        <time>2022-04-10T11:09:19Z</time>
      </trkpt>
      <trkpt lat="47.04935" lon="-1.6939">
        <ele>49</ele>
        <time>2022-04-10T11:09:21Z</time>
      </trkpt>
      <trkpt lat="47.04931" lon="-1.69374">
        <ele>49</ele>
        <time>2022-04-10T11:09:23Z</time>
      </trkpt>
      <trkpt lat="47.04927" lon="-1.69359">
        <ele>49</ele>
        <time>2022-04-10T11:09:25Z</time>
      </trkpt>
      <trkpt lat="47.04923" lon="-1.69343">
        <ele>49</ele>
        <time>2022-04-10T11:09:27Z</time>
      </trkpt>
      <trkpt lat="47.04919" lon="-1.69328">
        <ele>49</ele>
        <time>2022-04-10T11:09:29Z</time>
      </trkpt>
      <trkpt lat="47.04915" lon="-1.69314">
        <ele>49</ele>
        <time>2022-04-10T11:09:31Z</time>
      </trkpt>
      <trkpt lat="47.04911" lon="-1.693">
        <ele>48</ele>
        <time>2022-04-10T11:09:33Z</time>
      </trkpt>
      <trkpt lat="47.04907" lon="-1.69285">
        <ele>48</ele>
        <time>2022-04-10T11:09:35Z</time>
      </trkpt>
      <trkpt lat="47.04903" lon="-1.6927">
        <ele>47</ele>
        <time>2022-04-10T11:09:37Z</time>
      </trkpt>
      <trkpt lat="47.049" lon="-1.69255">
        <ele>47</ele>
        <time>2022-04-10T11:09:39Z</time>
      </trkpt>
      <trkpt lat="47.04896" lon="-1.6924">
        <ele>47</ele>
        <time>2022-04-10T11:09:41Z</time>
      </trkpt>
      <trkpt lat="47.04892" lon="-1.69226">
        <ele>47</ele>
        <time>2022-04-10T11:09:43Z</time>
      </trkpt>
      <trkpt lat="47.04888" lon="-1.69211">
        <ele>47</ele>
        <time>2022-04-10T11:09:45Z</time>
      </trkpt>
      <trkpt lat="47.04885" lon="-1.69197">
        <ele>46</ele>
        <time>2022-04-10T11:09:47Z</time>
      </trkpt>
      <trkpt lat="47.04881" lon="-1.69182">
        <ele>46</ele>
        <time>2022-04-10T11:09:49Z</time>
      </trkpt>
      <trkpt lat="47.04877" lon="-1.69168">
        <ele>46</ele>
        <time>2022-04-10T11:09:51Z</time>
      </trkpt>
      <trkpt lat="47.04873" lon="-1.69154">
        <ele>46</ele>
        <time>2022-04-10T11:09:53Z</time>
      </trkpt>
      <trkpt lat="47.0487" lon="-1.69139">
        <ele>46</ele>
        <time>2022-04-10T11:09:55Z</time>
      </trkpt>
      <trkpt lat="47.04866" lon="-1.69126">
        <ele>46</ele>
        <time>2022-04-10T11:09:57Z</time>
      </trkpt>
      <trkpt lat="47.04863" lon="-1.69112">
        <ele>46</ele>
        <time>2022-04-10T11:09:59Z</time>
      </trkpt>
      <trkpt lat="47.0486" lon="-1.69099">
        <ele>45</ele>
        <time>2022-04-10T11:10:01Z</time>
      </trkpt>
      <trkpt lat="47.04856" lon="-1.69085">
        <ele>45</ele>
        <time>2022-04-10T11:10:03Z</time>
      </trkpt>
      <trkpt lat="47.04853" lon="-1.69072">
        <ele>46</ele>
        <time>2022-04-10T11:10:05Z</time>
      </trkpt>
      <trkpt lat="47.04849" lon="-1.69058">
        <ele>46</ele>
        <time>2022-04-10T11:10:07Z</time>
      </trkpt>
      <trkpt lat="47.04845" lon="-1.69044">
        <ele>46</ele>
        <time>2022-04-10T11:10:09Z</time>
      </trkpt>
      <trkpt lat="47.04841" lon="-1.6903">
        <ele>46</ele>
        <time>2022-04-10T11:10:11Z</time>
      </trkpt>
      <trkpt lat="47.04838" lon="-1.69017">
        <ele>46</ele>
        <time>2022-04-10T11:10:13Z</time>
      </trkpt>
      <trkpt lat="47.04834" lon="-1.69003">
        <ele>46</ele>
        <time>2022-04-10T11:10:15Z</time>
      </trkpt>
      <trkpt lat="47.04831" lon="-1.68989">
        <ele>46</ele>
        <time>2022-04-10T11:10:17Z</time>
      </trkpt>
      <trkpt lat="47.04827" lon="-1.68976">
        <ele>46</ele>
        <time>2022-04-10T11:10:19Z</time>
      </trkpt>
      <trkpt lat="47.04824" lon="-1.68962">
        <ele>46</ele>
        <time>2022-04-10T11:10:21Z</time>
      </trkpt>
      <trkpt lat="47.0482" lon="-1.68948">
        <ele>46</ele>
        <time>2022-04-10T11:10:23Z</time>
      </trkpt>
      <trkpt lat="47.04817" lon="-1.68934">
        <ele>46</ele>
        <time>2022-04-10T11:10:25Z</time>
      </trkpt>
      <trkpt lat="47.04813" lon="-1.6892">
        <ele>46</ele>
        <time>2022-04-10T11:10:27Z</time>
      </trkpt>
      <trkpt lat="47.04809" lon="-1.68906">
        <ele>46</ele>
        <time>2022-04-10T11:10:29Z</time>
      </trkpt>
      <trkpt lat="47.04806" lon="-1.68892">
        <ele>46</ele>
        <time>2022-04-10T11:10:31Z</time>
      </trkpt>
      <trkpt lat="47.04802" lon="-1.68878">
        <ele>46</ele>
        <time>2022-04-10T11:10:33Z</time>
      </trkpt>
      <trkpt lat="47.04798" lon="-1.68863">
        <ele>46</ele>
        <time>2022-04-10T11:10:35Z</time>
      </trkpt>
      <trkpt lat="47.04794" lon="-1.68848">
        <ele>46</ele>
        <time>2022-04-10T11:10:37Z</time>
      </trkpt>
      <trkpt lat="47.0479" lon="-1.68834">
        <ele>47</ele>
        <time>2022-04-10T11:10:39Z</time>
      </trkpt>
      <trkpt lat="47.04786" lon="-1.6882">
        <ele>47</ele>
        <time>2022-04-10T11:10:41Z</time>
      </trkpt>
      <trkpt lat="47.04782" lon="-1.68807">
        <ele>48</ele>
        <time>2022-04-10T11:10:43Z</time>
      </trkpt>
      <trkpt lat="47.04778" lon="-1.68793">
        <ele>48</ele>
        <time>2022-04-10T11:10:45Z</time>
      </trkpt>
      <trkpt lat="47.04774" lon="-1.68779">
        <ele>49</ele>
        <time>2022-04-10T11:10:47Z</time>
      </trkpt>
      <trkpt lat="47.0477" lon="-1.68764">
        <ele>50</ele>
        <time>2022-04-10T11:10:49Z</time>
      </trkpt>
      <trkpt lat="47.04766" lon="-1.6875">
        <ele>51</ele>
        <time>2022-04-10T11:10:51Z</time>
      </trkpt>
      <trkpt lat="47.04762" lon="-1.68736">
        <ele>51</ele>
        <time>2022-04-10T11:10:53Z</time>
      </trkpt>
      <trkpt lat="47.04759" lon="-1.68721">
        <ele>51</ele>
        <time>2022-04-10T11:10:55Z</time>
      </trkpt>
      <trkpt lat="47.04755" lon="-1.68707">
        <ele>51</ele>
        <time>2022-04-10T11:10:57Z</time>
      </trkpt>
      <trkpt lat="47.04751" lon="-1.68693">
        <ele>51</ele>
        <time>2022-04-10T11:10:59Z</time>
      </trkpt>
      <trkpt lat="47.04747" lon="-1.68679">
        <ele>51</ele>
        <time>2022-04-10T11:11:01Z</time>
      </trkpt>
      <trkpt lat="47.04743" lon="-1.68665">
        <ele>51</ele>
        <time>2022-04-10T11:11:03Z</time>
      </trkpt>
      <trkpt lat="47.0474" lon="-1.68652">
        <ele>51</ele>
        <time>2022-04-10T11:11:05Z</time>
      </trkpt>
      <trkpt lat="47.04736" lon="-1.68637">
        <ele>51</ele>
        <time>2022-04-10T11:11:07Z</time>
      </trkpt>
      <trkpt lat="47.04733" lon="-1.68623">
        <ele>51</ele>
        <time>2022-04-10T11:11:09Z</time>
      </trkpt>
      <trkpt lat="47.04729" lon="-1.68609">
        <ele>51</ele>
        <time>2022-04-10T11:11:11Z</time>
      </trkpt>
      <trkpt lat="47.04726" lon="-1.68595">
        <ele>51</ele>
        <time>2022-04-10T11:11:13Z</time>
      </trkpt>
      <trkpt lat="47.04722" lon="-1.68581">
        <ele>51</ele>
        <time>2022-04-10T11:11:15Z</time>
      </trkpt>
      <trkpt lat="47.04719" lon="-1.68567">
        <ele>51</ele>
        <time>2022-04-10T11:11:17Z</time>
      </trkpt>
      <trkpt lat="47.04715" lon="-1.68553">
        <ele>51</ele>
        <time>2022-04-10T11:11:19Z</time>
      </trkpt>
      <trkpt lat="47.04711" lon="-1.68539">
        <ele>51</ele>
        <time>2022-04-10T11:11:21Z</time>
      </trkpt>
      <trkpt lat="47.04708" lon="-1.68525">
        <ele>51</ele>
        <time>2022-04-10T11:11:23Z</time>
      </trkpt>
      <trkpt lat="47.04704" lon="-1.68511">
        <ele>52</ele>
        <time>2022-04-10T11:11:25Z</time>
      </trkpt>
      <trkpt lat="47.047" lon="-1.68498">
        <ele>52</ele>
        <time>2022-04-10T11:11:27Z</time>
      </trkpt>
      <trkpt lat="47.04697" lon="-1.68485">
        <ele>52</ele>
        <time>2022-04-10T11:11:29Z</time>
      </trkpt>
      <trkpt lat="47.04694" lon="-1.68471">
        <ele>52</ele>
        <time>2022-04-10T11:11:31Z</time>
      </trkpt>
      <trkpt lat="47.0469" lon="-1.68457">
        <ele>51</ele>
        <time>2022-04-10T11:11:33Z</time>
      </trkpt>
      <trkpt lat="47.04687" lon="-1.68444">
        <ele>51</ele>
        <time>2022-04-10T11:11:35Z</time>
      </trkpt>
      <trkpt lat="47.04683" lon="-1.6843">
        <ele>50</ele>
        <time>2022-04-10T11:11:37Z</time>
      </trkpt>
      <trkpt lat="47.0468" lon="-1.68416">
        <ele>50</ele>
        <time>2022-04-10T11:11:39Z</time>
      </trkpt>
      <trkpt lat="47.04676" lon="-1.68401">
        <ele>50</ele>
        <time>2022-04-10T11:11:41Z</time>
      </trkpt>
      <trkpt lat="47.04673" lon="-1.68387">
        <ele>49</ele>
        <time>2022-04-10T11:11:43Z</time>
      </trkpt>
      <trkpt lat="47.04668" lon="-1.68373">
        <ele>49</ele>
        <time>2022-04-10T11:11:45Z</time>
      </trkpt>
      <trkpt lat="47.04665" lon="-1.68359">
        <ele>49</ele>
        <time>2022-04-10T11:11:47Z</time>
      </trkpt>
      <trkpt lat="47.04661" lon="-1.68345">
        <ele>49</ele>
        <time>2022-04-10T11:11:49Z</time>
      </trkpt>
      <trkpt lat="47.04657" lon="-1.6833">
        <ele>49</ele>
        <time>2022-04-10T11:11:51Z</time>
      </trkpt>
      <trkpt lat="47.04654" lon="-1.68316">
        <ele>49</ele>
        <time>2022-04-10T11:11:53Z</time>
      </trkpt>
      <trkpt lat="47.0465" lon="-1.68301">
        <ele>48</ele>
        <time>2022-04-10T11:11:55Z</time>
      </trkpt>
      <trkpt lat="47.04646" lon="-1.68287">
        <ele>48</ele>
        <time>2022-04-10T11:11:57Z</time>
      </trkpt>
      <trkpt lat="47.04642" lon="-1.68271">
        <ele>48</ele>
        <time>2022-04-10T11:11:59Z</time>
      </trkpt>
      <trkpt lat="47.04638" lon="-1.68256">
        <ele>48</ele>
        <time>2022-04-10T11:12:01Z</time>
      </trkpt>
      <trkpt lat="47.04635" lon="-1.68242">
        <ele>48</ele>
        <time>2022-04-10T11:12:03Z</time>
      </trkpt>
      <trkpt lat="47.04631" lon="-1.68226">
        <ele>48</ele>
        <time>2022-04-10T11:12:05Z</time>
      </trkpt>
      <trkpt lat="47.04627" lon="-1.68211">
        <ele>48</ele>
        <time>2022-04-10T11:12:07Z</time>
      </trkpt>
      <trkpt lat="47.04623" lon="-1.68196">
        <ele>48</ele>
        <time>2022-04-10T11:12:09Z</time>
      </trkpt>
      <trkpt lat="47.04619" lon="-1.6818">
        <ele>47</ele>
        <time>2022-04-10T11:12:11Z</time>
      </trkpt>
      <trkpt lat="47.04615" lon="-1.68165">
        <ele>48</ele>
        <time>2022-04-10T11:12:13Z</time>
      </trkpt>
      <trkpt lat="47.04611" lon="-1.68149">
        <ele>47</ele>
        <time>2022-04-10T11:12:15Z</time>
      </trkpt>
      <trkpt lat="47.04608" lon="-1.68134">
        <ele>47</ele>
        <time>2022-04-10T11:12:17Z</time>
      </trkpt>
      <trkpt lat="47.04604" lon="-1.68119">
        <ele>47</ele>
        <time>2022-04-10T11:12:19Z</time>
      </trkpt>
      <trkpt lat="47.046" lon="-1.68104">
        <ele>47</ele>
        <time>2022-04-10T11:12:21Z</time>
      </trkpt>
      <trkpt lat="47.04596" lon="-1.68089">
        <ele>47</ele>
        <time>2022-04-10T11:12:23Z</time>
      </trkpt>
      <trkpt lat="47.04593" lon="-1.68074">
        <ele>46</ele>
        <time>2022-04-10T11:12:25Z</time>
      </trkpt>
      <trkpt lat="47.04589" lon="-1.6806">
        <ele>46</ele>
        <time>2022-04-10T11:12:27Z</time>
      </trkpt>
      <trkpt lat="47.04585" lon="-1.68046">
        <ele>47</ele>
        <time>2022-04-10T11:12:29Z</time>
      </trkpt>
      <trkpt lat="47.04582" lon="-1.68032">
        <ele>47</ele>
        <time>2022-04-10T11:12:31Z</time>
      </trkpt>
      <trkpt lat="47.04577" lon="-1.68016">
        <ele>48</ele>
        <time>2022-04-10T11:12:33Z</time>
      </trkpt>
      <trkpt lat="47.04574" lon="-1.67999">
        <ele>47</ele>
        <time>2022-04-10T11:12:35Z</time>
      </trkpt>
      <trkpt lat="47.04569" lon="-1.67984">
        <ele>47</ele>
        <time>2022-04-10T11:12:37Z</time>
      </trkpt>
      <trkpt lat="47.04566" lon="-1.6797">
        <ele>47</ele>
        <time>2022-04-10T11:12:39Z</time>
      </trkpt>
      <trkpt lat="47.04563" lon="-1.67956">
        <ele>47</ele>
        <time>2022-04-10T11:12:41Z</time>
      </trkpt>
      <trkpt lat="47.0456" lon="-1.67943">
        <ele>47</ele>
        <time>2022-04-10T11:12:43Z</time>
      </trkpt>
      <trkpt lat="47.04556" lon="-1.67929">
        <ele>47</ele>
        <time>2022-04-10T11:12:45Z</time>
      </trkpt>
      <trkpt lat="47.04553" lon="-1.67916">
        <ele>48</ele>
        <time>2022-04-10T11:12:47Z</time>
      </trkpt>
      <trkpt lat="47.04549" lon="-1.67903">
        <ele>48</ele>
        <time>2022-04-10T11:12:49Z</time>
      </trkpt>
      <trkpt lat="47.04546" lon="-1.67889">
        <ele>47</ele>
        <time>2022-04-10T11:12:51Z</time>
      </trkpt>
      <trkpt lat="47.04542" lon="-1.67875">
        <ele>47</ele>
        <time>2022-04-10T11:12:53Z</time>
      </trkpt>
      <trkpt lat="47.04538" lon="-1.67861">
        <ele>47</ele>
        <time>2022-04-10T11:12:55Z</time>
      </trkpt>
      <trkpt lat="47.04535" lon="-1.67847">
        <ele>48</ele>
        <time>2022-04-10T11:12:57Z</time>
      </trkpt>
      <trkpt lat="47.04531" lon="-1.67834">
        <ele>48</ele>
        <time>2022-04-10T11:12:59Z</time>
      </trkpt>
      <trkpt lat="47.04527" lon="-1.67822">
        <ele>48</ele>
        <time>2022-04-10T11:13:01Z</time>
      </trkpt>
      <trkpt lat="47.04524" lon="-1.67809">
        <ele>48</ele>
        <time>2022-04-10T11:13:03Z</time>
      </trkpt>
      <trkpt lat="47.0452" lon="-1.67795">
        <ele>48</ele>
        <time>2022-04-10T11:13:05Z</time>
      </trkpt>
      <trkpt lat="47.04517" lon="-1.67781">
        <ele>48</ele>
        <time>2022-04-10T11:13:07Z</time>
      </trkpt>
      <trkpt lat="47.04513" lon="-1.67768">
        <ele>48</ele>
        <time>2022-04-10T11:13:09Z</time>
      </trkpt>
      <trkpt lat="47.0451" lon="-1.67754">
        <ele>48</ele>
        <time>2022-04-10T11:13:11Z</time>
      </trkpt>
      <trkpt lat="47.04507" lon="-1.67741">
        <ele>48</ele>
        <time>2022-04-10T11:13:13Z</time>
      </trkpt>
      <trkpt lat="47.04503" lon="-1.67728">
        <ele>48</ele>
        <time>2022-04-10T11:13:15Z</time>
      </trkpt>
      <trkpt lat="47.045" lon="-1.67714">
        <ele>47</ele>
        <time>2022-04-10T11:13:17Z</time>
      </trkpt>
      <trkpt lat="47.04496" lon="-1.67702">
        <ele>47</ele>
        <time>2022-04-10T11:13:19Z</time>
      </trkpt>
      <trkpt lat="47.04493" lon="-1.67689">
        <ele>47</ele>
        <time>2022-04-10T11:13:21Z</time>
      </trkpt>
      <trkpt lat="47.0449" lon="-1.67675">
        <ele>47</ele>
        <time>2022-04-10T11:13:23Z</time>
      </trkpt>
      <trkpt lat="47.04486" lon="-1.67662">
        <ele>46</ele>
        <time>2022-04-10T11:13:25Z</time>
      </trkpt>
      <trkpt lat="47.04481" lon="-1.67642">
        <ele>46</ele>
        <time>2022-04-10T11:13:28Z</time>
      </trkpt>
      <trkpt lat="47.04478" lon="-1.67629">
        <ele>46</ele>
        <time>2022-04-10T11:13:30Z</time>
      </trkpt>
      <trkpt lat="47.04474" lon="-1.67615">
        <ele>46</ele>
        <time>2022-04-10T11:13:32Z</time>
      </trkpt>
      <trkpt lat="47.0447" lon="-1.67601">
        <ele>46</ele>
        <time>2022-04-10T11:13:34Z</time>
      </trkpt>
      <trkpt lat="47.04466" lon="-1.67587">
        <ele>46</ele>
        <time>2022-04-10T11:13:36Z</time>
      </trkpt>
      <trkpt lat="47.04463" lon="-1.67573">
        <ele>45</ele>
        <time>2022-04-10T11:13:38Z</time>
      </trkpt>
      <trkpt lat="47.04459" lon="-1.67557">
        <ele>45</ele>
        <time>2022-04-10T11:13:40Z</time>
      </trkpt>
      <trkpt lat="47.04455" lon="-1.67541">
        <ele>45</ele>
        <time>2022-04-10T11:13:42Z</time>
      </trkpt>
      <trkpt lat="47.04451" lon="-1.67525">
        <ele>45</ele>
        <time>2022-04-10T11:13:44Z</time>
      </trkpt>
      <trkpt lat="47.04447" lon="-1.67509">
        <ele>45</ele>
        <time>2022-04-10T11:13:46Z</time>
      </trkpt>
      <trkpt lat="47.04443" lon="-1.67493">
        <ele>45</ele>
        <time>2022-04-10T11:13:48Z</time>
      </trkpt>
      <trkpt lat="47.04439" lon="-1.67477">
        <ele>45</ele>
        <time>2022-04-10T11:13:50Z</time>
      </trkpt>
      <trkpt lat="47.04435" lon="-1.67462">
        <ele>44</ele>
        <time>2022-04-10T11:13:52Z</time>
      </trkpt>
      <trkpt lat="47.04431" lon="-1.67448">
        <ele>44</ele>
        <time>2022-04-10T11:13:54Z</time>
      </trkpt>
      <trkpt lat="47.04428" lon="-1.67433">
        <ele>44</ele>
        <time>2022-04-10T11:13:56Z</time>
      </trkpt>
      <trkpt lat="47.04424" lon="-1.67418">
        <ele>44</ele>
        <time>2022-04-10T11:13:58Z</time>
      </trkpt>
      <trkpt lat="47.0442" lon="-1.67404">
        <ele>45</ele>
        <time>2022-04-10T11:14:00Z</time>
      </trkpt>
      <trkpt lat="47.04417" lon="-1.67389">
        <ele>45</ele>
        <time>2022-04-10T11:14:02Z</time>
      </trkpt>
      <trkpt lat="47.04413" lon="-1.67374">
        <ele>45</ele>
        <time>2022-04-10T11:14:04Z</time>
      </trkpt>
      <trkpt lat="47.04409" lon="-1.67361">
        <ele>45</ele>
        <time>2022-04-10T11:14:06Z</time>
      </trkpt>
      <trkpt lat="47.04405" lon="-1.67347">
        <ele>45</ele>
        <time>2022-04-10T11:14:08Z</time>
      </trkpt>
      <trkpt lat="47.04401" lon="-1.67332">
        <ele>45</ele>
        <time>2022-04-10T11:14:10Z</time>
      </trkpt>
      <trkpt lat="47.04397" lon="-1.67318">
        <ele>44</ele>
        <time>2022-04-10T11:14:12Z</time>
      </trkpt>
      <trkpt lat="47.04394" lon="-1.67304">
        <ele>44</ele>
        <time>2022-04-10T11:14:14Z</time>
      </trkpt>
      <trkpt lat="47.04391" lon="-1.6729">
        <ele>44</ele>
        <time>2022-04-10T11:14:16Z</time>
      </trkpt>
      <trkpt lat="47.04387" lon="-1.67276">
        <ele>44</ele>
        <time>2022-04-10T11:14:18Z</time>
      </trkpt>
      <trkpt lat="47.04383" lon="-1.67262">
        <ele>44</ele>
        <time>2022-04-10T11:14:20Z</time>
      </trkpt>
      <trkpt lat="47.04379" lon="-1.67248">
        <ele>44</ele>
        <time>2022-04-10T11:14:22Z</time>
      </trkpt>
      <trkpt lat="47.04375" lon="-1.67233">
        <ele>44</ele>
        <time>2022-04-10T11:14:24Z</time>
      </trkpt>
      <trkpt lat="47.04372" lon="-1.67219">
        <ele>44</ele>
        <time>2022-04-10T11:14:26Z</time>
      </trkpt>
      <trkpt lat="47.04368" lon="-1.67205">
        <ele>44</ele>
        <time>2022-04-10T11:14:28Z</time>
      </trkpt>
      <trkpt lat="47.04365" lon="-1.67191">
        <ele>44</ele>
        <time>2022-04-10T11:14:30Z</time>
      </trkpt>
      <trkpt lat="47.04361" lon="-1.67177">
        <ele>44</ele>
        <time>2022-04-10T11:14:32Z</time>
      </trkpt>
      <trkpt lat="47.04357" lon="-1.67163">
        <ele>44</ele>
        <time>2022-04-10T11:14:34Z</time>
      </trkpt>
      <trkpt lat="47.04354" lon="-1.67149">
        <ele>43</ele>
        <time>2022-04-10T11:14:36Z</time>
      </trkpt>
      <trkpt lat="47.0435" lon="-1.67135">
        <ele>43</ele>
        <time>2022-04-10T11:14:38Z</time>
      </trkpt>
      <trkpt lat="47.04346" lon="-1.67121">
        <ele>43</ele>
        <time>2022-04-10T11:14:40Z</time>
      </trkpt>
      <trkpt lat="47.04342" lon="-1.67106">
        <ele>43</ele>
        <time>2022-04-10T11:14:42Z</time>
      </trkpt>
      <trkpt lat="47.04339" lon="-1.67092">
        <ele>43</ele>
        <time>2022-04-10T11:14:44Z</time>
      </trkpt>
      <trkpt lat="47.04335" lon="-1.67077">
        <ele>43</ele>
        <time>2022-04-10T11:14:46Z</time>
      </trkpt>
      <trkpt lat="47.04331" lon="-1.67062">
        <ele>42</ele>
        <time>2022-04-10T11:14:48Z</time>
      </trkpt>
      <trkpt lat="47.04328" lon="-1.67048">
        <ele>42</ele>
        <time>2022-04-10T11:14:50Z</time>
      </trkpt>
      <trkpt lat="47.04324" lon="-1.67033">
        <ele>42</ele>
        <time>2022-04-10T11:14:52Z</time>
      </trkpt>
      <trkpt lat="47.0432" lon="-1.67018">
        <ele>42</ele>
        <time>2022-04-10T11:14:54Z</time>
      </trkpt>
      <trkpt lat="47.04316" lon="-1.67003">
        <ele>42</ele>
        <time>2022-04-10T11:14:56Z</time>
      </trkpt>
      <trkpt lat="47.04313" lon="-1.66989">
        <ele>42</ele>
        <time>2022-04-10T11:14:58Z</time>
      </trkpt>
      <trkpt lat="47.04309" lon="-1.66974">
        <ele>42</ele>
        <time>2022-04-10T11:15:00Z</time>
      </trkpt>
      <trkpt lat="47.04305" lon="-1.6696">
        <ele>42</ele>
        <time>2022-04-10T11:15:02Z</time>
      </trkpt>
      <trkpt lat="47.04301" lon="-1.66946">
        <ele>42</ele>
        <time>2022-04-10T11:15:04Z</time>
      </trkpt>
      <trkpt lat="47.04298" lon="-1.66932">
        <ele>42</ele>
        <time>2022-04-10T11:15:06Z</time>
      </trkpt>
      <trkpt lat="47.04294" lon="-1.66918">
        <ele>42</ele>
        <time>2022-04-10T11:15:08Z</time>
      </trkpt>
      <trkpt lat="47.04291" lon="-1.66903">
        <ele>42</ele>
        <time>2022-04-10T11:15:10Z</time>
      </trkpt>
      <trkpt lat="47.04288" lon="-1.66889">
        <ele>42</ele>
        <time>2022-04-10T11:15:12Z</time>
      </trkpt>
      <trkpt lat="47.04284" lon="-1.66875">
        <ele>42</ele>
        <time>2022-04-10T11:15:14Z</time>
      </trkpt>
      <trkpt lat="47.0428" lon="-1.6686">
        <ele>42</ele>
        <time>2022-04-10T11:15:16Z</time>
      </trkpt>
      <trkpt lat="47.04276" lon="-1.66845">
        <ele>42</ele>
        <time>2022-04-10T11:15:18Z</time>
      </trkpt>
      <trkpt lat="47.04272" lon="-1.6683">
        <ele>42</ele>
        <time>2022-04-10T11:15:20Z</time>
      </trkpt>
      <trkpt lat="47.04268" lon="-1.66814">
        <ele>42</ele>
        <time>2022-04-10T11:15:22Z</time>
      </trkpt>
      <trkpt lat="47.04264" lon="-1.66799">
        <ele>42</ele>
        <time>2022-04-10T11:15:24Z</time>
      </trkpt>
      <trkpt lat="47.0426" lon="-1.66785">
        <ele>42</ele>
        <time>2022-04-10T11:15:26Z</time>
      </trkpt>
      <trkpt lat="47.04256" lon="-1.66771">
        <ele>42</ele>
        <time>2022-04-10T11:15:28Z</time>
      </trkpt>
      <trkpt lat="47.04252" lon="-1.66757">
        <ele>43</ele>
        <time>2022-04-10T11:15:30Z</time>
      </trkpt>
      <trkpt lat="47.04248" lon="-1.66742">
        <ele>44</ele>
        <time>2022-04-10T11:15:32Z</time>
      </trkpt>
      <trkpt lat="47.04245" lon="-1.66728">
        <ele>44</ele>
        <time>2022-04-10T11:15:34Z</time>
      </trkpt>
      <trkpt lat="47.04241" lon="-1.66713">
        <ele>44</ele>
        <time>2022-04-10T11:15:36Z</time>
      </trkpt>
      <trkpt lat="47.04237" lon="-1.66698">
        <ele>44</ele>
        <time>2022-04-10T11:15:38Z</time>
      </trkpt>
      <trkpt lat="47.04233" lon="-1.66684">
        <ele>45</ele>
        <time>2022-04-10T11:15:40Z</time>
      </trkpt>
      <trkpt lat="47.0423" lon="-1.6667">
        <ele>45</ele>
        <time>2022-04-10T11:15:42Z</time>
      </trkpt>
      <trkpt lat="47.04226" lon="-1.66656">
        <ele>45</ele>
        <time>2022-04-10T11:15:44Z</time>
      </trkpt>
      <trkpt lat="47.04222" lon="-1.66641">
        <ele>46</ele>
        <time>2022-04-10T11:15:46Z</time>
      </trkpt>
      <trkpt lat="47.04218" lon="-1.66626">
        <ele>46</ele>
        <time>2022-04-10T11:15:48Z</time>
      </trkpt>
      <trkpt lat="47.04214" lon="-1.66611">
        <ele>46</ele>
        <time>2022-04-10T11:15:50Z</time>
      </trkpt>
      <trkpt lat="47.0421" lon="-1.66597">
        <ele>46</ele>
        <time>2022-04-10T11:15:52Z</time>
      </trkpt>
      <trkpt lat="47.04207" lon="-1.66583">
        <ele>46</ele>
        <time>2022-04-10T11:15:54Z</time>
      </trkpt>
      <trkpt lat="47.04203" lon="-1.66569">
        <ele>46</ele>
        <time>2022-04-10T11:15:56Z</time>
      </trkpt>
      <trkpt lat="47.04199" lon="-1.66555">
        <ele>46</ele>
        <time>2022-04-10T11:15:58Z</time>
      </trkpt>
      <trkpt lat="47.04196" lon="-1.66542">
        <ele>46</ele>
        <time>2022-04-10T11:16:00Z</time>
      </trkpt>
      <trkpt lat="47.04192" lon="-1.66528">
        <ele>45</ele>
        <time>2022-04-10T11:16:02Z</time>
      </trkpt>
      <trkpt lat="47.04189" lon="-1.66514">
        <ele>46</ele>
        <time>2022-04-10T11:16:04Z</time>
      </trkpt>
      <trkpt lat="47.04185" lon="-1.66499">
        <ele>46</ele>
        <time>2022-04-10T11:16:06Z</time>
      </trkpt>
      <trkpt lat="47.04181" lon="-1.66485">
        <ele>45</ele>
        <time>2022-04-10T11:16:08Z</time>
      </trkpt>
      <trkpt lat="47.04178" lon="-1.6647">
        <ele>45</ele>
        <time>2022-04-10T11:16:10Z</time>
      </trkpt>
      <trkpt lat="47.04174" lon="-1.66457">
        <ele>45</ele>
        <time>2022-04-10T11:16:12Z</time>
      </trkpt>
      <trkpt lat="47.0417" lon="-1.66443">
        <ele>46</ele>
        <time>2022-04-10T11:16:14Z</time>
      </trkpt>
      <trkpt lat="47.04166" lon="-1.66429">
        <ele>46</ele>
        <time>2022-04-10T11:16:16Z</time>
      </trkpt>
      <trkpt lat="47.04163" lon="-1.66414">
        <ele>46</ele>
        <time>2022-04-10T11:16:18Z</time>
      </trkpt>
      <trkpt lat="47.04159" lon="-1.66401">
        <ele>47</ele>
        <time>2022-04-10T11:16:20Z</time>
      </trkpt>
      <trkpt lat="47.04156" lon="-1.66386">
        <ele>47</ele>
        <time>2022-04-10T11:16:22Z</time>
      </trkpt>
      <trkpt lat="47.04152" lon="-1.66371">
        <ele>47</ele>
        <time>2022-04-10T11:16:24Z</time>
      </trkpt>
      <trkpt lat="47.04148" lon="-1.66356">
        <ele>47</ele>
        <time>2022-04-10T11:16:26Z</time>
      </trkpt>
      <trkpt lat="47.04144" lon="-1.66341">
        <ele>47</ele>
        <time>2022-04-10T11:16:28Z</time>
      </trkpt>
      <trkpt lat="47.0414" lon="-1.66325">
        <ele>46</ele>
        <time>2022-04-10T11:16:30Z</time>
      </trkpt>
      <trkpt lat="47.04136" lon="-1.6631">
        <ele>46</ele>
        <time>2022-04-10T11:16:32Z</time>
      </trkpt>
      <trkpt lat="47.04132" lon="-1.66296">
        <ele>46</ele>
        <time>2022-04-10T11:16:34Z</time>
      </trkpt>
      <trkpt lat="47.04128" lon="-1.66281">
        <ele>46</ele>
        <time>2022-04-10T11:16:36Z</time>
      </trkpt>
      <trkpt lat="47.04124" lon="-1.66266">
        <ele>46</ele>
        <time>2022-04-10T11:16:38Z</time>
      </trkpt>
      <trkpt lat="47.04121" lon="-1.66251">
        <ele>46</ele>
        <time>2022-04-10T11:16:40Z</time>
      </trkpt>
      <trkpt lat="47.04117" lon="-1.66236">
        <ele>46</ele>
        <time>2022-04-10T11:16:42Z</time>
      </trkpt>
      <trkpt lat="47.04113" lon="-1.66221">
        <ele>47</ele>
        <time>2022-04-10T11:16:44Z</time>
      </trkpt>
      <trkpt lat="47.0411" lon="-1.66206">
        <ele>47</ele>
        <time>2022-04-10T11:16:46Z</time>
      </trkpt>
      <trkpt lat="47.04106" lon="-1.66191">
        <ele>47</ele>
        <time>2022-04-10T11:16:48Z</time>
      </trkpt>
      <trkpt lat="47.04102" lon="-1.66177">
        <ele>47</ele>
        <time>2022-04-10T11:16:50Z</time>
      </trkpt>
      <trkpt lat="47.04098" lon="-1.66162">
        <ele>48</ele>
        <time>2022-04-10T11:16:52Z</time>
      </trkpt>
      <trkpt lat="47.04094" lon="-1.66147">
        <ele>48</ele>
        <time>2022-04-10T11:16:54Z</time>
      </trkpt>
      <trkpt lat="47.04091" lon="-1.66132">
        <ele>48</ele>
        <time>2022-04-10T11:16:56Z</time>
      </trkpt>
      <trkpt lat="47.04087" lon="-1.66117">
        <ele>48</ele>
        <time>2022-04-10T11:16:58Z</time>
      </trkpt>
      <trkpt lat="47.04083" lon="-1.66102">
        <ele>48</ele>
        <time>2022-04-10T11:17:00Z</time>
      </trkpt>
      <trkpt lat="47.04079" lon="-1.66087">
        <ele>48</ele>
        <time>2022-04-10T11:17:02Z</time>
      </trkpt>
      <trkpt lat="47.04075" lon="-1.66073">
        <ele>49</ele>
        <time>2022-04-10T11:17:04Z</time>
      </trkpt>
      <trkpt lat="47.04071" lon="-1.66058">
        <ele>49</ele>
        <time>2022-04-10T11:17:06Z</time>
      </trkpt>
      <trkpt lat="47.04068" lon="-1.66044">
        <ele>49</ele>
        <time>2022-04-10T11:17:08Z</time>
      </trkpt>
      <trkpt lat="47.04064" lon="-1.66029">
        <ele>49</ele>
        <time>2022-04-10T11:17:10Z</time>
      </trkpt>
      <trkpt lat="47.04059" lon="-1.66014">
        <ele>49</ele>
        <time>2022-04-10T11:17:12Z</time>
      </trkpt>
      <trkpt lat="47.04055" lon="-1.66">
        <ele>49</ele>
        <time>2022-04-10T11:17:14Z</time>
      </trkpt>
      <trkpt lat="47.04051" lon="-1.65985">
        <ele>48</ele>
        <time>2022-04-10T11:17:16Z</time>
      </trkpt>
      <trkpt lat="47.04047" lon="-1.6597">
        <ele>48</ele>
        <time>2022-04-10T11:17:18Z</time>
      </trkpt>
      <trkpt lat="47.04043" lon="-1.65955">
        <ele>48</ele>
        <time>2022-04-10T11:17:20Z</time>
      </trkpt>
      <trkpt lat="47.04039" lon="-1.6594">
        <ele>49</ele>
        <time>2022-04-10T11:17:22Z</time>
      </trkpt>
      <trkpt lat="47.04034" lon="-1.65925">
        <ele>49</ele>
        <time>2022-04-10T11:17:24Z</time>
      </trkpt>
      <trkpt lat="47.04029" lon="-1.6591">
        <ele>49</ele>
        <time>2022-04-10T11:17:26Z</time>
      </trkpt>
      <trkpt lat="47.04024" lon="-1.65894">
        <ele>49</ele>
        <time>2022-04-10T11:17:28Z</time>
      </trkpt>
      <trkpt lat="47.0402" lon="-1.65877">
        <ele>49</ele>
        <time>2022-04-10T11:17:30Z</time>
      </trkpt>
      <trkpt lat="47.04016" lon="-1.65861">
        <ele>48</ele>
        <time>2022-04-10T11:17:32Z</time>
      </trkpt>
      <trkpt lat="47.04011" lon="-1.65845">
        <ele>48</ele>
        <time>2022-04-10T11:17:34Z</time>
      </trkpt>
      <trkpt lat="47.04007" lon="-1.65829">
        <ele>48</ele>
        <time>2022-04-10T11:17:36Z</time>
      </trkpt>
      <trkpt lat="47.04002" lon="-1.65813">
        <ele>48</ele>
        <time>2022-04-10T11:17:38Z</time>
      </trkpt>
      <trkpt lat="47.03998" lon="-1.65797">
        <ele>48</ele>
        <time>2022-04-10T11:17:40Z</time>
      </trkpt>
      <trkpt lat="47.03994" lon="-1.65781">
        <ele>48</ele>
        <time>2022-04-10T11:17:42Z</time>
      </trkpt>
      <trkpt lat="47.03989" lon="-1.65766">
        <ele>48</ele>
        <time>2022-04-10T11:17:44Z</time>
      </trkpt>
      <trkpt lat="47.03985" lon="-1.6575">
        <ele>48</ele>
        <time>2022-04-10T11:17:46Z</time>
      </trkpt>
      <trkpt lat="47.03981" lon="-1.65735">
        <ele>48</ele>
        <time>2022-04-10T11:17:48Z</time>
      </trkpt>
      <trkpt lat="47.03977" lon="-1.6572">
        <ele>48</ele>
        <time>2022-04-10T11:17:50Z</time>
      </trkpt>
      <trkpt lat="47.03973" lon="-1.65705">
        <ele>47</ele>
        <time>2022-04-10T11:17:52Z</time>
      </trkpt>
      <trkpt lat="47.03968" lon="-1.6569">
        <ele>47</ele>
        <time>2022-04-10T11:17:54Z</time>
      </trkpt>
      <trkpt lat="47.03964" lon="-1.65675">
        <ele>47</ele>
        <time>2022-04-10T11:17:56Z</time>
      </trkpt>
      <trkpt lat="47.0396" lon="-1.6566">
        <ele>47</ele>
        <time>2022-04-10T11:17:58Z</time>
      </trkpt>
      <trkpt lat="47.03956" lon="-1.65645">
        <ele>47</ele>
        <time>2022-04-10T11:18:00Z</time>
      </trkpt>
      <trkpt lat="47.03952" lon="-1.6563">
        <ele>47</ele>
        <time>2022-04-10T11:18:02Z</time>
      </trkpt>
      <trkpt lat="47.03947" lon="-1.65615">
        <ele>47</ele>
        <time>2022-04-10T11:18:04Z</time>
      </trkpt>
      <trkpt lat="47.03943" lon="-1.656">
        <ele>47</ele>
        <time>2022-04-10T11:18:06Z</time>
      </trkpt>
      <trkpt lat="47.03939" lon="-1.65586">
        <ele>47</ele>
        <time>2022-04-10T11:18:08Z</time>
      </trkpt>
      <trkpt lat="47.03935" lon="-1.65571">
        <ele>47</ele>
        <time>2022-04-10T11:18:10Z</time>
      </trkpt>
      <trkpt lat="47.03931" lon="-1.65557">
        <ele>46</ele>
        <time>2022-04-10T11:18:12Z</time>
      </trkpt>
      <trkpt lat="47.03927" lon="-1.65543">
        <ele>46</ele>
        <time>2022-04-10T11:18:14Z</time>
      </trkpt>
      <trkpt lat="47.03923" lon="-1.65529">
        <ele>47</ele>
        <time>2022-04-10T11:18:16Z</time>
      </trkpt>
      <trkpt lat="47.0392" lon="-1.65515">
        <ele>46</ele>
        <time>2022-04-10T11:18:18Z</time>
      </trkpt>
      <trkpt lat="47.03916" lon="-1.65501">
        <ele>47</ele>
        <time>2022-04-10T11:18:20Z</time>
      </trkpt>
      <trkpt lat="47.03912" lon="-1.65488">
        <ele>47</ele>
        <time>2022-04-10T11:18:22Z</time>
      </trkpt>
      <trkpt lat="47.03908" lon="-1.65474">
        <ele>46</ele>
        <time>2022-04-10T11:18:24Z</time>
      </trkpt>
      <trkpt lat="47.03904" lon="-1.6546">
        <ele>46</ele>
        <time>2022-04-10T11:18:26Z</time>
      </trkpt>
      <trkpt lat="47.039" lon="-1.65446">
        <ele>46</ele>
        <time>2022-04-10T11:18:28Z</time>
      </trkpt>
      <trkpt lat="47.03896" lon="-1.65431">
        <ele>46</ele>
        <time>2022-04-10T11:18:30Z</time>
      </trkpt>
      <trkpt lat="47.03892" lon="-1.65417">
        <ele>46</ele>
        <time>2022-04-10T11:18:32Z</time>
      </trkpt>
      <trkpt lat="47.03888" lon="-1.65402">
        <ele>47</ele>
        <time>2022-04-10T11:18:34Z</time>
      </trkpt>
      <trkpt lat="47.03884" lon="-1.65388">
        <ele>47</ele>
        <time>2022-04-10T11:18:36Z</time>
      </trkpt>
      <trkpt lat="47.0388" lon="-1.65374">
        <ele>47</ele>
        <time>2022-04-10T11:18:38Z</time>
      </trkpt>
      <trkpt lat="47.03874" lon="-1.65361">
        <ele>47</ele>
        <time>2022-04-10T11:18:40Z</time>
      </trkpt>
      <trkpt lat="47.03868" lon="-1.65348">
        <ele>48</ele>
        <time>2022-04-10T11:18:42Z</time>
      </trkpt>
      <trkpt lat="47.03861" lon="-1.65337">
        <ele>48</ele>
        <time>2022-04-10T11:18:44Z</time>
      </trkpt>
      <trkpt lat="47.03856" lon="-1.65325">
        <ele>48</ele>
        <time>2022-04-10T11:18:46Z</time>
      </trkpt>
      <trkpt lat="47.03856" lon="-1.65311">
        <ele>48</ele>
        <time>2022-04-10T11:18:48Z</time>
      </trkpt>
      <trkpt lat="47.03862" lon="-1.65297">
        <ele>47</ele>
        <time>2022-04-10T11:18:50Z</time>
      </trkpt>
      <trkpt lat="47.03872" lon="-1.65287">
        <ele>46</ele>
        <time>2022-04-10T11:18:52Z</time>
      </trkpt>
      <trkpt lat="47.03882" lon="-1.65278">
        <ele>46</ele>
        <time>2022-04-10T11:18:54Z</time>
      </trkpt>
      <trkpt lat="47.03893" lon="-1.6527">
        <ele>46</ele>
        <time>2022-04-10T11:18:56Z</time>
      </trkpt>
      <trkpt lat="47.03904" lon="-1.65262">
        <ele>45</ele>
        <time>2022-04-10T11:18:58Z</time>
      </trkpt>
      <trkpt lat="47.03915" lon="-1.65254">
        <ele>45</ele>
        <time>2022-04-10T11:19:00Z</time>
      </trkpt>
      <trkpt lat="47.03926" lon="-1.65248">
        <ele>45</ele>
        <time>2022-04-10T11:19:02Z</time>
      </trkpt>
      <trkpt lat="47.03936" lon="-1.65241">
        <ele>45</ele>
        <time>2022-04-10T11:19:04Z</time>
      </trkpt>
      <trkpt lat="47.03948" lon="-1.65234">
        <ele>45</ele>
        <time>2022-04-10T11:19:06Z</time>
      </trkpt>
      <trkpt lat="47.03959" lon="-1.65226">
        <ele>44</ele>
        <time>2022-04-10T11:19:08Z</time>
      </trkpt>
      <trkpt lat="47.0397" lon="-1.65218">
        <ele>44</ele>
        <time>2022-04-10T11:19:10Z</time>
      </trkpt>
      <trkpt lat="47.03981" lon="-1.65211">
        <ele>44</ele>
        <time>2022-04-10T11:19:12Z</time>
      </trkpt>
      <trkpt lat="47.03993" lon="-1.65203">
        <ele>44</ele>
        <time>2022-04-10T11:19:14Z</time>
      </trkpt>
      <trkpt lat="47.04004" lon="-1.65195">
        <ele>44</ele>
        <time>2022-04-10T11:19:16Z</time>
      </trkpt>
      <trkpt lat="47.04016" lon="-1.65187">
        <ele>44</ele>
        <time>2022-04-10T11:19:18Z</time>
      </trkpt>
      <trkpt lat="47.04027" lon="-1.65179">
        <ele>44</ele>
        <time>2022-04-10T11:19:20Z</time>
      </trkpt>
      <trkpt lat="47.04038" lon="-1.65171">
        <ele>44</ele>
        <time>2022-04-10T11:19:22Z</time>
      </trkpt>
      <trkpt lat="47.0405" lon="-1.65164">
        <ele>43</ele>
        <time>2022-04-10T11:19:24Z</time>
      </trkpt>
      <trkpt lat="47.04061" lon="-1.65156">
        <ele>43</ele>
        <time>2022-04-10T11:19:26Z</time>
      </trkpt>
      <trkpt lat="47.04073" lon="-1.65148">
        <ele>43</ele>
        <time>2022-04-10T11:19:28Z</time>
      </trkpt>
      <trkpt lat="47.04084" lon="-1.6514">
        <ele>43</ele>
        <time>2022-04-10T11:19:30Z</time>
      </trkpt>
      <trkpt lat="47.04096" lon="-1.65132">
        <ele>43</ele>
        <time>2022-04-10T11:19:32Z</time>
      </trkpt>
      <trkpt lat="47.04108" lon="-1.65125">
        <ele>42</ele>
        <time>2022-04-10T11:19:34Z</time>
      </trkpt>
      <trkpt lat="47.04119" lon="-1.65117">
        <ele>42</ele>
        <time>2022-04-10T11:19:36Z</time>
      </trkpt>
      <trkpt lat="47.04131" lon="-1.65109">
        <ele>42</ele>
        <time>2022-04-10T11:19:38Z</time>
      </trkpt>
      <trkpt lat="47.04142" lon="-1.65102">
        <ele>42</ele>
        <time>2022-04-10T11:19:40Z</time>
      </trkpt>
      <trkpt lat="47.04153" lon="-1.65094">
        <ele>42</ele>
        <time>2022-04-10T11:19:42Z</time>
      </trkpt>
      <trkpt lat="47.04165" lon="-1.65086">
        <ele>42</ele>
        <time>2022-04-10T11:19:44Z</time>
      </trkpt>
      <trkpt lat="47.04176" lon="-1.65078">
        <ele>42</ele>
        <time>2022-04-10T11:19:46Z</time>
      </trkpt>
      <trkpt lat="47.04188" lon="-1.6507">
        <ele>41</ele>
        <time>2022-04-10T11:19:48Z</time>
      </trkpt>
      <trkpt lat="47.04199" lon="-1.65062">
        <ele>41</ele>
        <time>2022-04-10T11:19:50Z</time>
      </trkpt>
      <trkpt lat="47.04211" lon="-1.65054">
        <ele>41</ele>
        <time>2022-04-10T11:19:52Z</time>
      </trkpt>
      <trkpt lat="47.04222" lon="-1.65046">
        <ele>41</ele>
        <time>2022-04-10T11:19:54Z</time>
      </trkpt>
      <trkpt lat="47.04234" lon="-1.65038">
        <ele>41</ele>
        <time>2022-04-10T11:19:56Z</time>
      </trkpt>
      <trkpt lat="47.04245" lon="-1.6503">
        <ele>41</ele>
        <time>2022-04-10T11:19:58Z</time>
      </trkpt>
      <trkpt lat="47.04257" lon="-1.65021">
        <ele>41</ele>
        <time>2022-04-10T11:20:00Z</time>
      </trkpt>
      <trkpt lat="47.04269" lon="-1.65013">
        <ele>41</ele>
        <time>2022-04-10T11:20:02Z</time>
      </trkpt>
      <trkpt lat="47.0428" lon="-1.65004">
        <ele>41</ele>
        <time>2022-04-10T11:20:04Z</time>
      </trkpt>
      <trkpt lat="47.04292" lon="-1.64996">
        <ele>41</ele>
        <time>2022-04-10T11:20:06Z</time>
      </trkpt>
      <trkpt lat="47.04303" lon="-1.64987">
        <ele>41</ele>
        <time>2022-04-10T11:20:08Z</time>
      </trkpt>
      <trkpt lat="47.04314" lon="-1.64978">
        <ele>41</ele>
        <time>2022-04-10T11:20:10Z</time>
      </trkpt>
      <trkpt lat="47.04325" lon="-1.6497">
        <ele>41</ele>
        <time>2022-04-10T11:20:12Z</time>
      </trkpt>
      <trkpt lat="47.04335" lon="-1.64961">
        <ele>41</ele>
        <time>2022-04-10T11:20:14Z</time>
      </trkpt>
      <trkpt lat="47.04346" lon="-1.64952">
        <ele>41</ele>
        <time>2022-04-10T11:20:16Z</time>
      </trkpt>
      <trkpt lat="47.04356" lon="-1.64943">
        <ele>41</ele>
        <time>2022-04-10T11:20:18Z</time>
      </trkpt>
      <trkpt lat="47.04366" lon="-1.64934">
        <ele>42</ele>
        <time>2022-04-10T11:20:20Z</time>
      </trkpt>
      <trkpt lat="47.04377" lon="-1.64925">
        <ele>42</ele>
        <time>2022-04-10T11:20:22Z</time>
      </trkpt>
      <trkpt lat="47.04388" lon="-1.64916">
        <ele>42</ele>
        <time>2022-04-10T11:20:24Z</time>
      </trkpt>
      <trkpt lat="47.04398" lon="-1.64907">
        <ele>42</ele>
        <time>2022-04-10T11:20:26Z</time>
      </trkpt>
      <trkpt lat="47.04408" lon="-1.64898">
        <ele>43</ele>
        <time>2022-04-10T11:20:28Z</time>
      </trkpt>
      <trkpt lat="47.04418" lon="-1.64891">
        <ele>43</ele>
        <time>2022-04-10T11:20:30Z</time>
      </trkpt>
      <trkpt lat="47.04428" lon="-1.64891">
        <ele>43</ele>
        <time>2022-04-10T11:20:32Z</time>
      </trkpt>
      <trkpt lat="47.04438" lon="-1.64894">
        <ele>42</ele>
        <time>2022-04-10T11:20:34Z</time>
      </trkpt>
      <trkpt lat="47.04448" lon="-1.64899">
        <ele>42</ele>
        <time>2022-04-10T11:20:36Z</time>
      </trkpt>
      <trkpt lat="47.04458" lon="-1.64906">
        <ele>41</ele>
        <time>2022-04-10T11:20:38Z</time>
      </trkpt>
      <trkpt lat="47.04468" lon="-1.64909">
        <ele>41</ele>
        <time>2022-04-10T11:20:40Z</time>
      </trkpt>
      <trkpt lat="47.04476" lon="-1.64898">
        <ele>41</ele>
        <time>2022-04-10T11:20:43Z</time>
      </trkpt>
      <trkpt lat="47.04474" lon="-1.64883">
        <ele>41</ele>
        <time>2022-04-10T11:20:46Z</time>
      </trkpt>
      <trkpt lat="47.04463" lon="-1.64872">
        <ele>43</ele>
        <time>2022-04-10T11:20:49Z</time>
      </trkpt>
      <trkpt lat="47.04456" lon="-1.64863">
        <ele>44</ele>
        <time>2022-04-10T11:20:51Z</time>
      </trkpt>
      <trkpt lat="47.04445" lon="-1.64854">
        <ele>44</ele>
        <time>2022-04-10T11:20:54Z</time>
      </trkpt>
      <trkpt lat="47.04436" lon="-1.64843">
        <ele>44</ele>
        <time>2022-04-10T11:20:57Z</time>
      </trkpt>
      <trkpt lat="47.04428" lon="-1.64835">
        <ele>44</ele>
        <time>2022-04-10T11:21:00Z</time>
      </trkpt>
      <trkpt lat="47.04418" lon="-1.64821">
        <ele>44</ele>
        <time>2022-04-10T11:21:02Z</time>
      </trkpt>
      <trkpt lat="47.04409" lon="-1.64809">
        <ele>44</ele>
        <time>2022-04-10T11:21:04Z</time>
      </trkpt>
      <trkpt lat="47.04401" lon="-1.64799">
        <ele>44</ele>
        <time>2022-04-10T11:21:06Z</time>
      </trkpt>
      <trkpt lat="47.04394" lon="-1.64788">
        <ele>44</ele>
        <time>2022-04-10T11:21:08Z</time>
      </trkpt>
      <trkpt lat="47.04387" lon="-1.64778">
        <ele>45</ele>
        <time>2022-04-10T11:21:10Z</time>
      </trkpt>
      <trkpt lat="47.0438" lon="-1.64767">
        <ele>45</ele>
        <time>2022-04-10T11:21:12Z</time>
      </trkpt>
      <trkpt lat="47.04373" lon="-1.64757">
        <ele>45</ele>
        <time>2022-04-10T11:21:14Z</time>
      </trkpt>
      <trkpt lat="47.04365" lon="-1.64747">
        <ele>45</ele>
        <time>2022-04-10T11:21:16Z</time>
      </trkpt>
      <trkpt lat="47.04357" lon="-1.64736">
        <ele>45</ele>
        <time>2022-04-10T11:21:18Z</time>
      </trkpt>
      <trkpt lat="47.0435" lon="-1.64726">
        <ele>45</ele>
        <time>2022-04-10T11:21:20Z</time>
      </trkpt>
      <trkpt lat="47.04343" lon="-1.64716">
        <ele>45</ele>
        <time>2022-04-10T11:21:22Z</time>
      </trkpt>
      <trkpt lat="47.04336" lon="-1.64706">
        <ele>45</ele>
        <time>2022-04-10T11:21:24Z</time>
      </trkpt>
      <trkpt lat="47.04329" lon="-1.64696">
        <ele>45</ele>
        <time>2022-04-10T11:21:26Z</time>
      </trkpt>
      <trkpt lat="47.04323" lon="-1.64687">
        <ele>45</ele>
        <time>2022-04-10T11:21:28Z</time>
      </trkpt>
      <trkpt lat="47.04313" lon="-1.64673">
        <ele>46</ele>
        <time>2022-04-10T11:21:31Z</time>
      </trkpt>
      <trkpt lat="47.04306" lon="-1.64663">
        <ele>46</ele>
        <time>2022-04-10T11:21:33Z</time>
      </trkpt>
      <trkpt lat="47.04298" lon="-1.64653">
        <ele>46</ele>
        <time>2022-04-10T11:21:35Z</time>
      </trkpt>
      <trkpt lat="47.0429" lon="-1.64644">
        <ele>47</ele>
        <time>2022-04-10T11:21:37Z</time>
      </trkpt>
      <trkpt lat="47.04283" lon="-1.64634">
        <ele>47</ele>
        <time>2022-04-10T11:21:39Z</time>
      </trkpt>
      <trkpt lat="47.04276" lon="-1.64625">
        <ele>47</ele>
        <time>2022-04-10T11:21:41Z</time>
      </trkpt>
      <trkpt lat="47.0427" lon="-1.64615">
        <ele>48</ele>
        <time>2022-04-10T11:21:43Z</time>
      </trkpt>
      <trkpt lat="47.04263" lon="-1.64604">
        <ele>48</ele>
        <time>2022-04-10T11:21:45Z</time>
      </trkpt>
      <trkpt lat="47.04255" lon="-1.64594">
        <ele>49</ele>
        <time>2022-04-10T11:21:48Z</time>
      </trkpt>
      <trkpt lat="47.04245" lon="-1.64583">
        <ele>48</ele>
        <time>2022-04-10T11:21:51Z</time>
      </trkpt>
      <trkpt lat="47.04235" lon="-1.64573">
        <ele>48</ele>
        <time>2022-04-10T11:21:53Z</time>
      </trkpt>
      <trkpt lat="47.04228" lon="-1.64563">
        <ele>48</ele>
        <time>2022-04-10T11:21:55Z</time>
      </trkpt>
      <trkpt lat="47.04221" lon="-1.64552">
        <ele>48</ele>
        <time>2022-04-10T11:21:57Z</time>
      </trkpt>
      <trkpt lat="47.04213" lon="-1.6454">
        <ele>49</ele>
        <time>2022-04-10T11:21:59Z</time>
      </trkpt>
      <trkpt lat="47.04205" lon="-1.64528">
        <ele>49</ele>
        <time>2022-04-10T11:22:01Z</time>
      </trkpt>
      <trkpt lat="47.04197" lon="-1.64516">
        <ele>48</ele>
        <time>2022-04-10T11:22:03Z</time>
      </trkpt>
      <trkpt lat="47.04186" lon="-1.64504">
        <ele>48</ele>
        <time>2022-04-10T11:22:05Z</time>
      </trkpt>
      <trkpt lat="47.04176" lon="-1.64493">
        <ele>49</ele>
        <time>2022-04-10T11:22:07Z</time>
      </trkpt>
      <trkpt lat="47.04166" lon="-1.64478">
        <ele>49</ele>
        <time>2022-04-10T11:22:09Z</time>
      </trkpt>
      <trkpt lat="47.04156" lon="-1.64463">
        <ele>49</ele>
        <time>2022-04-10T11:22:11Z</time>
      </trkpt>
      <trkpt lat="47.04146" lon="-1.64449">
        <ele>48</ele>
        <time>2022-04-10T11:22:13Z</time>
      </trkpt>
      <trkpt lat="47.04136" lon="-1.64435">
        <ele>48</ele>
        <time>2022-04-10T11:22:15Z</time>
      </trkpt>
      <trkpt lat="47.04127" lon="-1.64422">
        <ele>48</ele>
        <time>2022-04-10T11:22:17Z</time>
      </trkpt>
      <trkpt lat="47.04119" lon="-1.6441">
        <ele>48</ele>
        <time>2022-04-10T11:22:19Z</time>
      </trkpt>
      <trkpt lat="47.04111" lon="-1.64397">
        <ele>48</ele>
        <time>2022-04-10T11:22:21Z</time>
      </trkpt>
      <trkpt lat="47.04103" lon="-1.64383">
        <ele>48</ele>
        <time>2022-04-10T11:22:23Z</time>
      </trkpt>
      <trkpt lat="47.04096" lon="-1.64368">
        <ele>47</ele>
        <time>2022-04-10T11:22:25Z</time>
      </trkpt>
      <trkpt lat="47.04089" lon="-1.64353">
        <ele>47</ele>
        <time>2022-04-10T11:22:27Z</time>
      </trkpt>
      <trkpt lat="47.04082" lon="-1.64338">
        <ele>47</ele>
        <time>2022-04-10T11:22:29Z</time>
      </trkpt>
      <trkpt lat="47.04076" lon="-1.64323">
        <ele>47</ele>
        <time>2022-04-10T11:22:31Z</time>
      </trkpt>
      <trkpt lat="47.0407" lon="-1.64308">
        <ele>48</ele>
        <time>2022-04-10T11:22:33Z</time>
      </trkpt>
      <trkpt lat="47.04065" lon="-1.64294">
        <ele>48</ele>
        <time>2022-04-10T11:22:35Z</time>
      </trkpt>
      <trkpt lat="47.04059" lon="-1.64282">
        <ele>48</ele>
        <time>2022-04-10T11:22:37Z</time>
      </trkpt>
      <trkpt lat="47.04053" lon="-1.64271">
        <ele>49</ele>
        <time>2022-04-10T11:22:39Z</time>
      </trkpt>
      <trkpt lat="47.04044" lon="-1.64259">
        <ele>48</ele>
        <time>2022-04-10T11:22:41Z</time>
      </trkpt>
      <trkpt lat="47.04035" lon="-1.64246">
        <ele>47</ele>
        <time>2022-04-10T11:22:43Z</time>
      </trkpt>
      <trkpt lat="47.04027" lon="-1.64233">
        <ele>47</ele>
        <time>2022-04-10T11:22:45Z</time>
      </trkpt>
      <trkpt lat="47.04018" lon="-1.6422">
        <ele>48</ele>
        <time>2022-04-10T11:22:47Z</time>
      </trkpt>
      <trkpt lat="47.0401" lon="-1.64208">
        <ele>47</ele>
        <time>2022-04-10T11:22:49Z</time>
      </trkpt>
      <trkpt lat="47.04003" lon="-1.64196">
        <ele>47</ele>
        <time>2022-04-10T11:22:51Z</time>
      </trkpt>
      <trkpt lat="47.03995" lon="-1.64184">
        <ele>47</ele>
        <time>2022-04-10T11:22:53Z</time>
      </trkpt>
      <trkpt lat="47.03988" lon="-1.64173">
        <ele>47</ele>
        <time>2022-04-10T11:22:55Z</time>
      </trkpt>
      <trkpt lat="47.03982" lon="-1.64161">
        <ele>47</ele>
        <time>2022-04-10T11:22:57Z</time>
      </trkpt>
      <trkpt lat="47.03975" lon="-1.6415">
        <ele>48</ele>
        <time>2022-04-10T11:22:59Z</time>
      </trkpt>
      <trkpt lat="47.03981" lon="-1.64136">
        <ele>49</ele>
        <time>2022-04-10T11:23:02Z</time>
      </trkpt>
      <trkpt lat="47.03992" lon="-1.64131">
        <ele>49</ele>
        <time>2022-04-10T11:23:04Z</time>
      </trkpt>
      <trkpt lat="47.04003" lon="-1.64124">
        <ele>49</ele>
        <time>2022-04-10T11:23:06Z</time>
      </trkpt>
      <trkpt lat="47.04015" lon="-1.6412">
        <ele>48</ele>
        <time>2022-04-10T11:23:08Z</time>
      </trkpt>
      <trkpt lat="47.04026" lon="-1.64115">
        <ele>48</ele>
        <time>2022-04-10T11:23:10Z</time>
      </trkpt>
      <trkpt lat="47.04038" lon="-1.64111">
        <ele>48</ele>
        <time>2022-04-10T11:23:12Z</time>
      </trkpt>
      <trkpt lat="47.0405" lon="-1.64106">
        <ele>48</ele>
        <time>2022-04-10T11:23:14Z</time>
      </trkpt>
      <trkpt lat="47.04062" lon="-1.641">
        <ele>47</ele>
        <time>2022-04-10T11:23:16Z</time>
      </trkpt>
      <trkpt lat="47.04075" lon="-1.64095">
        <ele>46</ele>
        <time>2022-04-10T11:23:18Z</time>
      </trkpt>
      <trkpt lat="47.04088" lon="-1.64089">
        <ele>46</ele>
        <time>2022-04-10T11:23:20Z</time>
      </trkpt>
      <trkpt lat="47.04102" lon="-1.64084">
        <ele>46</ele>
        <time>2022-04-10T11:23:22Z</time>
      </trkpt>
      <trkpt lat="47.04114" lon="-1.64077">
        <ele>45</ele>
        <time>2022-04-10T11:23:24Z</time>
      </trkpt>
      <trkpt lat="47.04127" lon="-1.64071">
        <ele>45</ele>
        <time>2022-04-10T11:23:26Z</time>
      </trkpt>
      <trkpt lat="47.04139" lon="-1.64065">
        <ele>44</ele>
        <time>2022-04-10T11:23:28Z</time>
      </trkpt>
      <trkpt lat="47.04151" lon="-1.6406">
        <ele>44</ele>
        <time>2022-04-10T11:23:30Z</time>
      </trkpt>
      <trkpt lat="47.04163" lon="-1.64055">
        <ele>44</ele>
        <time>2022-04-10T11:23:32Z</time>
      </trkpt>
      <trkpt lat="47.04175" lon="-1.64051">
        <ele>43</ele>
        <time>2022-04-10T11:23:34Z</time>
      </trkpt>
      <trkpt lat="47.04192" lon="-1.64044">
        <ele>43</ele>
        <time>2022-04-10T11:23:37Z</time>
      </trkpt>
      <trkpt lat="47.04203" lon="-1.64038">
        <ele>42</ele>
        <time>2022-04-10T11:23:39Z</time>
      </trkpt>
      <trkpt lat="47.04215" lon="-1.64033">
        <ele>42</ele>
        <time>2022-04-10T11:23:41Z</time>
      </trkpt>
      <trkpt lat="47.04227" lon="-1.64028">
        <ele>42</ele>
        <time>2022-04-10T11:23:43Z</time>
      </trkpt>
      <trkpt lat="47.04238" lon="-1.64023">
        <ele>42</ele>
        <time>2022-04-10T11:23:45Z</time>
      </trkpt>
      <trkpt lat="47.0425" lon="-1.64018">
        <ele>42</ele>
        <time>2022-04-10T11:23:47Z</time>
      </trkpt>
      <trkpt lat="47.04262" lon="-1.64012">
        <ele>41</ele>
        <time>2022-04-10T11:23:49Z</time>
      </trkpt>
      <trkpt lat="47.04273" lon="-1.64007">
        <ele>41</ele>
        <time>2022-04-10T11:23:51Z</time>
      </trkpt>
      <trkpt lat="47.04285" lon="-1.64002">
        <ele>42</ele>
        <time>2022-04-10T11:23:53Z</time>
      </trkpt>
      <trkpt lat="47.04296" lon="-1.63997">
        <ele>42</ele>
        <time>2022-04-10T11:23:55Z</time>
      </trkpt>
      <trkpt lat="47.04307" lon="-1.63992">
        <ele>42</ele>
        <time>2022-04-10T11:23:57Z</time>
      </trkpt>
      <trkpt lat="47.04319" lon="-1.63987">
        <ele>42</ele>
        <time>2022-04-10T11:23:59Z</time>
      </trkpt>
      <trkpt lat="47.0433" lon="-1.63981">
        <ele>42</ele>
        <time>2022-04-10T11:24:01Z</time>
      </trkpt>
      <trkpt lat="47.04341" lon="-1.63977">
        <ele>42</ele>
        <time>2022-04-10T11:24:03Z</time>
      </trkpt>
      <trkpt lat="47.04353" lon="-1.63972">
        <ele>42</ele>
        <time>2022-04-10T11:24:05Z</time>
      </trkpt>
      <trkpt lat="47.04364" lon="-1.63967">
        <ele>42</ele>
        <time>2022-04-10T11:24:07Z</time>
      </trkpt>
      <trkpt lat="47.04376" lon="-1.63962">
        <ele>41</ele>
        <time>2022-04-10T11:24:09Z</time>
      </trkpt>
      <trkpt lat="47.04387" lon="-1.63957">
        <ele>42</ele>
        <time>2022-04-10T11:24:11Z</time>
      </trkpt>
      <trkpt lat="47.04399" lon="-1.63951">
        <ele>41</ele>
        <time>2022-04-10T11:24:13Z</time>
      </trkpt>
      <trkpt lat="47.04411" lon="-1.63945">
        <ele>40</ele>
        <time>2022-04-10T11:24:15Z</time>
      </trkpt>
      <trkpt lat="47.04423" lon="-1.63939">
        <ele>41</ele>
        <time>2022-04-10T11:24:17Z</time>
      </trkpt>
      <trkpt lat="47.04435" lon="-1.63934">
        <ele>41</ele>
        <time>2022-04-10T11:24:19Z</time>
      </trkpt>
      <trkpt lat="47.04447" lon="-1.63929">
        <ele>41</ele>
        <time>2022-04-10T11:24:21Z</time>
      </trkpt>
      <trkpt lat="47.04458" lon="-1.63925">
        <ele>42</ele>
        <time>2022-04-10T11:24:23Z</time>
      </trkpt>
      <trkpt lat="47.04468" lon="-1.63919">
        <ele>42</ele>
        <time>2022-04-10T11:24:25Z</time>
      </trkpt>
      <trkpt lat="47.04479" lon="-1.63912">
        <ele>42</ele>
        <time>2022-04-10T11:24:27Z</time>
      </trkpt>
      <trkpt lat="47.04491" lon="-1.63908">
        <ele>42</ele>
        <time>2022-04-10T11:24:29Z</time>
      </trkpt>
      <trkpt lat="47.04503" lon="-1.63903">
        <ele>42</ele>
        <time>2022-04-10T11:24:31Z</time>
      </trkpt>
      <trkpt lat="47.04514" lon="-1.63896">
        <ele>41</ele>
        <time>2022-04-10T11:24:33Z</time>
      </trkpt>
      <trkpt lat="47.04525" lon="-1.63888">
        <ele>40</ele>
        <time>2022-04-10T11:24:35Z</time>
      </trkpt>
      <trkpt lat="47.04537" lon="-1.63881">
        <ele>40</ele>
        <time>2022-04-10T11:24:37Z</time>
      </trkpt>
      <trkpt lat="47.04547" lon="-1.63874">
        <ele>39</ele>
        <time>2022-04-10T11:24:39Z</time>
      </trkpt>
      <trkpt lat="47.04558" lon="-1.63867">
        <ele>39</ele>
        <time>2022-04-10T11:24:41Z</time>
      </trkpt>
      <trkpt lat="47.0457" lon="-1.63861">
        <ele>39</ele>
        <time>2022-04-10T11:24:43Z</time>
      </trkpt>
      <trkpt lat="47.04581" lon="-1.63854">
        <ele>39</ele>
        <time>2022-04-10T11:24:45Z</time>
      </trkpt>
      <trkpt lat="47.04592" lon="-1.63848">
        <ele>39</ele>
        <time>2022-04-10T11:24:47Z</time>
      </trkpt>
      <trkpt lat="47.04603" lon="-1.63843">
        <ele>39</ele>
        <time>2022-04-10T11:24:49Z</time>
      </trkpt>
      <trkpt lat="47.04615" lon="-1.63841">
        <ele>39</ele>
        <time>2022-04-10T11:24:51Z</time>
      </trkpt>
      <trkpt lat="47.04626" lon="-1.63839">
        <ele>39</ele>
        <time>2022-04-10T11:24:53Z</time>
      </trkpt>
      <trkpt lat="47.04638" lon="-1.63838">
        <ele>39</ele>
        <time>2022-04-10T11:24:55Z</time>
      </trkpt>
      <trkpt lat="47.04649" lon="-1.63835">
        <ele>40</ele>
        <time>2022-04-10T11:24:57Z</time>
      </trkpt>
      <trkpt lat="47.04659" lon="-1.63829">
        <ele>40</ele>
        <time>2022-04-10T11:24:59Z</time>
      </trkpt>
      <trkpt lat="47.04669" lon="-1.63823">
        <ele>40</ele>
        <time>2022-04-10T11:25:01Z</time>
      </trkpt>
      <trkpt lat="47.04679" lon="-1.63816">
        <ele>41</ele>
        <time>2022-04-10T11:25:03Z</time>
      </trkpt>
      <trkpt lat="47.0469" lon="-1.6381">
        <ele>41</ele>
        <time>2022-04-10T11:25:05Z</time>
      </trkpt>
      <trkpt lat="47.04701" lon="-1.63807">
        <ele>42</ele>
        <time>2022-04-10T11:25:07Z</time>
      </trkpt>
      <trkpt lat="47.04712" lon="-1.63801">
        <ele>42</ele>
        <time>2022-04-10T11:25:09Z</time>
      </trkpt>
      <trkpt lat="47.04723" lon="-1.63796">
        <ele>42</ele>
        <time>2022-04-10T11:25:11Z</time>
      </trkpt>
      <trkpt lat="47.04734" lon="-1.63796">
        <ele>43</ele>
        <time>2022-04-10T11:25:13Z</time>
      </trkpt>
      <trkpt lat="47.04746" lon="-1.63796">
        <ele>43</ele>
        <time>2022-04-10T11:25:15Z</time>
      </trkpt>
      <trkpt lat="47.04756" lon="-1.63793">
        <ele>44</ele>
        <time>2022-04-10T11:25:17Z</time>
      </trkpt>
      <trkpt lat="47.04767" lon="-1.63789">
        <ele>44</ele>
        <time>2022-04-10T11:25:19Z</time>
      </trkpt>
      <trkpt lat="47.04778" lon="-1.63785">
        <ele>44</ele>
        <time>2022-04-10T11:25:21Z</time>
      </trkpt>
      <trkpt lat="47.04788" lon="-1.63781">
        <ele>44</ele>
        <time>2022-04-10T11:25:23Z</time>
      </trkpt>
      <trkpt lat="47.04799" lon="-1.63778">
        <ele>44</ele>
        <time>2022-04-10T11:25:25Z</time>
      </trkpt>
      <trkpt lat="47.04808" lon="-1.63776">
        <ele>45</ele>
        <time>2022-04-10T11:25:27Z</time>
      </trkpt>
      <trkpt lat="47.04819" lon="-1.63774">
        <ele>45</ele>
        <time>2022-04-10T11:25:29Z</time>
      </trkpt>
      <trkpt lat="47.04829" lon="-1.63772">
        <ele>44</ele>
        <time>2022-04-10T11:25:31Z</time>
      </trkpt>
      <trkpt lat="47.04839" lon="-1.6377">
        <ele>45</ele>
        <time>2022-04-10T11:25:33Z</time>
      </trkpt>
      <trkpt lat="47.04849" lon="-1.63768">
        <ele>45</ele>
        <time>2022-04-10T11:25:35Z</time>
      </trkpt>
      <trkpt lat="47.0486" lon="-1.63766">
        <ele>45</ele>
        <time>2022-04-10T11:25:37Z</time>
      </trkpt>
      <trkpt lat="47.0487" lon="-1.63764">
        <ele>45</ele>
        <time>2022-04-10T11:25:39Z</time>
      </trkpt>
      <trkpt lat="47.04881" lon="-1.63763">
        <ele>45</ele>
        <time>2022-04-10T11:25:41Z</time>
      </trkpt>
      <trkpt lat="47.04893" lon="-1.63761">
        <ele>45</ele>
        <time>2022-04-10T11:25:43Z</time>
      </trkpt>
      <trkpt lat="47.04905" lon="-1.63758">
        <ele>45</ele>
        <time>2022-04-10T11:25:45Z</time>
      </trkpt>
      <trkpt lat="47.04917" lon="-1.63755">
        <ele>45</ele>
        <time>2022-04-10T11:25:47Z</time>
      </trkpt>
      <trkpt lat="47.04929" lon="-1.6375">
        <ele>46</ele>
        <time>2022-04-10T11:25:49Z</time>
      </trkpt>
      <trkpt lat="47.04939" lon="-1.63741">
        <ele>45</ele>
        <time>2022-04-10T11:25:51Z</time>
      </trkpt>
      <trkpt lat="47.04947" lon="-1.63727">
        <ele>45</ele>
        <time>2022-04-10T11:25:53Z</time>
      </trkpt>
      <trkpt lat="47.04949" lon="-1.63708">
        <ele>45</ele>
        <time>2022-04-10T11:25:55Z</time>
      </trkpt>
      <trkpt lat="47.0495" lon="-1.6369">
        <ele>45</ele>
        <time>2022-04-10T11:25:57Z</time>
      </trkpt>
      <trkpt lat="47.0495" lon="-1.63672">
        <ele>44</ele>
        <time>2022-04-10T11:25:59Z</time>
      </trkpt>
      <trkpt lat="47.04949" lon="-1.63654">
        <ele>44</ele>
        <time>2022-04-10T11:26:01Z</time>
      </trkpt>
      <trkpt lat="47.0495" lon="-1.63636">
        <ele>43</ele>
        <time>2022-04-10T11:26:03Z</time>
      </trkpt>
      <trkpt lat="47.04953" lon="-1.63618">
        <ele>43</ele>
        <time>2022-04-10T11:26:05Z</time>
      </trkpt>
      <trkpt lat="47.04959" lon="-1.63601">
        <ele>43</ele>
        <time>2022-04-10T11:26:07Z</time>
      </trkpt>
      <trkpt lat="47.04967" lon="-1.63585">
        <ele>42</ele>
        <time>2022-04-10T11:26:09Z</time>
      </trkpt>
      <trkpt lat="47.04977" lon="-1.63572">
        <ele>41</ele>
        <time>2022-04-10T11:26:11Z</time>
      </trkpt>
      <trkpt lat="47.04988" lon="-1.63562">
        <ele>41</ele>
        <time>2022-04-10T11:26:13Z</time>
      </trkpt>
      <trkpt lat="47.04999" lon="-1.63553">
        <ele>41</ele>
        <time>2022-04-10T11:26:15Z</time>
      </trkpt>
      <trkpt lat="47.05011" lon="-1.63547">
        <ele>40</ele>
        <time>2022-04-10T11:26:17Z</time>
      </trkpt>
      <trkpt lat="47.05023" lon="-1.63542">
        <ele>39</ele>
        <time>2022-04-10T11:26:19Z</time>
      </trkpt>
      <trkpt lat="47.05035" lon="-1.63537">
        <ele>39</ele>
        <time>2022-04-10T11:26:21Z</time>
      </trkpt>
      <trkpt lat="47.05048" lon="-1.63532">
        <ele>39</ele>
        <time>2022-04-10T11:26:23Z</time>
      </trkpt>
      <trkpt lat="47.05059" lon="-1.63528">
        <ele>39</ele>
        <time>2022-04-10T11:26:25Z</time>
      </trkpt>
      <trkpt lat="47.05072" lon="-1.63524">
        <ele>40</ele>
        <time>2022-04-10T11:26:27Z</time>
      </trkpt>
      <trkpt lat="47.05083" lon="-1.63519">
        <ele>40</ele>
        <time>2022-04-10T11:26:29Z</time>
      </trkpt>
      <trkpt lat="47.05095" lon="-1.63514">
        <ele>40</ele>
        <time>2022-04-10T11:26:31Z</time>
      </trkpt>
      <trkpt lat="47.05107" lon="-1.6351">
        <ele>40</ele>
        <time>2022-04-10T11:26:33Z</time>
      </trkpt>
      <trkpt lat="47.0512" lon="-1.63505">
        <ele>40</ele>
        <time>2022-04-10T11:26:35Z</time>
      </trkpt>
      <trkpt lat="47.05132" lon="-1.635">
        <ele>40</ele>
        <time>2022-04-10T11:26:37Z</time>
      </trkpt>
      <trkpt lat="47.05144" lon="-1.63496">
        <ele>39</ele>
        <time>2022-04-10T11:26:39Z</time>
      </trkpt>
      <trkpt lat="47.05156" lon="-1.63491">
        <ele>39</ele>
        <time>2022-04-10T11:26:41Z</time>
      </trkpt>
      <trkpt lat="47.05168" lon="-1.63487">
        <ele>39</ele>
        <time>2022-04-10T11:26:43Z</time>
      </trkpt>
      <trkpt lat="47.05181" lon="-1.63482">
        <ele>40</ele>
        <time>2022-04-10T11:26:45Z</time>
      </trkpt>
      <trkpt lat="47.05193" lon="-1.63478">
        <ele>40</ele>
        <time>2022-04-10T11:26:47Z</time>
      </trkpt>
      <trkpt lat="47.05205" lon="-1.63473">
        <ele>39</ele>
        <time>2022-04-10T11:26:49Z</time>
      </trkpt>
      <trkpt lat="47.05217" lon="-1.63469">
        <ele>39</ele>
        <time>2022-04-10T11:26:51Z</time>
      </trkpt>
      <trkpt lat="47.05229" lon="-1.63465">
        <ele>39</ele>
        <time>2022-04-10T11:26:53Z</time>
      </trkpt>
      <trkpt lat="47.05242" lon="-1.63461">
        <ele>39</ele>
        <time>2022-04-10T11:26:55Z</time>
      </trkpt>
      <trkpt lat="47.05255" lon="-1.63457">
        <ele>39</ele>
        <time>2022-04-10T11:26:57Z</time>
      </trkpt>
      <trkpt lat="47.05267" lon="-1.63453">
        <ele>39</ele>
        <time>2022-04-10T11:26:59Z</time>
      </trkpt>
      <trkpt lat="47.05279" lon="-1.6345">
        <ele>39</ele>
        <time>2022-04-10T11:27:01Z</time>
      </trkpt>
      <trkpt lat="47.05292" lon="-1.63447">
        <ele>39</ele>
        <time>2022-04-10T11:27:03Z</time>
      </trkpt>
      <trkpt lat="47.05304" lon="-1.63445">
        <ele>39</ele>
        <time>2022-04-10T11:27:05Z</time>
      </trkpt>
      <trkpt lat="47.05316" lon="-1.63443">
        <ele>40</ele>
        <time>2022-04-10T11:27:07Z</time>
      </trkpt>
      <trkpt lat="47.05329" lon="-1.63443">
        <ele>40</ele>
        <time>2022-04-10T11:27:09Z</time>
      </trkpt>
      <trkpt lat="47.05342" lon="-1.63442">
        <ele>40</ele>
        <time>2022-04-10T11:27:11Z</time>
      </trkpt>
      <trkpt lat="47.05353" lon="-1.6344">
        <ele>40</ele>
        <time>2022-04-10T11:27:13Z</time>
      </trkpt>
      <trkpt lat="47.05365" lon="-1.63434">
        <ele>41</ele>
        <time>2022-04-10T11:27:15Z</time>
      </trkpt>
      <trkpt lat="47.05376" lon="-1.63429">
        <ele>41</ele>
        <time>2022-04-10T11:27:17Z</time>
      </trkpt>
      <trkpt lat="47.05388" lon="-1.6343">
        <ele>41</ele>
        <time>2022-04-10T11:27:19Z</time>
      </trkpt>
      <trkpt lat="47.05401" lon="-1.63432">
        <ele>41</ele>
        <time>2022-04-10T11:27:21Z</time>
      </trkpt>
      <trkpt lat="47.05414" lon="-1.6343">
        <ele>41</ele>
        <time>2022-04-10T11:27:23Z</time>
      </trkpt>
      <trkpt lat="47.05427" lon="-1.63428">
        <ele>41</ele>
        <time>2022-04-10T11:27:25Z</time>
      </trkpt>
      <trkpt lat="47.0544" lon="-1.63425">
        <ele>41</ele>
        <time>2022-04-10T11:27:27Z</time>
      </trkpt>
      <trkpt lat="47.05453" lon="-1.63422">
        <ele>41</ele>
        <time>2022-04-10T11:27:29Z</time>
      </trkpt>
      <trkpt lat="47.05465" lon="-1.6342">
        <ele>41</ele>
        <time>2022-04-10T11:27:31Z</time>
      </trkpt>
      <trkpt lat="47.05477" lon="-1.63418">
        <ele>41</ele>
        <time>2022-04-10T11:27:33Z</time>
      </trkpt>
      <trkpt lat="47.0549" lon="-1.63416">
        <ele>41</ele>
        <time>2022-04-10T11:27:35Z</time>
      </trkpt>
      <trkpt lat="47.05502" lon="-1.63414">
        <ele>41</ele>
        <time>2022-04-10T11:27:37Z</time>
      </trkpt>
      <trkpt lat="47.05515" lon="-1.63412">
        <ele>41</ele>
        <time>2022-04-10T11:27:39Z</time>
      </trkpt>
      <trkpt lat="47.05528" lon="-1.6341">
        <ele>41</ele>
        <time>2022-04-10T11:27:41Z</time>
      </trkpt>
      <trkpt lat="47.0554" lon="-1.63406">
        <ele>40</ele>
        <time>2022-04-10T11:27:43Z</time>
      </trkpt>
      <trkpt lat="47.05552" lon="-1.63402">
        <ele>40</ele>
        <time>2022-04-10T11:27:45Z</time>
      </trkpt>
      <trkpt lat="47.05565" lon="-1.63398">
        <ele>40</ele>
        <time>2022-04-10T11:27:47Z</time>
      </trkpt>
      <trkpt lat="47.05577" lon="-1.63393">
        <ele>40</ele>
        <time>2022-04-10T11:27:49Z</time>
      </trkpt>
      <trkpt lat="47.05589" lon="-1.63387">
        <ele>40</ele>
        <time>2022-04-10T11:27:51Z</time>
      </trkpt>
      <trkpt lat="47.056" lon="-1.63382">
        <ele>40</ele>
        <time>2022-04-10T11:27:53Z</time>
      </trkpt>
      <trkpt lat="47.05612" lon="-1.63376">
        <ele>40</ele>
        <time>2022-04-10T11:27:55Z</time>
      </trkpt>
      <trkpt lat="47.05624" lon="-1.6337">
        <ele>40</ele>
        <time>2022-04-10T11:27:57Z</time>
      </trkpt>
      <trkpt lat="47.05636" lon="-1.63365">
        <ele>40</ele>
        <time>2022-04-10T11:27:59Z</time>
      </trkpt>
      <trkpt lat="47.05648" lon="-1.6336">
        <ele>40</ele>
        <time>2022-04-10T11:28:01Z</time>
      </trkpt>
      <trkpt lat="47.0566" lon="-1.63354">
        <ele>40</ele>
        <time>2022-04-10T11:28:03Z</time>
      </trkpt>
      <trkpt lat="47.05672" lon="-1.63348">
        <ele>40</ele>
        <time>2022-04-10T11:28:05Z</time>
      </trkpt>
      <trkpt lat="47.05684" lon="-1.63342">
        <ele>39</ele>
        <time>2022-04-10T11:28:07Z</time>
      </trkpt>
      <trkpt lat="47.05696" lon="-1.63337">
        <ele>39</ele>
        <time>2022-04-10T11:28:09Z</time>
      </trkpt>
      <trkpt lat="47.05708" lon="-1.63331">
        <ele>39</ele>
        <time>2022-04-10T11:28:11Z</time>
      </trkpt>
      <trkpt lat="47.0572" lon="-1.63326">
        <ele>39</ele>
        <time>2022-04-10T11:28:13Z</time>
      </trkpt>
      <trkpt lat="47.05731" lon="-1.6332">
        <ele>39</ele>
        <time>2022-04-10T11:28:15Z</time>
      </trkpt>
      <trkpt lat="47.05743" lon="-1.63315">
        <ele>39</ele>
        <time>2022-04-10T11:28:17Z</time>
      </trkpt>
      <trkpt lat="47.05755" lon="-1.63309">
        <ele>40</ele>
        <time>2022-04-10T11:28:19Z</time>
      </trkpt>
      <trkpt lat="47.05767" lon="-1.63304">
        <ele>40</ele>
        <time>2022-04-10T11:28:21Z</time>
      </trkpt>
      <trkpt lat="47.05779" lon="-1.63298">
        <ele>40</ele>
        <time>2022-04-10T11:28:23Z</time>
      </trkpt>
      <trkpt lat="47.05791" lon="-1.63293">
        <ele>40</ele>
        <time>2022-04-10T11:28:25Z</time>
      </trkpt>
      <trkpt lat="47.05802" lon="-1.63287">
        <ele>40</ele>
        <time>2022-04-10T11:28:27Z</time>
      </trkpt>
      <trkpt lat="47.05814" lon="-1.63281">
        <ele>40</ele>
        <time>2022-04-10T11:28:29Z</time>
      </trkpt>
      <trkpt lat="47.05825" lon="-1.63275">
        <ele>40</ele>
        <time>2022-04-10T11:28:31Z</time>
      </trkpt>
      <trkpt lat="47.05837" lon="-1.6327">
        <ele>40</ele>
        <time>2022-04-10T11:28:33Z</time>
      </trkpt>
      <trkpt lat="47.05849" lon="-1.63264">
        <ele>40</ele>
        <time>2022-04-10T11:28:35Z</time>
      </trkpt>
      <trkpt lat="47.05861" lon="-1.63259">
        <ele>40</ele>
        <time>2022-04-10T11:28:37Z</time>
      </trkpt>
      <trkpt lat="47.05873" lon="-1.63253">
        <ele>40</ele>
        <time>2022-04-10T11:28:39Z</time>
      </trkpt>
      <trkpt lat="47.05885" lon="-1.63247">
        <ele>40</ele>
        <time>2022-04-10T11:28:41Z</time>
      </trkpt>
      <trkpt lat="47.05896" lon="-1.63242">
        <ele>40</ele>
        <time>2022-04-10T11:28:43Z</time>
      </trkpt>
      <trkpt lat="47.05908" lon="-1.63236">
        <ele>40</ele>
        <time>2022-04-10T11:28:45Z</time>
      </trkpt>
      <trkpt lat="47.05919" lon="-1.6323">
        <ele>40</ele>
        <time>2022-04-10T11:28:47Z</time>
      </trkpt>
      <trkpt lat="47.05931" lon="-1.63225">
        <ele>40</ele>
        <time>2022-04-10T11:28:49Z</time>
      </trkpt>
      <trkpt lat="47.05943" lon="-1.63219">
        <ele>40</ele>
        <time>2022-04-10T11:28:51Z</time>
      </trkpt>
      <trkpt lat="47.05955" lon="-1.63213">
        <ele>40</ele>
        <time>2022-04-10T11:28:53Z</time>
      </trkpt>
      <trkpt lat="47.05967" lon="-1.63208">
        <ele>40</ele>
        <time>2022-04-10T11:28:55Z</time>
      </trkpt>
      <trkpt lat="47.05979" lon="-1.63203">
        <ele>40</ele>
        <time>2022-04-10T11:28:57Z</time>
      </trkpt>
      <trkpt lat="47.05991" lon="-1.63197">
        <ele>40</ele>
        <time>2022-04-10T11:28:59Z</time>
      </trkpt>
      <trkpt lat="47.06003" lon="-1.63192">
        <ele>40</ele>
        <time>2022-04-10T11:29:01Z</time>
      </trkpt>
      <trkpt lat="47.06015" lon="-1.63187">
        <ele>39</ele>
        <time>2022-04-10T11:29:03Z</time>
      </trkpt>
      <trkpt lat="47.06027" lon="-1.63184">
        <ele>39</ele>
        <time>2022-04-10T11:29:05Z</time>
      </trkpt>
      <trkpt lat="47.06039" lon="-1.63179">
        <ele>39</ele>
        <time>2022-04-10T11:29:07Z</time>
      </trkpt>
      <trkpt lat="47.06049" lon="-1.63174">
        <ele>39</ele>
        <time>2022-04-10T11:29:09Z</time>
      </trkpt>
      <trkpt lat="47.06059" lon="-1.63178">
        <ele>39</ele>
        <time>2022-04-10T11:29:11Z</time>
      </trkpt>
      <trkpt lat="47.06061" lon="-1.63196">
        <ele>39</ele>
        <time>2022-04-10T11:29:13Z</time>
      </trkpt>
      <trkpt lat="47.06058" lon="-1.63212">
        <ele>40</ele>
        <time>2022-04-10T11:29:15Z</time>
      </trkpt>
      <trkpt lat="47.06054" lon="-1.6323">
        <ele>41</ele>
        <time>2022-04-10T11:29:17Z</time>
      </trkpt>
      <trkpt lat="47.06051" lon="-1.63247">
        <ele>42</ele>
        <time>2022-04-10T11:29:19Z</time>
      </trkpt>
      <trkpt lat="47.06048" lon="-1.63264">
        <ele>43</ele>
        <time>2022-04-10T11:29:21Z</time>
      </trkpt>
      <trkpt lat="47.06045" lon="-1.63281">
        <ele>43</ele>
        <time>2022-04-10T11:29:23Z</time>
      </trkpt>
      <trkpt lat="47.06043" lon="-1.63299">
        <ele>44</ele>
        <time>2022-04-10T11:29:25Z</time>
      </trkpt>
      <trkpt lat="47.06045" lon="-1.63314">
        <ele>44</ele>
        <time>2022-04-10T11:29:27Z</time>
      </trkpt>
      <trkpt lat="47.06054" lon="-1.63322">
        <ele>44</ele>
        <time>2022-04-10T11:29:29Z</time>
      </trkpt>
      <trkpt lat="47.06066" lon="-1.63326">
        <ele>44</ele>
        <time>2022-04-10T11:29:31Z</time>
      </trkpt>
      <trkpt lat="47.06078" lon="-1.6333">
        <ele>45</ele>
        <time>2022-04-10T11:29:33Z</time>
      </trkpt>
      <trkpt lat="47.0609" lon="-1.63335">
        <ele>45</ele>
        <time>2022-04-10T11:29:35Z</time>
      </trkpt>
      <trkpt lat="47.06102" lon="-1.63339">
        <ele>45</ele>
        <time>2022-04-10T11:29:37Z</time>
      </trkpt>
      <trkpt lat="47.06114" lon="-1.63343">
        <ele>45</ele>
        <time>2022-04-10T11:29:39Z</time>
      </trkpt>
      <trkpt lat="47.06125" lon="-1.63348">
        <ele>45</ele>
        <time>2022-04-10T11:29:41Z</time>
      </trkpt>
      <trkpt lat="47.06137" lon="-1.63352">
        <ele>45</ele>
        <time>2022-04-10T11:29:43Z</time>
      </trkpt>
      <trkpt lat="47.06149" lon="-1.63357">
        <ele>45</ele>
        <time>2022-04-10T11:29:45Z</time>
      </trkpt>
      <trkpt lat="47.06161" lon="-1.63361">
        <ele>45</ele>
        <time>2022-04-10T11:29:47Z</time>
      </trkpt>
      <trkpt lat="47.06173" lon="-1.63366">
        <ele>45</ele>
        <time>2022-04-10T11:29:49Z</time>
      </trkpt>
      <trkpt lat="47.06185" lon="-1.63371">
        <ele>44</ele>
        <time>2022-04-10T11:29:51Z</time>
      </trkpt>
      <trkpt lat="47.06197" lon="-1.63376">
        <ele>44</ele>
        <time>2022-04-10T11:29:53Z</time>
      </trkpt>
      <trkpt lat="47.06209" lon="-1.6338">
        <ele>44</ele>
        <time>2022-04-10T11:29:55Z</time>
      </trkpt>
      <trkpt lat="47.06221" lon="-1.63385">
        <ele>44</ele>
        <time>2022-04-10T11:29:57Z</time>
      </trkpt>
      <trkpt lat="47.06232" lon="-1.63389">
        <ele>44</ele>
        <time>2022-04-10T11:29:59Z</time>
      </trkpt>
      <trkpt lat="47.06244" lon="-1.63393">
        <ele>44</ele>
        <time>2022-04-10T11:30:01Z</time>
      </trkpt>
      <trkpt lat="47.06255" lon="-1.63397">
        <ele>44</ele>
        <time>2022-04-10T11:30:03Z</time>
      </trkpt>
      <trkpt lat="47.06267" lon="-1.63402">
        <ele>44</ele>
        <time>2022-04-10T11:30:05Z</time>
      </trkpt>
      <trkpt lat="47.06279" lon="-1.63407">
        <ele>44</ele>
        <time>2022-04-10T11:30:07Z</time>
      </trkpt>
      <trkpt lat="47.06292" lon="-1.63412">
        <ele>43</ele>
        <time>2022-04-10T11:30:09Z</time>
      </trkpt>
      <trkpt lat="47.06304" lon="-1.63416">
        <ele>43</ele>
        <time>2022-04-10T11:30:11Z</time>
      </trkpt>
      <trkpt lat="47.06316" lon="-1.63421">
        <ele>43</ele>
        <time>2022-04-10T11:30:13Z</time>
      </trkpt>
      <trkpt lat="47.06328" lon="-1.63428">
        <ele>43</ele>
        <time>2022-04-10T11:30:15Z</time>
      </trkpt>
      <trkpt lat="47.06338" lon="-1.63437">
        <ele>43</ele>
        <time>2022-04-10T11:30:17Z</time>
      </trkpt>
      <trkpt lat="47.06348" lon="-1.63449">
        <ele>44</ele>
        <time>2022-04-10T11:30:19Z</time>
      </trkpt>
      <trkpt lat="47.06358" lon="-1.6346">
        <ele>44</ele>
        <time>2022-04-10T11:30:21Z</time>
      </trkpt>
      <trkpt lat="47.06367" lon="-1.63474">
        <ele>44</ele>
        <time>2022-04-10T11:30:23Z</time>
      </trkpt>
      <trkpt lat="47.06375" lon="-1.63489">
        <ele>44</ele>
        <time>2022-04-10T11:30:25Z</time>
      </trkpt>
      <trkpt lat="47.06381" lon="-1.63506">
        <ele>44</ele>
        <time>2022-04-10T11:30:27Z</time>
      </trkpt>
      <trkpt lat="47.06388" lon="-1.6352">
        <ele>44</ele>
        <time>2022-04-10T11:30:29Z</time>
      </trkpt>
      <trkpt lat="47.06398" lon="-1.6353">
        <ele>44</ele>
        <time>2022-04-10T11:30:31Z</time>
      </trkpt>
      <trkpt lat="47.06408" lon="-1.6354">
        <ele>43</ele>
        <time>2022-04-10T11:30:33Z</time>
      </trkpt>
      <trkpt lat="47.06419" lon="-1.63549">
        <ele>43</ele>
        <time>2022-04-10T11:30:35Z</time>
      </trkpt>
      <trkpt lat="47.0643" lon="-1.63559">
        <ele>43</ele>
        <time>2022-04-10T11:30:37Z</time>
      </trkpt>
      <trkpt lat="47.06441" lon="-1.63568">
        <ele>43</ele>
        <time>2022-04-10T11:30:39Z</time>
      </trkpt>
      <trkpt lat="47.06452" lon="-1.63577">
        <ele>43</ele>
        <time>2022-04-10T11:30:41Z</time>
      </trkpt>
      <trkpt lat="47.06463" lon="-1.63587">
        <ele>43</ele>
        <time>2022-04-10T11:30:43Z</time>
      </trkpt>
      <trkpt lat="47.06474" lon="-1.63597">
        <ele>43</ele>
        <time>2022-04-10T11:30:45Z</time>
      </trkpt>
      <trkpt lat="47.06484" lon="-1.63606">
        <ele>43</ele>
        <time>2022-04-10T11:30:47Z</time>
      </trkpt>
      <trkpt lat="47.06496" lon="-1.63614">
        <ele>43</ele>
        <time>2022-04-10T11:30:49Z</time>
      </trkpt>
      <trkpt lat="47.06507" lon="-1.63623">
        <ele>43</ele>
        <time>2022-04-10T11:30:51Z</time>
      </trkpt>
      <trkpt lat="47.06519" lon="-1.63631">
        <ele>44</ele>
        <time>2022-04-10T11:30:53Z</time>
      </trkpt>
      <trkpt lat="47.06531" lon="-1.63639">
        <ele>44</ele>
        <time>2022-04-10T11:30:55Z</time>
      </trkpt>
      <trkpt lat="47.06543" lon="-1.63648">
        <ele>44</ele>
        <time>2022-04-10T11:30:57Z</time>
      </trkpt>
      <trkpt lat="47.06555" lon="-1.63656">
        <ele>44</ele>
        <time>2022-04-10T11:30:59Z</time>
      </trkpt>
      <trkpt lat="47.06567" lon="-1.63664">
        <ele>44</ele>
        <time>2022-04-10T11:31:01Z</time>
      </trkpt>
      <trkpt lat="47.06579" lon="-1.63674">
        <ele>44</ele>
        <time>2022-04-10T11:31:03Z</time>
      </trkpt>
      <trkpt lat="47.06589" lon="-1.63685">
        <ele>44</ele>
        <time>2022-04-10T11:31:05Z</time>
      </trkpt>
      <trkpt lat="47.066" lon="-1.63697">
        <ele>44</ele>
        <time>2022-04-10T11:31:07Z</time>
      </trkpt>
      <trkpt lat="47.06611" lon="-1.63709">
        <ele>44</ele>
        <time>2022-04-10T11:31:09Z</time>
      </trkpt>
      <trkpt lat="47.06621" lon="-1.63722">
        <ele>44</ele>
        <time>2022-04-10T11:31:11Z</time>
      </trkpt>
      <trkpt lat="47.06632" lon="-1.63735">
        <ele>44</ele>
        <time>2022-04-10T11:31:13Z</time>
      </trkpt>
      <trkpt lat="47.06642" lon="-1.63748">
        <ele>44</ele>
        <time>2022-04-10T11:31:15Z</time>
      </trkpt>
      <trkpt lat="47.06652" lon="-1.63762">
        <ele>43</ele>
        <time>2022-04-10T11:31:17Z</time>
      </trkpt>
      <trkpt lat="47.06661" lon="-1.63775">
        <ele>43</ele>
        <time>2022-04-10T11:31:19Z</time>
      </trkpt>
      <trkpt lat="47.06672" lon="-1.63788">
        <ele>43</ele>
        <time>2022-04-10T11:31:21Z</time>
      </trkpt>
      <trkpt lat="47.06682" lon="-1.63801">
        <ele>43</ele>
        <time>2022-04-10T11:31:23Z</time>
      </trkpt>
      <trkpt lat="47.06692" lon="-1.63814">
        <ele>43</ele>
        <time>2022-04-10T11:31:25Z</time>
      </trkpt>
      <trkpt lat="47.06701" lon="-1.63825">
        <ele>42</ele>
        <time>2022-04-10T11:31:27Z</time>
      </trkpt>
      <trkpt lat="47.0671" lon="-1.63836">
        <ele>42</ele>
        <time>2022-04-10T11:31:29Z</time>
      </trkpt>
      <trkpt lat="47.0672" lon="-1.63842">
        <ele>42</ele>
        <time>2022-04-10T11:31:31Z</time>
      </trkpt>
      <trkpt lat="47.06729" lon="-1.63844">
        <ele>42</ele>
        <time>2022-04-10T11:31:34Z</time>
      </trkpt>
      <trkpt lat="47.06729" lon="-1.6384">
        <ele>36</ele>
        <time>2022-04-10T11:33:35Z</time>
      </trkpt>
      <trkpt lat="47.06735" lon="-1.63828">
        <ele>39</ele>
        <time>2022-04-10T11:35:21Z</time>
      </trkpt>
      <trkpt lat="47.06745" lon="-1.63819">
        <ele>40</ele>
        <time>2022-04-10T11:35:24Z</time>
      </trkpt>
      <trkpt lat="47.06755" lon="-1.63809">
        <ele>41</ele>
        <time>2022-04-10T11:35:27Z</time>
      </trkpt>
      <trkpt lat="47.06763" lon="-1.63801">
        <ele>41</ele>
        <time>2022-04-10T11:35:29Z</time>
      </trkpt>
      <trkpt lat="47.06771" lon="-1.63793">
        <ele>42</ele>
        <time>2022-04-10T11:35:31Z</time>
      </trkpt>
      <trkpt lat="47.06779" lon="-1.63785">
        <ele>41</ele>
        <time>2022-04-10T11:35:33Z</time>
      </trkpt>
      <trkpt lat="47.06788" lon="-1.63777">
        <ele>41</ele>
        <time>2022-04-10T11:35:35Z</time>
      </trkpt>
      <trkpt lat="47.06797" lon="-1.63769">
        <ele>41</ele>
        <time>2022-04-10T11:35:37Z</time>
      </trkpt>
      <trkpt lat="47.06806" lon="-1.6376">
        <ele>41</ele>
        <time>2022-04-10T11:35:39Z</time>
      </trkpt>
      <trkpt lat="47.06816" lon="-1.63751">
        <ele>40</ele>
        <time>2022-04-10T11:35:41Z</time>
      </trkpt>
      <trkpt lat="47.06825" lon="-1.63742">
        <ele>40</ele>
        <time>2022-04-10T11:35:43Z</time>
      </trkpt>
      <trkpt lat="47.06834" lon="-1.6373">
        <ele>40</ele>
        <time>2022-04-10T11:35:45Z</time>
      </trkpt>
      <trkpt lat="47.06841" lon="-1.63717">
        <ele>40</ele>
        <time>2022-04-10T11:35:47Z</time>
      </trkpt>
      <trkpt lat="47.06847" lon="-1.63703">
        <ele>41</ele>
        <time>2022-04-10T11:35:49Z</time>
      </trkpt>
      <trkpt lat="47.06851" lon="-1.63688">
        <ele>41</ele>
        <time>2022-04-10T11:35:51Z</time>
      </trkpt>
      <trkpt lat="47.06854" lon="-1.63673">
        <ele>41</ele>
        <time>2022-04-10T11:35:53Z</time>
      </trkpt>
      <trkpt lat="47.06856" lon="-1.63657">
        <ele>42</ele>
        <time>2022-04-10T11:35:55Z</time>
      </trkpt>
      <trkpt lat="47.06857" lon="-1.63642">
        <ele>42</ele>
        <time>2022-04-10T11:35:57Z</time>
      </trkpt>
      <trkpt lat="47.06857" lon="-1.63626">
        <ele>42</ele>
        <time>2022-04-10T11:35:59Z</time>
      </trkpt>
      <trkpt lat="47.06859" lon="-1.6361">
        <ele>42</ele>
        <time>2022-04-10T11:36:01Z</time>
      </trkpt>
      <trkpt lat="47.0686" lon="-1.63594">
        <ele>42</ele>
        <time>2022-04-10T11:36:03Z</time>
      </trkpt>
      <trkpt lat="47.0686" lon="-1.63578">
        <ele>43</ele>
        <time>2022-04-10T11:36:05Z</time>
      </trkpt>
      <trkpt lat="47.06862" lon="-1.63563">
        <ele>43</ele>
        <time>2022-04-10T11:36:07Z</time>
      </trkpt>
      <trkpt lat="47.06864" lon="-1.63547">
        <ele>43</ele>
        <time>2022-04-10T11:36:09Z</time>
      </trkpt>
      <trkpt lat="47.06867" lon="-1.63532">
        <ele>43</ele>
        <time>2022-04-10T11:36:11Z</time>
      </trkpt>
      <trkpt lat="47.06871" lon="-1.63518">
        <ele>44</ele>
        <time>2022-04-10T11:36:13Z</time>
      </trkpt>
      <trkpt lat="47.06875" lon="-1.63503">
        <ele>44</ele>
        <time>2022-04-10T11:36:15Z</time>
      </trkpt>
      <trkpt lat="47.06881" lon="-1.63489">
        <ele>44</ele>
        <time>2022-04-10T11:36:17Z</time>
      </trkpt>
      <trkpt lat="47.06888" lon="-1.63477">
        <ele>44</ele>
        <time>2022-04-10T11:36:19Z</time>
      </trkpt>
      <trkpt lat="47.06897" lon="-1.63467">
        <ele>43</ele>
        <time>2022-04-10T11:36:21Z</time>
      </trkpt>
      <trkpt lat="47.06907" lon="-1.63458">
        <ele>43</ele>
        <time>2022-04-10T11:36:23Z</time>
      </trkpt>
      <trkpt lat="47.06917" lon="-1.63452">
        <ele>42</ele>
        <time>2022-04-10T11:36:25Z</time>
      </trkpt>
      <trkpt lat="47.06928" lon="-1.63446">
        <ele>42</ele>
        <time>2022-04-10T11:36:27Z</time>
      </trkpt>
      <trkpt lat="47.06938" lon="-1.6344">
        <ele>42</ele>
        <time>2022-04-10T11:36:29Z</time>
      </trkpt>
      <trkpt lat="47.06949" lon="-1.63433">
        <ele>41</ele>
        <time>2022-04-10T11:36:31Z</time>
      </trkpt>
      <trkpt lat="47.06959" lon="-1.63426">
        <ele>40</ele>
        <time>2022-04-10T11:36:33Z</time>
      </trkpt>
      <trkpt lat="47.06968" lon="-1.63417">
        <ele>40</ele>
        <time>2022-04-10T11:36:35Z</time>
      </trkpt>
      <trkpt lat="47.06977" lon="-1.63409">
        <ele>40</ele>
        <time>2022-04-10T11:36:37Z</time>
      </trkpt>
      <trkpt lat="47.06986" lon="-1.634">
        <ele>40</ele>
        <time>2022-04-10T11:36:39Z</time>
      </trkpt>
      <trkpt lat="47.06995" lon="-1.63391">
        <ele>40</ele>
        <time>2022-04-10T11:36:41Z</time>
      </trkpt>
      <trkpt lat="47.07004" lon="-1.63382">
        <ele>40</ele>
        <time>2022-04-10T11:36:43Z</time>
      </trkpt>
      <trkpt lat="47.07012" lon="-1.63374">
        <ele>40</ele>
        <time>2022-04-10T11:36:45Z</time>
      </trkpt>
      <trkpt lat="47.07022" lon="-1.63365">
        <ele>40</ele>
        <time>2022-04-10T11:36:47Z</time>
      </trkpt>
      <trkpt lat="47.0703" lon="-1.63357">
        <ele>40</ele>
        <time>2022-04-10T11:36:49Z</time>
      </trkpt>
      <trkpt lat="47.07039" lon="-1.63348">
        <ele>40</ele>
        <time>2022-04-10T11:36:51Z</time>
      </trkpt>
      <trkpt lat="47.07048" lon="-1.63338">
        <ele>40</ele>
        <time>2022-04-10T11:36:53Z</time>
      </trkpt>
      <trkpt lat="47.07056" lon="-1.63328">
        <ele>40</ele>
        <time>2022-04-10T11:36:55Z</time>
      </trkpt>
      <trkpt lat="47.07064" lon="-1.63316">
        <ele>40</ele>
        <time>2022-04-10T11:36:57Z</time>
      </trkpt>
      <trkpt lat="47.0707" lon="-1.63303">
        <ele>41</ele>
        <time>2022-04-10T11:36:59Z</time>
      </trkpt>
      <trkpt lat="47.07075" lon="-1.63289">
        <ele>41</ele>
        <time>2022-04-10T11:37:01Z</time>
      </trkpt>
      <trkpt lat="47.07079" lon="-1.63275">
        <ele>42</ele>
        <time>2022-04-10T11:37:03Z</time>
      </trkpt>
      <trkpt lat="47.07083" lon="-1.6326">
        <ele>42</ele>
        <time>2022-04-10T11:37:05Z</time>
      </trkpt>
      <trkpt lat="47.07086" lon="-1.63244">
        <ele>43</ele>
        <time>2022-04-10T11:37:07Z</time>
      </trkpt>
      <trkpt lat="47.07089" lon="-1.63229">
        <ele>43</ele>
        <time>2022-04-10T11:37:09Z</time>
      </trkpt>
      <trkpt lat="47.0709" lon="-1.63213">
        <ele>43</ele>
        <time>2022-04-10T11:37:11Z</time>
      </trkpt>
      <trkpt lat="47.07091" lon="-1.63197">
        <ele>43</ele>
        <time>2022-04-10T11:37:13Z</time>
      </trkpt>
      <trkpt lat="47.07093" lon="-1.63181">
        <ele>43</ele>
        <time>2022-04-10T11:37:15Z</time>
      </trkpt>
      <trkpt lat="47.07098" lon="-1.63167">
        <ele>43</ele>
        <time>2022-04-10T11:37:17Z</time>
      </trkpt>
      <trkpt lat="47.07107" lon="-1.63155">
        <ele>44</ele>
        <time>2022-04-10T11:37:19Z</time>
      </trkpt>
      <trkpt lat="47.07116" lon="-1.63145">
        <ele>44</ele>
        <time>2022-04-10T11:37:21Z</time>
      </trkpt>
      <trkpt lat="47.07126" lon="-1.63136">
        <ele>45</ele>
        <time>2022-04-10T11:37:23Z</time>
      </trkpt>
      <trkpt lat="47.07136" lon="-1.63129">
        <ele>45</ele>
        <time>2022-04-10T11:37:25Z</time>
      </trkpt>
      <trkpt lat="47.07147" lon="-1.63123">
        <ele>45</ele>
        <time>2022-04-10T11:37:27Z</time>
      </trkpt>
      <trkpt lat="47.07157" lon="-1.63119">
        <ele>46</ele>
        <time>2022-04-10T11:37:29Z</time>
      </trkpt>
      <trkpt lat="47.07169" lon="-1.6312">
        <ele>46</ele>
        <time>2022-04-10T11:37:31Z</time>
      </trkpt>
      <trkpt lat="47.0718" lon="-1.6312">
        <ele>46</ele>
        <time>2022-04-10T11:37:33Z</time>
      </trkpt>
      <trkpt lat="47.07192" lon="-1.63121">
        <ele>46</ele>
        <time>2022-04-10T11:37:35Z</time>
      </trkpt>
      <trkpt lat="47.07204" lon="-1.63124">
        <ele>46</ele>
        <time>2022-04-10T11:37:37Z</time>
      </trkpt>
      <trkpt lat="47.07215" lon="-1.63131">
        <ele>46</ele>
        <time>2022-04-10T11:37:39Z</time>
      </trkpt>
      <trkpt lat="47.07226" lon="-1.63139">
        <ele>46</ele>
        <time>2022-04-10T11:37:41Z</time>
      </trkpt>
      <trkpt lat="47.07236" lon="-1.63148">
        <ele>46</ele>
        <time>2022-04-10T11:37:43Z</time>
      </trkpt>
      <trkpt lat="47.07247" lon="-1.63157">
        <ele>46</ele>
        <time>2022-04-10T11:37:45Z</time>
      </trkpt>
      <trkpt lat="47.07257" lon="-1.63165">
        <ele>45</ele>
        <time>2022-04-10T11:37:47Z</time>
      </trkpt>
      <trkpt lat="47.07267" lon="-1.63174">
        <ele>46</ele>
        <time>2022-04-10T11:37:49Z</time>
      </trkpt>
      <trkpt lat="47.07276" lon="-1.63184">
        <ele>45</ele>
        <time>2022-04-10T11:37:51Z</time>
      </trkpt>
      <trkpt lat="47.07285" lon="-1.63196">
        <ele>45</ele>
        <time>2022-04-10T11:37:53Z</time>
      </trkpt>
      <trkpt lat="47.07293" lon="-1.63208">
        <ele>44</ele>
        <time>2022-04-10T11:37:55Z</time>
      </trkpt>
      <trkpt lat="47.07301" lon="-1.6322">
        <ele>45</ele>
        <time>2022-04-10T11:37:57Z</time>
      </trkpt>
      <trkpt lat="47.07309" lon="-1.63232">
        <ele>45</ele>
        <time>2022-04-10T11:37:59Z</time>
      </trkpt>
      <trkpt lat="47.07318" lon="-1.63244">
        <ele>45</ele>
        <time>2022-04-10T11:38:01Z</time>
      </trkpt>
      <trkpt lat="47.07326" lon="-1.63255">
        <ele>45</ele>
        <time>2022-04-10T11:38:03Z</time>
      </trkpt>
      <trkpt lat="47.07335" lon="-1.63267">
        <ele>44</ele>
        <time>2022-04-10T11:38:05Z</time>
      </trkpt>
      <trkpt lat="47.07346" lon="-1.63276">
        <ele>44</ele>
        <time>2022-04-10T11:38:07Z</time>
      </trkpt>
      <trkpt lat="47.07356" lon="-1.63285">
        <ele>44</ele>
        <time>2022-04-10T11:38:09Z</time>
      </trkpt>
      <trkpt lat="47.07366" lon="-1.63293">
        <ele>44</ele>
        <time>2022-04-10T11:38:11Z</time>
      </trkpt>
      <trkpt lat="47.07377" lon="-1.63301">
        <ele>44</ele>
        <time>2022-04-10T11:38:13Z</time>
      </trkpt>
      <trkpt lat="47.07388" lon="-1.63309">
        <ele>44</ele>
        <time>2022-04-10T11:38:15Z</time>
      </trkpt>
      <trkpt lat="47.07399" lon="-1.63317">
        <ele>44</ele>
        <time>2022-04-10T11:38:17Z</time>
      </trkpt>
      <trkpt lat="47.07411" lon="-1.63325">
        <ele>44</ele>
        <time>2022-04-10T11:38:19Z</time>
      </trkpt>
      <trkpt lat="47.07422" lon="-1.63333">
        <ele>44</ele>
        <time>2022-04-10T11:38:21Z</time>
      </trkpt>
      <trkpt lat="47.07434" lon="-1.6334">
        <ele>44</ele>
        <time>2022-04-10T11:38:23Z</time>
      </trkpt>
      <trkpt lat="47.07445" lon="-1.63348">
        <ele>44</ele>
        <time>2022-04-10T11:38:25Z</time>
      </trkpt>
      <trkpt lat="47.07457" lon="-1.63356">
        <ele>44</ele>
        <time>2022-04-10T11:38:27Z</time>
      </trkpt>
      <trkpt lat="47.07469" lon="-1.63363">
        <ele>44</ele>
        <time>2022-04-10T11:38:29Z</time>
      </trkpt>
      <trkpt lat="47.0748" lon="-1.63371">
        <ele>43</ele>
        <time>2022-04-10T11:38:31Z</time>
      </trkpt>
      <trkpt lat="47.07492" lon="-1.63379">
        <ele>44</ele>
        <time>2022-04-10T11:38:33Z</time>
      </trkpt>
      <trkpt lat="47.07505" lon="-1.63386">
        <ele>44</ele>
        <time>2022-04-10T11:38:35Z</time>
      </trkpt>
      <trkpt lat="47.07517" lon="-1.63393">
        <ele>44</ele>
        <time>2022-04-10T11:38:37Z</time>
      </trkpt>
      <trkpt lat="47.07529" lon="-1.63401">
        <ele>44</ele>
        <time>2022-04-10T11:38:39Z</time>
      </trkpt>
      <trkpt lat="47.07542" lon="-1.63409">
        <ele>44</ele>
        <time>2022-04-10T11:38:41Z</time>
      </trkpt>
      <trkpt lat="47.07554" lon="-1.63416">
        <ele>44</ele>
        <time>2022-04-10T11:38:43Z</time>
      </trkpt>
      <trkpt lat="47.07566" lon="-1.63422">
        <ele>44</ele>
        <time>2022-04-10T11:38:45Z</time>
      </trkpt>
      <trkpt lat="47.07579" lon="-1.63427">
        <ele>44</ele>
        <time>2022-04-10T11:38:47Z</time>
      </trkpt>
      <trkpt lat="47.07592" lon="-1.63431">
        <ele>43</ele>
        <time>2022-04-10T11:38:49Z</time>
      </trkpt>
      <trkpt lat="47.07604" lon="-1.63432">
        <ele>43</ele>
        <time>2022-04-10T11:38:51Z</time>
      </trkpt>
      <trkpt lat="47.07617" lon="-1.6343">
        <ele>43</ele>
        <time>2022-04-10T11:38:53Z</time>
      </trkpt>
      <trkpt lat="47.07629" lon="-1.63427">
        <ele>43</ele>
        <time>2022-04-10T11:38:55Z</time>
      </trkpt>
      <trkpt lat="47.07641" lon="-1.63422">
        <ele>42</ele>
        <time>2022-04-10T11:38:57Z</time>
      </trkpt>
      <trkpt lat="47.07653" lon="-1.63418">
        <ele>42</ele>
        <time>2022-04-10T11:38:59Z</time>
      </trkpt>
      <trkpt lat="47.07666" lon="-1.63415">
        <ele>42</ele>
        <time>2022-04-10T11:39:01Z</time>
      </trkpt>
      <trkpt lat="47.07678" lon="-1.63412">
        <ele>42</ele>
        <time>2022-04-10T11:39:03Z</time>
      </trkpt>
      <trkpt lat="47.07688" lon="-1.63409">
        <ele>42</ele>
        <time>2022-04-10T11:39:05Z</time>
      </trkpt>
      <trkpt lat="47.07698" lon="-1.63404">
        <ele>42</ele>
        <time>2022-04-10T11:39:07Z</time>
      </trkpt>
      <trkpt lat="47.07707" lon="-1.63396">
        <ele>42</ele>
        <time>2022-04-10T11:39:09Z</time>
      </trkpt>
      <trkpt lat="47.07716" lon="-1.63385">
        <ele>42</ele>
        <time>2022-04-10T11:39:11Z</time>
      </trkpt>
      <trkpt lat="47.07726" lon="-1.63375">
        <ele>42</ele>
        <time>2022-04-10T11:39:13Z</time>
      </trkpt>
      <trkpt lat="47.07735" lon="-1.63364">
        <ele>42</ele>
        <time>2022-04-10T11:39:15Z</time>
      </trkpt>
      <trkpt lat="47.07744" lon="-1.63352">
        <ele>42</ele>
        <time>2022-04-10T11:39:17Z</time>
      </trkpt>
      <trkpt lat="47.07753" lon="-1.63341">
        <ele>42</ele>
        <time>2022-04-10T11:39:19Z</time>
      </trkpt>
      <trkpt lat="47.07763" lon="-1.63329">
        <ele>42</ele>
        <time>2022-04-10T11:39:21Z</time>
      </trkpt>
      <trkpt lat="47.07772" lon="-1.63318">
        <ele>42</ele>
        <time>2022-04-10T11:39:23Z</time>
      </trkpt>
      <trkpt lat="47.07782" lon="-1.63307">
        <ele>43</ele>
        <time>2022-04-10T11:39:25Z</time>
      </trkpt>
      <trkpt lat="47.07791" lon="-1.63296">
        <ele>42</ele>
        <time>2022-04-10T11:39:27Z</time>
      </trkpt>
      <trkpt lat="47.078" lon="-1.63285">
        <ele>42</ele>
        <time>2022-04-10T11:39:29Z</time>
      </trkpt>
      <trkpt lat="47.07808" lon="-1.63274">
        <ele>43</ele>
        <time>2022-04-10T11:39:31Z</time>
      </trkpt>
      <trkpt lat="47.07817" lon="-1.63263">
        <ele>43</ele>
        <time>2022-04-10T11:39:33Z</time>
      </trkpt>
      <trkpt lat="47.07824" lon="-1.63249">
        <ele>42</ele>
        <time>2022-04-10T11:39:35Z</time>
      </trkpt>
      <trkpt lat="47.07827" lon="-1.63234">
        <ele>43</ele>
        <time>2022-04-10T11:39:37Z</time>
      </trkpt>
      <trkpt lat="47.07827" lon="-1.63218">
        <ele>43</ele>
        <time>2022-04-10T11:39:39Z</time>
      </trkpt>
      <trkpt lat="47.07823" lon="-1.63202">
        <ele>44</ele>
        <time>2022-04-10T11:39:41Z</time>
      </trkpt>
      <trkpt lat="47.07817" lon="-1.63187">
        <ele>44</ele>
        <time>2022-04-10T11:39:43Z</time>
      </trkpt>
      <trkpt lat="47.0781" lon="-1.63172">
        <ele>44</ele>
        <time>2022-04-10T11:39:45Z</time>
      </trkpt>
      <trkpt lat="47.07805" lon="-1.63158">
        <ele>44</ele>
        <time>2022-04-10T11:39:47Z</time>
      </trkpt>
      <trkpt lat="47.07799" lon="-1.63146">
        <ele>44</ele>
        <time>2022-04-10T11:39:49Z</time>
      </trkpt>
      <trkpt lat="47.07798" lon="-1.63133">
        <ele>44</ele>
        <time>2022-04-10T11:39:51Z</time>
      </trkpt>
      <trkpt lat="47.07805" lon="-1.63124">
        <ele>44</ele>
        <time>2022-04-10T11:39:53Z</time>
      </trkpt>
      <trkpt lat="47.07817" lon="-1.63123">
        <ele>44</ele>
        <time>2022-04-10T11:39:55Z</time>
      </trkpt>
      <trkpt lat="47.07829" lon="-1.63123">
        <ele>43</ele>
        <time>2022-04-10T11:39:57Z</time>
      </trkpt>
      <trkpt lat="47.07841" lon="-1.63123">
        <ele>43</ele>
        <time>2022-04-10T11:39:59Z</time>
      </trkpt>
      <trkpt lat="47.07854" lon="-1.63122">
        <ele>43</ele>
        <time>2022-04-10T11:40:01Z</time>
      </trkpt>
      <trkpt lat="47.07866" lon="-1.63121">
        <ele>43</ele>
        <time>2022-04-10T11:40:03Z</time>
      </trkpt>
      <trkpt lat="47.07879" lon="-1.6312">
        <ele>43</ele>
        <time>2022-04-10T11:40:05Z</time>
      </trkpt>
      <trkpt lat="47.07891" lon="-1.63119">
        <ele>43</ele>
        <time>2022-04-10T11:40:07Z</time>
      </trkpt>
      <trkpt lat="47.07904" lon="-1.63117">
        <ele>43</ele>
        <time>2022-04-10T11:40:09Z</time>
      </trkpt>
      <trkpt lat="47.07916" lon="-1.63116">
        <ele>43</ele>
        <time>2022-04-10T11:40:11Z</time>
      </trkpt>
      <trkpt lat="47.07929" lon="-1.63115">
        <ele>43</ele>
        <time>2022-04-10T11:40:13Z</time>
      </trkpt>
      <trkpt lat="47.07941" lon="-1.63114">
        <ele>43</ele>
        <time>2022-04-10T11:40:15Z</time>
      </trkpt>
      <trkpt lat="47.07954" lon="-1.63112">
        <ele>43</ele>
        <time>2022-04-10T11:40:17Z</time>
      </trkpt>
      <trkpt lat="47.07966" lon="-1.63111">
        <ele>44</ele>
        <time>2022-04-10T11:40:19Z</time>
      </trkpt>
      <trkpt lat="47.07978" lon="-1.6311">
        <ele>44</ele>
        <time>2022-04-10T11:40:21Z</time>
      </trkpt>
      <trkpt lat="47.07991" lon="-1.63109">
        <ele>44</ele>
        <time>2022-04-10T11:40:23Z</time>
      </trkpt>
      <trkpt lat="47.08003" lon="-1.63108">
        <ele>44</ele>
        <time>2022-04-10T11:40:25Z</time>
      </trkpt>
      <trkpt lat="47.08016" lon="-1.63107">
        <ele>43</ele>
        <time>2022-04-10T11:40:27Z</time>
      </trkpt>
      <trkpt lat="47.08028" lon="-1.63106">
        <ele>43</ele>
        <time>2022-04-10T11:40:29Z</time>
      </trkpt>
      <trkpt lat="47.0804" lon="-1.63105">
        <ele>43</ele>
        <time>2022-04-10T11:40:31Z</time>
      </trkpt>
      <trkpt lat="47.08053" lon="-1.63104">
        <ele>42</ele>
        <time>2022-04-10T11:40:33Z</time>
      </trkpt>
      <trkpt lat="47.08065" lon="-1.63102">
        <ele>42</ele>
        <time>2022-04-10T11:40:35Z</time>
      </trkpt>
      <trkpt lat="47.08078" lon="-1.63101">
        <ele>42</ele>
        <time>2022-04-10T11:40:37Z</time>
      </trkpt>
      <trkpt lat="47.08091" lon="-1.631">
        <ele>42</ele>
        <time>2022-04-10T11:40:39Z</time>
      </trkpt>
      <trkpt lat="47.08103" lon="-1.63098">
        <ele>42</ele>
        <time>2022-04-10T11:40:41Z</time>
      </trkpt>
      <trkpt lat="47.08116" lon="-1.63097">
        <ele>42</ele>
        <time>2022-04-10T11:40:43Z</time>
      </trkpt>
      <trkpt lat="47.08128" lon="-1.63096">
        <ele>42</ele>
        <time>2022-04-10T11:40:45Z</time>
      </trkpt>
      <trkpt lat="47.08141" lon="-1.63094">
        <ele>41</ele>
        <time>2022-04-10T11:40:47Z</time>
      </trkpt>
      <trkpt lat="47.08154" lon="-1.63093">
        <ele>41</ele>
        <time>2022-04-10T11:40:49Z</time>
      </trkpt>
      <trkpt lat="47.08166" lon="-1.63092">
        <ele>41</ele>
        <time>2022-04-10T11:40:51Z</time>
      </trkpt>
      <trkpt lat="47.08178" lon="-1.63091">
        <ele>41</ele>
        <time>2022-04-10T11:40:53Z</time>
      </trkpt>
      <trkpt lat="47.08191" lon="-1.63089">
        <ele>42</ele>
        <time>2022-04-10T11:40:55Z</time>
      </trkpt>
      <trkpt lat="47.08203" lon="-1.63088">
        <ele>41</ele>
        <time>2022-04-10T11:40:57Z</time>
      </trkpt>
      <trkpt lat="47.08216" lon="-1.63087">
        <ele>41</ele>
        <time>2022-04-10T11:40:59Z</time>
      </trkpt>
      <trkpt lat="47.08228" lon="-1.63086">
        <ele>41</ele>
        <time>2022-04-10T11:41:01Z</time>
      </trkpt>
      <trkpt lat="47.0824" lon="-1.63086">
        <ele>41</ele>
        <time>2022-04-10T11:41:03Z</time>
      </trkpt>
      <trkpt lat="47.08253" lon="-1.63084">
        <ele>41</ele>
        <time>2022-04-10T11:41:05Z</time>
      </trkpt>
      <trkpt lat="47.08265" lon="-1.63084">
        <ele>41</ele>
        <time>2022-04-10T11:41:07Z</time>
      </trkpt>
      <trkpt lat="47.08277" lon="-1.63082">
        <ele>41</ele>
        <time>2022-04-10T11:41:09Z</time>
      </trkpt>
      <trkpt lat="47.0829" lon="-1.63081">
        <ele>42</ele>
        <time>2022-04-10T11:41:11Z</time>
      </trkpt>
      <trkpt lat="47.08302" lon="-1.6308">
        <ele>42</ele>
        <time>2022-04-10T11:41:13Z</time>
      </trkpt>
      <trkpt lat="47.08315" lon="-1.63078">
        <ele>41</ele>
        <time>2022-04-10T11:41:15Z</time>
      </trkpt>
      <trkpt lat="47.08327" lon="-1.63078">
        <ele>41</ele>
        <time>2022-04-10T11:41:17Z</time>
      </trkpt>
      <trkpt lat="47.0834" lon="-1.63077">
        <ele>42</ele>
        <time>2022-04-10T11:41:19Z</time>
      </trkpt>
      <trkpt lat="47.08352" lon="-1.63076">
        <ele>42</ele>
        <time>2022-04-10T11:41:21Z</time>
      </trkpt>
      <trkpt lat="47.08365" lon="-1.63075">
        <ele>43</ele>
        <time>2022-04-10T11:41:23Z</time>
      </trkpt>
      <trkpt lat="47.08378" lon="-1.63073">
        <ele>43</ele>
        <time>2022-04-10T11:41:25Z</time>
      </trkpt>
      <trkpt lat="47.0839" lon="-1.63069">
        <ele>44</ele>
        <time>2022-04-10T11:41:27Z</time>
      </trkpt>
      <trkpt lat="47.08402" lon="-1.63062">
        <ele>44</ele>
        <time>2022-04-10T11:41:29Z</time>
      </trkpt>
      <trkpt lat="47.08413" lon="-1.63052">
        <ele>44</ele>
        <time>2022-04-10T11:41:31Z</time>
      </trkpt>
      <trkpt lat="47.08423" lon="-1.63039">
        <ele>43</ele>
        <time>2022-04-10T11:41:33Z</time>
      </trkpt>
      <trkpt lat="47.08433" lon="-1.63026">
        <ele>43</ele>
        <time>2022-04-10T11:41:35Z</time>
      </trkpt>
      <trkpt lat="47.08442" lon="-1.63013">
        <ele>42</ele>
        <time>2022-04-10T11:41:37Z</time>
      </trkpt>
      <trkpt lat="47.0845" lon="-1.62999">
        <ele>42</ele>
        <time>2022-04-10T11:41:39Z</time>
      </trkpt>
      <trkpt lat="47.08458" lon="-1.62984">
        <ele>42</ele>
        <time>2022-04-10T11:41:41Z</time>
      </trkpt>
      <trkpt lat="47.08466" lon="-1.62972">
        <ele>43</ele>
        <time>2022-04-10T11:41:43Z</time>
      </trkpt>
      <trkpt lat="47.08473" lon="-1.62958">
        <ele>42</ele>
        <time>2022-04-10T11:41:45Z</time>
      </trkpt>
      <trkpt lat="47.08481" lon="-1.62945">
        <ele>42</ele>
        <time>2022-04-10T11:41:47Z</time>
      </trkpt>
      <trkpt lat="47.08489" lon="-1.62933">
        <ele>42</ele>
        <time>2022-04-10T11:41:49Z</time>
      </trkpt>
      <trkpt lat="47.08497" lon="-1.6292">
        <ele>42</ele>
        <time>2022-04-10T11:41:51Z</time>
      </trkpt>
      <trkpt lat="47.08505" lon="-1.62908">
        <ele>42</ele>
        <time>2022-04-10T11:41:53Z</time>
      </trkpt>
      <trkpt lat="47.08512" lon="-1.62895">
        <ele>42</ele>
        <time>2022-04-10T11:41:55Z</time>
      </trkpt>
      <trkpt lat="47.08521" lon="-1.62883">
        <ele>43</ele>
        <time>2022-04-10T11:41:57Z</time>
      </trkpt>
      <trkpt lat="47.08529" lon="-1.62871">
        <ele>43</ele>
        <time>2022-04-10T11:41:59Z</time>
      </trkpt>
      <trkpt lat="47.08537" lon="-1.62858">
        <ele>43</ele>
        <time>2022-04-10T11:42:01Z</time>
      </trkpt>
      <trkpt lat="47.08545" lon="-1.62846">
        <ele>43</ele>
        <time>2022-04-10T11:42:03Z</time>
      </trkpt>
      <trkpt lat="47.08555" lon="-1.62835">
        <ele>43</ele>
        <time>2022-04-10T11:42:05Z</time>
      </trkpt>
      <trkpt lat="47.08565" lon="-1.62825">
        <ele>42</ele>
        <time>2022-04-10T11:42:07Z</time>
      </trkpt>
      <trkpt lat="47.08574" lon="-1.62816">
        <ele>42</ele>
        <time>2022-04-10T11:42:09Z</time>
      </trkpt>
      <trkpt lat="47.08579" lon="-1.62803">
        <ele>42</ele>
        <time>2022-04-10T11:42:11Z</time>
      </trkpt>
      <trkpt lat="47.08579" lon="-1.62786">
        <ele>43</ele>
        <time>2022-04-10T11:42:13Z</time>
      </trkpt>
      <trkpt lat="47.08578" lon="-1.62768">
        <ele>43</ele>
        <time>2022-04-10T11:42:15Z</time>
      </trkpt>
      <trkpt lat="47.08578" lon="-1.62751">
        <ele>43</ele>
        <time>2022-04-10T11:42:17Z</time>
      </trkpt>
      <trkpt lat="47.08578" lon="-1.62734">
        <ele>43</ele>
        <time>2022-04-10T11:42:19Z</time>
      </trkpt>
      <trkpt lat="47.08579" lon="-1.62716">
        <ele>44</ele>
        <time>2022-04-10T11:42:21Z</time>
      </trkpt>
      <trkpt lat="47.08579" lon="-1.62699">
        <ele>44</ele>
        <time>2022-04-10T11:42:23Z</time>
      </trkpt>
      <trkpt lat="47.0858" lon="-1.62682">
        <ele>44</ele>
        <time>2022-04-10T11:42:25Z</time>
      </trkpt>
      <trkpt lat="47.0858" lon="-1.62666">
        <ele>44</ele>
        <time>2022-04-10T11:42:27Z</time>
      </trkpt>
      <trkpt lat="47.08581" lon="-1.6265">
        <ele>44</ele>
        <time>2022-04-10T11:42:29Z</time>
      </trkpt>
      <trkpt lat="47.08582" lon="-1.62633">
        <ele>44</ele>
        <time>2022-04-10T11:42:31Z</time>
      </trkpt>
      <trkpt lat="47.08582" lon="-1.62616">
        <ele>44</ele>
        <time>2022-04-10T11:42:33Z</time>
      </trkpt>
      <trkpt lat="47.08583" lon="-1.62599">
        <ele>43</ele>
        <time>2022-04-10T11:42:35Z</time>
      </trkpt>
      <trkpt lat="47.08584" lon="-1.62581">
        <ele>43</ele>
        <time>2022-04-10T11:42:37Z</time>
      </trkpt>
      <trkpt lat="47.08585" lon="-1.62564">
        <ele>43</ele>
        <time>2022-04-10T11:42:39Z</time>
      </trkpt>
      <trkpt lat="47.08586" lon="-1.62547">
        <ele>42</ele>
        <time>2022-04-10T11:42:41Z</time>
      </trkpt>
      <trkpt lat="47.08587" lon="-1.6253">
        <ele>42</ele>
        <time>2022-04-10T11:42:43Z</time>
      </trkpt>
      <trkpt lat="47.08589" lon="-1.62515">
        <ele>42</ele>
        <time>2022-04-10T11:42:45Z</time>
      </trkpt>
      <trkpt lat="47.08589" lon="-1.62498">
        <ele>42</ele>
        <time>2022-04-10T11:42:47Z</time>
      </trkpt>
      <trkpt lat="47.08589" lon="-1.62482">
        <ele>43</ele>
        <time>2022-04-10T11:42:49Z</time>
      </trkpt>
      <trkpt lat="47.0859" lon="-1.62465">
        <ele>42</ele>
        <time>2022-04-10T11:42:51Z</time>
      </trkpt>
      <trkpt lat="47.08591" lon="-1.62448">
        <ele>43</ele>
        <time>2022-04-10T11:42:53Z</time>
      </trkpt>
      <trkpt lat="47.08591" lon="-1.62431">
        <ele>43</ele>
        <time>2022-04-10T11:42:55Z</time>
      </trkpt>
      <trkpt lat="47.08592" lon="-1.62414">
        <ele>43</ele>
        <time>2022-04-10T11:42:57Z</time>
      </trkpt>
      <trkpt lat="47.08593" lon="-1.62398">
        <ele>43</ele>
        <time>2022-04-10T11:42:59Z</time>
      </trkpt>
      <trkpt lat="47.08593" lon="-1.62381">
        <ele>43</ele>
        <time>2022-04-10T11:43:01Z</time>
      </trkpt>
      <trkpt lat="47.08596" lon="-1.62365">
        <ele>43</ele>
        <time>2022-04-10T11:43:03Z</time>
      </trkpt>
      <trkpt lat="47.08603" lon="-1.62352">
        <ele>43</ele>
        <time>2022-04-10T11:43:05Z</time>
      </trkpt>
      <trkpt lat="47.08613" lon="-1.62344">
        <ele>43</ele>
        <time>2022-04-10T11:43:07Z</time>
      </trkpt>
      <trkpt lat="47.08624" lon="-1.6234">
        <ele>44</ele>
        <time>2022-04-10T11:43:09Z</time>
      </trkpt>
      <trkpt lat="47.08635" lon="-1.62336">
        <ele>44</ele>
        <time>2022-04-10T11:43:11Z</time>
      </trkpt>
      <trkpt lat="47.08646" lon="-1.62332">
        <ele>44</ele>
        <time>2022-04-10T11:43:13Z</time>
      </trkpt>
      <trkpt lat="47.08658" lon="-1.62327">
        <ele>44</ele>
        <time>2022-04-10T11:43:15Z</time>
      </trkpt>
      <trkpt lat="47.08669" lon="-1.62323">
        <ele>44</ele>
        <time>2022-04-10T11:43:17Z</time>
      </trkpt>
      <trkpt lat="47.08681" lon="-1.62318">
        <ele>44</ele>
        <time>2022-04-10T11:43:19Z</time>
      </trkpt>
      <trkpt lat="47.08693" lon="-1.62314">
        <ele>44</ele>
        <time>2022-04-10T11:43:21Z</time>
      </trkpt>
      <trkpt lat="47.08704" lon="-1.62309">
        <ele>44</ele>
        <time>2022-04-10T11:43:23Z</time>
      </trkpt>
      <trkpt lat="47.08715" lon="-1.62304">
        <ele>44</ele>
        <time>2022-04-10T11:43:25Z</time>
      </trkpt>
      <trkpt lat="47.08726" lon="-1.62299">
        <ele>44</ele>
        <time>2022-04-10T11:43:27Z</time>
      </trkpt>
      <trkpt lat="47.08738" lon="-1.62295">
        <ele>44</ele>
        <time>2022-04-10T11:43:29Z</time>
      </trkpt>
      <trkpt lat="47.08749" lon="-1.62289">
        <ele>44</ele>
        <time>2022-04-10T11:43:31Z</time>
      </trkpt>
      <trkpt lat="47.0876" lon="-1.62284">
        <ele>44</ele>
        <time>2022-04-10T11:43:33Z</time>
      </trkpt>
      <trkpt lat="47.08772" lon="-1.62279">
        <ele>44</ele>
        <time>2022-04-10T11:43:35Z</time>
      </trkpt>
      <trkpt lat="47.08783" lon="-1.62275">
        <ele>44</ele>
        <time>2022-04-10T11:43:37Z</time>
      </trkpt>
      <trkpt lat="47.08794" lon="-1.62271">
        <ele>44</ele>
        <time>2022-04-10T11:43:39Z</time>
      </trkpt>
      <trkpt lat="47.08806" lon="-1.62265">
        <ele>44</ele>
        <time>2022-04-10T11:43:41Z</time>
      </trkpt>
      <trkpt lat="47.08817" lon="-1.6226">
        <ele>45</ele>
        <time>2022-04-10T11:43:43Z</time>
      </trkpt>
      <trkpt lat="47.08828" lon="-1.62255">
        <ele>45</ele>
        <time>2022-04-10T11:43:45Z</time>
      </trkpt>
      <trkpt lat="47.0884" lon="-1.62251">
        <ele>45</ele>
        <time>2022-04-10T11:43:47Z</time>
      </trkpt>
      <trkpt lat="47.08852" lon="-1.62246">
        <ele>45</ele>
        <time>2022-04-10T11:43:49Z</time>
      </trkpt>
      <trkpt lat="47.08864" lon="-1.62242">
        <ele>45</ele>
        <time>2022-04-10T11:43:51Z</time>
      </trkpt>
      <trkpt lat="47.08876" lon="-1.62237">
        <ele>45</ele>
        <time>2022-04-10T11:43:53Z</time>
      </trkpt>
      <trkpt lat="47.08888" lon="-1.62232">
        <ele>45</ele>
        <time>2022-04-10T11:43:55Z</time>
      </trkpt>
      <trkpt lat="47.089" lon="-1.62227">
        <ele>45</ele>
        <time>2022-04-10T11:43:57Z</time>
      </trkpt>
      <trkpt lat="47.08911" lon="-1.62222">
        <ele>45</ele>
        <time>2022-04-10T11:43:59Z</time>
      </trkpt>
      <trkpt lat="47.08923" lon="-1.62217">
        <ele>45</ele>
        <time>2022-04-10T11:44:01Z</time>
      </trkpt>
      <trkpt lat="47.08935" lon="-1.62212">
        <ele>45</ele>
        <time>2022-04-10T11:44:03Z</time>
      </trkpt>
      <trkpt lat="47.08947" lon="-1.62207">
        <ele>46</ele>
        <time>2022-04-10T11:44:05Z</time>
      </trkpt>
      <trkpt lat="47.08958" lon="-1.62202">
        <ele>46</ele>
        <time>2022-04-10T11:44:07Z</time>
      </trkpt>
      <trkpt lat="47.08969" lon="-1.62198">
        <ele>46</ele>
        <time>2022-04-10T11:44:09Z</time>
      </trkpt>
      <trkpt lat="47.08981" lon="-1.62193">
        <ele>46</ele>
        <time>2022-04-10T11:44:11Z</time>
      </trkpt>
      <trkpt lat="47.08992" lon="-1.62189">
        <ele>46</ele>
        <time>2022-04-10T11:44:13Z</time>
      </trkpt>
      <trkpt lat="47.09004" lon="-1.62184">
        <ele>47</ele>
        <time>2022-04-10T11:44:15Z</time>
      </trkpt>
      <trkpt lat="47.09015" lon="-1.6218">
        <ele>47</ele>
        <time>2022-04-10T11:44:17Z</time>
      </trkpt>
      <trkpt lat="47.09026" lon="-1.62175">
        <ele>47</ele>
        <time>2022-04-10T11:44:19Z</time>
      </trkpt>
      <trkpt lat="47.09037" lon="-1.6217">
        <ele>47</ele>
        <time>2022-04-10T11:44:21Z</time>
      </trkpt>
      <trkpt lat="47.09049" lon="-1.62166">
        <ele>48</ele>
        <time>2022-04-10T11:44:23Z</time>
      </trkpt>
      <trkpt lat="47.0906" lon="-1.62161">
        <ele>47</ele>
        <time>2022-04-10T11:44:25Z</time>
      </trkpt>
      <trkpt lat="47.09071" lon="-1.62156">
        <ele>48</ele>
        <time>2022-04-10T11:44:27Z</time>
      </trkpt>
      <trkpt lat="47.09082" lon="-1.62152">
        <ele>47</ele>
        <time>2022-04-10T11:44:29Z</time>
      </trkpt>
      <trkpt lat="47.09094" lon="-1.62147">
        <ele>48</ele>
        <time>2022-04-10T11:44:31Z</time>
      </trkpt>
      <trkpt lat="47.09105" lon="-1.62142">
        <ele>48</ele>
        <time>2022-04-10T11:44:33Z</time>
      </trkpt>
      <trkpt lat="47.09116" lon="-1.62137">
        <ele>48</ele>
        <time>2022-04-10T11:44:35Z</time>
      </trkpt>
      <trkpt lat="47.09128" lon="-1.62132">
        <ele>48</ele>
        <time>2022-04-10T11:44:37Z</time>
      </trkpt>
      <trkpt lat="47.09139" lon="-1.62127">
        <ele>48</ele>
        <time>2022-04-10T11:44:39Z</time>
      </trkpt>
      <trkpt lat="47.09151" lon="-1.62123">
        <ele>48</ele>
        <time>2022-04-10T11:44:41Z</time>
      </trkpt>
      <trkpt lat="47.09162" lon="-1.62118">
        <ele>48</ele>
        <time>2022-04-10T11:44:43Z</time>
      </trkpt>
      <trkpt lat="47.09173" lon="-1.62113">
        <ele>47</ele>
        <time>2022-04-10T11:44:45Z</time>
      </trkpt>
      <trkpt lat="47.09181" lon="-1.62103">
        <ele>48</ele>
        <time>2022-04-10T11:44:47Z</time>
      </trkpt>
      <trkpt lat="47.09181" lon="-1.62087">
        <ele>48</ele>
        <time>2022-04-10T11:44:49Z</time>
      </trkpt>
      <trkpt lat="47.09174" lon="-1.62073">
        <ele>48</ele>
        <time>2022-04-10T11:44:51Z</time>
      </trkpt>
      <trkpt lat="47.09168" lon="-1.62059">
        <ele>48</ele>
        <time>2022-04-10T11:44:53Z</time>
      </trkpt>
      <trkpt lat="47.09163" lon="-1.62044">
        <ele>48</ele>
        <time>2022-04-10T11:44:55Z</time>
      </trkpt>
      <trkpt lat="47.09158" lon="-1.62031">
        <ele>49</ele>
        <time>2022-04-10T11:44:57Z</time>
      </trkpt>
      <trkpt lat="47.09153" lon="-1.62017">
        <ele>49</ele>
        <time>2022-04-10T11:44:59Z</time>
      </trkpt>
      <trkpt lat="47.09148" lon="-1.62002">
        <ele>49</ele>
        <time>2022-04-10T11:45:01Z</time>
      </trkpt>
      <trkpt lat="47.09143" lon="-1.61988">
        <ele>50</ele>
        <time>2022-04-10T11:45:03Z</time>
      </trkpt>
      <trkpt lat="47.09137" lon="-1.61974">
        <ele>50</ele>
        <time>2022-04-10T11:45:05Z</time>
      </trkpt>
      <trkpt lat="47.09132" lon="-1.61959">
        <ele>50</ele>
        <time>2022-04-10T11:45:07Z</time>
      </trkpt>
      <trkpt lat="47.09127" lon="-1.61945">
        <ele>50</ele>
        <time>2022-04-10T11:45:09Z</time>
      </trkpt>
      <trkpt lat="47.09122" lon="-1.6193">
        <ele>51</ele>
        <time>2022-04-10T11:45:11Z</time>
      </trkpt>
      <trkpt lat="47.09116" lon="-1.61915">
        <ele>51</ele>
        <time>2022-04-10T11:45:13Z</time>
      </trkpt>
      <trkpt lat="47.09111" lon="-1.619">
        <ele>51</ele>
        <time>2022-04-10T11:45:15Z</time>
      </trkpt>
      <trkpt lat="47.09105" lon="-1.61886">
        <ele>51</ele>
        <time>2022-04-10T11:45:17Z</time>
      </trkpt>
      <trkpt lat="47.091" lon="-1.61872">
        <ele>52</ele>
        <time>2022-04-10T11:45:19Z</time>
      </trkpt>
      <trkpt lat="47.09095" lon="-1.61857">
        <ele>52</ele>
        <time>2022-04-10T11:45:21Z</time>
      </trkpt>
      <trkpt lat="47.0909" lon="-1.61843">
        <ele>52</ele>
        <time>2022-04-10T11:45:23Z</time>
      </trkpt>
      <trkpt lat="47.09085" lon="-1.61828">
        <ele>52</ele>
        <time>2022-04-10T11:45:25Z</time>
      </trkpt>
      <trkpt lat="47.09079" lon="-1.61814">
        <ele>52</ele>
        <time>2022-04-10T11:45:27Z</time>
      </trkpt>
      <trkpt lat="47.09074" lon="-1.618">
        <ele>52</ele>
        <time>2022-04-10T11:45:29Z</time>
      </trkpt>
      <trkpt lat="47.09069" lon="-1.61785">
        <ele>53</ele>
        <time>2022-04-10T11:45:31Z</time>
      </trkpt>
      <trkpt lat="47.09064" lon="-1.61772">
        <ele>53</ele>
        <time>2022-04-10T11:45:33Z</time>
      </trkpt>
      <trkpt lat="47.09059" lon="-1.61759">
        <ele>53</ele>
        <time>2022-04-10T11:45:35Z</time>
      </trkpt>
      <trkpt lat="47.09055" lon="-1.61745">
        <ele>53</ele>
        <time>2022-04-10T11:45:37Z</time>
      </trkpt>
      <trkpt lat="47.09049" lon="-1.6173">
        <ele>53</ele>
        <time>2022-04-10T11:45:39Z</time>
      </trkpt>
      <trkpt lat="47.09044" lon="-1.61716">
        <ele>53</ele>
        <time>2022-04-10T11:45:41Z</time>
      </trkpt>
      <trkpt lat="47.09039" lon="-1.61702">
        <ele>53</ele>
        <time>2022-04-10T11:45:43Z</time>
      </trkpt>
      <trkpt lat="47.09034" lon="-1.61688">
        <ele>52</ele>
        <time>2022-04-10T11:45:45Z</time>
      </trkpt>
      <trkpt lat="47.09029" lon="-1.61674">
        <ele>52</ele>
        <time>2022-04-10T11:45:47Z</time>
      </trkpt>
      <trkpt lat="47.09024" lon="-1.6166">
        <ele>52</ele>
        <time>2022-04-10T11:45:49Z</time>
      </trkpt>
      <trkpt lat="47.0902" lon="-1.61645">
        <ele>52</ele>
        <time>2022-04-10T11:45:51Z</time>
      </trkpt>
      <trkpt lat="47.09015" lon="-1.61631">
        <ele>52</ele>
        <time>2022-04-10T11:45:53Z</time>
      </trkpt>
      <trkpt lat="47.09009" lon="-1.61618">
        <ele>52</ele>
        <time>2022-04-10T11:45:55Z</time>
      </trkpt>
      <trkpt lat="47.09004" lon="-1.61607">
        <ele>52</ele>
        <time>2022-04-10T11:45:57Z</time>
      </trkpt>
      <trkpt lat="47.08998" lon="-1.61594">
        <ele>53</ele>
        <time>2022-04-10T11:45:59Z</time>
      </trkpt>
      <trkpt lat="47.08999" lon="-1.6158">
        <ele>53</ele>
        <time>2022-04-10T11:46:01Z</time>
      </trkpt>
      <trkpt lat="47.09009" lon="-1.61572">
        <ele>52</ele>
        <time>2022-04-10T11:46:03Z</time>
      </trkpt>
      <trkpt lat="47.0902" lon="-1.61568">
        <ele>52</ele>
        <time>2022-04-10T11:46:05Z</time>
      </trkpt>
      <trkpt lat="47.0903" lon="-1.61562">
        <ele>51</ele>
        <time>2022-04-10T11:46:07Z</time>
      </trkpt>
      <trkpt lat="47.09041" lon="-1.61555">
        <ele>50</ele>
        <time>2022-04-10T11:46:09Z</time>
      </trkpt>
      <trkpt lat="47.09052" lon="-1.61549">
        <ele>50</ele>
        <time>2022-04-10T11:46:11Z</time>
      </trkpt>
      <trkpt lat="47.09062" lon="-1.61544">
        <ele>50</ele>
        <time>2022-04-10T11:46:13Z</time>
      </trkpt>
      <trkpt lat="47.09073" lon="-1.61538">
        <ele>50</ele>
        <time>2022-04-10T11:46:15Z</time>
      </trkpt>
      <trkpt lat="47.09084" lon="-1.61532">
        <ele>50</ele>
        <time>2022-04-10T11:46:17Z</time>
      </trkpt>
      <trkpt lat="47.09094" lon="-1.61526">
        <ele>50</ele>
        <time>2022-04-10T11:46:19Z</time>
      </trkpt>
      <trkpt lat="47.09104" lon="-1.61521">
        <ele>50</ele>
        <time>2022-04-10T11:46:21Z</time>
      </trkpt>
      <trkpt lat="47.09114" lon="-1.61515">
        <ele>50</ele>
        <time>2022-04-10T11:46:23Z</time>
      </trkpt>
      <trkpt lat="47.09124" lon="-1.61509">
        <ele>50</ele>
        <time>2022-04-10T11:46:25Z</time>
      </trkpt>
      <trkpt lat="47.09134" lon="-1.61504">
        <ele>50</ele>
        <time>2022-04-10T11:46:27Z</time>
      </trkpt>
      <trkpt lat="47.09144" lon="-1.61498">
        <ele>50</ele>
        <time>2022-04-10T11:46:29Z</time>
      </trkpt>
      <trkpt lat="47.09155" lon="-1.61493">
        <ele>49</ele>
        <time>2022-04-10T11:46:31Z</time>
      </trkpt>
      <trkpt lat="47.09165" lon="-1.61486">
        <ele>49</ele>
        <time>2022-04-10T11:46:33Z</time>
      </trkpt>
      <trkpt lat="47.09175" lon="-1.6148">
        <ele>49</ele>
        <time>2022-04-10T11:46:35Z</time>
      </trkpt>
      <trkpt lat="47.09186" lon="-1.61474">
        <ele>49</ele>
        <time>2022-04-10T11:46:37Z</time>
      </trkpt>
      <trkpt lat="47.09196" lon="-1.61469">
        <ele>49</ele>
        <time>2022-04-10T11:46:39Z</time>
      </trkpt>
      <trkpt lat="47.09207" lon="-1.61462">
        <ele>49</ele>
        <time>2022-04-10T11:46:41Z</time>
      </trkpt>
      <trkpt lat="47.09217" lon="-1.61456">
        <ele>49</ele>
        <time>2022-04-10T11:46:43Z</time>
      </trkpt>
      <trkpt lat="47.09228" lon="-1.6145">
        <ele>49</ele>
        <time>2022-04-10T11:46:45Z</time>
      </trkpt>
      <trkpt lat="47.09239" lon="-1.61443">
        <ele>49</ele>
        <time>2022-04-10T11:46:47Z</time>
      </trkpt>
      <trkpt lat="47.09249" lon="-1.61437">
        <ele>49</ele>
        <time>2022-04-10T11:46:49Z</time>
      </trkpt>
      <trkpt lat="47.0926" lon="-1.61431">
        <ele>49</ele>
        <time>2022-04-10T11:46:51Z</time>
      </trkpt>
      <trkpt lat="47.09271" lon="-1.61425">
        <ele>49</ele>
        <time>2022-04-10T11:46:53Z</time>
      </trkpt>
      <trkpt lat="47.0928" lon="-1.61417">
        <ele>49</ele>
        <time>2022-04-10T11:46:55Z</time>
      </trkpt>
      <trkpt lat="47.09281" lon="-1.61401">
        <ele>49</ele>
        <time>2022-04-10T11:46:57Z</time>
      </trkpt>
      <trkpt lat="47.09278" lon="-1.61385">
        <ele>50</ele>
        <time>2022-04-10T11:46:59Z</time>
      </trkpt>
      <trkpt lat="47.09275" lon="-1.61369">
        <ele>50</ele>
        <time>2022-04-10T11:47:01Z</time>
      </trkpt>
      <trkpt lat="47.09273" lon="-1.61354">
        <ele>50</ele>
        <time>2022-04-10T11:47:03Z</time>
      </trkpt>
      <trkpt lat="47.0927" lon="-1.61339">
        <ele>51</ele>
        <time>2022-04-10T11:47:05Z</time>
      </trkpt>
      <trkpt lat="47.09267" lon="-1.61323">
        <ele>51</ele>
        <time>2022-04-10T11:47:07Z</time>
      </trkpt>
      <trkpt lat="47.09264" lon="-1.61307">
        <ele>52</ele>
        <time>2022-04-10T11:47:09Z</time>
      </trkpt>
      <trkpt lat="47.09261" lon="-1.61292">
        <ele>52</ele>
        <time>2022-04-10T11:47:11Z</time>
      </trkpt>
      <trkpt lat="47.09257" lon="-1.61277">
        <ele>52</ele>
        <time>2022-04-10T11:47:13Z</time>
      </trkpt>
      <trkpt lat="47.09253" lon="-1.61262">
        <ele>53</ele>
        <time>2022-04-10T11:47:15Z</time>
      </trkpt>
      <trkpt lat="47.0925" lon="-1.61248">
        <ele>53</ele>
        <time>2022-04-10T11:47:17Z</time>
      </trkpt>
      <trkpt lat="47.09246" lon="-1.61234">
        <ele>53</ele>
        <time>2022-04-10T11:47:19Z</time>
      </trkpt>
      <trkpt lat="47.09243" lon="-1.61222">
        <ele>53</ele>
        <time>2022-04-10T11:47:21Z</time>
      </trkpt>
      <trkpt lat="47.09239" lon="-1.61206">
        <ele>54</ele>
        <time>2022-04-10T11:47:24Z</time>
      </trkpt>
      <trkpt lat="47.09234" lon="-1.61193">
        <ele>54</ele>
        <time>2022-04-10T11:47:28Z</time>
      </trkpt>
      <trkpt lat="47.09237" lon="-1.61181">
        <ele>54</ele>
        <time>2022-04-10T11:47:33Z</time>
      </trkpt>
      <trkpt lat="47.09249" lon="-1.61176">
        <ele>56</ele>
        <time>2022-04-10T11:47:37Z</time>
      </trkpt>
      <trkpt lat="47.09261" lon="-1.6118">
        <ele>57</ele>
        <time>2022-04-10T11:47:39Z</time>
      </trkpt>
      <trkpt lat="47.09272" lon="-1.61184">
        <ele>57</ele>
        <time>2022-04-10T11:47:41Z</time>
      </trkpt>
      <trkpt lat="47.09284" lon="-1.61189">
        <ele>57</ele>
        <time>2022-04-10T11:47:43Z</time>
      </trkpt>
      <trkpt lat="47.09296" lon="-1.61194">
        <ele>57</ele>
        <time>2022-04-10T11:47:45Z</time>
      </trkpt>
      <trkpt lat="47.09308" lon="-1.61198">
        <ele>57</ele>
        <time>2022-04-10T11:47:47Z</time>
      </trkpt>
      <trkpt lat="47.09319" lon="-1.61201">
        <ele>57</ele>
        <time>2022-04-10T11:47:49Z</time>
      </trkpt>
      <trkpt lat="47.0933" lon="-1.61204">
        <ele>57</ele>
        <time>2022-04-10T11:47:51Z</time>
      </trkpt>
      <trkpt lat="47.09341" lon="-1.61207">
        <ele>57</ele>
        <time>2022-04-10T11:47:53Z</time>
      </trkpt>
      <trkpt lat="47.09353" lon="-1.6121">
        <ele>57</ele>
        <time>2022-04-10T11:47:55Z</time>
      </trkpt>
      <trkpt lat="47.09366" lon="-1.61213">
        <ele>55</ele>
        <time>2022-04-10T11:47:57Z</time>
      </trkpt>
      <trkpt lat="47.09379" lon="-1.61218">
        <ele>54</ele>
        <time>2022-04-10T11:47:59Z</time>
      </trkpt>
      <trkpt lat="47.09391" lon="-1.61223">
        <ele>52</ele>
        <time>2022-04-10T11:48:01Z</time>
      </trkpt>
      <trkpt lat="47.09403" lon="-1.61229">
        <ele>52</ele>
        <time>2022-04-10T11:48:03Z</time>
      </trkpt>
      <trkpt lat="47.09415" lon="-1.61231">
        <ele>51</ele>
        <time>2022-04-10T11:48:05Z</time>
      </trkpt>
      <trkpt lat="47.09426" lon="-1.61224">
        <ele>51</ele>
        <time>2022-04-10T11:48:07Z</time>
      </trkpt>
      <trkpt lat="47.09436" lon="-1.61211">
        <ele>51</ele>
        <time>2022-04-10T11:48:09Z</time>
      </trkpt>
      <trkpt lat="47.09447" lon="-1.61199">
        <ele>51</ele>
        <time>2022-04-10T11:48:11Z</time>
      </trkpt>
      <trkpt lat="47.09457" lon="-1.61187">
        <ele>51</ele>
        <time>2022-04-10T11:48:13Z</time>
      </trkpt>
      <trkpt lat="47.09467" lon="-1.61176">
        <ele>51</ele>
        <time>2022-04-10T11:48:15Z</time>
      </trkpt>
      <trkpt lat="47.09478" lon="-1.61164">
        <ele>51</ele>
        <time>2022-04-10T11:48:17Z</time>
      </trkpt>
      <trkpt lat="47.09488" lon="-1.61154">
        <ele>52</ele>
        <time>2022-04-10T11:48:19Z</time>
      </trkpt>
      <trkpt lat="47.095" lon="-1.61146">
        <ele>52</ele>
        <time>2022-04-10T11:48:21Z</time>
      </trkpt>
      <trkpt lat="47.09512" lon="-1.6114">
        <ele>51</ele>
        <time>2022-04-10T11:48:23Z</time>
      </trkpt>
      <trkpt lat="47.09524" lon="-1.61137">
        <ele>51</ele>
        <time>2022-04-10T11:48:25Z</time>
      </trkpt>
      <trkpt lat="47.09537" lon="-1.61134">
        <ele>50</ele>
        <time>2022-04-10T11:48:27Z</time>
      </trkpt>
      <trkpt lat="47.09549" lon="-1.61133">
        <ele>50</ele>
        <time>2022-04-10T11:48:29Z</time>
      </trkpt>
      <trkpt lat="47.09563" lon="-1.61131">
        <ele>49</ele>
        <time>2022-04-10T11:48:31Z</time>
      </trkpt>
      <trkpt lat="47.09577" lon="-1.61129">
        <ele>48</ele>
        <time>2022-04-10T11:48:33Z</time>
      </trkpt>
      <trkpt lat="47.09591" lon="-1.61127">
        <ele>47</ele>
        <time>2022-04-10T11:48:35Z</time>
      </trkpt>
      <trkpt lat="47.09604" lon="-1.61126">
        <ele>46</ele>
        <time>2022-04-10T11:48:37Z</time>
      </trkpt>
      <trkpt lat="47.09617" lon="-1.61124">
        <ele>46</ele>
        <time>2022-04-10T11:48:39Z</time>
      </trkpt>
      <trkpt lat="47.0963" lon="-1.61123">
        <ele>46</ele>
        <time>2022-04-10T11:48:41Z</time>
      </trkpt>
      <trkpt lat="47.09643" lon="-1.61122">
        <ele>46</ele>
        <time>2022-04-10T11:48:43Z</time>
      </trkpt>
      <trkpt lat="47.09656" lon="-1.61121">
        <ele>46</ele>
        <time>2022-04-10T11:48:45Z</time>
      </trkpt>
      <trkpt lat="47.09668" lon="-1.6112">
        <ele>46</ele>
        <time>2022-04-10T11:48:47Z</time>
      </trkpt>
      <trkpt lat="47.09682" lon="-1.61119">
        <ele>46</ele>
        <time>2022-04-10T11:48:49Z</time>
      </trkpt>
      <trkpt lat="47.09695" lon="-1.61117">
        <ele>46</ele>
        <time>2022-04-10T11:48:51Z</time>
      </trkpt>
      <trkpt lat="47.09708" lon="-1.61115">
        <ele>46</ele>
        <time>2022-04-10T11:48:53Z</time>
      </trkpt>
      <trkpt lat="47.09721" lon="-1.61113">
        <ele>46</ele>
        <time>2022-04-10T11:48:55Z</time>
      </trkpt>
      <trkpt lat="47.09735" lon="-1.61112">
        <ele>45</ele>
        <time>2022-04-10T11:48:57Z</time>
      </trkpt>
      <trkpt lat="47.09747" lon="-1.6111">
        <ele>46</ele>
        <time>2022-04-10T11:48:59Z</time>
      </trkpt>
      <trkpt lat="47.09759" lon="-1.61109">
        <ele>46</ele>
        <time>2022-04-10T11:49:01Z</time>
      </trkpt>
      <trkpt lat="47.09771" lon="-1.61107">
        <ele>46</ele>
        <time>2022-04-10T11:49:03Z</time>
      </trkpt>
      <trkpt lat="47.09782" lon="-1.61105">
        <ele>46</ele>
        <time>2022-04-10T11:49:05Z</time>
      </trkpt>
      <trkpt lat="47.09794" lon="-1.611">
        <ele>46</ele>
        <time>2022-04-10T11:49:07Z</time>
      </trkpt>
      <trkpt lat="47.09806" lon="-1.61094">
        <ele>46</ele>
        <time>2022-04-10T11:49:09Z</time>
      </trkpt>
      <trkpt lat="47.09818" lon="-1.61087">
        <ele>46</ele>
        <time>2022-04-10T11:49:11Z</time>
      </trkpt>
      <trkpt lat="47.09829" lon="-1.61078">
        <ele>46</ele>
        <time>2022-04-10T11:49:13Z</time>
      </trkpt>
      <trkpt lat="47.09839" lon="-1.61068">
        <ele>47</ele>
        <time>2022-04-10T11:49:15Z</time>
      </trkpt>
      <trkpt lat="47.09849" lon="-1.61056">
        <ele>47</ele>
        <time>2022-04-10T11:49:17Z</time>
      </trkpt>
      <trkpt lat="47.09857" lon="-1.61044">
        <ele>48</ele>
        <time>2022-04-10T11:49:19Z</time>
      </trkpt>
      <trkpt lat="47.09864" lon="-1.6103">
        <ele>49</ele>
        <time>2022-04-10T11:49:21Z</time>
      </trkpt>
      <trkpt lat="47.09871" lon="-1.61016">
        <ele>49</ele>
        <time>2022-04-10T11:49:23Z</time>
      </trkpt>
      <trkpt lat="47.09878" lon="-1.61">
        <ele>49</ele>
        <time>2022-04-10T11:49:25Z</time>
      </trkpt>
      <trkpt lat="47.09884" lon="-1.60985">
        <ele>49</ele>
        <time>2022-04-10T11:49:27Z</time>
      </trkpt>
      <trkpt lat="47.0989" lon="-1.6097">
        <ele>50</ele>
        <time>2022-04-10T11:49:29Z</time>
      </trkpt>
      <trkpt lat="47.09896" lon="-1.60955">
        <ele>50</ele>
        <time>2022-04-10T11:49:31Z</time>
      </trkpt>
      <trkpt lat="47.09902" lon="-1.6094">
        <ele>50</ele>
        <time>2022-04-10T11:49:33Z</time>
      </trkpt>
      <trkpt lat="47.09907" lon="-1.60925">
        <ele>50</ele>
        <time>2022-04-10T11:49:35Z</time>
      </trkpt>
      <trkpt lat="47.09913" lon="-1.60911">
        <ele>50</ele>
        <time>2022-04-10T11:49:37Z</time>
      </trkpt>
      <trkpt lat="47.09919" lon="-1.60897">
        <ele>50</ele>
        <time>2022-04-10T11:49:39Z</time>
      </trkpt>
      <trkpt lat="47.09925" lon="-1.60883">
        <ele>51</ele>
        <time>2022-04-10T11:49:41Z</time>
      </trkpt>
      <trkpt lat="47.0993" lon="-1.60868">
        <ele>51</ele>
        <time>2022-04-10T11:49:43Z</time>
      </trkpt>
      <trkpt lat="47.09936" lon="-1.60854">
        <ele>51</ele>
        <time>2022-04-10T11:49:45Z</time>
      </trkpt>
      <trkpt lat="47.09941" lon="-1.60839">
        <ele>50</ele>
        <time>2022-04-10T11:49:47Z</time>
      </trkpt>
      <trkpt lat="47.09945" lon="-1.60824">
        <ele>51</ele>
        <time>2022-04-10T11:49:49Z</time>
      </trkpt>
      <trkpt lat="47.09951" lon="-1.60808">
        <ele>51</ele>
        <time>2022-04-10T11:49:51Z</time>
      </trkpt>
      <trkpt lat="47.09955" lon="-1.60793">
        <ele>51</ele>
        <time>2022-04-10T11:49:53Z</time>
      </trkpt>
      <trkpt lat="47.0996" lon="-1.60777">
        <ele>52</ele>
        <time>2022-04-10T11:49:55Z</time>
      </trkpt>
      <trkpt lat="47.09965" lon="-1.60762">
        <ele>52</ele>
        <time>2022-04-10T11:49:57Z</time>
      </trkpt>
      <trkpt lat="47.09969" lon="-1.60746">
        <ele>52</ele>
        <time>2022-04-10T11:49:59Z</time>
      </trkpt>
      <trkpt lat="47.09974" lon="-1.60731">
        <ele>52</ele>
        <time>2022-04-10T11:50:01Z</time>
      </trkpt>
      <trkpt lat="47.09978" lon="-1.60716">
        <ele>53</ele>
        <time>2022-04-10T11:50:03Z</time>
      </trkpt>
      <trkpt lat="47.09982" lon="-1.607">
        <ele>53</ele>
        <time>2022-04-10T11:50:05Z</time>
      </trkpt>
      <trkpt lat="47.09987" lon="-1.60685">
        <ele>53</ele>
        <time>2022-04-10T11:50:07Z</time>
      </trkpt>
      <trkpt lat="47.09992" lon="-1.60669">
        <ele>53</ele>
        <time>2022-04-10T11:50:09Z</time>
      </trkpt>
      <trkpt lat="47.09997" lon="-1.60653">
        <ele>53</ele>
        <time>2022-04-10T11:50:11Z</time>
      </trkpt>
      <trkpt lat="47.10001" lon="-1.60638">
        <ele>53</ele>
        <time>2022-04-10T11:50:13Z</time>
      </trkpt>
      <trkpt lat="47.10005" lon="-1.60623">
        <ele>54</ele>
        <time>2022-04-10T11:50:15Z</time>
      </trkpt>
      <trkpt lat="47.1001" lon="-1.60608">
        <ele>54</ele>
        <time>2022-04-10T11:50:17Z</time>
      </trkpt>
      <trkpt lat="47.10015" lon="-1.60592">
        <ele>54</ele>
        <time>2022-04-10T11:50:19Z</time>
      </trkpt>
      <trkpt lat="47.10019" lon="-1.60577">
        <ele>54</ele>
        <time>2022-04-10T11:50:21Z</time>
      </trkpt>
      <trkpt lat="47.10024" lon="-1.60561">
        <ele>54</ele>
        <time>2022-04-10T11:50:23Z</time>
      </trkpt>
      <trkpt lat="47.10028" lon="-1.60545">
        <ele>54</ele>
        <time>2022-04-10T11:50:25Z</time>
      </trkpt>
      <trkpt lat="47.10033" lon="-1.60529">
        <ele>54</ele>
        <time>2022-04-10T11:50:27Z</time>
      </trkpt>
      <trkpt lat="47.10037" lon="-1.60513">
        <ele>54</ele>
        <time>2022-04-10T11:50:29Z</time>
      </trkpt>
      <trkpt lat="47.10042" lon="-1.60497">
        <ele>54</ele>
        <time>2022-04-10T11:50:31Z</time>
      </trkpt>
      <trkpt lat="47.10046" lon="-1.6048">
        <ele>53</ele>
        <time>2022-04-10T11:50:33Z</time>
      </trkpt>
      <trkpt lat="47.10049" lon="-1.60464">
        <ele>53</ele>
        <time>2022-04-10T11:50:35Z</time>
      </trkpt>
      <trkpt lat="47.10052" lon="-1.60447">
        <ele>53</ele>
        <time>2022-04-10T11:50:37Z</time>
      </trkpt>
      <trkpt lat="47.10055" lon="-1.6043">
        <ele>53</ele>
        <time>2022-04-10T11:50:39Z</time>
      </trkpt>
      <trkpt lat="47.10057" lon="-1.60413">
        <ele>53</ele>
        <time>2022-04-10T11:50:41Z</time>
      </trkpt>
      <trkpt lat="47.10059" lon="-1.60396">
        <ele>53</ele>
        <time>2022-04-10T11:50:43Z</time>
      </trkpt>
      <trkpt lat="47.10061" lon="-1.60378">
        <ele>54</ele>
        <time>2022-04-10T11:50:45Z</time>
      </trkpt>
      <trkpt lat="47.10062" lon="-1.60361">
        <ele>54</ele>
        <time>2022-04-10T11:50:47Z</time>
      </trkpt>
      <trkpt lat="47.10064" lon="-1.60343">
        <ele>54</ele>
        <time>2022-04-10T11:50:49Z</time>
      </trkpt>
      <trkpt lat="47.10066" lon="-1.60326">
        <ele>54</ele>
        <time>2022-04-10T11:50:51Z</time>
      </trkpt>
      <trkpt lat="47.10068" lon="-1.60309">
        <ele>54</ele>
        <time>2022-04-10T11:50:53Z</time>
      </trkpt>
      <trkpt lat="47.10069" lon="-1.60293">
        <ele>54</ele>
        <time>2022-04-10T11:50:55Z</time>
      </trkpt>
      <trkpt lat="47.10071" lon="-1.60276">
        <ele>54</ele>
        <time>2022-04-10T11:50:57Z</time>
      </trkpt>
      <trkpt lat="47.10072" lon="-1.6026">
        <ele>54</ele>
        <time>2022-04-10T11:50:59Z</time>
      </trkpt>
      <trkpt lat="47.10073" lon="-1.60243">
        <ele>54</ele>
        <time>2022-04-10T11:51:01Z</time>
      </trkpt>
      <trkpt lat="47.10074" lon="-1.60226">
        <ele>54</ele>
        <time>2022-04-10T11:51:03Z</time>
      </trkpt>
      <trkpt lat="47.10076" lon="-1.60209">
        <ele>54</ele>
        <time>2022-04-10T11:51:05Z</time>
      </trkpt>
      <trkpt lat="47.10077" lon="-1.60192">
        <ele>54</ele>
        <time>2022-04-10T11:51:07Z</time>
      </trkpt>
      <trkpt lat="47.10077" lon="-1.60175">
        <ele>53</ele>
        <time>2022-04-10T11:51:09Z</time>
      </trkpt>
      <trkpt lat="47.10073" lon="-1.6016">
        <ele>53</ele>
        <time>2022-04-10T11:51:11Z</time>
      </trkpt>
      <trkpt lat="47.10067" lon="-1.60146">
        <ele>54</ele>
        <time>2022-04-10T11:51:13Z</time>
      </trkpt>
      <trkpt lat="47.10065" lon="-1.60129">
        <ele>54</ele>
        <time>2022-04-10T11:51:15Z</time>
      </trkpt>
      <trkpt lat="47.10071" lon="-1.60112">
        <ele>53</ele>
        <time>2022-04-10T11:51:17Z</time>
      </trkpt>
      <trkpt lat="47.10082" lon="-1.60102">
        <ele>53</ele>
        <time>2022-04-10T11:51:19Z</time>
      </trkpt>
      <trkpt lat="47.10093" lon="-1.60099">
        <ele>53</ele>
        <time>2022-04-10T11:51:21Z</time>
      </trkpt>
      <trkpt lat="47.10102" lon="-1.6009">
        <ele>53</ele>
        <time>2022-04-10T11:51:23Z</time>
      </trkpt>
      <trkpt lat="47.10109" lon="-1.60076">
        <ele>53</ele>
        <time>2022-04-10T11:51:25Z</time>
      </trkpt>
      <trkpt lat="47.10116" lon="-1.60062">
        <ele>53</ele>
        <time>2022-04-10T11:51:27Z</time>
      </trkpt>
      <trkpt lat="47.10123" lon="-1.60049">
        <ele>54</ele>
        <time>2022-04-10T11:51:29Z</time>
      </trkpt>
      <trkpt lat="47.10131" lon="-1.60036">
        <ele>53</ele>
        <time>2022-04-10T11:51:31Z</time>
      </trkpt>
      <trkpt lat="47.10139" lon="-1.60024">
        <ele>53</ele>
        <time>2022-04-10T11:51:33Z</time>
      </trkpt>
      <trkpt lat="47.10147" lon="-1.60012">
        <ele>53</ele>
        <time>2022-04-10T11:51:35Z</time>
      </trkpt>
      <trkpt lat="47.10154" lon="-1.59999">
        <ele>53</ele>
        <time>2022-04-10T11:51:37Z</time>
      </trkpt>
      <trkpt lat="47.10162" lon="-1.59985">
        <ele>53</ele>
        <time>2022-04-10T11:51:39Z</time>
      </trkpt>
      <trkpt lat="47.1017" lon="-1.59972">
        <ele>52</ele>
        <time>2022-04-10T11:51:41Z</time>
      </trkpt>
      <trkpt lat="47.10178" lon="-1.59959">
        <ele>53</ele>
        <time>2022-04-10T11:51:43Z</time>
      </trkpt>
      <trkpt lat="47.10185" lon="-1.59948">
        <ele>53</ele>
        <time>2022-04-10T11:51:45Z</time>
      </trkpt>
      <trkpt lat="47.10193" lon="-1.59935">
        <ele>54</ele>
        <time>2022-04-10T11:51:47Z</time>
      </trkpt>
      <trkpt lat="47.102" lon="-1.59922">
        <ele>54</ele>
        <time>2022-04-10T11:51:49Z</time>
      </trkpt>
      <trkpt lat="47.10208" lon="-1.59909">
        <ele>54</ele>
        <time>2022-04-10T11:51:51Z</time>
      </trkpt>
      <trkpt lat="47.10216" lon="-1.59896">
        <ele>54</ele>
        <time>2022-04-10T11:51:53Z</time>
      </trkpt>
      <trkpt lat="47.10223" lon="-1.59883">
        <ele>54</ele>
        <time>2022-04-10T11:51:55Z</time>
      </trkpt>
      <trkpt lat="47.10231" lon="-1.5987">
        <ele>54</ele>
        <time>2022-04-10T11:51:57Z</time>
      </trkpt>
      <trkpt lat="47.10239" lon="-1.59857">
        <ele>54</ele>
        <time>2022-04-10T11:51:59Z</time>
      </trkpt>
      <trkpt lat="47.10247" lon="-1.59844">
        <ele>54</ele>
        <time>2022-04-10T11:52:01Z</time>
      </trkpt>
      <trkpt lat="47.10255" lon="-1.59832">
        <ele>53</ele>
        <time>2022-04-10T11:52:03Z</time>
      </trkpt>
      <trkpt lat="47.10263" lon="-1.5982">
        <ele>53</ele>
        <time>2022-04-10T11:52:05Z</time>
      </trkpt>
      <trkpt lat="47.10271" lon="-1.59807">
        <ele>53</ele>
        <time>2022-04-10T11:52:07Z</time>
      </trkpt>
      <trkpt lat="47.10278" lon="-1.59794">
        <ele>53</ele>
        <time>2022-04-10T11:52:09Z</time>
      </trkpt>
      <trkpt lat="47.10286" lon="-1.59781">
        <ele>53</ele>
        <time>2022-04-10T11:52:11Z</time>
      </trkpt>
      <trkpt lat="47.10294" lon="-1.59768">
        <ele>53</ele>
        <time>2022-04-10T11:52:13Z</time>
      </trkpt>
      <trkpt lat="47.10301" lon="-1.59756">
        <ele>53</ele>
        <time>2022-04-10T11:52:15Z</time>
      </trkpt>
      <trkpt lat="47.10307" lon="-1.59742">
        <ele>54</ele>
        <time>2022-04-10T11:52:17Z</time>
      </trkpt>
      <trkpt lat="47.10314" lon="-1.59728">
        <ele>56</ele>
        <time>2022-04-10T11:52:19Z</time>
      </trkpt>
      <trkpt lat="47.10321" lon="-1.59715">
        <ele>57</ele>
        <time>2022-04-10T11:52:21Z</time>
      </trkpt>
      <trkpt lat="47.10329" lon="-1.59703">
        <ele>57</ele>
        <time>2022-04-10T11:52:23Z</time>
      </trkpt>
      <trkpt lat="47.10337" lon="-1.5969">
        <ele>57</ele>
        <time>2022-04-10T11:52:25Z</time>
      </trkpt>
      <trkpt lat="47.10344" lon="-1.59676">
        <ele>58</ele>
        <time>2022-04-10T11:52:27Z</time>
      </trkpt>
      <trkpt lat="47.10352" lon="-1.59663">
        <ele>58</ele>
        <time>2022-04-10T11:52:29Z</time>
      </trkpt>
      <trkpt lat="47.10359" lon="-1.59652">
        <ele>59</ele>
        <time>2022-04-10T11:52:31Z</time>
      </trkpt>
      <trkpt lat="47.10367" lon="-1.5964">
        <ele>59</ele>
        <time>2022-04-10T11:52:33Z</time>
      </trkpt>
      <trkpt lat="47.10374" lon="-1.59627">
        <ele>59</ele>
        <time>2022-04-10T11:52:35Z</time>
      </trkpt>
      <trkpt lat="47.10381" lon="-1.59615">
        <ele>59</ele>
        <time>2022-04-10T11:52:37Z</time>
      </trkpt>
      <trkpt lat="47.10388" lon="-1.59603">
        <ele>59</ele>
        <time>2022-04-10T11:52:39Z</time>
      </trkpt>
      <trkpt lat="47.10395" lon="-1.5959">
        <ele>60</ele>
        <time>2022-04-10T11:52:41Z</time>
      </trkpt>
      <trkpt lat="47.10402" lon="-1.59579">
        <ele>60</ele>
        <time>2022-04-10T11:52:43Z</time>
      </trkpt>
      <trkpt lat="47.10411" lon="-1.59567">
        <ele>59</ele>
        <time>2022-04-10T11:52:45Z</time>
      </trkpt>
      <trkpt lat="47.10419" lon="-1.59555">
        <ele>58</ele>
        <time>2022-04-10T11:52:47Z</time>
      </trkpt>
      <trkpt lat="47.10427" lon="-1.59542">
        <ele>57</ele>
        <time>2022-04-10T11:52:49Z</time>
      </trkpt>
      <trkpt lat="47.10435" lon="-1.59529">
        <ele>57</ele>
        <time>2022-04-10T11:52:51Z</time>
      </trkpt>
      <trkpt lat="47.10442" lon="-1.59517">
        <ele>57</ele>
        <time>2022-04-10T11:52:53Z</time>
      </trkpt>
      <trkpt lat="47.10449" lon="-1.59504">
        <ele>56</ele>
        <time>2022-04-10T11:52:55Z</time>
      </trkpt>
      <trkpt lat="47.10457" lon="-1.59491">
        <ele>56</ele>
        <time>2022-04-10T11:52:57Z</time>
      </trkpt>
      <trkpt lat="47.10465" lon="-1.59479">
        <ele>56</ele>
        <time>2022-04-10T11:52:59Z</time>
      </trkpt>
      <trkpt lat="47.10472" lon="-1.59467">
        <ele>55</ele>
        <time>2022-04-10T11:53:01Z</time>
      </trkpt>
      <trkpt lat="47.1048" lon="-1.59455">
        <ele>55</ele>
        <time>2022-04-10T11:53:03Z</time>
      </trkpt>
      <trkpt lat="47.10487" lon="-1.59443">
        <ele>55</ele>
        <time>2022-04-10T11:53:05Z</time>
      </trkpt>
      <trkpt lat="47.10495" lon="-1.5943">
        <ele>54</ele>
        <time>2022-04-10T11:53:07Z</time>
      </trkpt>
      <trkpt lat="47.10502" lon="-1.59417">
        <ele>54</ele>
        <time>2022-04-10T11:53:09Z</time>
      </trkpt>
      <trkpt lat="47.10509" lon="-1.59404">
        <ele>54</ele>
        <time>2022-04-10T11:53:11Z</time>
      </trkpt>
      <trkpt lat="47.10516" lon="-1.59392">
        <ele>54</ele>
        <time>2022-04-10T11:53:13Z</time>
      </trkpt>
      <trkpt lat="47.10524" lon="-1.5938">
        <ele>54</ele>
        <time>2022-04-10T11:53:15Z</time>
      </trkpt>
      <trkpt lat="47.10531" lon="-1.59368">
        <ele>54</ele>
        <time>2022-04-10T11:53:17Z</time>
      </trkpt>
      <trkpt lat="47.10538" lon="-1.59355">
        <ele>55</ele>
        <time>2022-04-10T11:53:19Z</time>
      </trkpt>
      <trkpt lat="47.10545" lon="-1.59343">
        <ele>54</ele>
        <time>2022-04-10T11:53:21Z</time>
      </trkpt>
      <trkpt lat="47.10552" lon="-1.59331">
        <ele>54</ele>
        <time>2022-04-10T11:53:23Z</time>
      </trkpt>
      <trkpt lat="47.10559" lon="-1.59319">
        <ele>55</ele>
        <time>2022-04-10T11:53:25Z</time>
      </trkpt>
      <trkpt lat="47.10569" lon="-1.59301">
        <ele>55</ele>
        <time>2022-04-10T11:53:28Z</time>
      </trkpt>
      <trkpt lat="47.10576" lon="-1.59288">
        <ele>56</ele>
        <time>2022-04-10T11:53:30Z</time>
      </trkpt>
      <trkpt lat="47.10583" lon="-1.59276">
        <ele>56</ele>
        <time>2022-04-10T11:53:32Z</time>
      </trkpt>
      <trkpt lat="47.1059" lon="-1.59264">
        <ele>56</ele>
        <time>2022-04-10T11:53:34Z</time>
      </trkpt>
      <trkpt lat="47.10597" lon="-1.59254">
        <ele>56</ele>
        <time>2022-04-10T11:53:36Z</time>
      </trkpt>
      <trkpt lat="47.10603" lon="-1.59244">
        <ele>56</ele>
        <time>2022-04-10T11:53:38Z</time>
      </trkpt>
      <trkpt lat="47.10609" lon="-1.59234">
        <ele>56</ele>
        <time>2022-04-10T11:53:40Z</time>
      </trkpt>
      <trkpt lat="47.10619" lon="-1.59219">
        <ele>57</ele>
        <time>2022-04-10T11:53:43Z</time>
      </trkpt>
      <trkpt lat="47.10625" lon="-1.59208">
        <ele>57</ele>
        <time>2022-04-10T11:53:45Z</time>
      </trkpt>
      <trkpt lat="47.10631" lon="-1.59195">
        <ele>57</ele>
        <time>2022-04-10T11:53:47Z</time>
      </trkpt>
      <trkpt lat="47.10637" lon="-1.59183">
        <ele>57</ele>
        <time>2022-04-10T11:53:49Z</time>
      </trkpt>
      <trkpt lat="47.10643" lon="-1.59172">
        <ele>58</ele>
        <time>2022-04-10T11:53:51Z</time>
      </trkpt>
      <trkpt lat="47.10649" lon="-1.59159">
        <ele>58</ele>
        <time>2022-04-10T11:53:53Z</time>
      </trkpt>
      <trkpt lat="47.10655" lon="-1.59146">
        <ele>59</ele>
        <time>2022-04-10T11:53:55Z</time>
      </trkpt>
      <trkpt lat="47.1066" lon="-1.59132">
        <ele>59</ele>
        <time>2022-04-10T11:53:57Z</time>
      </trkpt>
      <trkpt lat="47.10664" lon="-1.59118">
        <ele>59</ele>
        <time>2022-04-10T11:53:59Z</time>
      </trkpt>
      <trkpt lat="47.10669" lon="-1.59105">
        <ele>60</ele>
        <time>2022-04-10T11:54:01Z</time>
      </trkpt>
      <trkpt lat="47.10673" lon="-1.59091">
        <ele>60</ele>
        <time>2022-04-10T11:54:03Z</time>
      </trkpt>
      <trkpt lat="47.10677" lon="-1.59078">
        <ele>59</ele>
        <time>2022-04-10T11:54:05Z</time>
      </trkpt>
      <trkpt lat="47.10681" lon="-1.59064">
        <ele>59</ele>
        <time>2022-04-10T11:54:07Z</time>
      </trkpt>
      <trkpt lat="47.10684" lon="-1.5905">
        <ele>59</ele>
        <time>2022-04-10T11:54:09Z</time>
      </trkpt>
      <trkpt lat="47.10688" lon="-1.59038">
        <ele>60</ele>
        <time>2022-04-10T11:54:11Z</time>
      </trkpt>
      <trkpt lat="47.10693" lon="-1.59025">
        <ele>60</ele>
        <time>2022-04-10T11:54:13Z</time>
      </trkpt>
      <trkpt lat="47.10699" lon="-1.59015">
        <ele>60</ele>
        <time>2022-04-10T11:54:15Z</time>
      </trkpt>
      <trkpt lat="47.10705" lon="-1.59003">
        <ele>61</ele>
        <time>2022-04-10T11:54:17Z</time>
      </trkpt>
      <trkpt lat="47.10711" lon="-1.58991">
        <ele>61</ele>
        <time>2022-04-10T11:54:19Z</time>
      </trkpt>
      <trkpt lat="47.10717" lon="-1.58978">
        <ele>61</ele>
        <time>2022-04-10T11:54:21Z</time>
      </trkpt>
      <trkpt lat="47.10722" lon="-1.58965">
        <ele>61</ele>
        <time>2022-04-10T11:54:23Z</time>
      </trkpt>
      <trkpt lat="47.10727" lon="-1.58951">
        <ele>61</ele>
        <time>2022-04-10T11:54:25Z</time>
      </trkpt>
      <trkpt lat="47.10731" lon="-1.58938">
        <ele>61</ele>
        <time>2022-04-10T11:54:27Z</time>
      </trkpt>
      <trkpt lat="47.10736" lon="-1.58925">
        <ele>60</ele>
        <time>2022-04-10T11:54:29Z</time>
      </trkpt>
      <trkpt lat="47.10741" lon="-1.58912">
        <ele>60</ele>
        <time>2022-04-10T11:54:31Z</time>
      </trkpt>
      <trkpt lat="47.10747" lon="-1.58898">
        <ele>60</ele>
        <time>2022-04-10T11:54:33Z</time>
      </trkpt>
      <trkpt lat="47.10753" lon="-1.58885">
        <ele>60</ele>
        <time>2022-04-10T11:54:35Z</time>
      </trkpt>
      <trkpt lat="47.1076" lon="-1.58874">
        <ele>60</ele>
        <time>2022-04-10T11:54:37Z</time>
      </trkpt>
      <trkpt lat="47.10768" lon="-1.58864">
        <ele>60</ele>
        <time>2022-04-10T11:54:39Z</time>
      </trkpt>
      <trkpt lat="47.10776" lon="-1.58852">
        <ele>60</ele>
        <time>2022-04-10T11:54:41Z</time>
      </trkpt>
      <trkpt lat="47.10783" lon="-1.58839">
        <ele>60</ele>
        <time>2022-04-10T11:54:43Z</time>
      </trkpt>
      <trkpt lat="47.10791" lon="-1.58827">
        <ele>60</ele>
        <time>2022-04-10T11:54:45Z</time>
      </trkpt>
      <trkpt lat="47.10799" lon="-1.58815">
        <ele>60</ele>
        <time>2022-04-10T11:54:47Z</time>
      </trkpt>
      <trkpt lat="47.10807" lon="-1.58803">
        <ele>60</ele>
        <time>2022-04-10T11:54:49Z</time>
      </trkpt>
      <trkpt lat="47.10814" lon="-1.58791">
        <ele>59</ele>
        <time>2022-04-10T11:54:51Z</time>
      </trkpt>
      <trkpt lat="47.10822" lon="-1.58779">
        <ele>60</ele>
        <time>2022-04-10T11:54:53Z</time>
      </trkpt>
      <trkpt lat="47.1083" lon="-1.58767">
        <ele>60</ele>
        <time>2022-04-10T11:54:55Z</time>
      </trkpt>
      <trkpt lat="47.10838" lon="-1.58755">
        <ele>59</ele>
        <time>2022-04-10T11:54:57Z</time>
      </trkpt>
      <trkpt lat="47.10846" lon="-1.58742">
        <ele>59</ele>
        <time>2022-04-10T11:54:59Z</time>
      </trkpt>
      <trkpt lat="47.10854" lon="-1.58727">
        <ele>59</ele>
        <time>2022-04-10T11:55:01Z</time>
      </trkpt>
      <trkpt lat="47.10863" lon="-1.58716">
        <ele>59</ele>
        <time>2022-04-10T11:55:03Z</time>
      </trkpt>
      <trkpt lat="47.10872" lon="-1.58705">
        <ele>58</ele>
        <time>2022-04-10T11:55:05Z</time>
      </trkpt>
      <trkpt lat="47.10881" lon="-1.58692">
        <ele>58</ele>
        <time>2022-04-10T11:55:07Z</time>
      </trkpt>
      <trkpt lat="47.10889" lon="-1.58678">
        <ele>58</ele>
        <time>2022-04-10T11:55:09Z</time>
      </trkpt>
      <trkpt lat="47.10898" lon="-1.58665">
        <ele>57</ele>
        <time>2022-04-10T11:55:11Z</time>
      </trkpt>
      <trkpt lat="47.10907" lon="-1.58652">
        <ele>57</ele>
        <time>2022-04-10T11:55:13Z</time>
      </trkpt>
      <trkpt lat="47.10915" lon="-1.58638">
        <ele>57</ele>
        <time>2022-04-10T11:55:15Z</time>
      </trkpt>
      <trkpt lat="47.10925" lon="-1.58626">
        <ele>56</ele>
        <time>2022-04-10T11:55:17Z</time>
      </trkpt>
      <trkpt lat="47.10934" lon="-1.58614">
        <ele>56</ele>
        <time>2022-04-10T11:55:19Z</time>
      </trkpt>
      <trkpt lat="47.10944" lon="-1.58603">
        <ele>56</ele>
        <time>2022-04-10T11:55:21Z</time>
      </trkpt>
      <trkpt lat="47.10953" lon="-1.5859">
        <ele>56</ele>
        <time>2022-04-10T11:55:23Z</time>
      </trkpt>
      <trkpt lat="47.10962" lon="-1.58576">
        <ele>56</ele>
        <time>2022-04-10T11:55:25Z</time>
      </trkpt>
      <trkpt lat="47.10971" lon="-1.58564">
        <ele>56</ele>
        <time>2022-04-10T11:55:27Z</time>
      </trkpt>
      <trkpt lat="47.10979" lon="-1.58549">
        <ele>56</ele>
        <time>2022-04-10T11:55:29Z</time>
      </trkpt>
      <trkpt lat="47.10987" lon="-1.58535">
        <ele>55</ele>
        <time>2022-04-10T11:55:31Z</time>
      </trkpt>
      <trkpt lat="47.10996" lon="-1.58522">
        <ele>55</ele>
        <time>2022-04-10T11:55:33Z</time>
      </trkpt>
      <trkpt lat="47.11004" lon="-1.58508">
        <ele>55</ele>
        <time>2022-04-10T11:55:35Z</time>
      </trkpt>
      <trkpt lat="47.11013" lon="-1.58494">
        <ele>55</ele>
        <time>2022-04-10T11:55:37Z</time>
      </trkpt>
      <trkpt lat="47.11022" lon="-1.58481">
        <ele>55</ele>
        <time>2022-04-10T11:55:39Z</time>
      </trkpt>
      <trkpt lat="47.11031" lon="-1.58467">
        <ele>54</ele>
        <time>2022-04-10T11:55:41Z</time>
      </trkpt>
      <trkpt lat="47.11038" lon="-1.58453">
        <ele>54</ele>
        <time>2022-04-10T11:55:43Z</time>
      </trkpt>
      <trkpt lat="47.11045" lon="-1.58438">
        <ele>54</ele>
        <time>2022-04-10T11:55:45Z</time>
      </trkpt>
      <trkpt lat="47.11053" lon="-1.58423">
        <ele>54</ele>
        <time>2022-04-10T11:55:47Z</time>
      </trkpt>
      <trkpt lat="47.11061" lon="-1.58409">
        <ele>54</ele>
        <time>2022-04-10T11:55:49Z</time>
      </trkpt>
      <trkpt lat="47.11068" lon="-1.58394">
        <ele>54</ele>
        <time>2022-04-10T11:55:51Z</time>
      </trkpt>
      <trkpt lat="47.11074" lon="-1.58379">
        <ele>54</ele>
        <time>2022-04-10T11:55:53Z</time>
      </trkpt>
      <trkpt lat="47.11081" lon="-1.58364">
        <ele>54</ele>
        <time>2022-04-10T11:55:55Z</time>
      </trkpt>
      <trkpt lat="47.11088" lon="-1.58348">
        <ele>54</ele>
        <time>2022-04-10T11:55:57Z</time>
      </trkpt>
      <trkpt lat="47.11096" lon="-1.58334">
        <ele>53</ele>
        <time>2022-04-10T11:55:59Z</time>
      </trkpt>
      <trkpt lat="47.11104" lon="-1.58321">
        <ele>53</ele>
        <time>2022-04-10T11:56:01Z</time>
      </trkpt>
      <trkpt lat="47.11113" lon="-1.58309">
        <ele>53</ele>
        <time>2022-04-10T11:56:03Z</time>
      </trkpt>
      <trkpt lat="47.11123" lon="-1.58298">
        <ele>52</ele>
        <time>2022-04-10T11:56:05Z</time>
      </trkpt>
      <trkpt lat="47.11134" lon="-1.58287">
        <ele>52</ele>
        <time>2022-04-10T11:56:07Z</time>
      </trkpt>
      <trkpt lat="47.11144" lon="-1.58277">
        <ele>52</ele>
        <time>2022-04-10T11:56:09Z</time>
      </trkpt>
      <trkpt lat="47.11155" lon="-1.58266">
        <ele>52</ele>
        <time>2022-04-10T11:56:11Z</time>
      </trkpt>
      <trkpt lat="47.11164" lon="-1.58255">
        <ele>52</ele>
        <time>2022-04-10T11:56:13Z</time>
      </trkpt>
      <trkpt lat="47.11175" lon="-1.58244">
        <ele>52</ele>
        <time>2022-04-10T11:56:15Z</time>
      </trkpt>
      <trkpt lat="47.11184" lon="-1.58231">
        <ele>51</ele>
        <time>2022-04-10T11:56:17Z</time>
      </trkpt>
      <trkpt lat="47.11194" lon="-1.58219">
        <ele>51</ele>
        <time>2022-04-10T11:56:19Z</time>
      </trkpt>
      <trkpt lat="47.11203" lon="-1.58206">
        <ele>51</ele>
        <time>2022-04-10T11:56:21Z</time>
      </trkpt>
      <trkpt lat="47.11213" lon="-1.58194">
        <ele>51</ele>
        <time>2022-04-10T11:56:23Z</time>
      </trkpt>
      <trkpt lat="47.11222" lon="-1.58182">
        <ele>51</ele>
        <time>2022-04-10T11:56:25Z</time>
      </trkpt>
      <trkpt lat="47.11233" lon="-1.5817">
        <ele>51</ele>
        <time>2022-04-10T11:56:27Z</time>
      </trkpt>
      <trkpt lat="47.11243" lon="-1.58159">
        <ele>51</ele>
        <time>2022-04-10T11:56:29Z</time>
      </trkpt>
      <trkpt lat="47.11253" lon="-1.58149">
        <ele>51</ele>
        <time>2022-04-10T11:56:31Z</time>
      </trkpt>
      <trkpt lat="47.11264" lon="-1.58138">
        <ele>51</ele>
        <time>2022-04-10T11:56:33Z</time>
      </trkpt>
      <trkpt lat="47.11276" lon="-1.58128">
        <ele>50</ele>
        <time>2022-04-10T11:56:35Z</time>
      </trkpt>
      <trkpt lat="47.11288" lon="-1.58119">
        <ele>50</ele>
        <time>2022-04-10T11:56:37Z</time>
      </trkpt>
      <trkpt lat="47.113" lon="-1.58111">
        <ele>50</ele>
        <time>2022-04-10T11:56:39Z</time>
      </trkpt>
      <trkpt lat="47.11311" lon="-1.58103">
        <ele>50</ele>
        <time>2022-04-10T11:56:41Z</time>
      </trkpt>
      <trkpt lat="47.11323" lon="-1.58096">
        <ele>50</ele>
        <time>2022-04-10T11:56:43Z</time>
      </trkpt>
      <trkpt lat="47.11334" lon="-1.5809">
        <ele>50</ele>
        <time>2022-04-10T11:56:45Z</time>
      </trkpt>
      <trkpt lat="47.11346" lon="-1.58083">
        <ele>50</ele>
        <time>2022-04-10T11:56:47Z</time>
      </trkpt>
      <trkpt lat="47.11357" lon="-1.58075">
        <ele>49</ele>
        <time>2022-04-10T11:56:49Z</time>
      </trkpt>
      <trkpt lat="47.11368" lon="-1.58067">
        <ele>49</ele>
        <time>2022-04-10T11:56:51Z</time>
      </trkpt>
      <trkpt lat="47.1138" lon="-1.5806">
        <ele>49</ele>
        <time>2022-04-10T11:56:53Z</time>
      </trkpt>
      <trkpt lat="47.11391" lon="-1.58053">
        <ele>50</ele>
        <time>2022-04-10T11:56:55Z</time>
      </trkpt>
      <trkpt lat="47.11403" lon="-1.58046">
        <ele>50</ele>
        <time>2022-04-10T11:56:57Z</time>
      </trkpt>
      <trkpt lat="47.11414" lon="-1.58039">
        <ele>49</ele>
        <time>2022-04-10T11:56:59Z</time>
      </trkpt>
      <trkpt lat="47.11426" lon="-1.58033">
        <ele>50</ele>
        <time>2022-04-10T11:57:01Z</time>
      </trkpt>
      <trkpt lat="47.11437" lon="-1.58027">
        <ele>50</ele>
        <time>2022-04-10T11:57:03Z</time>
      </trkpt>
      <trkpt lat="47.1145" lon="-1.58022">
        <ele>50</ele>
        <time>2022-04-10T11:57:05Z</time>
      </trkpt>
      <trkpt lat="47.11462" lon="-1.58017">
        <ele>50</ele>
        <time>2022-04-10T11:57:07Z</time>
      </trkpt>
      <trkpt lat="47.11474" lon="-1.58014">
        <ele>50</ele>
        <time>2022-04-10T11:57:09Z</time>
      </trkpt>
      <trkpt lat="47.11486" lon="-1.58012">
        <ele>50</ele>
        <time>2022-04-10T11:57:11Z</time>
      </trkpt>
      <trkpt lat="47.11498" lon="-1.5801">
        <ele>50</ele>
        <time>2022-04-10T11:57:13Z</time>
      </trkpt>
      <trkpt lat="47.1151" lon="-1.58008">
        <ele>50</ele>
        <time>2022-04-10T11:57:15Z</time>
      </trkpt>
      <trkpt lat="47.11521" lon="-1.58008">
        <ele>50</ele>
        <time>2022-04-10T11:57:17Z</time>
      </trkpt>
      <trkpt lat="47.11532" lon="-1.58008">
        <ele>50</ele>
        <time>2022-04-10T11:57:19Z</time>
      </trkpt>
      <trkpt lat="47.11544" lon="-1.58008">
        <ele>50</ele>
        <time>2022-04-10T11:57:21Z</time>
      </trkpt>
      <trkpt lat="47.11555" lon="-1.58008">
        <ele>50</ele>
        <time>2022-04-10T11:57:23Z</time>
      </trkpt>
      <trkpt lat="47.11568" lon="-1.5801">
        <ele>50</ele>
        <time>2022-04-10T11:57:25Z</time>
      </trkpt>
      <trkpt lat="47.11579" lon="-1.58012">
        <ele>50</ele>
        <time>2022-04-10T11:57:27Z</time>
      </trkpt>
      <trkpt lat="47.11591" lon="-1.58014">
        <ele>50</ele>
        <time>2022-04-10T11:57:29Z</time>
      </trkpt>
      <trkpt lat="47.11603" lon="-1.58013">
        <ele>50</ele>
        <time>2022-04-10T11:57:31Z</time>
      </trkpt>
      <trkpt lat="47.11614" lon="-1.58009">
        <ele>50</ele>
        <time>2022-04-10T11:57:33Z</time>
      </trkpt>
      <trkpt lat="47.11623" lon="-1.58005">
        <ele>50</ele>
        <time>2022-04-10T11:57:35Z</time>
      </trkpt>
      <trkpt lat="47.11633" lon="-1.58004">
        <ele>50</ele>
        <time>2022-04-10T11:57:37Z</time>
      </trkpt>
      <trkpt lat="47.11641" lon="-1.5801">
        <ele>51</ele>
        <time>2022-04-10T11:57:39Z</time>
      </trkpt>
      <trkpt lat="47.11648" lon="-1.58021">
        <ele>51</ele>
        <time>2022-04-10T11:57:41Z</time>
      </trkpt>
      <trkpt lat="47.11659" lon="-1.58026">
        <ele>51</ele>
        <time>2022-04-10T11:57:43Z</time>
      </trkpt>
      <trkpt lat="47.11671" lon="-1.58027">
        <ele>52</ele>
        <time>2022-04-10T11:57:45Z</time>
      </trkpt>
      <trkpt lat="47.11684" lon="-1.58028">
        <ele>52</ele>
        <time>2022-04-10T11:57:47Z</time>
      </trkpt>
      <trkpt lat="47.11696" lon="-1.58029">
        <ele>52</ele>
        <time>2022-04-10T11:57:49Z</time>
      </trkpt>
      <trkpt lat="47.11708" lon="-1.58029">
        <ele>52</ele>
        <time>2022-04-10T11:57:51Z</time>
      </trkpt>
      <trkpt lat="47.1172" lon="-1.58031">
        <ele>52</ele>
        <time>2022-04-10T11:57:53Z</time>
      </trkpt>
      <trkpt lat="47.11732" lon="-1.58032">
        <ele>52</ele>
        <time>2022-04-10T11:57:55Z</time>
      </trkpt>
      <trkpt lat="47.11744" lon="-1.58034">
        <ele>53</ele>
        <time>2022-04-10T11:57:57Z</time>
      </trkpt>
      <trkpt lat="47.11756" lon="-1.58036">
        <ele>53</ele>
        <time>2022-04-10T11:57:59Z</time>
      </trkpt>
      <trkpt lat="47.11768" lon="-1.58039">
        <ele>53</ele>
        <time>2022-04-10T11:58:01Z</time>
      </trkpt>
      <trkpt lat="47.1178" lon="-1.58042">
        <ele>53</ele>
        <time>2022-04-10T11:58:03Z</time>
      </trkpt>
      <trkpt lat="47.11792" lon="-1.58045">
        <ele>53</ele>
        <time>2022-04-10T11:58:05Z</time>
      </trkpt>
      <trkpt lat="47.11804" lon="-1.58048">
        <ele>54</ele>
        <time>2022-04-10T11:58:07Z</time>
      </trkpt>
      <trkpt lat="47.11816" lon="-1.5805">
        <ele>54</ele>
        <time>2022-04-10T11:58:09Z</time>
      </trkpt>
      <trkpt lat="47.11828" lon="-1.58053">
        <ele>54</ele>
        <time>2022-04-10T11:58:11Z</time>
      </trkpt>
      <trkpt lat="47.1184" lon="-1.58056">
        <ele>55</ele>
        <time>2022-04-10T11:58:13Z</time>
      </trkpt>
      <trkpt lat="47.11852" lon="-1.58059">
        <ele>55</ele>
        <time>2022-04-10T11:58:15Z</time>
      </trkpt>
      <trkpt lat="47.11865" lon="-1.58062">
        <ele>55</ele>
        <time>2022-04-10T11:58:17Z</time>
      </trkpt>
      <trkpt lat="47.11876" lon="-1.58065">
        <ele>55</ele>
        <time>2022-04-10T11:58:19Z</time>
      </trkpt>
      <trkpt lat="47.11888" lon="-1.58068">
        <ele>56</ele>
        <time>2022-04-10T11:58:21Z</time>
      </trkpt>
      <trkpt lat="47.119" lon="-1.58071">
        <ele>56</ele>
        <time>2022-04-10T11:58:23Z</time>
      </trkpt>
      <trkpt lat="47.11911" lon="-1.58073">
        <ele>56</ele>
        <time>2022-04-10T11:58:25Z</time>
      </trkpt>
      <trkpt lat="47.11923" lon="-1.58076">
        <ele>56</ele>
        <time>2022-04-10T11:58:27Z</time>
      </trkpt>
      <trkpt lat="47.11935" lon="-1.58079">
        <ele>56</ele>
        <time>2022-04-10T11:58:29Z</time>
      </trkpt>
      <trkpt lat="47.11947" lon="-1.58083">
        <ele>56</ele>
        <time>2022-04-10T11:58:31Z</time>
      </trkpt>
      <trkpt lat="47.11959" lon="-1.58086">
        <ele>56</ele>
        <time>2022-04-10T11:58:33Z</time>
      </trkpt>
      <trkpt lat="47.1197" lon="-1.58089">
        <ele>56</ele>
        <time>2022-04-10T11:58:35Z</time>
      </trkpt>
      <trkpt lat="47.11982" lon="-1.58092">
        <ele>56</ele>
        <time>2022-04-10T11:58:37Z</time>
      </trkpt>
      <trkpt lat="47.11992" lon="-1.58096">
        <ele>57</ele>
        <time>2022-04-10T11:58:39Z</time>
      </trkpt>
      <trkpt lat="47.12002" lon="-1.58098">
        <ele>57</ele>
        <time>2022-04-10T11:58:41Z</time>
      </trkpt>
      <trkpt lat="47.12012" lon="-1.58094">
        <ele>58</ele>
        <time>2022-04-10T11:58:43Z</time>
      </trkpt>
      <trkpt lat="47.12023" lon="-1.58098">
        <ele>58</ele>
        <time>2022-04-10T11:58:45Z</time>
      </trkpt>
      <trkpt lat="47.12032" lon="-1.5811">
        <ele>56</ele>
        <time>2022-04-10T11:58:47Z</time>
      </trkpt>
      <trkpt lat="47.12043" lon="-1.58118">
        <ele>56</ele>
        <time>2022-04-10T11:58:49Z</time>
      </trkpt>
      <trkpt lat="47.12055" lon="-1.58125">
        <ele>55</ele>
        <time>2022-04-10T11:58:51Z</time>
      </trkpt>
      <trkpt lat="47.12067" lon="-1.58133">
        <ele>55</ele>
        <time>2022-04-10T11:58:53Z</time>
      </trkpt>
      <trkpt lat="47.12079" lon="-1.58141">
        <ele>55</ele>
        <time>2022-04-10T11:58:55Z</time>
      </trkpt>
      <trkpt lat="47.12091" lon="-1.58149">
        <ele>54</ele>
        <time>2022-04-10T11:58:57Z</time>
      </trkpt>
      <trkpt lat="47.12103" lon="-1.58157">
        <ele>54</ele>
        <time>2022-04-10T11:58:59Z</time>
      </trkpt>
      <trkpt lat="47.12115" lon="-1.58165">
        <ele>53</ele>
        <time>2022-04-10T11:59:01Z</time>
      </trkpt>
      <trkpt lat="47.12127" lon="-1.58176">
        <ele>52</ele>
        <time>2022-04-10T11:59:03Z</time>
      </trkpt>
      <trkpt lat="47.12138" lon="-1.58186">
        <ele>52</ele>
        <time>2022-04-10T11:59:05Z</time>
      </trkpt>
      <trkpt lat="47.1215" lon="-1.58198">
        <ele>52</ele>
        <time>2022-04-10T11:59:07Z</time>
      </trkpt>
      <trkpt lat="47.12162" lon="-1.5821">
        <ele>52</ele>
        <time>2022-04-10T11:59:09Z</time>
      </trkpt>
      <trkpt lat="47.12175" lon="-1.58223">
        <ele>52</ele>
        <time>2022-04-10T11:59:11Z</time>
      </trkpt>
      <trkpt lat="47.12187" lon="-1.58235">
        <ele>52</ele>
        <time>2022-04-10T11:59:13Z</time>
      </trkpt>
      <trkpt lat="47.12199" lon="-1.58247">
        <ele>52</ele>
        <time>2022-04-10T11:59:15Z</time>
      </trkpt>
      <trkpt lat="47.1221" lon="-1.58258">
        <ele>51</ele>
        <time>2022-04-10T11:59:17Z</time>
      </trkpt>
      <trkpt lat="47.12222" lon="-1.58268">
        <ele>51</ele>
        <time>2022-04-10T11:59:19Z</time>
      </trkpt>
      <trkpt lat="47.12233" lon="-1.58279">
        <ele>51</ele>
        <time>2022-04-10T11:59:21Z</time>
      </trkpt>
      <trkpt lat="47.12245" lon="-1.5829">
        <ele>51</ele>
        <time>2022-04-10T11:59:23Z</time>
      </trkpt>
      <trkpt lat="47.12256" lon="-1.58301">
        <ele>51</ele>
        <time>2022-04-10T11:59:25Z</time>
      </trkpt>
      <trkpt lat="47.12267" lon="-1.58312">
        <ele>51</ele>
        <time>2022-04-10T11:59:27Z</time>
      </trkpt>
      <trkpt lat="47.12278" lon="-1.58323">
        <ele>51</ele>
        <time>2022-04-10T11:59:29Z</time>
      </trkpt>
      <trkpt lat="47.12289" lon="-1.58334">
        <ele>52</ele>
        <time>2022-04-10T11:59:31Z</time>
      </trkpt>
      <trkpt lat="47.12298" lon="-1.58346">
        <ele>52</ele>
        <time>2022-04-10T11:59:33Z</time>
      </trkpt>
      <trkpt lat="47.123" lon="-1.58362">
        <ele>52</ele>
        <time>2022-04-10T11:59:35Z</time>
      </trkpt>
      <trkpt lat="47.123" lon="-1.58379">
        <ele>52</ele>
        <time>2022-04-10T11:59:37Z</time>
      </trkpt>
      <trkpt lat="47.12304" lon="-1.58395">
        <ele>53</ele>
        <time>2022-04-10T11:59:39Z</time>
      </trkpt>
      <trkpt lat="47.1231" lon="-1.5841">
        <ele>54</ele>
        <time>2022-04-10T11:59:41Z</time>
      </trkpt>
      <trkpt lat="47.12317" lon="-1.58424">
        <ele>54</ele>
        <time>2022-04-10T11:59:43Z</time>
      </trkpt>
      <trkpt lat="47.12329" lon="-1.58431">
        <ele>55</ele>
        <time>2022-04-10T11:59:45Z</time>
      </trkpt>
      <trkpt lat="47.12342" lon="-1.58432">
        <ele>55</ele>
        <time>2022-04-10T11:59:47Z</time>
      </trkpt>
      <trkpt lat="47.12354" lon="-1.58429">
        <ele>55</ele>
        <time>2022-04-10T11:59:49Z</time>
      </trkpt>
      <trkpt lat="47.12367" lon="-1.58426">
        <ele>55</ele>
        <time>2022-04-10T11:59:51Z</time>
      </trkpt>
      <trkpt lat="47.12379" lon="-1.58422">
        <ele>54</ele>
        <time>2022-04-10T11:59:53Z</time>
      </trkpt>
      <trkpt lat="47.12391" lon="-1.58417">
        <ele>54</ele>
        <time>2022-04-10T11:59:55Z</time>
      </trkpt>
      <trkpt lat="47.12404" lon="-1.58411">
        <ele>53</ele>
        <time>2022-04-10T11:59:57Z</time>
      </trkpt>
      <trkpt lat="47.12414" lon="-1.58401">
        <ele>53</ele>
        <time>2022-04-10T11:59:59Z</time>
      </trkpt>
      <trkpt lat="47.12425" lon="-1.58392">
        <ele>54</ele>
        <time>2022-04-10T12:00:01Z</time>
      </trkpt>
      <trkpt lat="47.12436" lon="-1.58383">
        <ele>54</ele>
        <time>2022-04-10T12:00:03Z</time>
      </trkpt>
      <trkpt lat="47.12446" lon="-1.58373">
        <ele>54</ele>
        <time>2022-04-10T12:00:05Z</time>
      </trkpt>
      <trkpt lat="47.12457" lon="-1.58365">
        <ele>54</ele>
        <time>2022-04-10T12:00:07Z</time>
      </trkpt>
      <trkpt lat="47.12467" lon="-1.58356">
        <ele>55</ele>
        <time>2022-04-10T12:00:09Z</time>
      </trkpt>
      <trkpt lat="47.12478" lon="-1.58347">
        <ele>55</ele>
        <time>2022-04-10T12:00:11Z</time>
      </trkpt>
      <trkpt lat="47.12488" lon="-1.58338">
        <ele>56</ele>
        <time>2022-04-10T12:00:13Z</time>
      </trkpt>
      <trkpt lat="47.12499" lon="-1.58329">
        <ele>57</ele>
        <time>2022-04-10T12:00:15Z</time>
      </trkpt>
      <trkpt lat="47.12509" lon="-1.58319">
        <ele>57</ele>
        <time>2022-04-10T12:00:17Z</time>
      </trkpt>
      <trkpt lat="47.1252" lon="-1.58309">
        <ele>57</ele>
        <time>2022-04-10T12:00:19Z</time>
      </trkpt>
      <trkpt lat="47.12531" lon="-1.58299">
        <ele>57</ele>
        <time>2022-04-10T12:00:21Z</time>
      </trkpt>
      <trkpt lat="47.12543" lon="-1.5829">
        <ele>58</ele>
        <time>2022-04-10T12:00:23Z</time>
      </trkpt>
      <trkpt lat="47.12555" lon="-1.58281">
        <ele>58</ele>
        <time>2022-04-10T12:00:25Z</time>
      </trkpt>
      <trkpt lat="47.12566" lon="-1.58272">
        <ele>58</ele>
        <time>2022-04-10T12:00:27Z</time>
      </trkpt>
      <trkpt lat="47.12578" lon="-1.58261">
        <ele>58</ele>
        <time>2022-04-10T12:00:29Z</time>
      </trkpt>
      <trkpt lat="47.1259" lon="-1.58251">
        <ele>58</ele>
        <time>2022-04-10T12:00:31Z</time>
      </trkpt>
      <trkpt lat="47.12601" lon="-1.58241">
        <ele>58</ele>
        <time>2022-04-10T12:00:33Z</time>
      </trkpt>
      <trkpt lat="47.12613" lon="-1.5823">
        <ele>57</ele>
        <time>2022-04-10T12:00:35Z</time>
      </trkpt>
      <trkpt lat="47.12625" lon="-1.58219">
        <ele>58</ele>
        <time>2022-04-10T12:00:37Z</time>
      </trkpt>
      <trkpt lat="47.12637" lon="-1.58208">
        <ele>57</ele>
        <time>2022-04-10T12:00:39Z</time>
      </trkpt>
      <trkpt lat="47.12649" lon="-1.58197">
        <ele>57</ele>
        <time>2022-04-10T12:00:41Z</time>
      </trkpt>
      <trkpt lat="47.12661" lon="-1.58186">
        <ele>57</ele>
        <time>2022-04-10T12:00:43Z</time>
      </trkpt>
      <trkpt lat="47.12673" lon="-1.58177">
        <ele>57</ele>
        <time>2022-04-10T12:00:45Z</time>
      </trkpt>
      <trkpt lat="47.12685" lon="-1.58167">
        <ele>57</ele>
        <time>2022-04-10T12:00:47Z</time>
      </trkpt>
      <trkpt lat="47.12696" lon="-1.58156">
        <ele>58</ele>
        <time>2022-04-10T12:00:49Z</time>
      </trkpt>
      <trkpt lat="47.12708" lon="-1.58144">
        <ele>58</ele>
        <time>2022-04-10T12:00:51Z</time>
      </trkpt>
      <trkpt lat="47.12719" lon="-1.58133">
        <ele>57</ele>
        <time>2022-04-10T12:00:53Z</time>
      </trkpt>
      <trkpt lat="47.12731" lon="-1.58122">
        <ele>57</ele>
        <time>2022-04-10T12:00:55Z</time>
      </trkpt>
      <trkpt lat="47.12741" lon="-1.58111">
        <ele>57</ele>
        <time>2022-04-10T12:00:57Z</time>
      </trkpt>
      <trkpt lat="47.12749" lon="-1.58097">
        <ele>56</ele>
        <time>2022-04-10T12:00:59Z</time>
      </trkpt>
      <trkpt lat="47.12761" lon="-1.5809">
        <ele>57</ele>
        <time>2022-04-10T12:01:01Z</time>
      </trkpt>
      <trkpt lat="47.12774" lon="-1.58079">
        <ele>57</ele>
        <time>2022-04-10T12:01:03Z</time>
      </trkpt>
      <trkpt lat="47.12787" lon="-1.58067">
        <ele>56</ele>
        <time>2022-04-10T12:01:05Z</time>
      </trkpt>
      <trkpt lat="47.128" lon="-1.58056">
        <ele>56</ele>
        <time>2022-04-10T12:01:07Z</time>
      </trkpt>
      <trkpt lat="47.12813" lon="-1.58046">
        <ele>56</ele>
        <time>2022-04-10T12:01:09Z</time>
      </trkpt>
      <trkpt lat="47.12827" lon="-1.58034">
        <ele>55</ele>
        <time>2022-04-10T12:01:11Z</time>
      </trkpt>
      <trkpt lat="47.1284" lon="-1.58022">
        <ele>55</ele>
        <time>2022-04-10T12:01:13Z</time>
      </trkpt>
      <trkpt lat="47.12852" lon="-1.58009">
        <ele>55</ele>
        <time>2022-04-10T12:01:15Z</time>
      </trkpt>
      <trkpt lat="47.12865" lon="-1.57996">
        <ele>55</ele>
        <time>2022-04-10T12:01:17Z</time>
      </trkpt>
      <trkpt lat="47.12878" lon="-1.57984">
        <ele>54</ele>
        <time>2022-04-10T12:01:19Z</time>
      </trkpt>
      <trkpt lat="47.12891" lon="-1.57972">
        <ele>54</ele>
        <time>2022-04-10T12:01:21Z</time>
      </trkpt>
      <trkpt lat="47.12904" lon="-1.5796">
        <ele>54</ele>
        <time>2022-04-10T12:01:23Z</time>
      </trkpt>
      <trkpt lat="47.12918" lon="-1.57953">
        <ele>54</ele>
        <time>2022-04-10T12:01:25Z</time>
      </trkpt>
      <trkpt lat="47.12933" lon="-1.57949">
        <ele>53</ele>
        <time>2022-04-10T12:01:27Z</time>
      </trkpt>
      <trkpt lat="47.12948" lon="-1.57948">
        <ele>53</ele>
        <time>2022-04-10T12:01:29Z</time>
      </trkpt>
      <trkpt lat="47.12963" lon="-1.57957">
        <ele>53</ele>
        <time>2022-04-10T12:01:31Z</time>
      </trkpt>
      <trkpt lat="47.12977" lon="-1.57963">
        <ele>52</ele>
        <time>2022-04-10T12:01:33Z</time>
      </trkpt>
      <trkpt lat="47.12992" lon="-1.57968">
        <ele>51</ele>
        <time>2022-04-10T12:01:35Z</time>
      </trkpt>
      <trkpt lat="47.13007" lon="-1.57973">
        <ele>51</ele>
        <time>2022-04-10T12:01:37Z</time>
      </trkpt>
      <trkpt lat="47.13021" lon="-1.57978">
        <ele>51</ele>
        <time>2022-04-10T12:01:39Z</time>
      </trkpt>
      <trkpt lat="47.13036" lon="-1.57983">
        <ele>51</ele>
        <time>2022-04-10T12:01:41Z</time>
      </trkpt>
      <trkpt lat="47.1305" lon="-1.57987">
        <ele>51</ele>
        <time>2022-04-10T12:01:43Z</time>
      </trkpt>
      <trkpt lat="47.13064" lon="-1.57991">
        <ele>51</ele>
        <time>2022-04-10T12:01:45Z</time>
      </trkpt>
      <trkpt lat="47.13078" lon="-1.57995">
        <ele>51</ele>
        <time>2022-04-10T12:01:47Z</time>
      </trkpt>
      <trkpt lat="47.13093" lon="-1.57998">
        <ele>51</ele>
        <time>2022-04-10T12:01:49Z</time>
      </trkpt>
      <trkpt lat="47.13107" lon="-1.58001">
        <ele>51</ele>
        <time>2022-04-10T12:01:51Z</time>
      </trkpt>
      <trkpt lat="47.13121" lon="-1.58003">
        <ele>51</ele>
        <time>2022-04-10T12:01:53Z</time>
      </trkpt>
      <trkpt lat="47.13135" lon="-1.58005">
        <ele>51</ele>
        <time>2022-04-10T12:01:55Z</time>
      </trkpt>
      <trkpt lat="47.13149" lon="-1.58007">
        <ele>52</ele>
        <time>2022-04-10T12:01:57Z</time>
      </trkpt>
      <trkpt lat="47.13163" lon="-1.58009">
        <ele>52</ele>
        <time>2022-04-10T12:01:59Z</time>
      </trkpt>
      <trkpt lat="47.13177" lon="-1.5801">
        <ele>52</ele>
        <time>2022-04-10T12:02:01Z</time>
      </trkpt>
      <trkpt lat="47.13192" lon="-1.58011">
        <ele>51</ele>
        <time>2022-04-10T12:02:03Z</time>
      </trkpt>
      <trkpt lat="47.13207" lon="-1.58012">
        <ele>51</ele>
        <time>2022-04-10T12:02:05Z</time>
      </trkpt>
      <trkpt lat="47.13222" lon="-1.58013">
        <ele>51</ele>
        <time>2022-04-10T12:02:07Z</time>
      </trkpt>
      <trkpt lat="47.13237" lon="-1.58013">
        <ele>51</ele>
        <time>2022-04-10T12:02:09Z</time>
      </trkpt>
      <trkpt lat="47.13251" lon="-1.58011">
        <ele>50</ele>
        <time>2022-04-10T12:02:11Z</time>
      </trkpt>
      <trkpt lat="47.13266" lon="-1.58007">
        <ele>50</ele>
        <time>2022-04-10T12:02:13Z</time>
      </trkpt>
      <trkpt lat="47.13279" lon="-1.58002">
        <ele>50</ele>
        <time>2022-04-10T12:02:15Z</time>
      </trkpt>
      <trkpt lat="47.13293" lon="-1.57997">
        <ele>51</ele>
        <time>2022-04-10T12:02:17Z</time>
      </trkpt>
      <trkpt lat="47.13306" lon="-1.57992">
        <ele>51</ele>
        <time>2022-04-10T12:02:19Z</time>
      </trkpt>
      <trkpt lat="47.13319" lon="-1.57989">
        <ele>52</ele>
        <time>2022-04-10T12:02:21Z</time>
      </trkpt>
      <trkpt lat="47.13332" lon="-1.57987">
        <ele>53</ele>
        <time>2022-04-10T12:02:23Z</time>
      </trkpt>
      <trkpt lat="47.13346" lon="-1.57988">
        <ele>53</ele>
        <time>2022-04-10T12:02:25Z</time>
      </trkpt>
      <trkpt lat="47.1336" lon="-1.57993">
        <ele>54</ele>
        <time>2022-04-10T12:02:27Z</time>
      </trkpt>
      <trkpt lat="47.13373" lon="-1.58002">
        <ele>54</ele>
        <time>2022-04-10T12:02:29Z</time>
      </trkpt>
      <trkpt lat="47.13386" lon="-1.58013">
        <ele>54</ele>
        <time>2022-04-10T12:02:31Z</time>
      </trkpt>
      <trkpt lat="47.13398" lon="-1.58023">
        <ele>55</ele>
        <time>2022-04-10T12:02:33Z</time>
      </trkpt>
      <trkpt lat="47.1341" lon="-1.58033">
        <ele>55</ele>
        <time>2022-04-10T12:02:35Z</time>
      </trkpt>
      <trkpt lat="47.13421" lon="-1.58043">
        <ele>55</ele>
        <time>2022-04-10T12:02:37Z</time>
      </trkpt>
      <trkpt lat="47.13433" lon="-1.58052">
        <ele>55</ele>
        <time>2022-04-10T12:02:39Z</time>
      </trkpt>
      <trkpt lat="47.13444" lon="-1.58062">
        <ele>55</ele>
        <time>2022-04-10T12:02:41Z</time>
      </trkpt>
      <trkpt lat="47.13456" lon="-1.58072">
        <ele>56</ele>
        <time>2022-04-10T12:02:43Z</time>
      </trkpt>
      <trkpt lat="47.13468" lon="-1.58082">
        <ele>56</ele>
        <time>2022-04-10T12:02:45Z</time>
      </trkpt>
      <trkpt lat="47.13479" lon="-1.58092">
        <ele>56</ele>
        <time>2022-04-10T12:02:47Z</time>
      </trkpt>
      <trkpt lat="47.13491" lon="-1.58101">
        <ele>56</ele>
        <time>2022-04-10T12:02:49Z</time>
      </trkpt>
      <trkpt lat="47.13503" lon="-1.5811">
        <ele>56</ele>
        <time>2022-04-10T12:02:51Z</time>
      </trkpt>
      <trkpt lat="47.13516" lon="-1.58118">
        <ele>56</ele>
        <time>2022-04-10T12:02:53Z</time>
      </trkpt>
      <trkpt lat="47.13529" lon="-1.58124">
        <ele>56</ele>
        <time>2022-04-10T12:02:55Z</time>
      </trkpt>
      <trkpt lat="47.13542" lon="-1.58128">
        <ele>56</ele>
        <time>2022-04-10T12:02:57Z</time>
      </trkpt>
      <trkpt lat="47.13555" lon="-1.58131">
        <ele>56</ele>
        <time>2022-04-10T12:02:59Z</time>
      </trkpt>
      <trkpt lat="47.13568" lon="-1.58132">
        <ele>56</ele>
        <time>2022-04-10T12:03:01Z</time>
      </trkpt>
      <trkpt lat="47.13581" lon="-1.58133">
        <ele>56</ele>
        <time>2022-04-10T12:03:03Z</time>
      </trkpt>
      <trkpt lat="47.13594" lon="-1.58135">
        <ele>56</ele>
        <time>2022-04-10T12:03:05Z</time>
      </trkpt>
      <trkpt lat="47.13607" lon="-1.58136">
        <ele>56</ele>
        <time>2022-04-10T12:03:07Z</time>
      </trkpt>
      <trkpt lat="47.1362" lon="-1.58137">
        <ele>56</ele>
        <time>2022-04-10T12:03:09Z</time>
      </trkpt>
      <trkpt lat="47.13633" lon="-1.58138">
        <ele>56</ele>
        <time>2022-04-10T12:03:11Z</time>
      </trkpt>
      <trkpt lat="47.13647" lon="-1.58139">
        <ele>56</ele>
        <time>2022-04-10T12:03:13Z</time>
      </trkpt>
      <trkpt lat="47.1366" lon="-1.5814">
        <ele>56</ele>
        <time>2022-04-10T12:03:15Z</time>
      </trkpt>
      <trkpt lat="47.13674" lon="-1.58141">
        <ele>57</ele>
        <time>2022-04-10T12:03:17Z</time>
      </trkpt>
      <trkpt lat="47.13687" lon="-1.58142">
        <ele>57</ele>
        <time>2022-04-10T12:03:19Z</time>
      </trkpt>
      <trkpt lat="47.13701" lon="-1.5814">
        <ele>57</ele>
        <time>2022-04-10T12:03:21Z</time>
      </trkpt>
      <trkpt lat="47.13715" lon="-1.58137">
        <ele>57</ele>
        <time>2022-04-10T12:03:23Z</time>
      </trkpt>
      <trkpt lat="47.13729" lon="-1.58129">
        <ele>57</ele>
        <time>2022-04-10T12:03:25Z</time>
      </trkpt>
      <trkpt lat="47.13741" lon="-1.58118">
        <ele>57</ele>
        <time>2022-04-10T12:03:27Z</time>
      </trkpt>
      <trkpt lat="47.13752" lon="-1.58105">
        <ele>57</ele>
        <time>2022-04-10T12:03:29Z</time>
      </trkpt>
      <trkpt lat="47.13762" lon="-1.58091">
        <ele>57</ele>
        <time>2022-04-10T12:03:31Z</time>
      </trkpt>
      <trkpt lat="47.13772" lon="-1.58076">
        <ele>57</ele>
        <time>2022-04-10T12:03:33Z</time>
      </trkpt>
      <trkpt lat="47.13782" lon="-1.58062">
        <ele>57</ele>
        <time>2022-04-10T12:03:35Z</time>
      </trkpt>
      <trkpt lat="47.13793" lon="-1.58048">
        <ele>57</ele>
        <time>2022-04-10T12:03:37Z</time>
      </trkpt>
      <trkpt lat="47.13803" lon="-1.58034">
        <ele>57</ele>
        <time>2022-04-10T12:03:39Z</time>
      </trkpt>
      <trkpt lat="47.13814" lon="-1.5802">
        <ele>57</ele>
        <time>2022-04-10T12:03:41Z</time>
      </trkpt>
      <trkpt lat="47.13824" lon="-1.58004">
        <ele>57</ele>
        <time>2022-04-10T12:03:43Z</time>
      </trkpt>
      <trkpt lat="47.13834" lon="-1.5799">
        <ele>57</ele>
        <time>2022-04-10T12:03:45Z</time>
      </trkpt>
      <trkpt lat="47.13845" lon="-1.57975">
        <ele>57</ele>
        <time>2022-04-10T12:03:47Z</time>
      </trkpt>
      <trkpt lat="47.13855" lon="-1.57961">
        <ele>57</ele>
        <time>2022-04-10T12:03:49Z</time>
      </trkpt>
      <trkpt lat="47.13865" lon="-1.57947">
        <ele>57</ele>
        <time>2022-04-10T12:03:51Z</time>
      </trkpt>
      <trkpt lat="47.13875" lon="-1.57932">
        <ele>58</ele>
        <time>2022-04-10T12:03:53Z</time>
      </trkpt>
      <trkpt lat="47.13885" lon="-1.57918">
        <ele>58</ele>
        <time>2022-04-10T12:03:55Z</time>
      </trkpt>
      <trkpt lat="47.13895" lon="-1.57904">
        <ele>58</ele>
        <time>2022-04-10T12:03:57Z</time>
      </trkpt>
      <trkpt lat="47.13905" lon="-1.5789">
        <ele>58</ele>
        <time>2022-04-10T12:03:59Z</time>
      </trkpt>
      <trkpt lat="47.13915" lon="-1.57876">
        <ele>58</ele>
        <time>2022-04-10T12:04:01Z</time>
      </trkpt>
      <trkpt lat="47.13926" lon="-1.57862">
        <ele>58</ele>
        <time>2022-04-10T12:04:03Z</time>
      </trkpt>
      <trkpt lat="47.13936" lon="-1.57847">
        <ele>58</ele>
        <time>2022-04-10T12:04:05Z</time>
      </trkpt>
      <trkpt lat="47.13947" lon="-1.57833">
        <ele>58</ele>
        <time>2022-04-10T12:04:07Z</time>
      </trkpt>
      <trkpt lat="47.13957" lon="-1.57819">
        <ele>58</ele>
        <time>2022-04-10T12:04:09Z</time>
      </trkpt>
      <trkpt lat="47.13967" lon="-1.57806">
        <ele>57</ele>
        <time>2022-04-10T12:04:11Z</time>
      </trkpt>
      <trkpt lat="47.13977" lon="-1.57792">
        <ele>58</ele>
        <time>2022-04-10T12:04:13Z</time>
      </trkpt>
      <trkpt lat="47.13987" lon="-1.57778">
        <ele>58</ele>
        <time>2022-04-10T12:04:15Z</time>
      </trkpt>
      <trkpt lat="47.13997" lon="-1.57765">
        <ele>58</ele>
        <time>2022-04-10T12:04:17Z</time>
      </trkpt>
      <trkpt lat="47.14007" lon="-1.57751">
        <ele>58</ele>
        <time>2022-04-10T12:04:19Z</time>
      </trkpt>
      <trkpt lat="47.14017" lon="-1.57737">
        <ele>59</ele>
        <time>2022-04-10T12:04:21Z</time>
      </trkpt>
      <trkpt lat="47.14026" lon="-1.57724">
        <ele>59</ele>
        <time>2022-04-10T12:04:23Z</time>
      </trkpt>
      <trkpt lat="47.14035" lon="-1.57711">
        <ele>59</ele>
        <time>2022-04-10T12:04:25Z</time>
      </trkpt>
      <trkpt lat="47.14045" lon="-1.57698">
        <ele>59</ele>
        <time>2022-04-10T12:04:27Z</time>
      </trkpt>
      <trkpt lat="47.14054" lon="-1.57685">
        <ele>60</ele>
        <time>2022-04-10T12:04:29Z</time>
      </trkpt>
      <trkpt lat="47.14063" lon="-1.5767">
        <ele>60</ele>
        <time>2022-04-10T12:04:31Z</time>
      </trkpt>
      <trkpt lat="47.14072" lon="-1.57655">
        <ele>60</ele>
        <time>2022-04-10T12:04:33Z</time>
      </trkpt>
      <trkpt lat="47.14079" lon="-1.57639">
        <ele>60</ele>
        <time>2022-04-10T12:04:35Z</time>
      </trkpt>
      <trkpt lat="47.14086" lon="-1.57623">
        <ele>60</ele>
        <time>2022-04-10T12:04:37Z</time>
      </trkpt>
      <trkpt lat="47.14094" lon="-1.57607">
        <ele>60</ele>
        <time>2022-04-10T12:04:39Z</time>
      </trkpt>
      <trkpt lat="47.14101" lon="-1.5759">
        <ele>59</ele>
        <time>2022-04-10T12:04:41Z</time>
      </trkpt>
      <trkpt lat="47.14108" lon="-1.57573">
        <ele>59</ele>
        <time>2022-04-10T12:04:43Z</time>
      </trkpt>
      <trkpt lat="47.14115" lon="-1.57556">
        <ele>58</ele>
        <time>2022-04-10T12:04:45Z</time>
      </trkpt>
      <trkpt lat="47.14122" lon="-1.57539">
        <ele>57</ele>
        <time>2022-04-10T12:04:47Z</time>
      </trkpt>
      <trkpt lat="47.1413" lon="-1.57522">
        <ele>56</ele>
        <time>2022-04-10T12:04:49Z</time>
      </trkpt>
      <trkpt lat="47.14137" lon="-1.57505">
        <ele>56</ele>
        <time>2022-04-10T12:04:51Z</time>
      </trkpt>
      <trkpt lat="47.14144" lon="-1.57487">
        <ele>56</ele>
        <time>2022-04-10T12:04:53Z</time>
      </trkpt>
      <trkpt lat="47.14152" lon="-1.57469">
        <ele>55</ele>
        <time>2022-04-10T12:04:55Z</time>
      </trkpt>
      <trkpt lat="47.1416" lon="-1.57452">
        <ele>55</ele>
        <time>2022-04-10T12:04:57Z</time>
      </trkpt>
      <trkpt lat="47.14167" lon="-1.57433">
        <ele>54</ele>
        <time>2022-04-10T12:04:59Z</time>
      </trkpt>
      <trkpt lat="47.14175" lon="-1.57414">
        <ele>54</ele>
        <time>2022-04-10T12:05:01Z</time>
      </trkpt>
      <trkpt lat="47.14183" lon="-1.57396">
        <ele>53</ele>
        <time>2022-04-10T12:05:03Z</time>
      </trkpt>
      <trkpt lat="47.14191" lon="-1.57378">
        <ele>53</ele>
        <time>2022-04-10T12:05:05Z</time>
      </trkpt>
      <trkpt lat="47.14199" lon="-1.57361">
        <ele>53</ele>
        <time>2022-04-10T12:05:07Z</time>
      </trkpt>
      <trkpt lat="47.14207" lon="-1.57344">
        <ele>54</ele>
        <time>2022-04-10T12:05:09Z</time>
      </trkpt>
      <trkpt lat="47.14214" lon="-1.57327">
        <ele>54</ele>
        <time>2022-04-10T12:05:11Z</time>
      </trkpt>
      <trkpt lat="47.14222" lon="-1.57311">
        <ele>54</ele>
        <time>2022-04-10T12:05:13Z</time>
      </trkpt>
      <trkpt lat="47.1423" lon="-1.57295">
        <ele>54</ele>
        <time>2022-04-10T12:05:15Z</time>
      </trkpt>
      <trkpt lat="47.14238" lon="-1.5728">
        <ele>55</ele>
        <time>2022-04-10T12:05:17Z</time>
      </trkpt>
      <trkpt lat="47.14247" lon="-1.57265">
        <ele>55</ele>
        <time>2022-04-10T12:05:19Z</time>
      </trkpt>
      <trkpt lat="47.14255" lon="-1.5725">
        <ele>55</ele>
        <time>2022-04-10T12:05:21Z</time>
      </trkpt>
      <trkpt lat="47.14263" lon="-1.57236">
        <ele>56</ele>
        <time>2022-04-10T12:05:23Z</time>
      </trkpt>
      <trkpt lat="47.1427" lon="-1.57221">
        <ele>56</ele>
        <time>2022-04-10T12:05:25Z</time>
      </trkpt>
      <trkpt lat="47.14277" lon="-1.57207">
        <ele>56</ele>
        <time>2022-04-10T12:05:27Z</time>
      </trkpt>
      <trkpt lat="47.14283" lon="-1.57192">
        <ele>56</ele>
        <time>2022-04-10T12:05:29Z</time>
      </trkpt>
      <trkpt lat="47.14289" lon="-1.57176">
        <ele>56</ele>
        <time>2022-04-10T12:05:31Z</time>
      </trkpt>
      <trkpt lat="47.14295" lon="-1.5716">
        <ele>56</ele>
        <time>2022-04-10T12:05:33Z</time>
      </trkpt>
      <trkpt lat="47.14301" lon="-1.57145">
        <ele>57</ele>
        <time>2022-04-10T12:05:35Z</time>
      </trkpt>
      <trkpt lat="47.14307" lon="-1.57129">
        <ele>57</ele>
        <time>2022-04-10T12:05:37Z</time>
      </trkpt>
      <trkpt lat="47.14311" lon="-1.57113">
        <ele>57</ele>
        <time>2022-04-10T12:05:39Z</time>
      </trkpt>
      <trkpt lat="47.14315" lon="-1.57096">
        <ele>58</ele>
        <time>2022-04-10T12:05:41Z</time>
      </trkpt>
      <trkpt lat="47.14318" lon="-1.5708">
        <ele>58</ele>
        <time>2022-04-10T12:05:43Z</time>
      </trkpt>
      <trkpt lat="47.1432" lon="-1.57064">
        <ele>58</ele>
        <time>2022-04-10T12:05:45Z</time>
      </trkpt>
      <trkpt lat="47.14323" lon="-1.57047">
        <ele>58</ele>
        <time>2022-04-10T12:05:47Z</time>
      </trkpt>
      <trkpt lat="47.14323" lon="-1.5703">
        <ele>58</ele>
        <time>2022-04-10T12:05:49Z</time>
      </trkpt>
      <trkpt lat="47.14324" lon="-1.57012">
        <ele>59</ele>
        <time>2022-04-10T12:05:51Z</time>
      </trkpt>
      <trkpt lat="47.14327" lon="-1.56995">
        <ele>59</ele>
        <time>2022-04-10T12:05:53Z</time>
      </trkpt>
      <trkpt lat="47.1433" lon="-1.56979">
        <ele>59</ele>
        <time>2022-04-10T12:05:55Z</time>
      </trkpt>
      <trkpt lat="47.14332" lon="-1.56962">
        <ele>60</ele>
        <time>2022-04-10T12:05:57Z</time>
      </trkpt>
      <trkpt lat="47.14334" lon="-1.56946">
        <ele>60</ele>
        <time>2022-04-10T12:05:59Z</time>
      </trkpt>
      <trkpt lat="47.14335" lon="-1.5693">
        <ele>61</ele>
        <time>2022-04-10T12:06:01Z</time>
      </trkpt>
      <trkpt lat="47.14337" lon="-1.56913">
        <ele>61</ele>
        <time>2022-04-10T12:06:03Z</time>
      </trkpt>
      <trkpt lat="47.14339" lon="-1.56896">
        <ele>60</ele>
        <time>2022-04-10T12:06:05Z</time>
      </trkpt>
      <trkpt lat="47.14342" lon="-1.56879">
        <ele>61</ele>
        <time>2022-04-10T12:06:07Z</time>
      </trkpt>
      <trkpt lat="47.14346" lon="-1.56862">
        <ele>61</ele>
        <time>2022-04-10T12:06:09Z</time>
      </trkpt>
      <trkpt lat="47.1435" lon="-1.56845">
        <ele>61</ele>
        <time>2022-04-10T12:06:11Z</time>
      </trkpt>
      <trkpt lat="47.14355" lon="-1.56829">
        <ele>62</ele>
        <time>2022-04-10T12:06:13Z</time>
      </trkpt>
      <trkpt lat="47.1436" lon="-1.56814">
        <ele>62</ele>
        <time>2022-04-10T12:06:15Z</time>
      </trkpt>
      <trkpt lat="47.14365" lon="-1.56799">
        <ele>62</ele>
        <time>2022-04-10T12:06:17Z</time>
      </trkpt>
      <trkpt lat="47.14371" lon="-1.56784">
        <ele>62</ele>
        <time>2022-04-10T12:06:19Z</time>
      </trkpt>
      <trkpt lat="47.14377" lon="-1.5677">
        <ele>63</ele>
        <time>2022-04-10T12:06:21Z</time>
      </trkpt>
      <trkpt lat="47.14383" lon="-1.56756">
        <ele>63</ele>
        <time>2022-04-10T12:06:23Z</time>
      </trkpt>
      <trkpt lat="47.1439" lon="-1.56744">
        <ele>63</ele>
        <time>2022-04-10T12:06:25Z</time>
      </trkpt>
      <trkpt lat="47.14396" lon="-1.56732">
        <ele>64</ele>
        <time>2022-04-10T12:06:27Z</time>
      </trkpt>
      <trkpt lat="47.14403" lon="-1.56719">
        <ele>64</ele>
        <time>2022-04-10T12:06:29Z</time>
      </trkpt>
      <trkpt lat="47.1441" lon="-1.56707">
        <ele>64</ele>
        <time>2022-04-10T12:06:31Z</time>
      </trkpt>
      <trkpt lat="47.14417" lon="-1.56694">
        <ele>64</ele>
        <time>2022-04-10T12:06:33Z</time>
      </trkpt>
      <trkpt lat="47.14424" lon="-1.56681">
        <ele>64</ele>
        <time>2022-04-10T12:06:35Z</time>
      </trkpt>
      <trkpt lat="47.14432" lon="-1.56668">
        <ele>65</ele>
        <time>2022-04-10T12:06:37Z</time>
      </trkpt>
      <trkpt lat="47.14439" lon="-1.56657">
        <ele>65</ele>
        <time>2022-04-10T12:06:39Z</time>
      </trkpt>
      <trkpt lat="47.14447" lon="-1.56645">
        <ele>65</ele>
        <time>2022-04-10T12:06:41Z</time>
      </trkpt>
      <trkpt lat="47.14455" lon="-1.56634">
        <ele>65</ele>
        <time>2022-04-10T12:06:43Z</time>
      </trkpt>
      <trkpt lat="47.14463" lon="-1.56622">
        <ele>64</ele>
        <time>2022-04-10T12:06:45Z</time>
      </trkpt>
      <trkpt lat="47.14472" lon="-1.5661">
        <ele>64</ele>
        <time>2022-04-10T12:06:47Z</time>
      </trkpt>
      <trkpt lat="47.1448" lon="-1.56598">
        <ele>63</ele>
        <time>2022-04-10T12:06:49Z</time>
      </trkpt>
      <trkpt lat="47.14489" lon="-1.56586">
        <ele>63</ele>
        <time>2022-04-10T12:06:51Z</time>
      </trkpt>
      <trkpt lat="47.14498" lon="-1.56573">
        <ele>63</ele>
        <time>2022-04-10T12:06:53Z</time>
      </trkpt>
      <trkpt lat="47.14507" lon="-1.5656">
        <ele>63</ele>
        <time>2022-04-10T12:06:55Z</time>
      </trkpt>
      <trkpt lat="47.14516" lon="-1.56548">
        <ele>63</ele>
        <time>2022-04-10T12:06:57Z</time>
      </trkpt>
      <trkpt lat="47.14524" lon="-1.56536">
        <ele>62</ele>
        <time>2022-04-10T12:06:59Z</time>
      </trkpt>
      <trkpt lat="47.14533" lon="-1.56523">
        <ele>62</ele>
        <time>2022-04-10T12:07:01Z</time>
      </trkpt>
      <trkpt lat="47.14542" lon="-1.56511">
        <ele>62</ele>
        <time>2022-04-10T12:07:03Z</time>
      </trkpt>
      <trkpt lat="47.14551" lon="-1.56498">
        <ele>61</ele>
        <time>2022-04-10T12:07:05Z</time>
      </trkpt>
      <trkpt lat="47.1456" lon="-1.56484">
        <ele>61</ele>
        <time>2022-04-10T12:07:07Z</time>
      </trkpt>
      <trkpt lat="47.14569" lon="-1.56471">
        <ele>62</ele>
        <time>2022-04-10T12:07:09Z</time>
      </trkpt>
      <trkpt lat="47.14578" lon="-1.56458">
        <ele>62</ele>
        <time>2022-04-10T12:07:11Z</time>
      </trkpt>
      <trkpt lat="47.14588" lon="-1.56445">
        <ele>62</ele>
        <time>2022-04-10T12:07:13Z</time>
      </trkpt>
      <trkpt lat="47.14597" lon="-1.56432">
        <ele>62</ele>
        <time>2022-04-10T12:07:15Z</time>
      </trkpt>
      <trkpt lat="47.14606" lon="-1.56419">
        <ele>62</ele>
        <time>2022-04-10T12:07:17Z</time>
      </trkpt>
      <trkpt lat="47.14614" lon="-1.56405">
        <ele>62</ele>
        <time>2022-04-10T12:07:19Z</time>
      </trkpt>
      <trkpt lat="47.14623" lon="-1.56393">
        <ele>63</ele>
        <time>2022-04-10T12:07:21Z</time>
      </trkpt>
      <trkpt lat="47.14632" lon="-1.56381">
        <ele>63</ele>
        <time>2022-04-10T12:07:23Z</time>
      </trkpt>
      <trkpt lat="47.14641" lon="-1.56368">
        <ele>63</ele>
        <time>2022-04-10T12:07:25Z</time>
      </trkpt>
      <trkpt lat="47.1465" lon="-1.56357">
        <ele>64</ele>
        <time>2022-04-10T12:07:27Z</time>
      </trkpt>
      <trkpt lat="47.14658" lon="-1.56346">
        <ele>65</ele>
        <time>2022-04-10T12:07:29Z</time>
      </trkpt>
      <trkpt lat="47.14668" lon="-1.56335">
        <ele>65</ele>
        <time>2022-04-10T12:07:31Z</time>
      </trkpt>
      <trkpt lat="47.14679" lon="-1.56327">
        <ele>65</ele>
        <time>2022-04-10T12:07:33Z</time>
      </trkpt>
      <trkpt lat="47.1469" lon="-1.56318">
        <ele>65</ele>
        <time>2022-04-10T12:07:35Z</time>
      </trkpt>
      <trkpt lat="47.14702" lon="-1.56311">
        <ele>64</ele>
        <time>2022-04-10T12:07:37Z</time>
      </trkpt>
      <trkpt lat="47.14714" lon="-1.56304">
        <ele>64</ele>
        <time>2022-04-10T12:07:39Z</time>
      </trkpt>
      <trkpt lat="47.14726" lon="-1.56298">
        <ele>63</ele>
        <time>2022-04-10T12:07:41Z</time>
      </trkpt>
      <trkpt lat="47.14739" lon="-1.56291">
        <ele>63</ele>
        <time>2022-04-10T12:07:43Z</time>
      </trkpt>
      <trkpt lat="47.14751" lon="-1.56287">
        <ele>63</ele>
        <time>2022-04-10T12:07:45Z</time>
      </trkpt>
      <trkpt lat="47.14764" lon="-1.56282">
        <ele>63</ele>
        <time>2022-04-10T12:07:47Z</time>
      </trkpt>
      <trkpt lat="47.14776" lon="-1.56277">
        <ele>63</ele>
        <time>2022-04-10T12:07:49Z</time>
      </trkpt>
      <trkpt lat="47.14787" lon="-1.56271">
        <ele>63</ele>
        <time>2022-04-10T12:07:51Z</time>
      </trkpt>
      <trkpt lat="47.14799" lon="-1.56266">
        <ele>62</ele>
        <time>2022-04-10T12:07:53Z</time>
      </trkpt>
      <trkpt lat="47.14811" lon="-1.5626">
        <ele>62</ele>
        <time>2022-04-10T12:07:55Z</time>
      </trkpt>
      <trkpt lat="47.14822" lon="-1.56254">
        <ele>62</ele>
        <time>2022-04-10T12:07:57Z</time>
      </trkpt>
      <trkpt lat="47.14834" lon="-1.56248">
        <ele>63</ele>
        <time>2022-04-10T12:07:59Z</time>
      </trkpt>
      <trkpt lat="47.14846" lon="-1.56241">
        <ele>63</ele>
        <time>2022-04-10T12:08:01Z</time>
      </trkpt>
      <trkpt lat="47.14857" lon="-1.56233">
        <ele>63</ele>
        <time>2022-04-10T12:08:03Z</time>
      </trkpt>
      <trkpt lat="47.14867" lon="-1.56224">
        <ele>64</ele>
        <time>2022-04-10T12:08:05Z</time>
      </trkpt>
      <trkpt lat="47.14877" lon="-1.56214">
        <ele>64</ele>
        <time>2022-04-10T12:08:07Z</time>
      </trkpt>
      <trkpt lat="47.14887" lon="-1.56203">
        <ele>64</ele>
        <time>2022-04-10T12:08:09Z</time>
      </trkpt>
      <trkpt lat="47.14897" lon="-1.56192">
        <ele>65</ele>
        <time>2022-04-10T12:08:11Z</time>
      </trkpt>
      <trkpt lat="47.14907" lon="-1.56182">
        <ele>65</ele>
        <time>2022-04-10T12:08:13Z</time>
      </trkpt>
      <trkpt lat="47.14916" lon="-1.5617">
        <ele>66</ele>
        <time>2022-04-10T12:08:15Z</time>
      </trkpt>
      <trkpt lat="47.14926" lon="-1.5616">
        <ele>66</ele>
        <time>2022-04-10T12:08:17Z</time>
      </trkpt>
      <trkpt lat="47.14935" lon="-1.56149">
        <ele>66</ele>
        <time>2022-04-10T12:08:19Z</time>
      </trkpt>
      <trkpt lat="47.14945" lon="-1.56138">
        <ele>67</ele>
        <time>2022-04-10T12:08:21Z</time>
      </trkpt>
      <trkpt lat="47.14954" lon="-1.56126">
        <ele>67</ele>
        <time>2022-04-10T12:08:23Z</time>
      </trkpt>
      <trkpt lat="47.14963" lon="-1.56115">
        <ele>67</ele>
        <time>2022-04-10T12:08:25Z</time>
      </trkpt>
      <trkpt lat="47.14973" lon="-1.56104">
        <ele>68</ele>
        <time>2022-04-10T12:08:27Z</time>
      </trkpt>
      <trkpt lat="47.14982" lon="-1.56093">
        <ele>68</ele>
        <time>2022-04-10T12:08:29Z</time>
      </trkpt>
      <trkpt lat="47.14992" lon="-1.56082">
        <ele>68</ele>
        <time>2022-04-10T12:08:31Z</time>
      </trkpt>
      <trkpt lat="47.15002" lon="-1.56071">
        <ele>68</ele>
        <time>2022-04-10T12:08:33Z</time>
      </trkpt>
      <trkpt lat="47.15012" lon="-1.56061">
        <ele>68</ele>
        <time>2022-04-10T12:08:35Z</time>
      </trkpt>
      <trkpt lat="47.15023" lon="-1.56051">
        <ele>68</ele>
        <time>2022-04-10T12:08:37Z</time>
      </trkpt>
      <trkpt lat="47.15033" lon="-1.56042">
        <ele>68</ele>
        <time>2022-04-10T12:08:39Z</time>
      </trkpt>
      <trkpt lat="47.15044" lon="-1.56035">
        <ele>68</ele>
        <time>2022-04-10T12:08:41Z</time>
      </trkpt>
      <trkpt lat="47.15056" lon="-1.56029">
        <ele>68</ele>
        <time>2022-04-10T12:08:43Z</time>
      </trkpt>
      <trkpt lat="47.15067" lon="-1.56024">
        <ele>67</ele>
        <time>2022-04-10T12:08:45Z</time>
      </trkpt>
      <trkpt lat="47.15079" lon="-1.56018">
        <ele>67</ele>
        <time>2022-04-10T12:08:47Z</time>
      </trkpt>
      <trkpt lat="47.15091" lon="-1.56013">
        <ele>67</ele>
        <time>2022-04-10T12:08:49Z</time>
      </trkpt>
      <trkpt lat="47.15103" lon="-1.56008">
        <ele>67</ele>
        <time>2022-04-10T12:08:51Z</time>
      </trkpt>
      <trkpt lat="47.15115" lon="-1.56003">
        <ele>68</ele>
        <time>2022-04-10T12:08:53Z</time>
      </trkpt>
      <trkpt lat="47.15127" lon="-1.55999">
        <ele>68</ele>
        <time>2022-04-10T12:08:55Z</time>
      </trkpt>
      <trkpt lat="47.15139" lon="-1.55994">
        <ele>68</ele>
        <time>2022-04-10T12:08:57Z</time>
      </trkpt>
      <trkpt lat="47.15151" lon="-1.55988">
        <ele>68</ele>
        <time>2022-04-10T12:08:59Z</time>
      </trkpt>
      <trkpt lat="47.15163" lon="-1.55983">
        <ele>68</ele>
        <time>2022-04-10T12:09:01Z</time>
      </trkpt>
      <trkpt lat="47.15175" lon="-1.55978">
        <ele>68</ele>
        <time>2022-04-10T12:09:03Z</time>
      </trkpt>
      <trkpt lat="47.15187" lon="-1.55972">
        <ele>68</ele>
        <time>2022-04-10T12:09:05Z</time>
      </trkpt>
      <trkpt lat="47.15199" lon="-1.55967">
        <ele>67</ele>
        <time>2022-04-10T12:09:07Z</time>
      </trkpt>
      <trkpt lat="47.15211" lon="-1.55961">
        <ele>67</ele>
        <time>2022-04-10T12:09:09Z</time>
      </trkpt>
      <trkpt lat="47.15223" lon="-1.55957">
        <ele>67</ele>
        <time>2022-04-10T12:09:11Z</time>
      </trkpt>
      <trkpt lat="47.15235" lon="-1.55951">
        <ele>67</ele>
        <time>2022-04-10T12:09:13Z</time>
      </trkpt>
      <trkpt lat="47.15247" lon="-1.55946">
        <ele>67</ele>
        <time>2022-04-10T12:09:15Z</time>
      </trkpt>
      <trkpt lat="47.15259" lon="-1.5594">
        <ele>67</ele>
        <time>2022-04-10T12:09:17Z</time>
      </trkpt>
      <trkpt lat="47.1527" lon="-1.55935">
        <ele>68</ele>
        <time>2022-04-10T12:09:19Z</time>
      </trkpt>
      <trkpt lat="47.15282" lon="-1.5593">
        <ele>68</ele>
        <time>2022-04-10T12:09:21Z</time>
      </trkpt>
      <trkpt lat="47.15295" lon="-1.55924">
        <ele>68</ele>
        <time>2022-04-10T12:09:23Z</time>
      </trkpt>
      <trkpt lat="47.15306" lon="-1.55919">
        <ele>68</ele>
        <time>2022-04-10T12:09:25Z</time>
      </trkpt>
      <trkpt lat="47.15318" lon="-1.55913">
        <ele>68</ele>
        <time>2022-04-10T12:09:27Z</time>
      </trkpt>
      <trkpt lat="47.15329" lon="-1.55907">
        <ele>68</ele>
        <time>2022-04-10T12:09:29Z</time>
      </trkpt>
      <trkpt lat="47.1534" lon="-1.55901">
        <ele>68</ele>
        <time>2022-04-10T12:09:31Z</time>
      </trkpt>
      <trkpt lat="47.15351" lon="-1.55895">
        <ele>68</ele>
        <time>2022-04-10T12:09:33Z</time>
      </trkpt>
      <trkpt lat="47.15363" lon="-1.55892">
        <ele>68</ele>
        <time>2022-04-10T12:09:35Z</time>
      </trkpt>
      <trkpt lat="47.15376" lon="-1.55889">
        <ele>69</ele>
        <time>2022-04-10T12:09:37Z</time>
      </trkpt>
      <trkpt lat="47.15388" lon="-1.55886">
        <ele>69</ele>
        <time>2022-04-10T12:09:39Z</time>
      </trkpt>
      <trkpt lat="47.154" lon="-1.55885">
        <ele>69</ele>
        <time>2022-04-10T12:09:41Z</time>
      </trkpt>
      <trkpt lat="47.15411" lon="-1.55894">
        <ele>70</ele>
        <time>2022-04-10T12:09:43Z</time>
      </trkpt>
      <trkpt lat="47.15421" lon="-1.55903">
        <ele>70</ele>
        <time>2022-04-10T12:09:45Z</time>
      </trkpt>
      <trkpt lat="47.15433" lon="-1.55912">
        <ele>70</ele>
        <time>2022-04-10T12:09:47Z</time>
      </trkpt>
      <trkpt lat="47.15443" lon="-1.55921">
        <ele>70</ele>
        <time>2022-04-10T12:09:49Z</time>
      </trkpt>
      <trkpt lat="47.15454" lon="-1.55929">
        <ele>71</ele>
        <time>2022-04-10T12:09:51Z</time>
      </trkpt>
      <trkpt lat="47.15465" lon="-1.55938">
        <ele>71</ele>
        <time>2022-04-10T12:09:53Z</time>
      </trkpt>
      <trkpt lat="47.15476" lon="-1.55948">
        <ele>71</ele>
        <time>2022-04-10T12:09:55Z</time>
      </trkpt>
      <trkpt lat="47.15487" lon="-1.55958">
        <ele>72</ele>
        <time>2022-04-10T12:09:57Z</time>
      </trkpt>
      <trkpt lat="47.15499" lon="-1.55966">
        <ele>72</ele>
        <time>2022-04-10T12:09:59Z</time>
      </trkpt>
      <trkpt lat="47.1551" lon="-1.55975">
        <ele>72</ele>
        <time>2022-04-10T12:10:01Z</time>
      </trkpt>
      <trkpt lat="47.15521" lon="-1.55983">
        <ele>73</ele>
        <time>2022-04-10T12:10:03Z</time>
      </trkpt>
      <trkpt lat="47.15533" lon="-1.55992">
        <ele>74</ele>
        <time>2022-04-10T12:10:05Z</time>
      </trkpt>
      <trkpt lat="47.15544" lon="-1.56001">
        <ele>74</ele>
        <time>2022-04-10T12:10:07Z</time>
      </trkpt>
      <trkpt lat="47.15556" lon="-1.5601">
        <ele>74</ele>
        <time>2022-04-10T12:10:09Z</time>
      </trkpt>
      <trkpt lat="47.15567" lon="-1.5602">
        <ele>73</ele>
        <time>2022-04-10T12:10:11Z</time>
      </trkpt>
      <trkpt lat="47.15578" lon="-1.5603">
        <ele>72</ele>
        <time>2022-04-10T12:10:13Z</time>
      </trkpt>
      <trkpt lat="47.15584" lon="-1.56046">
        <ele>72</ele>
        <time>2022-04-10T12:10:15Z</time>
      </trkpt>
      <trkpt lat="47.15581" lon="-1.56064">
        <ele>71</ele>
        <time>2022-04-10T12:10:17Z</time>
      </trkpt>
      <trkpt lat="47.15577" lon="-1.56081">
        <ele>71</ele>
        <time>2022-04-10T12:10:19Z</time>
      </trkpt>
      <trkpt lat="47.15576" lon="-1.56099">
        <ele>71</ele>
        <time>2022-04-10T12:10:21Z</time>
      </trkpt>
      <trkpt lat="47.15578" lon="-1.56117">
        <ele>71</ele>
        <time>2022-04-10T12:10:23Z</time>
      </trkpt>
      <trkpt lat="47.15583" lon="-1.56134">
        <ele>71</ele>
        <time>2022-04-10T12:10:25Z</time>
      </trkpt>
      <trkpt lat="47.15589" lon="-1.56151">
        <ele>71</ele>
        <time>2022-04-10T12:10:27Z</time>
      </trkpt>
      <trkpt lat="47.15596" lon="-1.56167">
        <ele>71</ele>
        <time>2022-04-10T12:10:29Z</time>
      </trkpt>
      <trkpt lat="47.15602" lon="-1.56182">
        <ele>71</ele>
        <time>2022-04-10T12:10:31Z</time>
      </trkpt>
      <trkpt lat="47.15609" lon="-1.56197">
        <ele>71</ele>
        <time>2022-04-10T12:10:33Z</time>
      </trkpt>
      <trkpt lat="47.15616" lon="-1.56213">
        <ele>72</ele>
        <time>2022-04-10T12:10:35Z</time>
      </trkpt>
      <trkpt lat="47.15623" lon="-1.56229">
        <ele>72</ele>
        <time>2022-04-10T12:10:37Z</time>
      </trkpt>
      <trkpt lat="47.1563" lon="-1.56244">
        <ele>72</ele>
        <time>2022-04-10T12:10:39Z</time>
      </trkpt>
      <trkpt lat="47.15636" lon="-1.5626">
        <ele>72</ele>
        <time>2022-04-10T12:10:41Z</time>
      </trkpt>
      <trkpt lat="47.15643" lon="-1.56276">
        <ele>72</ele>
        <time>2022-04-10T12:10:43Z</time>
      </trkpt>
      <trkpt lat="47.15651" lon="-1.56291">
        <ele>71</ele>
        <time>2022-04-10T12:10:45Z</time>
      </trkpt>
      <trkpt lat="47.15662" lon="-1.563">
        <ele>71</ele>
        <time>2022-04-10T12:10:47Z</time>
      </trkpt>
      <trkpt lat="47.15674" lon="-1.56307">
        <ele>72</ele>
        <time>2022-04-10T12:10:49Z</time>
      </trkpt>
      <trkpt lat="47.15684" lon="-1.5632">
        <ele>72</ele>
        <time>2022-04-10T12:10:51Z</time>
      </trkpt>
      <trkpt lat="47.15689" lon="-1.56338">
        <ele>72</ele>
        <time>2022-04-10T12:10:53Z</time>
      </trkpt>
      <trkpt lat="47.15691" lon="-1.56357">
        <ele>72</ele>
        <time>2022-04-10T12:10:55Z</time>
      </trkpt>
      <trkpt lat="47.15695" lon="-1.56375">
        <ele>72</ele>
        <time>2022-04-10T12:10:57Z</time>
      </trkpt>
      <trkpt lat="47.15701" lon="-1.56393">
        <ele>72</ele>
        <time>2022-04-10T12:10:59Z</time>
      </trkpt>
      <trkpt lat="47.1571" lon="-1.56408">
        <ele>72</ele>
        <time>2022-04-10T12:11:01Z</time>
      </trkpt>
      <trkpt lat="47.15719" lon="-1.56421">
        <ele>72</ele>
        <time>2022-04-10T12:11:03Z</time>
      </trkpt>
      <trkpt lat="47.15728" lon="-1.56435">
        <ele>72</ele>
        <time>2022-04-10T12:11:05Z</time>
      </trkpt>
      <trkpt lat="47.15736" lon="-1.56451">
        <ele>72</ele>
        <time>2022-04-10T12:11:07Z</time>
      </trkpt>
      <trkpt lat="47.15741" lon="-1.56469">
        <ele>72</ele>
        <time>2022-04-10T12:11:09Z</time>
      </trkpt>
      <trkpt lat="47.15742" lon="-1.56488">
        <ele>72</ele>
        <time>2022-04-10T12:11:11Z</time>
      </trkpt>
      <trkpt lat="47.15742" lon="-1.56508">
        <ele>72</ele>
        <time>2022-04-10T12:11:13Z</time>
      </trkpt>
      <trkpt lat="47.15738" lon="-1.56526">
        <ele>72</ele>
        <time>2022-04-10T12:11:15Z</time>
      </trkpt>
      <trkpt lat="47.15733" lon="-1.56544">
        <ele>72</ele>
        <time>2022-04-10T12:11:17Z</time>
      </trkpt>
      <trkpt lat="47.15728" lon="-1.56562">
        <ele>72</ele>
        <time>2022-04-10T12:11:19Z</time>
      </trkpt>
      <trkpt lat="47.15723" lon="-1.56579">
        <ele>72</ele>
        <time>2022-04-10T12:11:21Z</time>
      </trkpt>
      <trkpt lat="47.15718" lon="-1.56597">
        <ele>72</ele>
        <time>2022-04-10T12:11:23Z</time>
      </trkpt>
      <trkpt lat="47.15713" lon="-1.56613">
        <ele>72</ele>
        <time>2022-04-10T12:11:25Z</time>
      </trkpt>
      <trkpt lat="47.15708" lon="-1.56631">
        <ele>72</ele>
        <time>2022-04-10T12:11:27Z</time>
      </trkpt>
      <trkpt lat="47.15703" lon="-1.56649">
        <ele>71</ele>
        <time>2022-04-10T12:11:29Z</time>
      </trkpt>
      <trkpt lat="47.157" lon="-1.56668">
        <ele>71</ele>
        <time>2022-04-10T12:11:31Z</time>
      </trkpt>
      <trkpt lat="47.15699" lon="-1.56686">
        <ele>70</ele>
        <time>2022-04-10T12:11:33Z</time>
      </trkpt>
      <trkpt lat="47.15698" lon="-1.56705">
        <ele>70</ele>
        <time>2022-04-10T12:11:35Z</time>
      </trkpt>
      <trkpt lat="47.15699" lon="-1.56724">
        <ele>70</ele>
        <time>2022-04-10T12:11:37Z</time>
      </trkpt>
      <trkpt lat="47.15701" lon="-1.56743">
        <ele>70</ele>
        <time>2022-04-10T12:11:39Z</time>
      </trkpt>
      <trkpt lat="47.15703" lon="-1.56761">
        <ele>70</ele>
        <time>2022-04-10T12:11:41Z</time>
      </trkpt>
      <trkpt lat="47.15706" lon="-1.56779">
        <ele>70</ele>
        <time>2022-04-10T12:11:43Z</time>
      </trkpt>
      <trkpt lat="47.1571" lon="-1.56798">
        <ele>70</ele>
        <time>2022-04-10T12:11:45Z</time>
      </trkpt>
      <trkpt lat="47.15713" lon="-1.56817">
        <ele>69</ele>
        <time>2022-04-10T12:11:47Z</time>
      </trkpt>
      <trkpt lat="47.15716" lon="-1.56836">
        <ele>69</ele>
        <time>2022-04-10T12:11:49Z</time>
      </trkpt>
      <trkpt lat="47.15719" lon="-1.56856">
        <ele>69</ele>
        <time>2022-04-10T12:11:51Z</time>
      </trkpt>
      <trkpt lat="47.15723" lon="-1.56875">
        <ele>68</ele>
        <time>2022-04-10T12:11:53Z</time>
      </trkpt>
      <trkpt lat="47.15727" lon="-1.56895">
        <ele>69</ele>
        <time>2022-04-10T12:11:55Z</time>
      </trkpt>
      <trkpt lat="47.15734" lon="-1.56913">
        <ele>68</ele>
        <time>2022-04-10T12:11:57Z</time>
      </trkpt>
      <trkpt lat="47.15741" lon="-1.5693">
        <ele>68</ele>
        <time>2022-04-10T12:11:59Z</time>
      </trkpt>
      <trkpt lat="47.15749" lon="-1.56946">
        <ele>68</ele>
        <time>2022-04-10T12:12:01Z</time>
      </trkpt>
      <trkpt lat="47.15757" lon="-1.56962">
        <ele>68</ele>
        <time>2022-04-10T12:12:03Z</time>
      </trkpt>
      <trkpt lat="47.15764" lon="-1.56979">
        <ele>68</ele>
        <time>2022-04-10T12:12:05Z</time>
      </trkpt>
      <trkpt lat="47.15772" lon="-1.56995">
        <ele>67</ele>
        <time>2022-04-10T12:12:07Z</time>
      </trkpt>
      <trkpt lat="47.1578" lon="-1.5701">
        <ele>67</ele>
        <time>2022-04-10T12:12:09Z</time>
      </trkpt>
      <trkpt lat="47.15787" lon="-1.57026">
        <ele>68</ele>
        <time>2022-04-10T12:12:11Z</time>
      </trkpt>
      <trkpt lat="47.15795" lon="-1.57042">
        <ele>68</ele>
        <time>2022-04-10T12:12:13Z</time>
      </trkpt>
      <trkpt lat="47.15803" lon="-1.57056">
        <ele>69</ele>
        <time>2022-04-10T12:12:15Z</time>
      </trkpt>
      <trkpt lat="47.1581" lon="-1.5707">
        <ele>69</ele>
        <time>2022-04-10T12:12:17Z</time>
      </trkpt>
      <trkpt lat="47.15817" lon="-1.57084">
        <ele>69</ele>
        <time>2022-04-10T12:12:19Z</time>
      </trkpt>
      <trkpt lat="47.15825" lon="-1.57098">
        <ele>69</ele>
        <time>2022-04-10T12:12:21Z</time>
      </trkpt>
      <trkpt lat="47.15832" lon="-1.57112">
        <ele>69</ele>
        <time>2022-04-10T12:12:23Z</time>
      </trkpt>
      <trkpt lat="47.15839" lon="-1.57125">
        <ele>69</ele>
        <time>2022-04-10T12:12:25Z</time>
      </trkpt>
      <trkpt lat="47.15846" lon="-1.57139">
        <ele>70</ele>
        <time>2022-04-10T12:12:27Z</time>
      </trkpt>
      <trkpt lat="47.15853" lon="-1.57153">
        <ele>70</ele>
        <time>2022-04-10T12:12:29Z</time>
      </trkpt>
      <trkpt lat="47.1586" lon="-1.57167">
        <ele>70</ele>
        <time>2022-04-10T12:12:31Z</time>
      </trkpt>
      <trkpt lat="47.15866" lon="-1.57181">
        <ele>70</ele>
        <time>2022-04-10T12:12:33Z</time>
      </trkpt>
      <trkpt lat="47.15873" lon="-1.57195">
        <ele>70</ele>
        <time>2022-04-10T12:12:35Z</time>
      </trkpt>
      <trkpt lat="47.1588" lon="-1.57209">
        <ele>71</ele>
        <time>2022-04-10T12:12:37Z</time>
      </trkpt>
      <trkpt lat="47.15887" lon="-1.57222">
        <ele>71</ele>
        <time>2022-04-10T12:12:39Z</time>
      </trkpt>
      <trkpt lat="47.15894" lon="-1.57236">
        <ele>72</ele>
        <time>2022-04-10T12:12:41Z</time>
      </trkpt>
      <trkpt lat="47.15901" lon="-1.5725">
        <ele>72</ele>
        <time>2022-04-10T12:12:43Z</time>
      </trkpt>
      <trkpt lat="47.15909" lon="-1.57263">
        <ele>71</ele>
        <time>2022-04-10T12:12:45Z</time>
      </trkpt>
      <trkpt lat="47.15917" lon="-1.57277">
        <ele>72</ele>
        <time>2022-04-10T12:12:47Z</time>
      </trkpt>
      <trkpt lat="47.15925" lon="-1.5729">
        <ele>72</ele>
        <time>2022-04-10T12:12:49Z</time>
      </trkpt>
      <trkpt lat="47.15933" lon="-1.57302">
        <ele>73</ele>
        <time>2022-04-10T12:12:51Z</time>
      </trkpt>
      <trkpt lat="47.15941" lon="-1.57314">
        <ele>73</ele>
        <time>2022-04-10T12:12:53Z</time>
      </trkpt>
      <trkpt lat="47.15949" lon="-1.57326">
        <ele>73</ele>
        <time>2022-04-10T12:12:55Z</time>
      </trkpt>
      <trkpt lat="47.15958" lon="-1.57338">
        <ele>74</ele>
        <time>2022-04-10T12:12:57Z</time>
      </trkpt>
      <trkpt lat="47.15968" lon="-1.57348">
        <ele>74</ele>
        <time>2022-04-10T12:12:59Z</time>
      </trkpt>
      <trkpt lat="47.15979" lon="-1.57356">
        <ele>73</ele>
        <time>2022-04-10T12:13:01Z</time>
      </trkpt>
      <trkpt lat="47.1599" lon="-1.57362">
        <ele>73</ele>
        <time>2022-04-10T12:13:03Z</time>
      </trkpt>
      <trkpt lat="47.16001" lon="-1.57367">
        <ele>73</ele>
        <time>2022-04-10T12:13:05Z</time>
      </trkpt>
      <trkpt lat="47.16013" lon="-1.57372">
        <ele>72</ele>
        <time>2022-04-10T12:13:07Z</time>
      </trkpt>
      <trkpt lat="47.16025" lon="-1.57376">
        <ele>72</ele>
        <time>2022-04-10T12:13:09Z</time>
      </trkpt>
      <trkpt lat="47.16037" lon="-1.5738">
        <ele>72</ele>
        <time>2022-04-10T12:13:11Z</time>
      </trkpt>
      <trkpt lat="47.16049" lon="-1.57382">
        <ele>72</ele>
        <time>2022-04-10T12:13:13Z</time>
      </trkpt>
      <trkpt lat="47.16061" lon="-1.57382">
        <ele>73</ele>
        <time>2022-04-10T12:13:15Z</time>
      </trkpt>
      <trkpt lat="47.16073" lon="-1.57381">
        <ele>72</ele>
        <time>2022-04-10T12:13:17Z</time>
      </trkpt>
      <trkpt lat="47.16085" lon="-1.57379">
        <ele>72</ele>
        <time>2022-04-10T12:13:19Z</time>
      </trkpt>
      <trkpt lat="47.16097" lon="-1.57376">
        <ele>72</ele>
        <time>2022-04-10T12:13:21Z</time>
      </trkpt>
      <trkpt lat="47.16108" lon="-1.57372">
        <ele>73</ele>
        <time>2022-04-10T12:13:23Z</time>
      </trkpt>
      <trkpt lat="47.1612" lon="-1.57368">
        <ele>73</ele>
        <time>2022-04-10T12:13:25Z</time>
      </trkpt>
      <trkpt lat="47.16133" lon="-1.57363">
        <ele>73</ele>
        <time>2022-04-10T12:13:27Z</time>
      </trkpt>
      <trkpt lat="47.16145" lon="-1.5736">
        <ele>73</ele>
        <time>2022-04-10T12:13:29Z</time>
      </trkpt>
      <trkpt lat="47.16156" lon="-1.57358">
        <ele>74</ele>
        <time>2022-04-10T12:13:31Z</time>
      </trkpt>
      <trkpt lat="47.16167" lon="-1.57376">
        <ele>74</ele>
        <time>2022-04-10T12:13:34Z</time>
      </trkpt>
      <trkpt lat="47.16168" lon="-1.57393">
        <ele>73</ele>
        <time>2022-04-10T12:13:36Z</time>
      </trkpt>
      <trkpt lat="47.16169" lon="-1.57411">
        <ele>74</ele>
        <time>2022-04-10T12:13:38Z</time>
      </trkpt>
      <trkpt lat="47.1617" lon="-1.57428">
        <ele>73</ele>
        <time>2022-04-10T12:13:40Z</time>
      </trkpt>
      <trkpt lat="47.1617" lon="-1.57445">
        <ele>73</ele>
        <time>2022-04-10T12:13:42Z</time>
      </trkpt>
      <trkpt lat="47.16171" lon="-1.57462">
        <ele>73</ele>
        <time>2022-04-10T12:13:44Z</time>
      </trkpt>
      <trkpt lat="47.1617" lon="-1.57479">
        <ele>73</ele>
        <time>2022-04-10T12:13:46Z</time>
      </trkpt>
      <trkpt lat="47.16171" lon="-1.57496">
        <ele>73</ele>
        <time>2022-04-10T12:13:48Z</time>
      </trkpt>
      <trkpt lat="47.16171" lon="-1.57513">
        <ele>73</ele>
        <time>2022-04-10T12:13:50Z</time>
      </trkpt>
      <trkpt lat="47.16172" lon="-1.5753">
        <ele>73</ele>
        <time>2022-04-10T12:13:52Z</time>
      </trkpt>
      <trkpt lat="47.16176" lon="-1.57547">
        <ele>73</ele>
        <time>2022-04-10T12:13:54Z</time>
      </trkpt>
      <trkpt lat="47.16181" lon="-1.57562">
        <ele>73</ele>
        <time>2022-04-10T12:13:56Z</time>
      </trkpt>
      <trkpt lat="47.16188" lon="-1.57578">
        <ele>73</ele>
        <time>2022-04-10T12:13:58Z</time>
      </trkpt>
      <trkpt lat="47.16195" lon="-1.57592">
        <ele>74</ele>
        <time>2022-04-10T12:14:00Z</time>
      </trkpt>
      <trkpt lat="47.16202" lon="-1.57606">
        <ele>73</ele>
        <time>2022-04-10T12:14:02Z</time>
      </trkpt>
      <trkpt lat="47.1621" lon="-1.57618">
        <ele>73</ele>
        <time>2022-04-10T12:14:04Z</time>
      </trkpt>
      <trkpt lat="47.1622" lon="-1.57631">
        <ele>74</ele>
        <time>2022-04-10T12:14:06Z</time>
      </trkpt>
      <trkpt lat="47.16229" lon="-1.57642">
        <ele>74</ele>
        <time>2022-04-10T12:14:08Z</time>
      </trkpt>
      <trkpt lat="47.16238" lon="-1.57653">
        <ele>75</ele>
        <time>2022-04-10T12:14:10Z</time>
      </trkpt>
      <trkpt lat="47.16248" lon="-1.57662">
        <ele>75</ele>
        <time>2022-04-10T12:14:12Z</time>
      </trkpt>
      <trkpt lat="47.16258" lon="-1.57672">
        <ele>75</ele>
        <time>2022-04-10T12:14:14Z</time>
      </trkpt>
      <trkpt lat="47.16268" lon="-1.57682">
        <ele>75</ele>
        <time>2022-04-10T12:14:16Z</time>
      </trkpt>
      <trkpt lat="47.16277" lon="-1.57693">
        <ele>75</ele>
        <time>2022-04-10T12:14:18Z</time>
      </trkpt>
      <trkpt lat="47.16285" lon="-1.57705">
        <ele>75</ele>
        <time>2022-04-10T12:14:20Z</time>
      </trkpt>
      <trkpt lat="47.16294" lon="-1.57718">
        <ele>75</ele>
        <time>2022-04-10T12:14:22Z</time>
      </trkpt>
      <trkpt lat="47.16303" lon="-1.5773">
        <ele>75</ele>
        <time>2022-04-10T12:14:24Z</time>
      </trkpt>
      <trkpt lat="47.16311" lon="-1.57742">
        <ele>75</ele>
        <time>2022-04-10T12:14:26Z</time>
      </trkpt>
      <trkpt lat="47.1632" lon="-1.57755">
        <ele>75</ele>
        <time>2022-04-10T12:14:28Z</time>
      </trkpt>
      <trkpt lat="47.16328" lon="-1.57768">
        <ele>75</ele>
        <time>2022-04-10T12:14:30Z</time>
      </trkpt>
      <trkpt lat="47.16337" lon="-1.57782">
        <ele>75</ele>
        <time>2022-04-10T12:14:32Z</time>
      </trkpt>
      <trkpt lat="47.16345" lon="-1.57794">
        <ele>75</ele>
        <time>2022-04-10T12:14:34Z</time>
      </trkpt>
      <trkpt lat="47.16354" lon="-1.57807">
        <ele>75</ele>
        <time>2022-04-10T12:14:36Z</time>
      </trkpt>
      <trkpt lat="47.16364" lon="-1.57818">
        <ele>75</ele>
        <time>2022-04-10T12:14:38Z</time>
      </trkpt>
      <trkpt lat="47.16376" lon="-1.57827">
        <ele>75</ele>
        <time>2022-04-10T12:14:40Z</time>
      </trkpt>
      <trkpt lat="47.16387" lon="-1.57835">
        <ele>75</ele>
        <time>2022-04-10T12:14:42Z</time>
      </trkpt>
      <trkpt lat="47.16398" lon="-1.57844">
        <ele>75</ele>
        <time>2022-04-10T12:14:44Z</time>
      </trkpt>
      <trkpt lat="47.16409" lon="-1.57853">
        <ele>75</ele>
        <time>2022-04-10T12:14:46Z</time>
      </trkpt>
      <trkpt lat="47.16421" lon="-1.57862">
        <ele>75</ele>
        <time>2022-04-10T12:14:48Z</time>
      </trkpt>
      <trkpt lat="47.16432" lon="-1.57871">
        <ele>74</ele>
        <time>2022-04-10T12:14:50Z</time>
      </trkpt>
      <trkpt lat="47.16444" lon="-1.5788">
        <ele>74</ele>
        <time>2022-04-10T12:14:52Z</time>
      </trkpt>
      <trkpt lat="47.16455" lon="-1.57888">
        <ele>74</ele>
        <time>2022-04-10T12:14:54Z</time>
      </trkpt>
      <trkpt lat="47.16465" lon="-1.57897">
        <ele>74</ele>
        <time>2022-04-10T12:14:56Z</time>
      </trkpt>
      <trkpt lat="47.16476" lon="-1.57907">
        <ele>74</ele>
        <time>2022-04-10T12:14:58Z</time>
      </trkpt>
      <trkpt lat="47.16487" lon="-1.57917">
        <ele>73</ele>
        <time>2022-04-10T12:15:00Z</time>
      </trkpt>
      <trkpt lat="47.16498" lon="-1.57928">
        <ele>73</ele>
        <time>2022-04-10T12:15:02Z</time>
      </trkpt>
      <trkpt lat="47.16508" lon="-1.57938">
        <ele>73</ele>
        <time>2022-04-10T12:15:04Z</time>
      </trkpt>
      <trkpt lat="47.16519" lon="-1.57949">
        <ele>73</ele>
        <time>2022-04-10T12:15:06Z</time>
      </trkpt>
      <trkpt lat="47.1653" lon="-1.5796">
        <ele>73</ele>
        <time>2022-04-10T12:15:08Z</time>
      </trkpt>
      <trkpt lat="47.16541" lon="-1.57971">
        <ele>72</ele>
        <time>2022-04-10T12:15:10Z</time>
      </trkpt>
      <trkpt lat="47.16552" lon="-1.57982">
        <ele>72</ele>
        <time>2022-04-10T12:15:12Z</time>
      </trkpt>
      <trkpt lat="47.16562" lon="-1.57993">
        <ele>71</ele>
        <time>2022-04-10T12:15:14Z</time>
      </trkpt>
      <trkpt lat="47.16573" lon="-1.58004">
        <ele>71</ele>
        <time>2022-04-10T12:15:16Z</time>
      </trkpt>
      <trkpt lat="47.16583" lon="-1.58014">
        <ele>71</ele>
        <time>2022-04-10T12:15:18Z</time>
      </trkpt>
      <trkpt lat="47.16594" lon="-1.58021">
        <ele>71</ele>
        <time>2022-04-10T12:15:20Z</time>
      </trkpt>
      <trkpt lat="47.16606" lon="-1.58027">
        <ele>71</ele>
        <time>2022-04-10T12:15:22Z</time>
      </trkpt>
      <trkpt lat="47.16615" lon="-1.58033">
        <ele>71</ele>
        <time>2022-04-10T12:15:24Z</time>
      </trkpt>
      <trkpt lat="47.16626" lon="-1.5804">
        <ele>71</ele>
        <time>2022-04-10T12:15:27Z</time>
      </trkpt>
      <trkpt lat="47.16634" lon="-1.58047">
        <ele>72</ele>
        <time>2022-04-10T12:15:30Z</time>
      </trkpt>
      <trkpt lat="47.16642" lon="-1.58057">
        <ele>72</ele>
        <time>2022-04-10T12:15:32Z</time>
      </trkpt>
      <trkpt lat="47.16649" lon="-1.58072">
        <ele>72</ele>
        <time>2022-04-10T12:15:34Z</time>
      </trkpt>
      <trkpt lat="47.16657" lon="-1.58087">
        <ele>72</ele>
        <time>2022-04-10T12:15:36Z</time>
      </trkpt>
      <trkpt lat="47.16666" lon="-1.58102">
        <ele>72</ele>
        <time>2022-04-10T12:15:38Z</time>
      </trkpt>
      <trkpt lat="47.16677" lon="-1.58114">
        <ele>72</ele>
        <time>2022-04-10T12:15:40Z</time>
      </trkpt>
      <trkpt lat="47.16688" lon="-1.58125">
        <ele>72</ele>
        <time>2022-04-10T12:15:42Z</time>
      </trkpt>
      <trkpt lat="47.16698" lon="-1.58136">
        <ele>72</ele>
        <time>2022-04-10T12:15:44Z</time>
      </trkpt>
      <trkpt lat="47.16709" lon="-1.58147">
        <ele>72</ele>
        <time>2022-04-10T12:15:46Z</time>
      </trkpt>
      <trkpt lat="47.1672" lon="-1.58157">
        <ele>72</ele>
        <time>2022-04-10T12:15:48Z</time>
      </trkpt>
      <trkpt lat="47.16731" lon="-1.58168">
        <ele>72</ele>
        <time>2022-04-10T12:15:50Z</time>
      </trkpt>
      <trkpt lat="47.16742" lon="-1.58177">
        <ele>72</ele>
        <time>2022-04-10T12:15:52Z</time>
      </trkpt>
      <trkpt lat="47.16752" lon="-1.58188">
        <ele>72</ele>
        <time>2022-04-10T12:15:54Z</time>
      </trkpt>
      <trkpt lat="47.16763" lon="-1.58198">
        <ele>72</ele>
        <time>2022-04-10T12:15:56Z</time>
      </trkpt>
      <trkpt lat="47.16773" lon="-1.58208">
        <ele>71</ele>
        <time>2022-04-10T12:15:58Z</time>
      </trkpt>
      <trkpt lat="47.16783" lon="-1.58219">
        <ele>71</ele>
        <time>2022-04-10T12:16:00Z</time>
      </trkpt>
      <trkpt lat="47.16793" lon="-1.58229">
        <ele>71</ele>
        <time>2022-04-10T12:16:02Z</time>
      </trkpt>
      <trkpt lat="47.16803" lon="-1.58239">
        <ele>71</ele>
        <time>2022-04-10T12:16:04Z</time>
      </trkpt>
      <trkpt lat="47.16814" lon="-1.58249">
        <ele>71</ele>
        <time>2022-04-10T12:16:06Z</time>
      </trkpt>
      <trkpt lat="47.16824" lon="-1.5826">
        <ele>71</ele>
        <time>2022-04-10T12:16:08Z</time>
      </trkpt>
      <trkpt lat="47.16834" lon="-1.58271">
        <ele>71</ele>
        <time>2022-04-10T12:16:10Z</time>
      </trkpt>
      <trkpt lat="47.16845" lon="-1.58281">
        <ele>71</ele>
        <time>2022-04-10T12:16:12Z</time>
      </trkpt>
      <trkpt lat="47.16855" lon="-1.58292">
        <ele>71</ele>
        <time>2022-04-10T12:16:14Z</time>
      </trkpt>
      <trkpt lat="47.16866" lon="-1.58302">
        <ele>71</ele>
        <time>2022-04-10T12:16:16Z</time>
      </trkpt>
      <trkpt lat="47.16876" lon="-1.58312">
        <ele>71</ele>
        <time>2022-04-10T12:16:18Z</time>
      </trkpt>
      <trkpt lat="47.16886" lon="-1.58322">
        <ele>71</ele>
        <time>2022-04-10T12:16:20Z</time>
      </trkpt>
      <trkpt lat="47.16897" lon="-1.58332">
        <ele>71</ele>
        <time>2022-04-10T12:16:22Z</time>
      </trkpt>
      <trkpt lat="47.16908" lon="-1.58343">
        <ele>71</ele>
        <time>2022-04-10T12:16:24Z</time>
      </trkpt>
      <trkpt lat="47.16919" lon="-1.58354">
        <ele>70</ele>
        <time>2022-04-10T12:16:26Z</time>
      </trkpt>
      <trkpt lat="47.16929" lon="-1.58365">
        <ele>70</ele>
        <time>2022-04-10T12:16:28Z</time>
      </trkpt>
      <trkpt lat="47.1694" lon="-1.58375">
        <ele>70</ele>
        <time>2022-04-10T12:16:30Z</time>
      </trkpt>
      <trkpt lat="47.1695" lon="-1.58386">
        <ele>70</ele>
        <time>2022-04-10T12:16:32Z</time>
      </trkpt>
      <trkpt lat="47.16961" lon="-1.58395">
        <ele>70</ele>
        <time>2022-04-10T12:16:34Z</time>
      </trkpt>
      <trkpt lat="47.16973" lon="-1.58401">
        <ele>70</ele>
        <time>2022-04-10T12:16:36Z</time>
      </trkpt>
      <trkpt lat="47.16985" lon="-1.58408">
        <ele>71</ele>
        <time>2022-04-10T12:16:38Z</time>
      </trkpt>
      <trkpt lat="47.16995" lon="-1.58412">
        <ele>72</ele>
        <time>2022-04-10T12:16:40Z</time>
      </trkpt>
      <trkpt lat="47.17006" lon="-1.58408">
        <ele>71</ele>
        <time>2022-04-10T12:16:42Z</time>
      </trkpt>
      <trkpt lat="47.17017" lon="-1.58404">
        <ele>71</ele>
        <time>2022-04-10T12:16:44Z</time>
      </trkpt>
      <trkpt lat="47.17027" lon="-1.584">
        <ele>72</ele>
        <time>2022-04-10T12:16:46Z</time>
      </trkpt>
      <trkpt lat="47.17038" lon="-1.58396">
        <ele>72</ele>
        <time>2022-04-10T12:16:48Z</time>
      </trkpt>
      <trkpt lat="47.17048" lon="-1.584">
        <ele>72</ele>
        <time>2022-04-10T12:16:50Z</time>
      </trkpt>
      <trkpt lat="47.17053" lon="-1.58419">
        <ele>71</ele>
        <time>2022-04-10T12:16:52Z</time>
      </trkpt>
      <trkpt lat="47.17057" lon="-1.5844">
        <ele>70</ele>
        <time>2022-04-10T12:16:54Z</time>
      </trkpt>
      <trkpt lat="47.17064" lon="-1.58455">
        <ele>69</ele>
        <time>2022-04-10T12:16:56Z</time>
      </trkpt>
      <trkpt lat="47.17075" lon="-1.58462">
        <ele>69</ele>
        <time>2022-04-10T12:16:58Z</time>
      </trkpt>
      <trkpt lat="47.17087" lon="-1.58467">
        <ele>69</ele>
        <time>2022-04-10T12:17:00Z</time>
      </trkpt>
      <trkpt lat="47.171" lon="-1.58471">
        <ele>69</ele>
        <time>2022-04-10T12:17:02Z</time>
      </trkpt>
      <trkpt lat="47.17113" lon="-1.58472">
        <ele>69</ele>
        <time>2022-04-10T12:17:04Z</time>
      </trkpt>
      <trkpt lat="47.17126" lon="-1.58474">
        <ele>69</ele>
        <time>2022-04-10T12:17:06Z</time>
      </trkpt>
      <trkpt lat="47.17139" lon="-1.58474">
        <ele>69</ele>
        <time>2022-04-10T12:17:08Z</time>
      </trkpt>
      <trkpt lat="47.17152" lon="-1.58473">
        <ele>69</ele>
        <time>2022-04-10T12:17:10Z</time>
      </trkpt>
      <trkpt lat="47.17165" lon="-1.58473">
        <ele>69</ele>
        <time>2022-04-10T12:17:12Z</time>
      </trkpt>
      <trkpt lat="47.17178" lon="-1.58474">
        <ele>69</ele>
        <time>2022-04-10T12:17:14Z</time>
      </trkpt>
      <trkpt lat="47.17191" lon="-1.58475">
        <ele>69</ele>
        <time>2022-04-10T12:17:16Z</time>
      </trkpt>
      <trkpt lat="47.17205" lon="-1.58477">
        <ele>70</ele>
        <time>2022-04-10T12:17:18Z</time>
      </trkpt>
      <trkpt lat="47.17218" lon="-1.58478">
        <ele>70</ele>
        <time>2022-04-10T12:17:20Z</time>
      </trkpt>
      <trkpt lat="47.17231" lon="-1.5848">
        <ele>70</ele>
        <time>2022-04-10T12:17:22Z</time>
      </trkpt>
      <trkpt lat="47.17244" lon="-1.58482">
        <ele>70</ele>
        <time>2022-04-10T12:17:24Z</time>
      </trkpt>
      <trkpt lat="47.17257" lon="-1.58484">
        <ele>70</ele>
        <time>2022-04-10T12:17:26Z</time>
      </trkpt>
      <trkpt lat="47.17269" lon="-1.58487">
        <ele>70</ele>
        <time>2022-04-10T12:17:28Z</time>
      </trkpt>
      <trkpt lat="47.17283" lon="-1.58489">
        <ele>70</ele>
        <time>2022-04-10T12:17:30Z</time>
      </trkpt>
      <trkpt lat="47.17297" lon="-1.58491">
        <ele>70</ele>
        <time>2022-04-10T12:17:32Z</time>
      </trkpt>
      <trkpt lat="47.1731" lon="-1.58493">
        <ele>70</ele>
        <time>2022-04-10T12:17:34Z</time>
      </trkpt>
      <trkpt lat="47.17324" lon="-1.58495">
        <ele>70</ele>
        <time>2022-04-10T12:17:36Z</time>
      </trkpt>
      <trkpt lat="47.17337" lon="-1.58497">
        <ele>69</ele>
        <time>2022-04-10T12:17:38Z</time>
      </trkpt>
      <trkpt lat="47.17351" lon="-1.58499">
        <ele>69</ele>
        <time>2022-04-10T12:17:40Z</time>
      </trkpt>
      <trkpt lat="47.17364" lon="-1.58501">
        <ele>69</ele>
        <time>2022-04-10T12:17:42Z</time>
      </trkpt>
      <trkpt lat="47.17378" lon="-1.58503">
        <ele>69</ele>
        <time>2022-04-10T12:17:44Z</time>
      </trkpt>
      <trkpt lat="47.17391" lon="-1.58505">
        <ele>70</ele>
        <time>2022-04-10T12:17:46Z</time>
      </trkpt>
      <trkpt lat="47.17404" lon="-1.58507">
        <ele>70</ele>
        <time>2022-04-10T12:17:48Z</time>
      </trkpt>
      <trkpt lat="47.17417" lon="-1.58509">
        <ele>71</ele>
        <time>2022-04-10T12:17:50Z</time>
      </trkpt>
      <trkpt lat="47.1743" lon="-1.5851">
        <ele>70</ele>
        <time>2022-04-10T12:17:52Z</time>
      </trkpt>
      <trkpt lat="47.17443" lon="-1.58512">
        <ele>70</ele>
        <time>2022-04-10T12:17:54Z</time>
      </trkpt>
      <trkpt lat="47.17456" lon="-1.58516">
        <ele>70</ele>
        <time>2022-04-10T12:17:56Z</time>
      </trkpt>
      <trkpt lat="47.17469" lon="-1.58519">
        <ele>70</ele>
        <time>2022-04-10T12:17:58Z</time>
      </trkpt>
      <trkpt lat="47.17481" lon="-1.58524">
        <ele>70</ele>
        <time>2022-04-10T12:18:00Z</time>
      </trkpt>
      <trkpt lat="47.17494" lon="-1.58529">
        <ele>69</ele>
        <time>2022-04-10T12:18:02Z</time>
      </trkpt>
      <trkpt lat="47.17506" lon="-1.58535">
        <ele>69</ele>
        <time>2022-04-10T12:18:04Z</time>
      </trkpt>
      <trkpt lat="47.17519" lon="-1.58541">
        <ele>69</ele>
        <time>2022-04-10T12:18:06Z</time>
      </trkpt>
      <trkpt lat="47.17531" lon="-1.58549">
        <ele>69</ele>
        <time>2022-04-10T12:18:08Z</time>
      </trkpt>
      <trkpt lat="47.17543" lon="-1.58556">
        <ele>69</ele>
        <time>2022-04-10T12:18:10Z</time>
      </trkpt>
      <trkpt lat="47.17556" lon="-1.58563">
        <ele>69</ele>
        <time>2022-04-10T12:18:12Z</time>
      </trkpt>
      <trkpt lat="47.17568" lon="-1.5857">
        <ele>69</ele>
        <time>2022-04-10T12:18:14Z</time>
      </trkpt>
      <trkpt lat="47.17581" lon="-1.58577">
        <ele>69</ele>
        <time>2022-04-10T12:18:16Z</time>
      </trkpt>
      <trkpt lat="47.17593" lon="-1.58584">
        <ele>69</ele>
        <time>2022-04-10T12:18:18Z</time>
      </trkpt>
      <trkpt lat="47.17605" lon="-1.58591">
        <ele>69</ele>
        <time>2022-04-10T12:18:20Z</time>
      </trkpt>
      <trkpt lat="47.17618" lon="-1.58597">
        <ele>69</ele>
        <time>2022-04-10T12:18:22Z</time>
      </trkpt>
      <trkpt lat="47.1763" lon="-1.58605">
        <ele>69</ele>
        <time>2022-04-10T12:18:24Z</time>
      </trkpt>
      <trkpt lat="47.17643" lon="-1.58611">
        <ele>69</ele>
        <time>2022-04-10T12:18:26Z</time>
      </trkpt>
      <trkpt lat="47.17655" lon="-1.58616">
        <ele>69</ele>
        <time>2022-04-10T12:18:28Z</time>
      </trkpt>
      <trkpt lat="47.17668" lon="-1.58622">
        <ele>69</ele>
        <time>2022-04-10T12:18:30Z</time>
      </trkpt>
      <trkpt lat="47.1768" lon="-1.58626">
        <ele>68</ele>
        <time>2022-04-10T12:18:32Z</time>
      </trkpt>
      <trkpt lat="47.17692" lon="-1.58627">
        <ele>68</ele>
        <time>2022-04-10T12:18:34Z</time>
      </trkpt>
      <trkpt lat="47.17705" lon="-1.58627">
        <ele>69</ele>
        <time>2022-04-10T12:18:36Z</time>
      </trkpt>
      <trkpt lat="47.17719" lon="-1.58627">
        <ele>68</ele>
        <time>2022-04-10T12:18:38Z</time>
      </trkpt>
      <trkpt lat="47.17732" lon="-1.58626">
        <ele>68</ele>
        <time>2022-04-10T12:18:40Z</time>
      </trkpt>
      <trkpt lat="47.17745" lon="-1.58623">
        <ele>67</ele>
        <time>2022-04-10T12:18:42Z</time>
      </trkpt>
      <trkpt lat="47.17757" lon="-1.58619">
        <ele>68</ele>
        <time>2022-04-10T12:18:44Z</time>
      </trkpt>
      <trkpt lat="47.17769" lon="-1.58628">
        <ele>68</ele>
        <time>2022-04-10T12:18:46Z</time>
      </trkpt>
      <trkpt lat="47.17774" lon="-1.58646">
        <ele>67</ele>
        <time>2022-04-10T12:18:48Z</time>
      </trkpt>
      <trkpt lat="47.17783" lon="-1.58661">
        <ele>67</ele>
        <time>2022-04-10T12:18:50Z</time>
      </trkpt>
      <trkpt lat="47.17793" lon="-1.58673">
        <ele>67</ele>
        <time>2022-04-10T12:18:52Z</time>
      </trkpt>
      <trkpt lat="47.17804" lon="-1.58686">
        <ele>67</ele>
        <time>2022-04-10T12:18:54Z</time>
      </trkpt>
      <trkpt lat="47.17814" lon="-1.587">
        <ele>67</ele>
        <time>2022-04-10T12:18:56Z</time>
      </trkpt>
      <trkpt lat="47.17824" lon="-1.58713">
        <ele>67</ele>
        <time>2022-04-10T12:18:58Z</time>
      </trkpt>
      <trkpt lat="47.17834" lon="-1.58726">
        <ele>67</ele>
        <time>2022-04-10T12:19:00Z</time>
      </trkpt>
      <trkpt lat="47.17844" lon="-1.5874">
        <ele>67</ele>
        <time>2022-04-10T12:19:02Z</time>
      </trkpt>
      <trkpt lat="47.17854" lon="-1.58753">
        <ele>67</ele>
        <time>2022-04-10T12:19:04Z</time>
      </trkpt>
      <trkpt lat="47.17864" lon="-1.58766">
        <ele>66</ele>
        <time>2022-04-10T12:19:06Z</time>
      </trkpt>
      <trkpt lat="47.17875" lon="-1.58779">
        <ele>66</ele>
        <time>2022-04-10T12:19:08Z</time>
      </trkpt>
      <trkpt lat="47.17885" lon="-1.58791">
        <ele>66</ele>
        <time>2022-04-10T12:19:10Z</time>
      </trkpt>
      <trkpt lat="47.17896" lon="-1.58802">
        <ele>66</ele>
        <time>2022-04-10T12:19:12Z</time>
      </trkpt>
      <trkpt lat="47.17908" lon="-1.58812">
        <ele>66</ele>
        <time>2022-04-10T12:19:14Z</time>
      </trkpt>
      <trkpt lat="47.1792" lon="-1.58822">
        <ele>66</ele>
        <time>2022-04-10T12:19:16Z</time>
      </trkpt>
      <trkpt lat="47.17931" lon="-1.58832">
        <ele>66</ele>
        <time>2022-04-10T12:19:18Z</time>
      </trkpt>
      <trkpt lat="47.17942" lon="-1.58842">
        <ele>65</ele>
        <time>2022-04-10T12:19:20Z</time>
      </trkpt>
      <trkpt lat="47.17953" lon="-1.58851">
        <ele>65</ele>
        <time>2022-04-10T12:19:22Z</time>
      </trkpt>
      <trkpt lat="47.17964" lon="-1.5886">
        <ele>65</ele>
        <time>2022-04-10T12:19:24Z</time>
      </trkpt>
      <trkpt lat="47.17975" lon="-1.58859">
        <ele>65</ele>
        <time>2022-04-10T12:19:26Z</time>
      </trkpt>
      <trkpt lat="47.17985" lon="-1.58854">
        <ele>66</ele>
        <time>2022-04-10T12:19:28Z</time>
      </trkpt>
      <trkpt lat="47.17996" lon="-1.58846">
        <ele>67</ele>
        <time>2022-04-10T12:19:31Z</time>
      </trkpt>
      <trkpt lat="47.18004" lon="-1.58829">
        <ele>67</ele>
        <time>2022-04-10T12:19:34Z</time>
      </trkpt>
      <trkpt lat="47.18009" lon="-1.58817">
        <ele>68</ele>
        <time>2022-04-10T12:19:36Z</time>
      </trkpt>
      <trkpt lat="47.18016" lon="-1.58807">
        <ele>68</ele>
        <time>2022-04-10T12:19:38Z</time>
      </trkpt>
      <trkpt lat="47.18023" lon="-1.58798">
        <ele>69</ele>
        <time>2022-04-10T12:19:40Z</time>
      </trkpt>
      <trkpt lat="47.18035" lon="-1.58801">
        <ele>69</ele>
        <time>2022-04-10T12:19:42Z</time>
      </trkpt>
      <trkpt lat="47.18045" lon="-1.58809">
        <ele>68</ele>
        <time>2022-04-10T12:19:44Z</time>
      </trkpt>
      <trkpt lat="47.18055" lon="-1.58818">
        <ele>69</ele>
        <time>2022-04-10T12:19:46Z</time>
      </trkpt>
      <trkpt lat="47.18066" lon="-1.58828">
        <ele>68</ele>
        <time>2022-04-10T12:19:48Z</time>
      </trkpt>
      <trkpt lat="47.18075" lon="-1.58837">
        <ele>67</ele>
        <time>2022-04-10T12:19:50Z</time>
      </trkpt>
      <trkpt lat="47.18083" lon="-1.58847">
        <ele>67</ele>
        <time>2022-04-10T12:19:52Z</time>
      </trkpt>
      <trkpt lat="47.1809" lon="-1.58858">
        <ele>66</ele>
        <time>2022-04-10T12:19:54Z</time>
      </trkpt>
      <trkpt lat="47.18099" lon="-1.58869">
        <ele>66</ele>
        <time>2022-04-10T12:19:56Z</time>
      </trkpt>
      <trkpt lat="47.18108" lon="-1.58881">
        <ele>66</ele>
        <time>2022-04-10T12:19:58Z</time>
      </trkpt>
      <trkpt lat="47.18117" lon="-1.58892">
        <ele>66</ele>
        <time>2022-04-10T12:20:00Z</time>
      </trkpt>
      <trkpt lat="47.18127" lon="-1.58903">
        <ele>66</ele>
        <time>2022-04-10T12:20:02Z</time>
      </trkpt>
      <trkpt lat="47.18136" lon="-1.58915">
        <ele>66</ele>
        <time>2022-04-10T12:20:04Z</time>
      </trkpt>
      <trkpt lat="47.18145" lon="-1.58928">
        <ele>66</ele>
        <time>2022-04-10T12:20:06Z</time>
      </trkpt>
      <trkpt lat="47.18154" lon="-1.5894">
        <ele>66</ele>
        <time>2022-04-10T12:20:08Z</time>
      </trkpt>
      <trkpt lat="47.18164" lon="-1.58953">
        <ele>66</ele>
        <time>2022-04-10T12:20:10Z</time>
      </trkpt>
      <trkpt lat="47.18173" lon="-1.58967">
        <ele>66</ele>
        <time>2022-04-10T12:20:12Z</time>
      </trkpt>
      <trkpt lat="47.18182" lon="-1.58982">
        <ele>66</ele>
        <time>2022-04-10T12:20:14Z</time>
      </trkpt>
      <trkpt lat="47.1819" lon="-1.58997">
        <ele>66</ele>
        <time>2022-04-10T12:20:16Z</time>
      </trkpt>
      <trkpt lat="47.182" lon="-1.59011">
        <ele>66</ele>
        <time>2022-04-10T12:20:18Z</time>
      </trkpt>
      <trkpt lat="47.18211" lon="-1.59021">
        <ele>66</ele>
        <time>2022-04-10T12:20:20Z</time>
      </trkpt>
      <trkpt lat="47.18224" lon="-1.59025">
        <ele>66</ele>
        <time>2022-04-10T12:20:22Z</time>
      </trkpt>
      <trkpt lat="47.18238" lon="-1.59023">
        <ele>65</ele>
        <time>2022-04-10T12:20:24Z</time>
      </trkpt>
      <trkpt lat="47.1825" lon="-1.59015">
        <ele>65</ele>
        <time>2022-04-10T12:20:26Z</time>
      </trkpt>
      <trkpt lat="47.1826" lon="-1.59001">
        <ele>65</ele>
        <time>2022-04-10T12:20:28Z</time>
      </trkpt>
      <trkpt lat="47.18267" lon="-1.58984">
        <ele>65</ele>
        <time>2022-04-10T12:20:30Z</time>
      </trkpt>
      <trkpt lat="47.18269" lon="-1.58966">
        <ele>66</ele>
        <time>2022-04-10T12:20:32Z</time>
      </trkpt>
      <trkpt lat="47.18271" lon="-1.58948">
        <ele>66</ele>
        <time>2022-04-10T12:20:34Z</time>
      </trkpt>
      <trkpt lat="47.18273" lon="-1.58931">
        <ele>66</ele>
        <time>2022-04-10T12:20:36Z</time>
      </trkpt>
      <trkpt lat="47.18275" lon="-1.58915">
        <ele>66</ele>
        <time>2022-04-10T12:20:38Z</time>
      </trkpt>
      <trkpt lat="47.18277" lon="-1.58901">
        <ele>66</ele>
        <time>2022-04-10T12:20:40Z</time>
      </trkpt>
      <trkpt lat="47.18284" lon="-1.58887">
        <ele>66</ele>
        <time>2022-04-10T12:20:43Z</time>
      </trkpt>
      <trkpt lat="47.18293" lon="-1.58888">
        <ele>66</ele>
        <time>2022-04-10T12:20:45Z</time>
      </trkpt>
      <trkpt lat="47.18306" lon="-1.58887">
        <ele>65</ele>
        <time>2022-04-10T12:20:48Z</time>
      </trkpt>
      <trkpt lat="47.18315" lon="-1.58889">
        <ele>65</ele>
        <time>2022-04-10T12:20:51Z</time>
      </trkpt>
      <trkpt lat="47.18309" lon="-1.58896">
        <ele>65</ele>
        <time>2022-04-10T12:22:52Z</time>
      </trkpt>
      <trkpt lat="47.1831" lon="-1.58898">
        <ele>65</ele>
        <time>2022-04-10T12:24:53Z</time>
      </trkpt>
      <trkpt lat="47.1831" lon="-1.58898">
        <ele>65</ele>
        <time>2022-04-10T12:26:54Z</time>
      </trkpt>
      <trkpt lat="47.1831" lon="-1.58898">
        <ele>65</ele>
        <time>2022-04-10T12:28:55Z</time>
      </trkpt>
      <trkpt lat="47.1831" lon="-1.58898">
        <ele>65</ele>
        <time>2022-04-10T12:30:56Z</time>
      </trkpt>
      <trkpt lat="47.1831" lon="-1.58898">
        <ele>65</ele>
        <time>2022-04-10T12:32:57Z</time>
      </trkpt>
      <trkpt lat="47.1831" lon="-1.58898">
        <ele>65</ele>
        <time>2022-04-10T12:34:58Z</time>
      </trkpt>
      <trkpt lat="47.1831" lon="-1.58898">
        <ele>65</ele>
        <time>2022-04-10T12:36:59Z</time>
      </trkpt>
      <trkpt lat="47.1831" lon="-1.58898">
        <ele>65</ele>
        <time>2022-04-10T12:39:00Z</time>
      </trkpt>
      <trkpt lat="47.1831" lon="-1.58898">
        <ele>65</ele>
        <time>2022-04-10T12:41:01Z</time>
      </trkpt>
      <trkpt lat="47.1831" lon="-1.58898">
        <ele>65</ele>
        <time>2022-04-10T12:43:02Z</time>
      </trkpt>
      <trkpt lat="47.1831" lon="-1.58898">
        <ele>65</ele>
        <time>2022-04-10T12:45:03Z</time>
      </trkpt>
      <trkpt lat="47.1831" lon="-1.58898">
        <ele>65</ele>
        <time>2022-04-10T12:47:04Z</time>
      </trkpt>
      <trkpt lat="47.1831" lon="-1.58898">
        <ele>65</ele>
        <time>2022-04-10T12:49:05Z</time>
      </trkpt>
      <trkpt lat="47.1831" lon="-1.58898">
        <ele>65</ele>
        <time>2022-04-10T12:51:06Z</time>
      </trkpt>
      <trkpt lat="47.1831" lon="-1.58898">
        <ele>65</ele>
        <time>2022-04-10T12:53:07Z</time>
      </trkpt>
      <trkpt lat="47.1831" lon="-1.58898">
        <ele>65</ele>
        <time>2022-04-10T12:55:08Z</time>
      </trkpt>
      <trkpt lat="47.1831" lon="-1.58898">
        <ele>65</ele>
        <time>2022-04-10T12:57:09Z</time>
      </trkpt>
      <trkpt lat="47.18309" lon="-1.58903">
        <ele>87</ele>
        <time>2022-04-10T13:34:57.977Z</time>
      </trkpt>
      <trkpt lat="47.18323" lon="-1.58915">
        <ele>87</ele>
        <time>2022-04-10T13:34:59.995Z</time>
      </trkpt>
      <trkpt lat="47.1831" lon="-1.589">
        <ele>68</ele>
        <time>2022-04-10T13:35:01.016Z</time>
      </trkpt>
      <trkpt lat="47.1831" lon="-1.589">
        <ele>67</ele>
        <time>2022-04-10T13:37:02Z</time>
      </trkpt>
      <trkpt lat="47.18319" lon="-1.58891">
        <ele>70</ele>
        <time>2022-04-10T13:38:51Z</time>
      </trkpt>
      <trkpt lat="47.1832" lon="-1.58906">
        <ele>70</ele>
        <time>2022-04-10T13:38:55Z</time>
      </trkpt>
      <trkpt lat="47.18321" lon="-1.58923">
        <ele>70</ele>
        <time>2022-04-10T13:38:58Z</time>
      </trkpt>
      <trkpt lat="47.18324" lon="-1.58938">
        <ele>70</ele>
        <time>2022-04-10T13:39:01Z</time>
      </trkpt>
      <trkpt lat="47.18332" lon="-1.58951">
        <ele>70</ele>
        <time>2022-04-10T13:39:04Z</time>
      </trkpt>
      <trkpt lat="47.18342" lon="-1.58964">
        <ele>70</ele>
        <time>2022-04-10T13:39:07Z</time>
      </trkpt>
      <trkpt lat="47.18351" lon="-1.58977">
        <ele>69</ele>
        <time>2022-04-10T13:39:10Z</time>
      </trkpt>
      <trkpt lat="47.18357" lon="-1.58989">
        <ele>69</ele>
        <time>2022-04-10T13:39:13Z</time>
      </trkpt>
      <trkpt lat="47.18353" lon="-1.59005">
        <ele>67</ele>
        <time>2022-04-10T13:39:16Z</time>
      </trkpt>
      <trkpt lat="47.18346" lon="-1.59013">
        <ele>68</ele>
        <time>2022-04-10T13:39:18Z</time>
      </trkpt>
      <trkpt lat="47.1834" lon="-1.59024">
        <ele>68</ele>
        <time>2022-04-10T13:39:20Z</time>
      </trkpt>
      <trkpt lat="47.18334" lon="-1.59037">
        <ele>68</ele>
        <time>2022-04-10T13:39:22Z</time>
      </trkpt>
      <trkpt lat="47.18327" lon="-1.59052">
        <ele>68</ele>
        <time>2022-04-10T13:39:24Z</time>
      </trkpt>
      <trkpt lat="47.18322" lon="-1.59067">
        <ele>68</ele>
        <time>2022-04-10T13:39:26Z</time>
      </trkpt>
      <trkpt lat="47.18316" lon="-1.59083">
        <ele>68</ele>
        <time>2022-04-10T13:39:28Z</time>
      </trkpt>
      <trkpt lat="47.18311" lon="-1.59099">
        <ele>68</ele>
        <time>2022-04-10T13:39:30Z</time>
      </trkpt>
      <trkpt lat="47.18305" lon="-1.59115">
        <ele>67</ele>
        <time>2022-04-10T13:39:32Z</time>
      </trkpt>
      <trkpt lat="47.18299" lon="-1.59131">
        <ele>67</ele>
        <time>2022-04-10T13:39:34Z</time>
      </trkpt>
      <trkpt lat="47.18293" lon="-1.59146">
        <ele>68</ele>
        <time>2022-04-10T13:39:36Z</time>
      </trkpt>
      <trkpt lat="47.18288" lon="-1.59162">
        <ele>68</ele>
        <time>2022-04-10T13:39:38Z</time>
      </trkpt>
      <trkpt lat="47.18283" lon="-1.59178">
        <ele>68</ele>
        <time>2022-04-10T13:39:40Z</time>
      </trkpt>
      <trkpt lat="47.18279" lon="-1.59192">
        <ele>68</ele>
        <time>2022-04-10T13:39:42Z</time>
      </trkpt>
      <trkpt lat="47.18276" lon="-1.59208">
        <ele>68</ele>
        <time>2022-04-10T13:39:44Z</time>
      </trkpt>
      <trkpt lat="47.18266" lon="-1.59219">
        <ele>68</ele>
        <time>2022-04-10T13:39:46Z</time>
      </trkpt>
      <trkpt lat="47.18256" lon="-1.59227">
        <ele>68</ele>
        <time>2022-04-10T13:39:48Z</time>
      </trkpt>
      <trkpt lat="47.18247" lon="-1.59238">
        <ele>68</ele>
        <time>2022-04-10T13:39:50Z</time>
      </trkpt>
      <trkpt lat="47.18237" lon="-1.59249">
        <ele>68</ele>
        <time>2022-04-10T13:39:52Z</time>
      </trkpt>
      <trkpt lat="47.18227" lon="-1.59259">
        <ele>68</ele>
        <time>2022-04-10T13:39:54Z</time>
      </trkpt>
      <trkpt lat="47.18217" lon="-1.5927">
        <ele>69</ele>
        <time>2022-04-10T13:39:56Z</time>
      </trkpt>
      <trkpt lat="47.18207" lon="-1.5928">
        <ele>69</ele>
        <time>2022-04-10T13:39:58Z</time>
      </trkpt>
      <trkpt lat="47.18196" lon="-1.5929">
        <ele>69</ele>
        <time>2022-04-10T13:40:00Z</time>
      </trkpt>
      <trkpt lat="47.18186" lon="-1.593">
        <ele>69</ele>
        <time>2022-04-10T13:40:02Z</time>
      </trkpt>
      <trkpt lat="47.18176" lon="-1.5931">
        <ele>69</ele>
        <time>2022-04-10T13:40:04Z</time>
      </trkpt>
      <trkpt lat="47.18165" lon="-1.5932">
        <ele>69</ele>
        <time>2022-04-10T13:40:06Z</time>
      </trkpt>
      <trkpt lat="47.18155" lon="-1.5933">
        <ele>68</ele>
        <time>2022-04-10T13:40:08Z</time>
      </trkpt>
      <trkpt lat="47.18144" lon="-1.59341">
        <ele>68</ele>
        <time>2022-04-10T13:40:10Z</time>
      </trkpt>
      <trkpt lat="47.18133" lon="-1.59351">
        <ele>68</ele>
        <time>2022-04-10T13:40:12Z</time>
      </trkpt>
      <trkpt lat="47.18123" lon="-1.59362">
        <ele>68</ele>
        <time>2022-04-10T13:40:14Z</time>
      </trkpt>
      <trkpt lat="47.18112" lon="-1.59373">
        <ele>68</ele>
        <time>2022-04-10T13:40:16Z</time>
      </trkpt>
      <trkpt lat="47.18101" lon="-1.59383">
        <ele>68</ele>
        <time>2022-04-10T13:40:18Z</time>
      </trkpt>
      <trkpt lat="47.1809" lon="-1.59393">
        <ele>67</ele>
        <time>2022-04-10T13:40:20Z</time>
      </trkpt>
      <trkpt lat="47.1808" lon="-1.59403">
        <ele>67</ele>
        <time>2022-04-10T13:40:22Z</time>
      </trkpt>
      <trkpt lat="47.1807" lon="-1.59416">
        <ele>67</ele>
        <time>2022-04-10T13:40:24Z</time>
      </trkpt>
      <trkpt lat="47.18061" lon="-1.59428">
        <ele>67</ele>
        <time>2022-04-10T13:40:26Z</time>
      </trkpt>
      <trkpt lat="47.18051" lon="-1.59441">
        <ele>67</ele>
        <time>2022-04-10T13:40:28Z</time>
      </trkpt>
      <trkpt lat="47.18043" lon="-1.59456">
        <ele>67</ele>
        <time>2022-04-10T13:40:30Z</time>
      </trkpt>
      <trkpt lat="47.18038" lon="-1.59472">
        <ele>68</ele>
        <time>2022-04-10T13:40:32Z</time>
      </trkpt>
      <trkpt lat="47.18033" lon="-1.5949">
        <ele>68</ele>
        <time>2022-04-10T13:40:34Z</time>
      </trkpt>
      <trkpt lat="47.18028" lon="-1.59509">
        <ele>68</ele>
        <time>2022-04-10T13:40:36Z</time>
      </trkpt>
      <trkpt lat="47.18023" lon="-1.59528">
        <ele>68</ele>
        <time>2022-04-10T13:40:38Z</time>
      </trkpt>
      <trkpt lat="47.18018" lon="-1.59546">
        <ele>68</ele>
        <time>2022-04-10T13:40:40Z</time>
      </trkpt>
      <trkpt lat="47.18013" lon="-1.59565">
        <ele>68</ele>
        <time>2022-04-10T13:40:42Z</time>
      </trkpt>
      <trkpt lat="47.18008" lon="-1.59584">
        <ele>68</ele>
        <time>2022-04-10T13:40:44Z</time>
      </trkpt>
      <trkpt lat="47.18003" lon="-1.59603">
        <ele>68</ele>
        <time>2022-04-10T13:40:46Z</time>
      </trkpt>
      <trkpt lat="47.17998" lon="-1.59622">
        <ele>68</ele>
        <time>2022-04-10T13:40:48Z</time>
      </trkpt>
      <trkpt lat="47.17993" lon="-1.5964">
        <ele>67</ele>
        <time>2022-04-10T13:40:50Z</time>
      </trkpt>
      <trkpt lat="47.17988" lon="-1.59659">
        <ele>67</ele>
        <time>2022-04-10T13:40:52Z</time>
      </trkpt>
      <trkpt lat="47.17984" lon="-1.59679">
        <ele>66</ele>
        <time>2022-04-10T13:40:54Z</time>
      </trkpt>
      <trkpt lat="47.1798" lon="-1.59699">
        <ele>66</ele>
        <time>2022-04-10T13:40:56Z</time>
      </trkpt>
      <trkpt lat="47.17973" lon="-1.59719">
        <ele>65</ele>
        <time>2022-04-10T13:40:58Z</time>
      </trkpt>
      <trkpt lat="47.17967" lon="-1.5974">
        <ele>64</ele>
        <time>2022-04-10T13:41:00Z</time>
      </trkpt>
      <trkpt lat="47.17961" lon="-1.5976">
        <ele>63</ele>
        <time>2022-04-10T13:41:02Z</time>
      </trkpt>
      <trkpt lat="47.17956" lon="-1.59784">
        <ele>62</ele>
        <time>2022-04-10T13:41:04Z</time>
      </trkpt>
      <trkpt lat="47.17951" lon="-1.59808">
        <ele>61</ele>
        <time>2022-04-10T13:41:06Z</time>
      </trkpt>
      <trkpt lat="47.17949" lon="-1.59821">
        <ele>61</ele>
        <time>2022-04-10T13:41:07Z</time>
      </trkpt>
      <trkpt lat="47.17947" lon="-1.59835">
        <ele>60</ele>
        <time>2022-04-10T13:41:08Z</time>
      </trkpt>
      <trkpt lat="47.17945" lon="-1.59849">
        <ele>60</ele>
        <time>2022-04-10T13:41:09Z</time>
      </trkpt>
      <trkpt lat="47.17942" lon="-1.59863">
        <ele>59</ele>
        <time>2022-04-10T13:41:10Z</time>
      </trkpt>
      <trkpt lat="47.17939" lon="-1.59877">
        <ele>59</ele>
        <time>2022-04-10T13:41:11Z</time>
      </trkpt>
      <trkpt lat="47.17935" lon="-1.5989">
        <ele>58</ele>
        <time>2022-04-10T13:41:12Z</time>
      </trkpt>
      <trkpt lat="47.17932" lon="-1.59904">
        <ele>58</ele>
        <time>2022-04-10T13:41:13Z</time>
      </trkpt>
      <trkpt lat="47.1793" lon="-1.59918">
        <ele>57</ele>
        <time>2022-04-10T13:41:14Z</time>
      </trkpt>
      <trkpt lat="47.17926" lon="-1.59931">
        <ele>57</ele>
        <time>2022-04-10T13:41:15Z</time>
      </trkpt>
      <trkpt lat="47.17919" lon="-1.5994">
        <ele>57</ele>
        <time>2022-04-10T13:41:16Z</time>
      </trkpt>
      <trkpt lat="47.1791" lon="-1.59944">
        <ele>57</ele>
        <time>2022-04-10T13:41:17Z</time>
      </trkpt>
      <trkpt lat="47.17901" lon="-1.59945">
        <ele>57</ele>
        <time>2022-04-10T13:41:18Z</time>
      </trkpt>
      <trkpt lat="47.17886" lon="-1.59951">
        <ele>57</ele>
        <time>2022-04-10T13:41:20Z</time>
      </trkpt>
      <trkpt lat="47.17876" lon="-1.59966">
        <ele>56</ele>
        <time>2022-04-10T13:41:22Z</time>
      </trkpt>
      <trkpt lat="47.17866" lon="-1.59984">
        <ele>56</ele>
        <time>2022-04-10T13:41:24Z</time>
      </trkpt>
      <trkpt lat="47.17856" lon="-1.6">
        <ele>56</ele>
        <time>2022-04-10T13:41:26Z</time>
      </trkpt>
      <trkpt lat="47.17848" lon="-1.60016">
        <ele>56</ele>
        <time>2022-04-10T13:41:28Z</time>
      </trkpt>
      <trkpt lat="47.17839" lon="-1.60031">
        <ele>57</ele>
        <time>2022-04-10T13:41:30Z</time>
      </trkpt>
      <trkpt lat="47.1783" lon="-1.60046">
        <ele>57</ele>
        <time>2022-04-10T13:41:32Z</time>
      </trkpt>
      <trkpt lat="47.17821" lon="-1.60061">
        <ele>58</ele>
        <time>2022-04-10T13:41:34Z</time>
      </trkpt>
      <trkpt lat="47.17813" lon="-1.60076">
        <ele>58</ele>
        <time>2022-04-10T13:41:36Z</time>
      </trkpt>
      <trkpt lat="47.17805" lon="-1.6009">
        <ele>59</ele>
        <time>2022-04-10T13:41:38Z</time>
      </trkpt>
      <trkpt lat="47.17797" lon="-1.60104">
        <ele>59</ele>
        <time>2022-04-10T13:41:40Z</time>
      </trkpt>
      <trkpt lat="47.17789" lon="-1.60118">
        <ele>60</ele>
        <time>2022-04-10T13:41:42Z</time>
      </trkpt>
      <trkpt lat="47.17781" lon="-1.60132">
        <ele>60</ele>
        <time>2022-04-10T13:41:44Z</time>
      </trkpt>
      <trkpt lat="47.17773" lon="-1.60146">
        <ele>61</ele>
        <time>2022-04-10T13:41:46Z</time>
      </trkpt>
      <trkpt lat="47.17766" lon="-1.6016">
        <ele>62</ele>
        <time>2022-04-10T13:41:48Z</time>
      </trkpt>
      <trkpt lat="47.17759" lon="-1.60175">
        <ele>63</ele>
        <time>2022-04-10T13:41:50Z</time>
      </trkpt>
      <trkpt lat="47.17754" lon="-1.60191">
        <ele>63</ele>
        <time>2022-04-10T13:41:52Z</time>
      </trkpt>
      <trkpt lat="47.1775" lon="-1.60209">
        <ele>64</ele>
        <time>2022-04-10T13:41:54Z</time>
      </trkpt>
      <trkpt lat="47.17745" lon="-1.60226">
        <ele>64</ele>
        <time>2022-04-10T13:41:56Z</time>
      </trkpt>
      <trkpt lat="47.17741" lon="-1.60244">
        <ele>65</ele>
        <time>2022-04-10T13:41:58Z</time>
      </trkpt>
      <trkpt lat="47.17735" lon="-1.60261">
        <ele>65</ele>
        <time>2022-04-10T13:42:00Z</time>
      </trkpt>
      <trkpt lat="47.17728" lon="-1.60276">
        <ele>66</ele>
        <time>2022-04-10T13:42:02Z</time>
      </trkpt>
      <trkpt lat="47.17719" lon="-1.60289">
        <ele>66</ele>
        <time>2022-04-10T13:42:04Z</time>
      </trkpt>
      <trkpt lat="47.1771" lon="-1.60302">
        <ele>66</ele>
        <time>2022-04-10T13:42:06Z</time>
      </trkpt>
      <trkpt lat="47.17701" lon="-1.60314">
        <ele>66</ele>
        <time>2022-04-10T13:42:08Z</time>
      </trkpt>
      <trkpt lat="47.17692" lon="-1.60327">
        <ele>66</ele>
        <time>2022-04-10T13:42:10Z</time>
      </trkpt>
      <trkpt lat="47.17683" lon="-1.60339">
        <ele>66</ele>
        <time>2022-04-10T13:42:12Z</time>
      </trkpt>
      <trkpt lat="47.17674" lon="-1.60352">
        <ele>66</ele>
        <time>2022-04-10T13:42:14Z</time>
      </trkpt>
      <trkpt lat="47.17665" lon="-1.60364">
        <ele>66</ele>
        <time>2022-04-10T13:42:16Z</time>
      </trkpt>
      <trkpt lat="47.17656" lon="-1.60377">
        <ele>65</ele>
        <time>2022-04-10T13:42:18Z</time>
      </trkpt>
      <trkpt lat="47.17648" lon="-1.60391">
        <ele>65</ele>
        <time>2022-04-10T13:42:20Z</time>
      </trkpt>
      <trkpt lat="47.17639" lon="-1.60405">
        <ele>64</ele>
        <time>2022-04-10T13:42:22Z</time>
      </trkpt>
      <trkpt lat="47.17629" lon="-1.6042">
        <ele>64</ele>
        <time>2022-04-10T13:42:24Z</time>
      </trkpt>
      <trkpt lat="47.17619" lon="-1.60436">
        <ele>64</ele>
        <time>2022-04-10T13:42:26Z</time>
      </trkpt>
      <trkpt lat="47.17609" lon="-1.60451">
        <ele>64</ele>
        <time>2022-04-10T13:42:28Z</time>
      </trkpt>
      <trkpt lat="47.176" lon="-1.60467">
        <ele>63</ele>
        <time>2022-04-10T13:42:30Z</time>
      </trkpt>
      <trkpt lat="47.17591" lon="-1.60482">
        <ele>63</ele>
        <time>2022-04-10T13:42:32Z</time>
      </trkpt>
      <trkpt lat="47.17582" lon="-1.60498">
        <ele>63</ele>
        <time>2022-04-10T13:42:34Z</time>
      </trkpt>
      <trkpt lat="47.17573" lon="-1.60513">
        <ele>62</ele>
        <time>2022-04-10T13:42:36Z</time>
      </trkpt>
      <trkpt lat="47.17564" lon="-1.60528">
        <ele>63</ele>
        <time>2022-04-10T13:42:38Z</time>
      </trkpt>
      <trkpt lat="47.17554" lon="-1.60543">
        <ele>62</ele>
        <time>2022-04-10T13:42:40Z</time>
      </trkpt>
      <trkpt lat="47.17545" lon="-1.60558">
        <ele>63</ele>
        <time>2022-04-10T13:42:42Z</time>
      </trkpt>
      <trkpt lat="47.17535" lon="-1.60572">
        <ele>63</ele>
        <time>2022-04-10T13:42:44Z</time>
      </trkpt>
      <trkpt lat="47.17526" lon="-1.60587">
        <ele>63</ele>
        <time>2022-04-10T13:42:46Z</time>
      </trkpt>
      <trkpt lat="47.17517" lon="-1.60603">
        <ele>63</ele>
        <time>2022-04-10T13:42:48Z</time>
      </trkpt>
      <trkpt lat="47.17508" lon="-1.60618">
        <ele>63</ele>
        <time>2022-04-10T13:42:50Z</time>
      </trkpt>
      <trkpt lat="47.17498" lon="-1.60633">
        <ele>63</ele>
        <time>2022-04-10T13:42:52Z</time>
      </trkpt>
      <trkpt lat="47.17489" lon="-1.60648">
        <ele>62</ele>
        <time>2022-04-10T13:42:54Z</time>
      </trkpt>
      <trkpt lat="47.1748" lon="-1.60664">
        <ele>62</ele>
        <time>2022-04-10T13:42:56Z</time>
      </trkpt>
      <trkpt lat="47.1747" lon="-1.6068">
        <ele>61</ele>
        <time>2022-04-10T13:42:58Z</time>
      </trkpt>
      <trkpt lat="47.1746" lon="-1.60697">
        <ele>61</ele>
        <time>2022-04-10T13:43:00Z</time>
      </trkpt>
      <trkpt lat="47.1745" lon="-1.60714">
        <ele>61</ele>
        <time>2022-04-10T13:43:02Z</time>
      </trkpt>
      <trkpt lat="47.1744" lon="-1.60731">
        <ele>60</ele>
        <time>2022-04-10T13:43:04Z</time>
      </trkpt>
      <trkpt lat="47.1743" lon="-1.60749">
        <ele>60</ele>
        <time>2022-04-10T13:43:06Z</time>
      </trkpt>
      <trkpt lat="47.17421" lon="-1.6077">
        <ele>59</ele>
        <time>2022-04-10T13:43:08Z</time>
      </trkpt>
      <trkpt lat="47.17414" lon="-1.60792">
        <ele>58</ele>
        <time>2022-04-10T13:43:10Z</time>
      </trkpt>
      <trkpt lat="47.17407" lon="-1.60814">
        <ele>58</ele>
        <time>2022-04-10T13:43:12Z</time>
      </trkpt>
      <trkpt lat="47.17401" lon="-1.60838">
        <ele>57</ele>
        <time>2022-04-10T13:43:14Z</time>
      </trkpt>
      <trkpt lat="47.17398" lon="-1.60863">
        <ele>56</ele>
        <time>2022-04-10T13:43:16Z</time>
      </trkpt>
      <trkpt lat="47.17396" lon="-1.60888">
        <ele>56</ele>
        <time>2022-04-10T13:43:18Z</time>
      </trkpt>
      <trkpt lat="47.17396" lon="-1.60915">
        <ele>56</ele>
        <time>2022-04-10T13:43:20Z</time>
      </trkpt>
      <trkpt lat="47.17397" lon="-1.60929">
        <ele>55</ele>
        <time>2022-04-10T13:43:21Z</time>
      </trkpt>
      <trkpt lat="47.17399" lon="-1.60942">
        <ele>55</ele>
        <time>2022-04-10T13:43:22Z</time>
      </trkpt>
      <trkpt lat="47.17402" lon="-1.60955">
        <ele>55</ele>
        <time>2022-04-10T13:43:23Z</time>
      </trkpt>
      <trkpt lat="47.17406" lon="-1.60968">
        <ele>55</ele>
        <time>2022-04-10T13:43:24Z</time>
      </trkpt>
      <trkpt lat="47.1741" lon="-1.6098">
        <ele>55</ele>
        <time>2022-04-10T13:43:25Z</time>
      </trkpt>
      <trkpt lat="47.17418" lon="-1.61002">
        <ele>55</ele>
        <time>2022-04-10T13:43:27Z</time>
      </trkpt>
      <trkpt lat="47.1742" lon="-1.61027">
        <ele>55</ele>
        <time>2022-04-10T13:43:29Z</time>
      </trkpt>
      <trkpt lat="47.17423" lon="-1.61049">
        <ele>55</ele>
        <time>2022-04-10T13:43:31Z</time>
      </trkpt>
      <trkpt lat="47.17431" lon="-1.61065">
        <ele>56</ele>
        <time>2022-04-10T13:43:33Z</time>
      </trkpt>
      <trkpt lat="47.17439" lon="-1.61083">
        <ele>56</ele>
        <time>2022-04-10T13:43:35Z</time>
      </trkpt>
      <trkpt lat="47.17447" lon="-1.61102">
        <ele>57</ele>
        <time>2022-04-10T13:43:37Z</time>
      </trkpt>
      <trkpt lat="47.17454" lon="-1.61119">
        <ele>58</ele>
        <time>2022-04-10T13:43:39Z</time>
      </trkpt>
      <trkpt lat="47.17461" lon="-1.61135">
        <ele>58</ele>
        <time>2022-04-10T13:43:41Z</time>
      </trkpt>
      <trkpt lat="47.17467" lon="-1.61152">
        <ele>59</ele>
        <time>2022-04-10T13:43:43Z</time>
      </trkpt>
      <trkpt lat="47.17474" lon="-1.61168">
        <ele>59</ele>
        <time>2022-04-10T13:43:45Z</time>
      </trkpt>
      <trkpt lat="47.1748" lon="-1.61185">
        <ele>59</ele>
        <time>2022-04-10T13:43:47Z</time>
      </trkpt>
      <trkpt lat="47.17487" lon="-1.61201">
        <ele>59</ele>
        <time>2022-04-10T13:43:49Z</time>
      </trkpt>
      <trkpt lat="47.17494" lon="-1.61218">
        <ele>60</ele>
        <time>2022-04-10T13:43:51Z</time>
      </trkpt>
      <trkpt lat="47.17501" lon="-1.61235">
        <ele>60</ele>
        <time>2022-04-10T13:43:53Z</time>
      </trkpt>
      <trkpt lat="47.17509" lon="-1.61251">
        <ele>60</ele>
        <time>2022-04-10T13:43:55Z</time>
      </trkpt>
      <trkpt lat="47.17518" lon="-1.61266">
        <ele>60</ele>
        <time>2022-04-10T13:43:57Z</time>
      </trkpt>
      <trkpt lat="47.17528" lon="-1.61279">
        <ele>60</ele>
        <time>2022-04-10T13:43:59Z</time>
      </trkpt>
      <trkpt lat="47.1754" lon="-1.61287">
        <ele>61</ele>
        <time>2022-04-10T13:44:01Z</time>
      </trkpt>
      <trkpt lat="47.17552" lon="-1.61296">
        <ele>61</ele>
        <time>2022-04-10T13:44:03Z</time>
      </trkpt>
      <trkpt lat="47.17561" lon="-1.61313">
        <ele>60</ele>
        <time>2022-04-10T13:44:05Z</time>
      </trkpt>
      <trkpt lat="47.17561" lon="-1.61334">
        <ele>60</ele>
        <time>2022-04-10T13:44:07Z</time>
      </trkpt>
      <trkpt lat="47.17551" lon="-1.61351">
        <ele>60</ele>
        <time>2022-04-10T13:44:09Z</time>
      </trkpt>
      <trkpt lat="47.17539" lon="-1.61363">
        <ele>60</ele>
        <time>2022-04-10T13:44:11Z</time>
      </trkpt>
      <trkpt lat="47.1753" lon="-1.61379">
        <ele>61</ele>
        <time>2022-04-10T13:44:13Z</time>
      </trkpt>
      <trkpt lat="47.17524" lon="-1.61398">
        <ele>61</ele>
        <time>2022-04-10T13:44:15Z</time>
      </trkpt>
      <trkpt lat="47.17521" lon="-1.61417">
        <ele>62</ele>
        <time>2022-04-10T13:44:17Z</time>
      </trkpt>
      <trkpt lat="47.17517" lon="-1.61435">
        <ele>63</ele>
        <time>2022-04-10T13:44:19Z</time>
      </trkpt>
      <trkpt lat="47.17513" lon="-1.61452">
        <ele>64</ele>
        <time>2022-04-10T13:44:21Z</time>
      </trkpt>
      <trkpt lat="47.17503" lon="-1.61463">
        <ele>65</ele>
        <time>2022-04-10T13:44:23Z</time>
      </trkpt>
      <trkpt lat="47.1749" lon="-1.61469">
        <ele>65</ele>
        <time>2022-04-10T13:44:25Z</time>
      </trkpt>
      <trkpt lat="47.17478" lon="-1.61474">
        <ele>66</ele>
        <time>2022-04-10T13:44:27Z</time>
      </trkpt>
      <trkpt lat="47.17465" lon="-1.61479">
        <ele>66</ele>
        <time>2022-04-10T13:44:29Z</time>
      </trkpt>
      <trkpt lat="47.17453" lon="-1.61485">
        <ele>67</ele>
        <time>2022-04-10T13:44:31Z</time>
      </trkpt>
      <trkpt lat="47.17441" lon="-1.61492">
        <ele>68</ele>
        <time>2022-04-10T13:44:33Z</time>
      </trkpt>
      <trkpt lat="47.17429" lon="-1.61498">
        <ele>68</ele>
        <time>2022-04-10T13:44:35Z</time>
      </trkpt>
      <trkpt lat="47.17417" lon="-1.61507">
        <ele>68</ele>
        <time>2022-04-10T13:44:37Z</time>
      </trkpt>
      <trkpt lat="47.17406" lon="-1.61515">
        <ele>69</ele>
        <time>2022-04-10T13:44:39Z</time>
      </trkpt>
      <trkpt lat="47.17396" lon="-1.61523">
        <ele>69</ele>
        <time>2022-04-10T13:44:41Z</time>
      </trkpt>
      <trkpt lat="47.17385" lon="-1.61532">
        <ele>69</ele>
        <time>2022-04-10T13:44:43Z</time>
      </trkpt>
      <trkpt lat="47.17375" lon="-1.61541">
        <ele>69</ele>
        <time>2022-04-10T13:44:45Z</time>
      </trkpt>
      <trkpt lat="47.17365" lon="-1.61552">
        <ele>69</ele>
        <time>2022-04-10T13:44:47Z</time>
      </trkpt>
      <trkpt lat="47.17356" lon="-1.61563">
        <ele>70</ele>
        <time>2022-04-10T13:44:49Z</time>
      </trkpt>
      <trkpt lat="47.17347" lon="-1.61574">
        <ele>70</ele>
        <time>2022-04-10T13:44:51Z</time>
      </trkpt>
      <trkpt lat="47.17337" lon="-1.61586">
        <ele>70</ele>
        <time>2022-04-10T13:44:53Z</time>
      </trkpt>
      <trkpt lat="47.17327" lon="-1.61598">
        <ele>70</ele>
        <time>2022-04-10T13:44:55Z</time>
      </trkpt>
      <trkpt lat="47.17318" lon="-1.6161">
        <ele>70</ele>
        <time>2022-04-10T13:44:57Z</time>
      </trkpt>
      <trkpt lat="47.17309" lon="-1.61623">
        <ele>70</ele>
        <time>2022-04-10T13:44:59Z</time>
      </trkpt>
      <trkpt lat="47.17301" lon="-1.61637">
        <ele>70</ele>
        <time>2022-04-10T13:45:01Z</time>
      </trkpt>
      <trkpt lat="47.17294" lon="-1.6165">
        <ele>70</ele>
        <time>2022-04-10T13:45:03Z</time>
      </trkpt>
      <trkpt lat="47.17285" lon="-1.61665">
        <ele>70</ele>
        <time>2022-04-10T13:45:05Z</time>
      </trkpt>
      <trkpt lat="47.17277" lon="-1.61679">
        <ele>70</ele>
        <time>2022-04-10T13:45:07Z</time>
      </trkpt>
      <trkpt lat="47.1727" lon="-1.61694">
        <ele>69</ele>
        <time>2022-04-10T13:45:09Z</time>
      </trkpt>
      <trkpt lat="47.17263" lon="-1.6171">
        <ele>69</ele>
        <time>2022-04-10T13:45:11Z</time>
      </trkpt>
      <trkpt lat="47.17255" lon="-1.61725">
        <ele>69</ele>
        <time>2022-04-10T13:45:13Z</time>
      </trkpt>
      <trkpt lat="47.17249" lon="-1.61741">
        <ele>69</ele>
        <time>2022-04-10T13:45:15Z</time>
      </trkpt>
      <trkpt lat="47.17245" lon="-1.61759">
        <ele>69</ele>
        <time>2022-04-10T13:45:17Z</time>
      </trkpt>
      <trkpt lat="47.17241" lon="-1.61776">
        <ele>69</ele>
        <time>2022-04-10T13:45:19Z</time>
      </trkpt>
      <trkpt lat="47.1723" lon="-1.61788">
        <ele>68</ele>
        <time>2022-04-10T13:45:21Z</time>
      </trkpt>
      <trkpt lat="47.17219" lon="-1.61797">
        <ele>68</ele>
        <time>2022-04-10T13:45:23Z</time>
      </trkpt>
      <trkpt lat="47.17207" lon="-1.61807">
        <ele>68</ele>
        <time>2022-04-10T13:45:25Z</time>
      </trkpt>
      <trkpt lat="47.17196" lon="-1.61817">
        <ele>68</ele>
        <time>2022-04-10T13:45:27Z</time>
      </trkpt>
      <trkpt lat="47.17185" lon="-1.61827">
        <ele>68</ele>
        <time>2022-04-10T13:45:29Z</time>
      </trkpt>
      <trkpt lat="47.17174" lon="-1.61838">
        <ele>68</ele>
        <time>2022-04-10T13:45:31Z</time>
      </trkpt>
      <trkpt lat="47.17163" lon="-1.61849">
        <ele>68</ele>
        <time>2022-04-10T13:45:33Z</time>
      </trkpt>
      <trkpt lat="47.17151" lon="-1.61859">
        <ele>68</ele>
        <time>2022-04-10T13:45:35Z</time>
      </trkpt>
      <trkpt lat="47.1714" lon="-1.6187">
        <ele>68</ele>
        <time>2022-04-10T13:45:37Z</time>
      </trkpt>
      <trkpt lat="47.17129" lon="-1.61881">
        <ele>68</ele>
        <time>2022-04-10T13:45:39Z</time>
      </trkpt>
      <trkpt lat="47.17118" lon="-1.61891">
        <ele>68</ele>
        <time>2022-04-10T13:45:41Z</time>
      </trkpt>
      <trkpt lat="47.17107" lon="-1.61902">
        <ele>68</ele>
        <time>2022-04-10T13:45:43Z</time>
      </trkpt>
      <trkpt lat="47.17096" lon="-1.61913">
        <ele>67</ele>
        <time>2022-04-10T13:45:45Z</time>
      </trkpt>
      <trkpt lat="47.17086" lon="-1.61923">
        <ele>67</ele>
        <time>2022-04-10T13:45:47Z</time>
      </trkpt>
      <trkpt lat="47.17076" lon="-1.61933">
        <ele>68</ele>
        <time>2022-04-10T13:45:49Z</time>
      </trkpt>
      <trkpt lat="47.17066" lon="-1.61943">
        <ele>68</ele>
        <time>2022-04-10T13:45:51Z</time>
      </trkpt>
      <trkpt lat="47.17057" lon="-1.61954">
        <ele>68</ele>
        <time>2022-04-10T13:45:53Z</time>
      </trkpt>
      <trkpt lat="47.17048" lon="-1.61967">
        <ele>68</ele>
        <time>2022-04-10T13:45:55Z</time>
      </trkpt>
      <trkpt lat="47.17039" lon="-1.61981">
        <ele>68</ele>
        <time>2022-04-10T13:45:57Z</time>
      </trkpt>
      <trkpt lat="47.1703" lon="-1.61994">
        <ele>67</ele>
        <time>2022-04-10T13:45:59Z</time>
      </trkpt>
      <trkpt lat="47.17021" lon="-1.62008">
        <ele>67</ele>
        <time>2022-04-10T13:46:01Z</time>
      </trkpt>
      <trkpt lat="47.17011" lon="-1.62022">
        <ele>67</ele>
        <time>2022-04-10T13:46:03Z</time>
      </trkpt>
      <trkpt lat="47.17002" lon="-1.62036">
        <ele>67</ele>
        <time>2022-04-10T13:46:05Z</time>
      </trkpt>
      <trkpt lat="47.16994" lon="-1.62052">
        <ele>67</ele>
        <time>2022-04-10T13:46:07Z</time>
      </trkpt>
      <trkpt lat="47.16986" lon="-1.62067">
        <ele>67</ele>
        <time>2022-04-10T13:46:09Z</time>
      </trkpt>
      <trkpt lat="47.16977" lon="-1.62082">
        <ele>68</ele>
        <time>2022-04-10T13:46:11Z</time>
      </trkpt>
      <trkpt lat="47.16969" lon="-1.62096">
        <ele>68</ele>
        <time>2022-04-10T13:46:13Z</time>
      </trkpt>
      <trkpt lat="47.16961" lon="-1.62112">
        <ele>68</ele>
        <time>2022-04-10T13:46:15Z</time>
      </trkpt>
      <trkpt lat="47.16953" lon="-1.62127">
        <ele>68</ele>
        <time>2022-04-10T13:46:17Z</time>
      </trkpt>
      <trkpt lat="47.16945" lon="-1.62143">
        <ele>68</ele>
        <time>2022-04-10T13:46:19Z</time>
      </trkpt>
      <trkpt lat="47.16937" lon="-1.6216">
        <ele>68</ele>
        <time>2022-04-10T13:46:21Z</time>
      </trkpt>
      <trkpt lat="47.16929" lon="-1.62176">
        <ele>68</ele>
        <time>2022-04-10T13:46:23Z</time>
      </trkpt>
      <trkpt lat="47.16921" lon="-1.62192">
        <ele>68</ele>
        <time>2022-04-10T13:46:25Z</time>
      </trkpt>
      <trkpt lat="47.16912" lon="-1.62206">
        <ele>68</ele>
        <time>2022-04-10T13:46:27Z</time>
      </trkpt>
      <trkpt lat="47.16903" lon="-1.6222">
        <ele>68</ele>
        <time>2022-04-10T13:46:29Z</time>
      </trkpt>
      <trkpt lat="47.16892" lon="-1.62233">
        <ele>69</ele>
        <time>2022-04-10T13:46:31Z</time>
      </trkpt>
      <trkpt lat="47.16882" lon="-1.62246">
        <ele>69</ele>
        <time>2022-04-10T13:46:33Z</time>
      </trkpt>
      <trkpt lat="47.16871" lon="-1.62259">
        <ele>69</ele>
        <time>2022-04-10T13:46:35Z</time>
      </trkpt>
      <trkpt lat="47.16861" lon="-1.62272">
        <ele>69</ele>
        <time>2022-04-10T13:46:37Z</time>
      </trkpt>
      <trkpt lat="47.1685" lon="-1.62285">
        <ele>69</ele>
        <time>2022-04-10T13:46:39Z</time>
      </trkpt>
      <trkpt lat="47.1684" lon="-1.62297">
        <ele>69</ele>
        <time>2022-04-10T13:46:41Z</time>
      </trkpt>
      <trkpt lat="47.1683" lon="-1.62309">
        <ele>69</ele>
        <time>2022-04-10T13:46:43Z</time>
      </trkpt>
      <trkpt lat="47.16818" lon="-1.62318">
        <ele>69</ele>
        <time>2022-04-10T13:46:45Z</time>
      </trkpt>
      <trkpt lat="47.16806" lon="-1.62325">
        <ele>69</ele>
        <time>2022-04-10T13:46:47Z</time>
      </trkpt>
      <trkpt lat="47.16794" lon="-1.62333">
        <ele>69</ele>
        <time>2022-04-10T13:46:49Z</time>
      </trkpt>
      <trkpt lat="47.16782" lon="-1.62339">
        <ele>68</ele>
        <time>2022-04-10T13:46:51Z</time>
      </trkpt>
      <trkpt lat="47.1677" lon="-1.62346">
        <ele>68</ele>
        <time>2022-04-10T13:46:53Z</time>
      </trkpt>
      <trkpt lat="47.16758" lon="-1.62354">
        <ele>68</ele>
        <time>2022-04-10T13:46:55Z</time>
      </trkpt>
      <trkpt lat="47.16747" lon="-1.62365">
        <ele>67</ele>
        <time>2022-04-10T13:46:57Z</time>
      </trkpt>
      <trkpt lat="47.16738" lon="-1.62379">
        <ele>67</ele>
        <time>2022-04-10T13:46:59Z</time>
      </trkpt>
      <trkpt lat="47.16733" lon="-1.62396">
        <ele>67</ele>
        <time>2022-04-10T13:47:01Z</time>
      </trkpt>
      <trkpt lat="47.1673" lon="-1.62414">
        <ele>67</ele>
        <time>2022-04-10T13:47:03Z</time>
      </trkpt>
      <trkpt lat="47.16728" lon="-1.62431">
        <ele>68</ele>
        <time>2022-04-10T13:47:05Z</time>
      </trkpt>
      <trkpt lat="47.16724" lon="-1.62447">
        <ele>68</ele>
        <time>2022-04-10T13:47:07Z</time>
      </trkpt>
      <trkpt lat="47.1672" lon="-1.62465">
        <ele>68</ele>
        <time>2022-04-10T13:47:09Z</time>
      </trkpt>
      <trkpt lat="47.16717" lon="-1.62481">
        <ele>69</ele>
        <time>2022-04-10T13:47:11Z</time>
      </trkpt>
      <trkpt lat="47.16721" lon="-1.62494">
        <ele>68</ele>
        <time>2022-04-10T13:47:13Z</time>
      </trkpt>
      <trkpt lat="47.16731" lon="-1.62499">
        <ele>68</ele>
        <time>2022-04-10T13:47:15Z</time>
      </trkpt>
      <trkpt lat="47.16742" lon="-1.62504">
        <ele>68</ele>
        <time>2022-04-10T13:47:17Z</time>
      </trkpt>
      <trkpt lat="47.16753" lon="-1.62509">
        <ele>69</ele>
        <time>2022-04-10T13:47:19Z</time>
      </trkpt>
      <trkpt lat="47.16764" lon="-1.62515">
        <ele>69</ele>
        <time>2022-04-10T13:47:21Z</time>
      </trkpt>
      <trkpt lat="47.16774" lon="-1.62521">
        <ele>69</ele>
        <time>2022-04-10T13:47:23Z</time>
      </trkpt>
      <trkpt lat="47.16783" lon="-1.62527">
        <ele>69</ele>
        <time>2022-04-10T13:47:25Z</time>
      </trkpt>
      <trkpt lat="47.16793" lon="-1.62534">
        <ele>69</ele>
        <time>2022-04-10T13:47:28Z</time>
      </trkpt>
      <trkpt lat="47.16802" lon="-1.6254">
        <ele>69</ele>
        <time>2022-04-10T13:47:32Z</time>
      </trkpt>
      <trkpt lat="47.16794" lon="-1.62548">
        <ele>70</ele>
        <time>2022-04-10T13:47:38Z</time>
      </trkpt>
      <trkpt lat="47.16791" lon="-1.62562">
        <ele>70</ele>
        <time>2022-04-10T13:47:41Z</time>
      </trkpt>
      <trkpt lat="47.16787" lon="-1.62576">
        <ele>70</ele>
        <time>2022-04-10T13:47:44Z</time>
      </trkpt>
      <trkpt lat="47.16782" lon="-1.62591">
        <ele>71</ele>
        <time>2022-04-10T13:47:48Z</time>
      </trkpt>
      <trkpt lat="47.16788" lon="-1.62602">
        <ele>71</ele>
        <time>2022-04-10T13:47:54Z</time>
      </trkpt>
      <trkpt lat="47.16796" lon="-1.62611">
        <ele>71</ele>
        <time>2022-04-10T13:47:57Z</time>
      </trkpt>
      <trkpt lat="47.16803" lon="-1.62621">
        <ele>72</ele>
        <time>2022-04-10T13:48:00Z</time>
      </trkpt>
      <trkpt lat="47.168" lon="-1.62637">
        <ele>71</ele>
        <time>2022-04-10T13:48:04Z</time>
      </trkpt>
      <trkpt lat="47.16792" lon="-1.6265">
        <ele>71</ele>
        <time>2022-04-10T13:48:07Z</time>
      </trkpt>
      <trkpt lat="47.16786" lon="-1.6266">
        <ele>72</ele>
        <time>2022-04-10T13:48:10Z</time>
      </trkpt>
      <trkpt lat="47.16778" lon="-1.62653">
        <ele>72</ele>
        <time>2022-04-10T13:48:16Z</time>
      </trkpt>
    </trkseg>
  </trk>
</gpx>